<?xml version='1.0' encoding='UTF-8'?><gpx version="1.1" creator="JPX - https://github.com/jenetics/jpx" xmlns="http://www.topografix.com/GPX/1/1"><trk><trkseg><trkpt lat="44.442706744847975" lon="10.823821815496334"><ele>505.00000000000006</ele><time>2026-05-01T07:14:42.999Z</time></trkpt><trkpt lat="44.442726372393906" lon="10.823719384186328"><ele>505.0</ele><time>2026-05-01T07:15:33.999Z</time></trkpt><trkpt lat="44.44270715191033" lon="10.823623241263473"><ele>505.0</ele><time>2026-05-01T07:15:42.999Z</time></trkpt><trkpt lat="44.44259120284469" lon="10.823556408157343"><ele>505.0</ele><time>2026-05-01T07:15:44.999Z</time></trkpt><trkpt lat="44.44252436580118" lon="10.823510105237787"><ele>505.00000000000006</ele><time>2026-05-01T07:15:45.999Z</time></trkpt><trkpt lat="44.44246688483224" lon="10.823428548982378"><ele>505.0</ele><time>2026-05-01T07:15:46.999Z</time></trkpt><trkpt lat="44.442395733921934" lon="10.823367859005232"><ele>504.83333333333337</ele><time>2026-05-01T07:15:47.998Z</time></trkpt><trkpt lat="44.442322133615804" lon="10.823302247414324"><ele>504.6666666666667</ele><time>2026-05-01T07:15:48.998Z</time></trkpt><trkpt lat="44.44224913829118" lon="10.823236875350403"><ele>504.5</ele><time>2026-05-01T07:15:49.998Z</time></trkpt><trkpt lat="44.44217168262284" lon="10.823168035356064"><ele>504.33333333333337</ele><time>2026-05-01T07:15:51Z</time></trkpt><trkpt lat="44.44209360399103" lon="10.823103870853663"><ele>504.1666666666667</ele><time>2026-05-01T07:15:52Z</time></trkpt><trkpt lat="44.44201267929364" lon="10.823041853642703"><ele>504.0</ele><time>2026-05-01T07:15:53Z</time></trkpt><trkpt lat="44.44192689177492" lon="10.822982051978931"><ele>504.0</ele><time>2026-05-01T07:15:54Z</time></trkpt><trkpt lat="44.44183751369388" lon="10.822933103240192"><ele>504.0</ele><time>2026-05-01T07:15:55Z</time></trkpt><trkpt lat="44.44174527142902" lon="10.82288967392394"><ele>504.0</ele><time>2026-05-01T07:15:56Z</time></trkpt><trkpt lat="44.441651311288624" lon="10.822866745658445"><ele>504.0</ele><time>2026-05-01T07:15:57Z</time></trkpt><trkpt lat="44.44157861564633" lon="10.822828953724228"><ele>504.0</ele><time>2026-05-01T07:15:58Z</time></trkpt><trkpt lat="44.441518899634666" lon="10.82279508746955"><ele>504.0</ele><time>2026-05-01T07:15:59Z</time></trkpt><trkpt lat="44.441409364700114" lon="10.82270515988032"><ele>504.0</ele><time>2026-05-01T07:16:01Z</time></trkpt><trkpt lat="44.44135492749686" lon="10.822652182987452"><ele>504.0</ele><time>2026-05-01T07:16:02Z</time></trkpt><trkpt lat="44.44130022026104" lon="10.822589933431962"><ele>504.0</ele><time>2026-05-01T07:16:03Z</time></trkpt><trkpt lat="44.44119488098902" lon="10.822473174014432"><ele>504.0</ele><time>2026-05-01T07:16:05Z</time></trkpt><trkpt lat="44.44114900266574" lon="10.822405511272969"><ele>504.0</ele><time>2026-05-01T07:16:06Z</time></trkpt><trkpt lat="44.441104454845416" lon="10.822336335759033"><ele>504.0</ele><time>2026-05-01T07:16:07Z</time></trkpt><trkpt lat="44.441058780391806" lon="10.822257184824258"><ele>505.0</ele><time>2026-05-01T07:16:08Z</time></trkpt><trkpt lat="44.44102861848022" lon="10.822160510584382"><ele>506.0</ele><time>2026-05-01T07:16:09Z</time></trkpt><trkpt lat="44.44096086018394" lon="10.822109167649879"><ele>507.0</ele><time>2026-05-01T07:16:10Z</time></trkpt><trkpt lat="44.44089952573514" lon="10.822043018421978"><ele>508.0</ele><time>2026-05-01T07:16:11Z</time></trkpt><trkpt lat="44.440842640954116" lon="10.821982062030635"><ele>509.0</ele><time>2026-05-01T07:16:12Z</time></trkpt><trkpt lat="44.440780036579405" lon="10.821930283744974"><ele>510.0</ele><time>2026-05-01T07:16:13Z</time></trkpt><trkpt lat="44.440711269944146" lon="10.821875787207041"><ele>510.0</ele><time>2026-05-01T07:16:14Z</time></trkpt><trkpt lat="44.44064710638857" lon="10.821806150665099"><ele>510.0</ele><time>2026-05-01T07:16:15Z</time></trkpt><trkpt lat="44.44058254754628" lon="10.821752018149446"><ele>510.0</ele><time>2026-05-01T07:16:16Z</time></trkpt><trkpt lat="44.440485785946194" lon="10.821799705713634"><ele>510.0</ele><time>2026-05-01T07:16:17Z</time></trkpt><trkpt lat="44.440405447932456" lon="10.821819329200107"><ele>510.0</ele><time>2026-05-01T07:16:18Z</time></trkpt><trkpt lat="44.44032814800403" lon="10.82184667068362"><ele>510.0</ele><time>2026-05-01T07:16:19Z</time></trkpt><trkpt lat="44.44025589133265" lon="10.821887251122362"><ele>510.0</ele><time>2026-05-01T07:16:20Z</time></trkpt><trkpt lat="44.44017300208651" lon="10.821924539598532"><ele>510.0</ele><time>2026-05-01T07:16:21Z</time></trkpt><trkpt lat="44.44009223614198" lon="10.821932584402557"><ele>510.0</ele><time>2026-05-01T07:16:22Z</time></trkpt><trkpt lat="44.44000352101263" lon="10.821956785767293"><ele>510.0</ele><time>2026-05-01T07:16:23Z</time></trkpt><trkpt lat="44.4399164876883" lon="10.821949891012746"><ele>510.0</ele><time>2026-05-01T07:16:24Z</time></trkpt><trkpt lat="44.43983029066457" lon="10.821966867786912"><ele>510.0</ele><time>2026-05-01T07:16:25Z</time></trkpt><trkpt lat="44.43974500245814" lon="10.821983665578093"><ele>510.0</ele><time>2026-05-01T07:16:26Z</time></trkpt><trkpt lat="44.439658518524865" lon="10.822005379594795"><ele>510.0</ele><time>2026-05-01T07:16:27Z</time></trkpt><trkpt lat="44.43957014562837" lon="10.822032235268184"><ele>510.0</ele><time>2026-05-01T07:16:28Z</time></trkpt><trkpt lat="44.43948770905208" lon="10.82206061679363"><ele>510.0</ele><time>2026-05-01T07:16:29Z</time></trkpt><trkpt lat="44.439403268461284" lon="10.822092104547734"><ele>510.0</ele><time>2026-05-01T07:16:30Z</time></trkpt><trkpt lat="44.43932388072306" lon="10.82212257059448"><ele>510.0</ele><time>2026-05-01T07:16:31Z</time></trkpt><trkpt lat="44.43925606509228" lon="10.822130818543792"><ele>511.4</ele><time>2026-05-01T07:16:32Z</time></trkpt><trkpt lat="44.4391836459699" lon="10.821971316223056"><ele>512.8</ele><time>2026-05-01T07:16:34Z</time></trkpt><trkpt lat="44.43916441795949" lon="10.821840736319325"><ele>514.2</ele><time>2026-05-01T07:16:35Z</time></trkpt><trkpt lat="44.43914016412095" lon="10.821711351409943"><ele>515.6</ele><time>2026-05-01T07:16:36Z</time></trkpt><trkpt lat="44.43912994640663" lon="10.821568608061416"><ele>517.0</ele><time>2026-05-01T07:16:37Z</time></trkpt><trkpt lat="44.43911331508252" lon="10.821435081339748"><ele>517.8000000000001</ele><time>2026-05-01T07:16:38Z</time></trkpt><trkpt lat="44.43907877918637" lon="10.821304096877487"><ele>518.6</ele><time>2026-05-01T07:16:39Z</time></trkpt><trkpt lat="44.43904062151687" lon="10.821191410501266"><ele>519.4000000000001</ele><time>2026-05-01T07:16:40Z</time></trkpt><trkpt lat="44.43895597065395" lon="10.821135251121822"><ele>520.2</ele><time>2026-05-01T07:16:41Z</time></trkpt><trkpt lat="44.43886705554151" lon="10.821095407685286"><ele>521.0</ele><time>2026-05-01T07:16:41.999Z</time></trkpt><trkpt lat="44.43877154798269" lon="10.821102383990661"><ele>522.6</ele><time>2026-05-01T07:16:42.999Z</time></trkpt><trkpt lat="44.438675768048896" lon="10.821141115042025"><ele>524.2</ele><time>2026-05-01T07:16:43.999Z</time></trkpt><trkpt lat="44.43857570191846" lon="10.821168932517285"><ele>525.8</ele><time>2026-05-01T07:16:44.999Z</time></trkpt><trkpt lat="44.438475552793335" lon="10.821200401166733"><ele>527.4</ele><time>2026-05-01T07:16:45.999Z</time></trkpt><trkpt lat="44.43836885199559" lon="10.821242122476038"><ele>529.0</ele><time>2026-05-01T07:16:46.999Z</time></trkpt><trkpt lat="44.4382653954315" lon="10.821289856287391"><ele>529.0</ele><time>2026-05-01T07:16:47.999Z</time></trkpt><trkpt lat="44.43815650802567" lon="10.821365616492308"><ele>529.0</ele><time>2026-05-01T07:16:48.999Z</time></trkpt><trkpt lat="44.4380605516843" lon="10.821450168151262"><ele>529.0</ele><time>2026-05-01T07:16:49.999Z</time></trkpt><trkpt lat="44.43797008368234" lon="10.821553769557296"><ele>529.0</ele><time>2026-05-01T07:16:50.999Z</time></trkpt><trkpt lat="44.43785656153062" lon="10.821566475687247"><ele>530.8</ele><time>2026-05-01T07:16:51.999Z</time></trkpt><trkpt lat="44.43774526523338" lon="10.821575813753764"><ele>532.5999999999999</ele><time>2026-05-01T07:16:52.999Z</time></trkpt><trkpt lat="44.43765426794692" lon="10.82160477843966"><ele>534.4</ele><time>2026-05-01T07:16:53.999Z</time></trkpt><trkpt lat="44.437574619090974" lon="10.821489771323062"><ele>536.1999999999999</ele><time>2026-05-01T07:16:54.999Z</time></trkpt><trkpt lat="44.437489583078" lon="10.821374268200676"><ele>538.0</ele><time>2026-05-01T07:16:55.999Z</time></trkpt><trkpt lat="44.43739899206307" lon="10.82124858359675"><ele>538.0</ele><time>2026-05-01T07:16:56.999Z</time></trkpt><trkpt lat="44.437293796102196" lon="10.821141665874464"><ele>538.0</ele><time>2026-05-01T07:16:57.999Z</time></trkpt><trkpt lat="44.43720904075669" lon="10.821044724335717"><ele>538.0</ele><time>2026-05-01T07:16:58.999Z</time></trkpt><trkpt lat="44.4371227826713" lon="10.820991245039666"><ele>538.0</ele><time>2026-05-01T07:16:59.999Z</time></trkpt><trkpt lat="44.43702589542144" lon="10.82097399643223"><ele>538.0</ele><time>2026-05-01T07:17:00.999Z</time></trkpt><trkpt lat="44.436917922431036" lon="10.82099254218039"><ele>541.0</ele><time>2026-05-01T07:17:01.999Z</time></trkpt><trkpt lat="44.43680418269364" lon="10.820997572177625"><ele>544.0</ele><time>2026-05-01T07:17:02.999Z</time></trkpt><trkpt lat="44.436691167536225" lon="10.821025005313674"><ele>547.0</ele><time>2026-05-01T07:17:03.999Z</time></trkpt><trkpt lat="44.43657608026415" lon="10.821042039412546"><ele>550.0</ele><time>2026-05-01T07:17:04.999Z</time></trkpt><trkpt lat="44.436459696705235" lon="10.821037933983515"><ele>550.0</ele><time>2026-05-01T07:17:05.999Z</time></trkpt><trkpt lat="44.43634899544642" lon="10.820991443918784"><ele>550.0</ele><time>2026-05-01T07:17:06.999Z</time></trkpt><trkpt lat="44.43623483687139" lon="10.820930948408433"><ele>550.0</ele><time>2026-05-01T07:17:07.999Z</time></trkpt><trkpt lat="44.436123400617674" lon="10.820861235489362"><ele>550.0</ele><time>2026-05-01T07:17:08.999Z</time></trkpt><trkpt lat="44.436017167952606" lon="10.820776282112911"><ele>551.0</ele><time>2026-05-01T07:17:09.999Z</time></trkpt><trkpt lat="44.43591045131391" lon="10.820690384357441"><ele>552.0</ele><time>2026-05-01T07:17:10.999Z</time></trkpt><trkpt lat="44.43579822341025" lon="10.820628197669958"><ele>553.0</ele><time>2026-05-01T07:17:11.999Z</time></trkpt><trkpt lat="44.43568732533264" lon="10.820562235883713"><ele>554.0</ele><time>2026-05-01T07:17:12.999Z</time></trkpt><trkpt lat="44.43557372997257" lon="10.820503317299707"><ele>563.0</ele><time>2026-05-01T07:17:13.999Z</time></trkpt><trkpt lat="44.435455428253945" lon="10.82045123125893"><ele>572.0</ele><time>2026-05-01T07:17:14.999Z</time></trkpt><trkpt lat="44.435340035652914" lon="10.820411060188027"><ele>581.0</ele><time>2026-05-01T07:17:15.999Z</time></trkpt><trkpt lat="44.43523755565119" lon="10.820313952204545"><ele>590.0</ele><time>2026-05-01T07:17:16.999Z</time></trkpt><trkpt lat="44.435148624232596" lon="10.82020318658022"><ele>584.5</ele><time>2026-05-01T07:17:17.999Z</time></trkpt><trkpt lat="44.43506484735" lon="10.820078805172239"><ele>579.0</ele><time>2026-05-01T07:17:18.999Z</time></trkpt><trkpt lat="44.434976620019405" lon="10.8199337770929"><ele>573.5</ele><time>2026-05-01T07:17:19.999Z</time></trkpt><trkpt lat="44.434895418541934" lon="10.819772507144174"><ele>568.0</ele><time>2026-05-01T07:17:20.999Z</time></trkpt><trkpt lat="44.4348540485546" lon="10.819594372726158"><ele>568.0</ele><time>2026-05-01T07:17:21.999Z</time></trkpt><trkpt lat="44.43482083743131" lon="10.819417500811044"><ele>568.0</ele><time>2026-05-01T07:17:22.999Z</time></trkpt><trkpt lat="44.43478415166319" lon="10.819251557434283"><ele>568.0</ele><time>2026-05-01T07:17:23.999Z</time></trkpt><trkpt lat="44.43473477055172" lon="10.819118182639842"><ele>568.0</ele><time>2026-05-01T07:17:24.999Z</time></trkpt><trkpt lat="44.434666666383244" lon="10.819009975963848"><ele>571.5</ele><time>2026-05-01T07:17:25.999Z</time></trkpt><trkpt lat="44.43457520449804" lon="10.818919470185277"><ele>575.0</ele><time>2026-05-01T07:17:26.999Z</time></trkpt><trkpt lat="44.43448104222029" lon="10.818829685462552"><ele>578.5</ele><time>2026-05-01T07:17:27.999Z</time></trkpt><trkpt lat="44.434379186472306" lon="10.818749139048169"><ele>582.0</ele><time>2026-05-01T07:17:28.999Z</time></trkpt><trkpt lat="44.434266541722835" lon="10.818694263073798"><ele>582.0</ele><time>2026-05-01T07:17:29.999Z</time></trkpt><trkpt lat="44.43416873815573" lon="10.818606709136038"><ele>582.0</ele><time>2026-05-01T07:17:30.999Z</time></trkpt><trkpt lat="44.434067466200474" lon="10.81852119495023"><ele>582.0</ele><time>2026-05-01T07:17:31.999Z</time></trkpt><trkpt lat="44.4339798499769" lon="10.818415273895292"><ele>582.0</ele><time>2026-05-01T07:17:32.999Z</time></trkpt><trkpt lat="44.43390947904312" lon="10.81828462784891"><ele>583.5</ele><time>2026-05-01T07:17:33.999Z</time></trkpt><trkpt lat="44.43385033584803" lon="10.81813450393063"><ele>585.0</ele><time>2026-05-01T07:17:34.999Z</time></trkpt><trkpt lat="44.43383711829362" lon="10.817955154052155"><ele>586.5</ele><time>2026-05-01T07:17:35.999Z</time></trkpt><trkpt lat="44.43379044865788" lon="10.817781643120385"><ele>588.0</ele><time>2026-05-01T07:17:36.999Z</time></trkpt><trkpt lat="44.43372205506608" lon="10.81763042263624"><ele>588.0</ele><time>2026-05-01T07:17:37.999Z</time></trkpt><trkpt lat="44.43366543004129" lon="10.81746401038015"><ele>588.0</ele><time>2026-05-01T07:17:38.999Z</time></trkpt><trkpt lat="44.43359966311518" lon="10.817307088860444"><ele>588.0</ele><time>2026-05-01T07:17:39.999Z</time></trkpt><trkpt lat="44.43353415617329" lon="10.817135178984945"><ele>588.0</ele><time>2026-05-01T07:17:40.999Z</time></trkpt><trkpt lat="44.43347543818566" lon="10.816960545288667"><ele>586.75</ele><time>2026-05-01T07:17:41.999Z</time></trkpt><trkpt lat="44.43343318264677" lon="10.816780506177224"><ele>585.5</ele><time>2026-05-01T07:17:42.999Z</time></trkpt><trkpt lat="44.43340785544241" lon="10.816592121644806"><ele>584.25</ele><time>2026-05-01T07:17:43.999Z</time></trkpt><trkpt lat="44.433364857577985" lon="10.816411947741548"><ele>583.0</ele><time>2026-05-01T07:17:44.999Z</time></trkpt><trkpt lat="44.43333899078031" lon="10.816236149803906"><ele>583.0</ele><time>2026-05-01T07:17:45.999Z</time></trkpt><trkpt lat="44.433328062288744" lon="10.81606185909111"><ele>583.0</ele><time>2026-05-01T07:17:46.999Z</time></trkpt><trkpt lat="44.433365871874834" lon="10.815902790171325"><ele>583.0</ele><time>2026-05-01T07:17:47.999Z</time></trkpt><trkpt lat="44.43338517830868" lon="10.815728600849448"><ele>583.0</ele><time>2026-05-01T07:17:48.999Z</time></trkpt><trkpt lat="44.43343133843383" lon="10.815570192849798"><ele>583.0</ele><time>2026-05-01T07:17:49.999Z</time></trkpt><trkpt lat="44.43347265206713" lon="10.815407805453525"><ele>583.0</ele><time>2026-05-01T07:17:50.999Z</time></trkpt><trkpt lat="44.43349916080837" lon="10.81524048070763"><ele>583.0</ele><time>2026-05-01T07:17:51.999Z</time></trkpt><trkpt lat="44.433504552352346" lon="10.81506766455639"><ele>583.0</ele><time>2026-05-01T07:17:52.998Z</time></trkpt><trkpt lat="44.43349039347731" lon="10.814897352193528"><ele>583.0</ele><time>2026-05-01T07:17:53.998Z</time></trkpt><trkpt lat="44.43345852484757" lon="10.814763402314874"><ele>583.0</ele><time>2026-05-01T07:17:54.998Z</time></trkpt><trkpt lat="44.43341938958231" lon="10.81465403683506"><ele>583.0</ele><time>2026-05-01T07:17:55.998Z</time></trkpt><trkpt lat="44.43335161099927" lon="10.8145666864468"><ele>583.0</ele><time>2026-05-01T07:17:57Z</time></trkpt><trkpt lat="44.433266201767125" lon="10.81452007194301"><ele>583.0</ele><time>2026-05-01T07:17:58Z</time></trkpt><trkpt lat="44.43316589220928" lon="10.81450671811146"><ele>583.0</ele><time>2026-05-01T07:17:59Z</time></trkpt><trkpt lat="44.43305835444448" lon="10.814517236316375"><ele>583.0</ele><time>2026-05-01T07:18:00Z</time></trkpt><trkpt lat="44.432952404693786" lon="10.814499385680534"><ele>583.0</ele><time>2026-05-01T07:18:01Z</time></trkpt><trkpt lat="44.432847378521835" lon="10.814495490077805"><ele>583.0</ele><time>2026-05-01T07:18:02Z</time></trkpt><trkpt lat="44.4327387829571" lon="10.814490339091872"><ele>583.0</ele><time>2026-05-01T07:18:03Z</time></trkpt><trkpt lat="44.43263214490501" lon="10.814479788302844"><ele>583.0</ele><time>2026-05-01T07:18:04Z</time></trkpt><trkpt lat="44.43252407495166" lon="10.814458577716733"><ele>583.0</ele><time>2026-05-01T07:18:05Z</time></trkpt><trkpt lat="44.43242012707688" lon="10.814398785207063"><ele>583.0</ele><time>2026-05-01T07:18:06Z</time></trkpt><trkpt lat="44.43230785320772" lon="10.814332857468253"><ele>583.0</ele><time>2026-05-01T07:18:07Z</time></trkpt><trkpt lat="44.43219000761209" lon="10.814263131097103"><ele>588.75</ele><time>2026-05-01T07:18:08Z</time></trkpt><trkpt lat="44.43206681641079" lon="10.814193695878922"><ele>594.5</ele><time>2026-05-01T07:18:09Z</time></trkpt><trkpt lat="44.431946209083456" lon="10.814132870899188"><ele>600.25</ele><time>2026-05-01T07:18:10Z</time></trkpt><trkpt lat="44.43182131251349" lon="10.814071927041795"><ele>606.0</ele><time>2026-05-01T07:18:11Z</time></trkpt><trkpt lat="44.431691392076765" lon="10.814022984996967"><ele>606.0</ele><time>2026-05-01T07:18:12Z</time></trkpt><trkpt lat="44.431567455836074" lon="10.813926982412312"><ele>606.0</ele><time>2026-05-01T07:18:13Z</time></trkpt><trkpt lat="44.43145087588819" lon="10.813812787522572"><ele>606.0</ele><time>2026-05-01T07:18:14Z</time></trkpt><trkpt lat="44.43133404575094" lon="10.813712900554034"><ele>606.0</ele><time>2026-05-01T07:18:15Z</time></trkpt><trkpt lat="44.431217702766475" lon="10.813597878270368"><ele>606.25</ele><time>2026-05-01T07:18:16Z</time></trkpt><trkpt lat="44.431119247945055" lon="10.81347139277298"><ele>606.5</ele><time>2026-05-01T07:18:17Z</time></trkpt><trkpt lat="44.43106709476158" lon="10.81332423953989"><ele>606.75</ele><time>2026-05-01T07:18:18Z</time></trkpt><trkpt lat="44.431008137804305" lon="10.813159479523955"><ele>607.0</ele><time>2026-05-01T07:18:19Z</time></trkpt><trkpt lat="44.43094749947349" lon="10.812994846507307"><ele>607.0</ele><time>2026-05-01T07:18:20Z</time></trkpt><trkpt lat="44.43089327764858" lon="10.812815308977042"><ele>607.0</ele><time>2026-05-01T07:18:21Z</time></trkpt><trkpt lat="44.43083966051273" lon="10.812634432334404"><ele>607.0</ele><time>2026-05-01T07:18:22Z</time></trkpt><trkpt lat="44.430788613205365" lon="10.812451768366591"><ele>607.0</ele><time>2026-05-01T07:18:23Z</time></trkpt><trkpt lat="44.430736993872316" lon="10.812266555868733"><ele>605.2</ele><time>2026-05-01T07:18:24Z</time></trkpt><trkpt lat="44.43068176909819" lon="10.812083974127708"><ele>603.4000000000001</ele><time>2026-05-01T07:18:25Z</time></trkpt><trkpt lat="44.430639820673214" lon="10.811928234734463"><ele>601.5999999999999</ele><time>2026-05-01T07:18:26Z</time></trkpt><trkpt lat="44.43060045503913" lon="10.811802371769302"><ele>599.8</ele><time>2026-05-01T07:18:27Z</time></trkpt><trkpt lat="44.430564884669465" lon="10.811703781048807"><ele>598.0</ele><time>2026-05-01T07:18:28Z</time></trkpt><trkpt lat="44.43053518491449" lon="10.811616610338763"><ele>601.6</ele><time>2026-05-01T07:18:29Z</time></trkpt><trkpt lat="44.43046164449719" lon="10.81153668990964"><ele>605.1999999999999</ele><time>2026-05-01T07:18:31Z</time></trkpt><trkpt lat="44.43037820897056" lon="10.811671883647039"><ele>608.8</ele><time>2026-05-01T07:18:33Z</time></trkpt><trkpt lat="44.43036197131072" lon="10.811784570809767"><ele>612.4</ele><time>2026-05-01T07:18:34Z</time></trkpt><trkpt lat="44.430334733021965" lon="10.811903696546953"><ele>616.0</ele><time>2026-05-01T07:18:35Z</time></trkpt><trkpt lat="44.430314708684065" lon="10.812039309070034"><ele>616.6</ele><time>2026-05-01T07:18:36Z</time></trkpt><trkpt lat="44.4302952833445" lon="10.812184716760019"><ele>617.2</ele><time>2026-05-01T07:18:36.999Z</time></trkpt><trkpt lat="44.43027349028224" lon="10.812338143618248"><ele>617.8</ele><time>2026-05-01T07:18:37.999Z</time></trkpt><trkpt lat="44.43024833005831" lon="10.812491700208618"><ele>618.4</ele><time>2026-05-01T07:18:38.999Z</time></trkpt><trkpt lat="44.430223435525235" lon="10.812642382976101"><ele>619.0</ele><time>2026-05-01T07:18:39.999Z</time></trkpt><trkpt lat="44.43021285256826" lon="10.812798746372204"><ele>620.8</ele><time>2026-05-01T07:18:40.999Z</time></trkpt><trkpt lat="44.43018107164936" lon="10.812942210415052"><ele>622.5999999999999</ele><time>2026-05-01T07:18:41.999Z</time></trkpt><trkpt lat="44.43015157824552" lon="10.81307938048207"><ele>624.4</ele><time>2026-05-01T07:18:42.999Z</time></trkpt><trkpt lat="44.43010399506885" lon="10.81316864551939"><ele>626.1999999999999</ele><time>2026-05-01T07:18:43.999Z</time></trkpt><trkpt lat="44.430027638665734" lon="10.813203251894636"><ele>628.0</ele><time>2026-05-01T07:18:44.999Z</time></trkpt><trkpt lat="44.429949429868" lon="10.813161928737903"><ele>628.0</ele><time>2026-05-01T07:18:45.999Z</time></trkpt><trkpt lat="44.429871669031854" lon="10.813119625446618"><ele>628.0</ele><time>2026-05-01T07:18:46.999Z</time></trkpt><trkpt lat="44.429801652535055" lon="10.813039913206554"><ele>628.0</ele><time>2026-05-01T07:18:47.999Z</time></trkpt><trkpt lat="44.4297164842758" lon="10.812964125753195"><ele>628.0</ele><time>2026-05-01T07:18:48.999Z</time></trkpt><trkpt lat="44.42963753850852" lon="10.812865601173764"><ele>628.0</ele><time>2026-05-01T07:18:49.999Z</time></trkpt><trkpt lat="44.4295599763855" lon="10.81275879467445"><ele>629.4</ele><time>2026-05-01T07:18:50.999Z</time></trkpt><trkpt lat="44.42948410513391" lon="10.812648028283771"><ele>630.8</ele><time>2026-05-01T07:18:51.999Z</time></trkpt><trkpt lat="44.42943921720803" lon="10.81251125313692"><ele>632.2</ele><time>2026-05-01T07:18:52.999Z</time></trkpt><trkpt lat="44.42940442445372" lon="10.812383802160001"><ele>633.6</ele><time>2026-05-01T07:18:53.999Z</time></trkpt><trkpt lat="44.42940265852189" lon="10.812232866728927"><ele>635.0</ele><time>2026-05-01T07:18:54.999Z</time></trkpt><trkpt lat="44.4294089869836" lon="10.812077073452516"><ele>635.0</ele><time>2026-05-01T07:18:55.999Z</time></trkpt><trkpt lat="44.42941574459979" lon="10.811916266551924"><ele>635.0</ele><time>2026-05-01T07:18:56.999Z</time></trkpt><trkpt lat="44.42941170704678" lon="10.811755255182788"><ele>635.0</ele><time>2026-05-01T07:18:57.999Z</time></trkpt><trkpt lat="44.42941247425425" lon="10.811615640681163"><ele>635.0</ele><time>2026-05-01T07:18:58.999Z</time></trkpt><trkpt lat="44.429377262042514" lon="10.81150821359405"><ele>635.0</ele><time>2026-05-01T07:18:59.999Z</time></trkpt><trkpt lat="44.42931263344248" lon="10.811410797917807"><ele>635.6</ele><time>2026-05-01T07:19:00.999Z</time></trkpt><trkpt lat="44.42923795976262" lon="10.81132680310945"><ele>636.2</ele><time>2026-05-01T07:19:01.999Z</time></trkpt><trkpt lat="44.429143327946115" lon="10.811263784042874"><ele>636.8</ele><time>2026-05-01T07:19:02.999Z</time></trkpt><trkpt lat="44.42903545219343" lon="10.81121930678189"><ele>637.4</ele><time>2026-05-01T07:19:03.999Z</time></trkpt><trkpt lat="44.42891871414922" lon="10.811181893784266"><ele>638.0</ele><time>2026-05-01T07:19:04.999Z</time></trkpt><trkpt lat="44.428795177746025" lon="10.81116776551036"><ele>639.75</ele><time>2026-05-01T07:19:05.999Z</time></trkpt><trkpt lat="44.428666835462174" lon="10.81117694105962"><ele>641.5</ele><time>2026-05-01T07:19:06.999Z</time></trkpt><trkpt lat="44.4285358302065" lon="10.81117644388092"><ele>643.25</ele><time>2026-05-01T07:19:07.999Z</time></trkpt><trkpt lat="44.42840360474496" lon="10.811191883283776"><ele>645.0</ele><time>2026-05-01T07:19:08.999Z</time></trkpt><trkpt lat="44.428272574821946" lon="10.811179310344398"><ele>645.0</ele><time>2026-05-01T07:19:09.999Z</time></trkpt><trkpt lat="44.42813960163571" lon="10.811129689943664"><ele>645.0</ele><time>2026-05-01T07:19:10.999Z</time></trkpt><trkpt lat="44.428003763667675" lon="10.811069992790259"><ele>645.0</ele><time>2026-05-01T07:19:11.999Z</time></trkpt><trkpt lat="44.427873680726684" lon="10.810975810607493"><ele>645.0</ele><time>2026-05-01T07:19:12.999Z</time></trkpt><trkpt lat="44.427747418304044" lon="10.810862078020351"><ele>645.6666666666666</ele><time>2026-05-01T07:19:13.999Z</time></trkpt><trkpt lat="44.42762238160098" lon="10.810734362547587"><ele>646.3333333333333</ele><time>2026-05-01T07:19:14.999Z</time></trkpt><trkpt lat="44.42749736150427" lon="10.810590535709657"><ele>647.0</ele><time>2026-05-01T07:19:15.999Z</time></trkpt><trkpt lat="44.427361906459325" lon="10.81043341320093"><ele>647.0</ele><time>2026-05-01T07:19:16.999Z</time></trkpt><trkpt lat="44.42723401497671" lon="10.810284702153407"><ele>647.0</ele><time>2026-05-01T07:19:17.999Z</time></trkpt><trkpt lat="44.42710804610229" lon="10.810138226751151"><ele>647.0</ele><time>2026-05-01T07:19:18.999Z</time></trkpt><trkpt lat="44.42697820896113" lon="10.809987991299623"><ele>646.6666666666666</ele><time>2026-05-01T07:19:19.999Z</time></trkpt><trkpt lat="44.42685050377908" lon="10.809841108882749"><ele>646.3333333333334</ele><time>2026-05-01T07:19:20.999Z</time></trkpt><trkpt lat="44.426719921717044" lon="10.809692363168965"><ele>646.0</ele><time>2026-05-01T07:19:21.999Z</time></trkpt><trkpt lat="44.42658954200623" lon="10.809543847890417"><ele>646.0</ele><time>2026-05-01T07:19:22.999Z</time></trkpt><trkpt lat="44.426459944474836" lon="10.80939622365198"><ele>646.0</ele><time>2026-05-01T07:19:23.999Z</time></trkpt><trkpt lat="44.4263316400809" lon="10.809250072413166"><ele>646.0</ele><time>2026-05-01T07:19:24.999Z</time></trkpt><trkpt lat="44.426194562612515" lon="10.80911949983572"><ele>647.3333333333334</ele><time>2026-05-01T07:19:25.999Z</time></trkpt><trkpt lat="44.426072298178426" lon="10.808971625959732"><ele>648.6666666666666</ele><time>2026-05-01T07:19:26.999Z</time></trkpt><trkpt lat="44.42594890555358" lon="10.808824599108137"><ele>650.0</ele><time>2026-05-01T07:19:27.999Z</time></trkpt><trkpt lat="44.425832151552086" lon="10.808678272737989"><ele>650.0</ele><time>2026-05-01T07:19:28.999Z</time></trkpt><trkpt lat="44.425717765059744" lon="10.808548560323901"><ele>650.0</ele><time>2026-05-01T07:19:29.999Z</time></trkpt><trkpt lat="44.42560713308766" lon="10.808422497917713"><ele>650.0</ele><time>2026-05-01T07:19:30.999Z</time></trkpt><trkpt lat="44.42550042843121" lon="10.808299215781677"><ele>650.0</ele><time>2026-05-01T07:19:31.999Z</time></trkpt><trkpt lat="44.425395648781354" lon="10.808178157772016"><ele>652.5</ele><time>2026-05-01T07:19:32.999Z</time></trkpt><trkpt lat="44.42529045261088" lon="10.80805661838663"><ele>655.0</ele><time>2026-05-01T07:19:33.999Z</time></trkpt><trkpt lat="44.42518784516383" lon="10.807939662089197"><ele>657.5</ele><time>2026-05-01T07:19:34.999Z</time></trkpt><trkpt lat="44.42508342786084" lon="10.807820941833784"><ele>660.0</ele><time>2026-05-01T07:19:35.999Z</time></trkpt><trkpt lat="44.4249786429247" lon="10.807701803598038"><ele>660.25</ele><time>2026-05-01T07:19:36.999Z</time></trkpt><trkpt lat="44.42487764948365" lon="10.80758499230945"><ele>660.5</ele><time>2026-05-01T07:19:37.999Z</time></trkpt><trkpt lat="44.424778087313584" lon="10.807466119749904"><ele>660.75</ele><time>2026-05-01T07:19:38.999Z</time></trkpt><trkpt lat="44.42467583535131" lon="10.807348971627045"><ele>661.0</ele><time>2026-05-01T07:19:39.999Z</time></trkpt><trkpt lat="44.42457455913507" lon="10.807236211369863"><ele>662.75</ele><time>2026-05-01T07:19:40.999Z</time></trkpt><trkpt lat="44.424472578938605" lon="10.807122667039664"><ele>664.5</ele><time>2026-05-01T07:19:41.999Z</time></trkpt><trkpt lat="44.42437165005013" lon="10.806997699638192"><ele>666.25</ele><time>2026-05-01T07:19:42.999Z</time></trkpt><trkpt lat="44.42427063212199" lon="10.806871197968377"><ele>668.0</ele><time>2026-05-01T07:19:43.999Z</time></trkpt><trkpt lat="44.42417168162137" lon="10.806735642766702"><ele>668.0</ele><time>2026-05-01T07:19:44.999Z</time></trkpt><trkpt lat="44.424081147038684" lon="10.806586199150937"><ele>668.0</ele><time>2026-05-01T07:19:45.999Z</time></trkpt><trkpt lat="44.424008219473734" lon="10.806417949185331"><ele>668.0</ele><time>2026-05-01T07:19:46.999Z</time></trkpt><trkpt lat="44.42395643630798" lon="10.806229168176044"><ele>668.0</ele><time>2026-05-01T07:19:47.999Z</time></trkpt><trkpt lat="44.423909659387455" lon="10.806029964506433"><ele>668.5</ele><time>2026-05-01T07:19:48.999Z</time></trkpt><trkpt lat="44.42386701838585" lon="10.805824490671968"><ele>669.0</ele><time>2026-05-01T07:19:49.999Z</time></trkpt><trkpt lat="44.42381236334269" lon="10.805653357321836"><ele>669.5</ele><time>2026-05-01T07:19:50.999Z</time></trkpt><trkpt lat="44.42377433496296" lon="10.80551630073862"><ele>670.0</ele><time>2026-05-01T07:19:51.999Z</time></trkpt><trkpt lat="44.42372784293463" lon="10.805412013420172"><ele>673.0</ele><time>2026-05-01T07:19:52.999Z</time></trkpt><trkpt lat="44.42368103899133" lon="10.805326862365098"><ele>676.0</ele><time>2026-05-01T07:19:53.999Z</time></trkpt><trkpt lat="44.42360398840658" lon="10.80527929622227"><ele>679.0</ele><time>2026-05-01T07:19:54.998Z</time></trkpt><trkpt lat="44.423501665799755" lon="10.805304900857093"><ele>682.0</ele><time>2026-05-01T07:19:55.998Z</time></trkpt><trkpt lat="44.4234162609078" lon="10.80536424303196"><ele>685.0</ele><time>2026-05-01T07:19:56.998Z</time></trkpt><trkpt lat="44.423399752006084" lon="10.805603247208957"><ele>685.0</ele><time>2026-05-01T07:19:57.998Z</time></trkpt><trkpt lat="44.423383023861305" lon="10.805766704125404"><ele>685.0</ele><time>2026-05-01T07:19:58.998Z</time></trkpt><trkpt lat="44.42333313699049" lon="10.805923368277034"><ele>685.0</ele><time>2026-05-01T07:19:59.998Z</time></trkpt><trkpt lat="44.42329164025938" lon="10.806047726452332"><ele>685.0</ele><time>2026-05-01T07:20:00.998Z</time></trkpt><trkpt lat="44.423238140638645" lon="10.806114126197313"><ele>685.0</ele><time>2026-05-01T07:20:01.998Z</time></trkpt><trkpt lat="44.42317525270917" lon="10.806145156002874"><ele>685.0</ele><time>2026-05-01T07:20:03Z</time></trkpt><trkpt lat="44.423102752785724" lon="10.806105074204092"><ele>685.0</ele><time>2026-05-01T07:20:04Z</time></trkpt><trkpt lat="44.42304018148395" lon="10.805974571897497"><ele>685.0</ele><time>2026-05-01T07:20:06Z</time></trkpt><trkpt lat="44.42296034785921" lon="10.8060693332002"><ele>685.0</ele><time>2026-05-01T07:20:08Z</time></trkpt><trkpt lat="44.42291281121789" lon="10.806129325443676"><ele>685.0</ele><time>2026-05-01T07:20:09Z</time></trkpt><trkpt lat="44.4229740363269" lon="10.80587717075453"><ele>685.0</ele><time>2026-05-01T07:20:10Z</time></trkpt><trkpt lat="44.42299613570117" lon="10.805746738807578"><ele>685.0</ele><time>2026-05-01T07:20:12Z</time></trkpt><trkpt lat="44.42297683278678" lon="10.80566242180553"><ele>685.0</ele><time>2026-05-01T07:20:13Z</time></trkpt><trkpt lat="44.422958836160745" lon="10.805577407958266"><ele>685.0</ele><time>2026-05-01T07:20:15Z</time></trkpt><trkpt lat="44.42293866341184" lon="10.805439915364156"><ele>685.0</ele><time>2026-05-01T07:20:17Z</time></trkpt><trkpt lat="44.4229288300338" lon="10.805332293807211"><ele>685.0</ele><time>2026-05-01T07:20:18Z</time></trkpt><trkpt lat="44.42235013548524" lon="10.805402832720906"><ele>688.3333333333334</ele><time>2026-05-01T07:20:20Z</time></trkpt><trkpt lat="44.42230486425115" lon="10.80547626659164"><ele>691.6666666666667</ele><time>2026-05-01T07:20:21Z</time></trkpt><trkpt lat="44.42224928925226" lon="10.805542656728313"><ele>695.0</ele><time>2026-05-01T07:20:22Z</time></trkpt><trkpt lat="44.422207228480815" lon="10.805616455200976"><ele>698.3333333333334</ele><time>2026-05-01T07:20:23Z</time></trkpt><trkpt lat="44.422176549561115" lon="10.805706390806993"><ele>701.6666666666666</ele><time>2026-05-01T07:20:24Z</time></trkpt><trkpt lat="44.42205540194012" lon="10.805746154437188"><ele>705.0</ele><time>2026-05-01T07:20:26Z</time></trkpt><trkpt lat="44.42196584410003" lon="10.805650601622391"><ele>710.6</ele><time>2026-05-01T07:20:28Z</time></trkpt><trkpt lat="44.42193967920909" lon="10.805545062674378"><ele>716.2</ele><time>2026-05-01T07:20:29Z</time></trkpt><trkpt lat="44.421875661956086" lon="10.805423745681603"><ele>721.8</ele><time>2026-05-01T07:20:31Z</time></trkpt><trkpt lat="44.4217579413656" lon="10.8054309060251"><ele>727.4</ele><time>2026-05-01T07:20:33Z</time></trkpt><trkpt lat="44.4216933329375" lon="10.805394661194592"><ele>733.0</ele><time>2026-05-01T07:20:37.999Z</time></trkpt><trkpt lat="44.42161594781379" lon="10.805366296232224"><ele>733.0</ele><time>2026-05-01T07:20:39.999Z</time></trkpt><trkpt lat="44.421591487196345" lon="10.805254390174815"><ele>733.0</ele><time>2026-05-01T07:20:47.999Z</time></trkpt><trkpt lat="44.421553701491405" lon="10.805140162709225"><ele>733.0</ele><time>2026-05-01T07:20:49.999Z</time></trkpt><trkpt lat="44.421537831550054" lon="10.805026031186395"><ele>733.0</ele><time>2026-05-01T07:20:51.999Z</time></trkpt><trkpt lat="44.421476450303494" lon="10.804957084866025"><ele>733.0</ele><time>2026-05-01T07:20:53.999Z</time></trkpt><trkpt lat="44.42143261744882" lon="10.804889696971406"><ele>733.0</ele><time>2026-05-01T07:20:55.999Z</time></trkpt><trkpt lat="44.42141176691435" lon="10.80479716064432"><ele>732.5</ele><time>2026-05-01T07:20:58.999Z</time></trkpt><trkpt lat="44.42137306543312" lon="10.804722336611206"><ele>732.0</ele><time>2026-05-01T07:21:02.999Z</time></trkpt><trkpt lat="44.42130536115198" lon="10.80457671555208"><ele>731.5</ele><time>2026-05-01T07:21:04.999Z</time></trkpt><trkpt lat="44.42120856618415" lon="10.8044814553984"><ele>731.0</ele><time>2026-05-01T07:21:06.999Z</time></trkpt><trkpt lat="44.42117824309572" lon="10.804397084246053"><ele>730.5</ele><time>2026-05-01T07:21:07.999Z</time></trkpt><trkpt lat="44.42118691057323" lon="10.804301935960215"><ele>730.0</ele><time>2026-05-01T07:21:08.999Z</time></trkpt><trkpt lat="44.421199635671144" lon="10.804120229584097"><ele>734.0</ele><time>2026-05-01T07:21:10.999Z</time></trkpt><trkpt lat="44.42123988948693" lon="10.803943939112171"><ele>738.0</ele><time>2026-05-01T07:21:12.999Z</time></trkpt><trkpt lat="44.42124487287601" lon="10.80385080693593"><ele>742.0</ele><time>2026-05-01T07:21:13.999Z</time></trkpt><trkpt lat="44.42120721409095" lon="10.803764855216757"><ele>746.0</ele><time>2026-05-01T07:21:14.999Z</time></trkpt><trkpt lat="44.42114540039583" lon="10.803685719617484"><ele>750.0</ele><time>2026-05-01T07:21:15.999Z</time></trkpt><trkpt lat="44.42109379221279" lon="10.80361277058391"><ele>754.0</ele><time>2026-05-01T07:21:16.999Z</time></trkpt><trkpt lat="44.42105394125751" lon="10.803530888576455"><ele>754.1666666666667</ele><time>2026-05-01T07:21:17.999Z</time></trkpt><trkpt lat="44.42100611661444" lon="10.8034318829324"><ele>754.3333333333334</ele><time>2026-05-01T07:21:18.999Z</time></trkpt><trkpt lat="44.42095059885841" lon="10.803372813988789"><ele>754.5</ele><time>2026-05-01T07:21:19.999Z</time></trkpt><trkpt lat="44.420891467938034" lon="10.803311590492868"><ele>754.6666666666666</ele><time>2026-05-01T07:21:20.999Z</time></trkpt><trkpt lat="44.42082281604834" lon="10.803248431929445"><ele>754.8333333333333</ele><time>2026-05-01T07:21:21.999Z</time></trkpt><trkpt lat="44.420746323191615" lon="10.803211425446214"><ele>755.0</ele><time>2026-05-01T07:21:22.999Z</time></trkpt><trkpt lat="44.420702175330284" lon="10.803121292909296"><ele>755.0</ele><time>2026-05-01T07:21:23.999Z</time></trkpt><trkpt lat="44.420673225037866" lon="10.803016249551643"><ele>755.0</ele><time>2026-05-01T07:21:24.999Z</time></trkpt><trkpt lat="44.42067062405773" lon="10.802917918386862"><ele>755.0</ele><time>2026-05-01T07:21:25.999Z</time></trkpt><trkpt lat="44.42067717042171" lon="10.80280255241102"><ele>755.0</ele><time>2026-05-01T07:21:26.999Z</time></trkpt><trkpt lat="44.4206857450993" lon="10.80265399568653"><ele>755.0</ele><time>2026-05-01T07:21:27.999Z</time></trkpt><trkpt lat="44.42068514275437" lon="10.802523814792442"><ele>755.0</ele><time>2026-05-01T07:21:28.999Z</time></trkpt><trkpt lat="44.420653104544805" lon="10.802404858468496"><ele>755.1666666666666</ele><time>2026-05-01T07:21:29.999Z</time></trkpt><trkpt lat="44.42061887376718" lon="10.802303997048565"><ele>755.3333333333333</ele><time>2026-05-01T07:21:30.999Z</time></trkpt><trkpt lat="44.42059590723629" lon="10.802196960470663"><ele>755.5</ele><time>2026-05-01T07:21:31.999Z</time></trkpt><trkpt lat="44.42057974529039" lon="10.80211038768803"><ele>755.6666666666666</ele><time>2026-05-01T07:21:32.999Z</time></trkpt><trkpt lat="44.42057772778452" lon="10.801995277736996"><ele>755.8333333333334</ele><time>2026-05-01T07:21:33.999Z</time></trkpt><trkpt lat="44.42057286499111" lon="10.801874596474704"><ele>756.0</ele><time>2026-05-01T07:21:34.999Z</time></trkpt><trkpt lat="44.42055148960824" lon="10.801752648645433"><ele>756.6666666666666</ele><time>2026-05-01T07:21:35.999Z</time></trkpt><trkpt lat="44.42054081378949" lon="10.801618363083618"><ele>757.3333333333334</ele><time>2026-05-01T07:21:36.999Z</time></trkpt><trkpt lat="44.42050258677053" lon="10.80149196998002"><ele>758.0</ele><time>2026-05-01T07:21:37.999Z</time></trkpt><trkpt lat="44.420478888245704" lon="10.801375747047762"><ele>758.6666666666667</ele><time>2026-05-01T07:21:38.999Z</time></trkpt><trkpt lat="44.420455878283605" lon="10.801259490025933"><ele>759.3333333333334</ele><time>2026-05-01T07:21:39.999Z</time></trkpt><trkpt lat="44.420440763369" lon="10.801148927873049"><ele>760.0</ele><time>2026-05-01T07:21:40.999Z</time></trkpt><trkpt lat="44.420427989167685" lon="10.800994458569614"><ele>765.8</ele><time>2026-05-01T07:21:42.999Z</time></trkpt><trkpt lat="44.42034749009129" lon="10.800873842980565"><ele>771.6</ele><time>2026-05-01T07:21:44.999Z</time></trkpt><trkpt lat="44.42027161593452" lon="10.80082402329098"><ele>777.4000000000001</ele><time>2026-05-01T07:21:45.999Z</time></trkpt><trkpt lat="44.420188148830285" lon="10.800782129514023"><ele>783.2</ele><time>2026-05-01T07:21:46.999Z</time></trkpt><trkpt lat="44.420116223072554" lon="10.800729639739085"><ele>789.0</ele><time>2026-05-01T07:21:47.999Z</time></trkpt><trkpt lat="44.42002495503332" lon="10.800663690859794"><ele>788.9999999999999</ele><time>2026-05-01T07:21:49.999Z</time></trkpt><trkpt lat="44.41998403398244" lon="10.80058400482997"><ele>789.0</ele><time>2026-05-01T07:21:50.999Z</time></trkpt><trkpt lat="44.41996868427709" lon="10.800475739346485"><ele>789.0</ele><time>2026-05-01T07:21:51.999Z</time></trkpt><trkpt lat="44.41996630625926" lon="10.800386540556376"><ele>789.0</ele><time>2026-05-01T07:21:52.999Z</time></trkpt><trkpt lat="44.41997878830978" lon="10.800288718575663"><ele>789.0</ele><time>2026-05-01T07:21:53.999Z</time></trkpt><trkpt lat="44.41994496428146" lon="10.800209910315896"><ele>788.9999999999999</ele><time>2026-05-01T07:21:54.999Z</time></trkpt><trkpt lat="44.41990825650969" lon="10.800131519575995"><ele>789.0</ele><time>2026-05-01T07:21:55.999Z</time></trkpt><trkpt lat="44.41984769083992" lon="10.800047660582756"><ele>789.0</ele><time>2026-05-01T07:21:56.999Z</time></trkpt><trkpt lat="44.41979858460787" lon="10.799946537996837"><ele>789.0</ele><time>2026-05-01T07:21:57.999Z</time></trkpt><trkpt lat="44.41974754644503" lon="10.799888385318022"><ele>789.0</ele><time>2026-05-01T07:21:58.999Z</time></trkpt><trkpt lat="44.419656194392196" lon="10.79997617878199"><ele>789.0</ele><time>2026-05-01T07:22:00.999Z</time></trkpt><trkpt lat="44.419589291274846" lon="10.80006382160108"><ele>789.0</ele><time>2026-05-01T07:22:01.999Z</time></trkpt><trkpt lat="44.419525228675745" lon="10.800116950537703"><ele>789.0</ele><time>2026-05-01T07:22:02.999Z</time></trkpt><trkpt lat="44.41944990891836" lon="10.800085410115358"><ele>792.0</ele><time>2026-05-01T07:22:05.998Z</time></trkpt><trkpt lat="44.41939280097981" lon="10.800034866841894"><ele>795.0</ele><time>2026-05-01T07:22:11.999Z</time></trkpt><trkpt lat="44.41921635741119" lon="10.799962895867147"><ele>798.0</ele><time>2026-05-01T07:22:26Z</time></trkpt><trkpt lat="44.41912555160629" lon="10.799930150188862"><ele>801.0</ele><time>2026-05-01T07:22:27Z</time></trkpt><trkpt lat="44.41904321716276" lon="10.799896135655203"><ele>804.0</ele><time>2026-05-01T07:22:28Z</time></trkpt><trkpt lat="44.418980230693855" lon="10.799877245094583"><ele>802.5</ele><time>2026-05-01T07:22:29Z</time></trkpt><trkpt lat="44.418758526055576" lon="10.799855263268638"><ele>801.0</ele><time>2026-05-01T07:22:31Z</time></trkpt><trkpt lat="44.41869529829671" lon="10.79997288005828"><ele>799.5</ele><time>2026-05-01T07:22:33Z</time></trkpt><trkpt lat="44.41864373517783" lon="10.80003256287978"><ele>798.0</ele><time>2026-05-01T07:22:34Z</time></trkpt><trkpt lat="44.41857857225861" lon="10.800107677254857"><ele>800.2</ele><time>2026-05-01T07:22:35Z</time></trkpt><trkpt lat="44.418506594900805" lon="10.80019559514958"><ele>802.4</ele><time>2026-05-01T07:22:36Z</time></trkpt><trkpt lat="44.41840699347054" lon="10.800258550476622"><ele>804.6</ele><time>2026-05-01T07:22:37Z</time></trkpt><trkpt lat="44.41830476729293" lon="10.800330769712316"><ele>806.8000000000001</ele><time>2026-05-01T07:22:38Z</time></trkpt><trkpt lat="44.41819727544247" lon="10.800407124151247"><ele>809.0</ele><time>2026-05-01T07:22:39Z</time></trkpt><trkpt lat="44.41808245921182" lon="10.800475558677018"><ele>806.75</ele><time>2026-05-01T07:22:40Z</time></trkpt><trkpt lat="44.417966677577084" lon="10.800536698172408"><ele>804.5</ele><time>2026-05-01T07:22:40.999Z</time></trkpt><trkpt lat="44.41785356040339" lon="10.800604513559307"><ele>802.25</ele><time>2026-05-01T07:22:41.999Z</time></trkpt><trkpt lat="44.41775014284468" lon="10.800691605350853"><ele>800.0</ele><time>2026-05-01T07:22:42.999Z</time></trkpt><trkpt lat="44.417678671429684" lon="10.80083017640142"><ele>800.0</ele><time>2026-05-01T07:22:43.999Z</time></trkpt><trkpt lat="44.41764678328913" lon="10.800998853540907"><ele>800.0</ele><time>2026-05-01T07:22:44.999Z</time></trkpt><trkpt lat="44.41762779605542" lon="10.801176901894031"><ele>800.0</ele><time>2026-05-01T07:22:45.999Z</time></trkpt><trkpt lat="44.417626954960454" lon="10.801364852766454"><ele>800.0</ele><time>2026-05-01T07:22:46.999Z</time></trkpt><trkpt lat="44.4176500397185" lon="10.801560699350613"><ele>801.0</ele><time>2026-05-01T07:22:47.999Z</time></trkpt><trkpt lat="44.417677607902384" lon="10.801766778857836"><ele>802.0</ele><time>2026-05-01T07:22:48.999Z</time></trkpt><trkpt lat="44.41770344079423" lon="10.801972232577919"><ele>803.0</ele><time>2026-05-01T07:22:49.999Z</time></trkpt><trkpt lat="44.41772870825705" lon="10.802177304749868"><ele>804.0</ele><time>2026-05-01T07:22:50.999Z</time></trkpt><trkpt lat="44.417759413924315" lon="10.802383259829938"><ele>804.0</ele><time>2026-05-01T07:22:51.999Z</time></trkpt><trkpt lat="44.4177813764721" lon="10.802587103569966"><ele>804.0</ele><time>2026-05-01T07:22:52.999Z</time></trkpt><trkpt lat="44.41778430901611" lon="10.802786262799634"><ele>804.0</ele><time>2026-05-01T07:22:53.999Z</time></trkpt><trkpt lat="44.41781898404973" lon="10.802997309369427"><ele>804.0</ele><time>2026-05-01T07:22:54.999Z</time></trkpt><trkpt lat="44.41785438309187" lon="10.80320914910719"><ele>803.0</ele><time>2026-05-01T07:22:55.999Z</time></trkpt><trkpt lat="44.41789235759297" lon="10.803421695611824"><ele>802.0</ele><time>2026-05-01T07:22:56.999Z</time></trkpt><trkpt lat="44.41793247446999" lon="10.803634646499894"><ele>801.0</ele><time>2026-05-01T07:22:57.999Z</time></trkpt><trkpt lat="44.41796878265109" lon="10.80384528344113"><ele>801.75</ele><time>2026-05-01T07:22:58.999Z</time></trkpt><trkpt lat="44.41799995464365" lon="10.804050641866834"><ele>802.5</ele><time>2026-05-01T07:22:59.999Z</time></trkpt><trkpt lat="44.417996152273226" lon="10.804254922350506"><ele>803.25</ele><time>2026-05-01T07:23:00.999Z</time></trkpt><trkpt lat="44.417984888608075" lon="10.804447769988116"><ele>804.0</ele><time>2026-05-01T07:23:01.999Z</time></trkpt><trkpt lat="44.417960386593414" lon="10.804634634938498"><ele>804.0</ele><time>2026-05-01T07:23:02.999Z</time></trkpt><trkpt lat="44.417924448905445" lon="10.804802649109094"><ele>804.0</ele><time>2026-05-01T07:23:03.999Z</time></trkpt><trkpt lat="44.4178897010513" lon="10.804938321183027"><ele>804.0</ele><time>2026-05-01T07:23:04.999Z</time></trkpt><trkpt lat="44.417890152796204" lon="10.805067353539574"><ele>804.0</ele><time>2026-05-01T07:23:05.999Z</time></trkpt><trkpt lat="44.417854977933246" lon="10.805143294887156"><ele>804.0</ele><time>2026-05-01T07:23:06.999Z</time></trkpt><trkpt lat="44.41776880074821" lon="10.805118019099393"><ele>804.0</ele><time>2026-05-01T07:23:08.999Z</time></trkpt><trkpt lat="44.41767977122574" lon="10.805148533983857"><ele>804.0</ele><time>2026-05-01T07:27:51.999Z</time></trkpt><trkpt lat="44.417691392746356" lon="10.805258012184222"><ele>804.0</ele><time>2026-05-01T07:27:54.999Z</time></trkpt><trkpt lat="44.41775339329847" lon="10.805296894797056"><ele>804.0</ele><time>2026-05-01T07:27:57.999Z</time></trkpt><trkpt lat="44.41786087246078" lon="10.805196008597742"><ele>804.0</ele><time>2026-05-01T07:28:00.999Z</time></trkpt><trkpt lat="44.41789812540488" lon="10.805061404826015"><ele>804.0</ele><time>2026-05-01T07:28:01.999Z</time></trkpt><trkpt lat="44.41793474271231" lon="10.804913335774463"><ele>804.0</ele><time>2026-05-01T07:28:02.999Z</time></trkpt><trkpt lat="44.4179730681222" lon="10.804756869457657"><ele>804.0</ele><time>2026-05-01T07:28:03.999Z</time></trkpt><trkpt lat="44.41799985953454" lon="10.804586689664346"><ele>804.0</ele><time>2026-05-01T07:28:04.999Z</time></trkpt><trkpt lat="44.41801582908016" lon="10.804406770952893"><ele>803.0</ele><time>2026-05-01T07:28:05.999Z</time></trkpt><trkpt lat="44.418020839458116" lon="10.804216074561433"><ele>802.0</ele><time>2026-05-01T07:28:06.999Z</time></trkpt><trkpt lat="44.41801047742631" lon="10.804018071744098"><ele>801.0</ele><time>2026-05-01T07:28:07.999Z</time></trkpt><trkpt lat="44.41798672997839" lon="10.80381794097423"><ele>800.0</ele><time>2026-05-01T07:28:08.999Z</time></trkpt><trkpt lat="44.41796032462407" lon="10.803612861484599"><ele>800.25</ele><time>2026-05-01T07:28:09.999Z</time></trkpt><trkpt lat="44.41792947681775" lon="10.80340942032834"><ele>800.5</ele><time>2026-05-01T07:28:10.999Z</time></trkpt><trkpt lat="44.4178969198452" lon="10.803205480334148"><ele>800.75</ele><time>2026-05-01T07:28:11.999Z</time></trkpt><trkpt lat="44.41786477559353" lon="10.8029992561758"><ele>801.0</ele><time>2026-05-01T07:28:12.999Z</time></trkpt><trkpt lat="44.41784386170771" lon="10.802803293361583"><ele>801.75</ele><time>2026-05-01T07:28:13.999Z</time></trkpt><trkpt lat="44.41779980362475" lon="10.802597746935632"><ele>802.5</ele><time>2026-05-01T07:28:14.999Z</time></trkpt><trkpt lat="44.417774662274596" lon="10.80239186888314"><ele>803.25</ele><time>2026-05-01T07:28:15.999Z</time></trkpt><trkpt lat="44.41775453434016" lon="10.802192459092081"><ele>804.0</ele><time>2026-05-01T07:28:16.999Z</time></trkpt><trkpt lat="44.41773067900511" lon="10.80199204905961"><ele>804.0</ele><time>2026-05-01T07:28:17.999Z</time></trkpt><trkpt lat="44.41770689121709" lon="10.801789673676078"><ele>804.0</ele><time>2026-05-01T07:28:18.999Z</time></trkpt><trkpt lat="44.417687126682544" lon="10.80159248138671"><ele>804.0</ele><time>2026-05-01T07:28:19.999Z</time></trkpt><trkpt lat="44.41766811359897" lon="10.801403959180176"><ele>804.0</ele><time>2026-05-01T07:28:20.999Z</time></trkpt><trkpt lat="44.41766565311668" lon="10.801245275099728"><ele>804.0</ele><time>2026-05-01T07:28:21.999Z</time></trkpt><trkpt lat="44.41766838505768" lon="10.801104692972636"><ele>804.0</ele><time>2026-05-01T07:28:22.999Z</time></trkpt><trkpt lat="44.41767598203004" lon="10.800979277846869"><ele>804.0</ele><time>2026-05-01T07:28:23.999Z</time></trkpt><trkpt lat="44.41768986213518" lon="10.800891412961674"><ele>804.0</ele><time>2026-05-01T07:28:24.999Z</time></trkpt><trkpt lat="44.41773690938961" lon="10.80076962805584"><ele>804.0</ele><time>2026-05-01T07:28:27Z</time></trkpt><trkpt lat="44.417782074076214" lon="10.800700748896013"><ele>804.0</ele><time>2026-05-01T07:28:29Z</time></trkpt><trkpt lat="44.41770016926711" lon="10.8005830020752"><ele>804.0</ele><time>2026-05-01T07:28:32Z</time></trkpt><trkpt lat="44.41761543599348" lon="10.800622170279855"><ele>804.0</ele><time>2026-05-01T07:28:33Z</time></trkpt><trkpt lat="44.417554384520656" lon="10.80074056166429"><ele>804.0</ele><time>2026-05-01T07:28:34Z</time></trkpt><trkpt lat="44.417488647757345" lon="10.800835308569301"><ele>804.0</ele><time>2026-05-01T07:28:35Z</time></trkpt><trkpt lat="44.417423660194366" lon="10.800948052592291"><ele>804.0</ele><time>2026-05-01T07:28:36Z</time></trkpt><trkpt lat="44.41735781874467" lon="10.801058695157781"><ele>804.0</ele><time>2026-05-01T07:28:37Z</time></trkpt><trkpt lat="44.417286794994105" lon="10.801184121902326"><ele>804.0</ele><time>2026-05-01T07:28:38Z</time></trkpt><trkpt lat="44.417209793125565" lon="10.801286650397698"><ele>804.0</ele><time>2026-05-01T07:28:39Z</time></trkpt><trkpt lat="44.41714252786699" lon="10.801415248187439"><ele>804.0</ele><time>2026-05-01T07:28:40Z</time></trkpt><trkpt lat="44.41707172175531" lon="10.801535752099644"><ele>804.0</ele><time>2026-05-01T07:28:41Z</time></trkpt><trkpt lat="44.41700720428062" lon="10.80168865878072"><ele>801.6666666666666</ele><time>2026-05-01T07:28:42Z</time></trkpt><trkpt lat="44.41693756585073" lon="10.801814134414832"><ele>799.3333333333333</ele><time>2026-05-01T07:28:43Z</time></trkpt><trkpt lat="44.416873971228235" lon="10.801915427441902"><ele>797.0</ele><time>2026-05-01T07:28:44Z</time></trkpt><trkpt lat="44.41681065764728" lon="10.801989745248669"><ele>794.6666666666666</ele><time>2026-05-01T07:28:45Z</time></trkpt><trkpt lat="44.41674295672083" lon="10.802018361249864"><ele>792.3333333333333</ele><time>2026-05-01T07:28:46Z</time></trkpt><trkpt lat="44.41666286595998" lon="10.802044048142976"><ele>790.0</ele><time>2026-05-01T07:28:47Z</time></trkpt><trkpt lat="44.41656454209854" lon="10.802066638305314"><ele>789.6</ele><time>2026-05-01T07:28:48Z</time></trkpt><trkpt lat="44.41645407204786" lon="10.802074945556654"><ele>789.2</ele><time>2026-05-01T07:28:49Z</time></trkpt><trkpt lat="44.41635761287896" lon="10.802093674474975"><ele>788.8</ele><time>2026-05-01T07:28:50Z</time></trkpt><trkpt lat="44.4162594643695" lon="10.802123288242695"><ele>788.4</ele><time>2026-05-01T07:28:51Z</time></trkpt><trkpt lat="44.41617640213199" lon="10.802196262101424"><ele>788.0</ele><time>2026-05-01T07:28:52Z</time></trkpt><trkpt lat="44.41609093807942" lon="10.802231285977753"><ele>786.0000000000001</ele><time>2026-05-01T07:28:53Z</time></trkpt><trkpt lat="44.41601302437448" lon="10.802298540678123"><ele>784.0</ele><time>2026-05-01T07:28:54Z</time></trkpt><trkpt lat="44.41592778894692" lon="10.802337051143276"><ele>782.0</ele><time>2026-05-01T07:28:55Z</time></trkpt><trkpt lat="44.415853106955886" lon="10.802370439753613"><ele>780.0</ele><time>2026-05-01T07:28:56Z</time></trkpt><trkpt lat="44.41578742748174" lon="10.802433354314914"><ele>778.0000000000001</ele><time>2026-05-01T07:28:57Z</time></trkpt><trkpt lat="44.415717342896805" lon="10.802488801343253"><ele>776.0</ele><time>2026-05-01T07:28:58Z</time></trkpt><trkpt lat="44.41564888645093" lon="10.802582124044493"><ele>775.4</ele><time>2026-05-01T07:28:59Z</time></trkpt><trkpt lat="44.41557962678493" lon="10.802696845648256"><ele>774.8</ele><time>2026-05-01T07:29:00Z</time></trkpt><trkpt lat="44.415512473714905" lon="10.80282090852982"><ele>774.1999999999999</ele><time>2026-05-01T07:29:01Z</time></trkpt><trkpt lat="44.415445375805824" lon="10.802930114998496"><ele>773.5999999999999</ele><time>2026-05-01T07:29:02Z</time></trkpt><trkpt lat="44.41539070909585" lon="10.803034220577167"><ele>773.0</ele><time>2026-05-01T07:29:03Z</time></trkpt><trkpt lat="44.415354553826106" lon="10.803136127573753"><ele>770.5000000000001</ele><time>2026-05-01T07:29:04Z</time></trkpt><trkpt lat="44.41532452217754" lon="10.803231672019752"><ele>768.0</ele><time>2026-05-01T07:29:05Z</time></trkpt><trkpt lat="44.41529512336046" lon="10.803339841602831"><ele>765.5</ele><time>2026-05-01T07:29:06Z</time></trkpt><trkpt lat="44.41526558422571" lon="10.803450831855148"><ele>763.0</ele><time>2026-05-01T07:29:07Z</time></trkpt><trkpt lat="44.41525685642694" lon="10.803556504199602"><ele>760.5</ele><time>2026-05-01T07:29:08Z</time></trkpt><trkpt lat="44.415250918333896" lon="10.803662793897695"><ele>758.0</ele><time>2026-05-01T07:29:09Z</time></trkpt><trkpt lat="44.415217768737875" lon="10.80374229050399"><ele>758.0</ele><time>2026-05-01T07:29:10Z</time></trkpt><trkpt lat="44.41518339407742" lon="10.803835053466507"><ele>758.0</ele><time>2026-05-01T07:29:11Z</time></trkpt><trkpt lat="44.415136820304575" lon="10.803907877517654"><ele>758.0</ele><time>2026-05-01T07:29:12Z</time></trkpt><trkpt lat="44.415095680964924" lon="10.803977741719589"><ele>758.0</ele><time>2026-05-01T07:29:13Z</time></trkpt><trkpt lat="44.41505509523875" lon="10.80404666560124"><ele>758.0</ele><time>2026-05-01T07:29:14Z</time></trkpt><trkpt lat="44.41501155853969" lon="10.804152899755286"><ele>758.0</ele><time>2026-05-01T07:29:16Z</time></trkpt><trkpt lat="44.41493168130185" lon="10.80422443858604"><ele>758.0</ele><time>2026-05-01T07:29:20Z</time></trkpt><trkpt lat="44.41489197080886" lon="10.804295730713195"><ele>758.0</ele><time>2026-05-01T07:29:21Z</time></trkpt><trkpt lat="44.41482394393592" lon="10.804417859079999"><ele>758.0</ele><time>2026-05-01T07:29:23Z</time></trkpt><trkpt lat="44.414797949917194" lon="10.80455441025823"><ele>758.0</ele><time>2026-05-01T07:29:26Z</time></trkpt><trkpt lat="44.41444398499964" lon="10.804388021724337"><ele>753.4</ele><time>2026-05-01T07:29:28Z</time></trkpt><trkpt lat="44.414362327615265" lon="10.804414136684674"><ele>748.8</ele><time>2026-05-01T07:29:30Z</time></trkpt><trkpt lat="44.41428706441883" lon="10.804437542467122"><ele>744.2</ele><time>2026-05-01T07:29:32Z</time></trkpt><trkpt lat="44.41420149552459" lon="10.804464417159274"><ele>739.6</ele><time>2026-05-01T07:29:34Z</time></trkpt><trkpt lat="44.414082270880165" lon="10.804502527102377"><ele>735.0</ele><time>2026-05-01T07:29:35.999Z</time></trkpt><trkpt lat="44.413988411221155" lon="10.80452551694036"><ele>735.0</ele><time>2026-05-01T07:29:37.999Z</time></trkpt><trkpt lat="44.41390272427906" lon="10.804570249383778"><ele>735.0</ele><time>2026-05-01T07:29:39.999Z</time></trkpt><trkpt lat="44.41378957596851" lon="10.804601007348571"><ele>735.0</ele><time>2026-05-01T07:29:41.999Z</time></trkpt><trkpt lat="44.41368720549059" lon="10.804626951981678"><ele>735.0</ele><time>2026-05-01T07:29:43.999Z</time></trkpt><trkpt lat="44.41358444262734" lon="10.804675053625648"><ele>735.0</ele><time>2026-05-01T07:29:45.999Z</time></trkpt><trkpt lat="44.413522711082415" lon="10.804701880239516"><ele>731.8333333333334</ele><time>2026-05-01T07:29:46.999Z</time></trkpt><trkpt lat="44.41343078512993" lon="10.804755867001578"><ele>728.6666666666666</ele><time>2026-05-01T07:29:48.999Z</time></trkpt><trkpt lat="44.41333204869241" lon="10.804788832098485"><ele>725.5</ele><time>2026-05-01T07:29:50.999Z</time></trkpt><trkpt lat="44.41326705236128" lon="10.804799011832085"><ele>722.3333333333333</ele><time>2026-05-01T07:29:51.999Z</time></trkpt><trkpt lat="44.41320017257207" lon="10.804817772148867"><ele>719.1666666666666</ele><time>2026-05-01T07:29:52.999Z</time></trkpt><trkpt lat="44.41308843662714" lon="10.804833682164492"><ele>716.0</ele><time>2026-05-01T07:29:54.999Z</time></trkpt><trkpt lat="44.41301649772066" lon="10.804829953113027"><ele>714.0</ele><time>2026-05-01T07:29:55.999Z</time></trkpt><trkpt lat="44.41294131876198" lon="10.804828505464735"><ele>712.0</ele><time>2026-05-01T07:29:56.999Z</time></trkpt><trkpt lat="44.412822347396514" lon="10.804814778240827"><ele>710.0</ele><time>2026-05-01T07:29:58.999Z</time></trkpt><trkpt lat="44.412734885135166" lon="10.804781517951932"><ele>708.0</ele><time>2026-05-01T07:30:00.999Z</time></trkpt><trkpt lat="44.41262410042402" lon="10.804741140606351"><ele>706.0</ele><time>2026-05-01T07:30:02.999Z</time></trkpt><trkpt lat="44.41256240516352" lon="10.804771734136102"><ele>706.0</ele><time>2026-05-01T07:30:03.999Z</time></trkpt><trkpt lat="44.41248898701627" lon="10.804787593997471"><ele>706.0</ele><time>2026-05-01T07:30:04.999Z</time></trkpt><trkpt lat="44.41242357750106" lon="10.80482129039927"><ele>706.0</ele><time>2026-05-01T07:30:05.999Z</time></trkpt><trkpt lat="44.41235439356691" lon="10.804848909476053"><ele>706.0</ele><time>2026-05-01T07:30:06.999Z</time></trkpt><trkpt lat="44.412288495484816" lon="10.804865241580915"><ele>706.0</ele><time>2026-05-01T07:30:07.999Z</time></trkpt><trkpt lat="44.412210172124055" lon="10.804871047306058"><ele>706.0</ele><time>2026-05-01T07:30:08.999Z</time></trkpt><trkpt lat="44.41212712482622" lon="10.804868188827143"><ele>706.0</ele><time>2026-05-01T07:30:09.999Z</time></trkpt><trkpt lat="44.41204224953343" lon="10.804852070180429"><ele>704.3333333333334</ele><time>2026-05-01T07:30:10.999Z</time></trkpt><trkpt lat="44.41195834419882" lon="10.804843150812266"><ele>702.6666666666667</ele><time>2026-05-01T07:30:11.999Z</time></trkpt><trkpt lat="44.411871964169855" lon="10.804837587587048"><ele>701.0</ele><time>2026-05-01T07:30:12.999Z</time></trkpt><trkpt lat="44.411785133362436" lon="10.804849943742656"><ele>699.3333333333334</ele><time>2026-05-01T07:30:13.999Z</time></trkpt><trkpt lat="44.41171763200489" lon="10.804858669786956"><ele>697.6666666666666</ele><time>2026-05-01T07:30:14.999Z</time></trkpt><trkpt lat="44.41161763148651" lon="10.804871110019032"><ele>696.0</ele><time>2026-05-01T07:30:16.999Z</time></trkpt><trkpt lat="44.41161582827003" lon="10.80468831398824"><ele>696.0</ele><time>2026-05-01T07:30:18.999Z</time></trkpt><trkpt lat="44.411612483515356" lon="10.804590081787142"><ele>696.0</ele><time>2026-05-01T07:30:19.999Z</time></trkpt><trkpt lat="44.411551794440356" lon="10.80452133461226"><ele>696.0</ele><time>2026-05-01T07:30:20.999Z</time></trkpt><trkpt lat="44.41144315869393" lon="10.804477139139395"><ele>696.0</ele><time>2026-05-01T07:30:21.999Z</time></trkpt><trkpt lat="44.4113263982054" lon="10.804412189893082"><ele>696.0</ele><time>2026-05-01T07:30:22.999Z</time></trkpt><trkpt lat="44.41119923747367" lon="10.804367804678717"><ele>694.5999999999999</ele><time>2026-05-01T07:30:23.999Z</time></trkpt><trkpt lat="44.411097217884134" lon="10.804314972633293"><ele>693.2</ele><time>2026-05-01T07:30:24.999Z</time></trkpt><trkpt lat="44.41100734361934" lon="10.804271206094304"><ele>691.8</ele><time>2026-05-01T07:30:25.999Z</time></trkpt><trkpt lat="44.41091358715216" lon="10.804217713801432"><ele>690.4000000000001</ele><time>2026-05-01T07:30:26.999Z</time></trkpt><trkpt lat="44.41081827381865" lon="10.804167481207262"><ele>689.0</ele><time>2026-05-01T07:30:27.999Z</time></trkpt><trkpt lat="44.4107331263515" lon="10.804115970734365"><ele>689.0</ele><time>2026-05-01T07:30:28.999Z</time></trkpt><trkpt lat="44.410656836826355" lon="10.804092125774883"><ele>689.0</ele><time>2026-05-01T07:30:29.999Z</time></trkpt><trkpt lat="44.410591777851494" lon="10.804048623809848"><ele>689.0</ele><time>2026-05-01T07:30:30.999Z</time></trkpt><trkpt lat="44.4105140670136" lon="10.804016402320679"><ele>689.0</ele><time>2026-05-01T07:30:31.999Z</time></trkpt><trkpt lat="44.41041384731424" lon="10.803987978900887"><ele>689.0</ele><time>2026-05-01T07:30:33Z</time></trkpt><trkpt lat="44.41031107567003" lon="10.803956296977466"><ele>689.0</ele><time>2026-05-01T07:30:34Z</time></trkpt><trkpt lat="44.41022002966672" lon="10.803928815847474"><ele>688.1666666666666</ele><time>2026-05-01T07:30:35Z</time></trkpt><trkpt lat="44.41013690582817" lon="10.803897312558492"><ele>687.3333333333333</ele><time>2026-05-01T07:30:36Z</time></trkpt><trkpt lat="44.41004798883235" lon="10.803853805220335"><ele>686.5</ele><time>2026-05-01T07:30:37Z</time></trkpt><trkpt lat="44.40995661543185" lon="10.803813175514364"><ele>685.6666666666666</ele><time>2026-05-01T07:30:38Z</time></trkpt><trkpt lat="44.40987759618598" lon="10.803790957278064"><ele>684.8333333333334</ele><time>2026-05-01T07:30:39Z</time></trkpt><trkpt lat="44.409807906828924" lon="10.803766296025529"><ele>684.0</ele><time>2026-05-01T07:30:40Z</time></trkpt><trkpt lat="44.40974897359773" lon="10.803797526851614"><ele>683.2</ele><time>2026-05-01T07:30:41Z</time></trkpt><trkpt lat="44.40963031935996" lon="10.803862160054088"><ele>682.4000000000001</ele><time>2026-05-01T07:30:43Z</time></trkpt><trkpt lat="44.40953241390431" lon="10.803885557502278"><ele>681.6</ele><time>2026-05-01T07:30:44Z</time></trkpt><trkpt lat="44.40942723387909" lon="10.803874238919231"><ele>680.8</ele><time>2026-05-01T07:30:45Z</time></trkpt><trkpt lat="44.409347302061" lon="10.803842498040119"><ele>680.0</ele><time>2026-05-01T07:30:46Z</time></trkpt><trkpt lat="44.409254627373954" lon="10.8037982395675"><ele>680.0</ele><time>2026-05-01T07:30:47Z</time></trkpt><trkpt lat="44.40918316824741" lon="10.803733305563606"><ele>680.0</ele><time>2026-05-01T07:30:48Z</time></trkpt><trkpt lat="44.40912563228148" lon="10.8036348316657"><ele>680.0</ele><time>2026-05-01T07:30:49Z</time></trkpt><trkpt lat="44.409080089743064" lon="10.803519487321793"><ele>680.0</ele><time>2026-05-01T07:30:50Z</time></trkpt><trkpt lat="44.40902901826444" lon="10.803433167731878"><ele>680.0</ele><time>2026-05-01T07:30:51Z</time></trkpt><trkpt lat="44.408981928433604" lon="10.803351955517789"><ele>680.0</ele><time>2026-05-01T07:30:52Z</time></trkpt><trkpt lat="44.408912338941825" lon="10.80328402470436"><ele>681.8</ele><time>2026-05-01T07:30:53Z</time></trkpt><trkpt lat="44.408812235749465" lon="10.803271531629134"><ele>683.6</ele><time>2026-05-01T07:30:54Z</time></trkpt><trkpt lat="44.408738582667226" lon="10.80325893707557"><ele>685.4000000000001</ele><time>2026-05-01T07:30:55Z</time></trkpt><trkpt lat="44.40860185511083" lon="10.803234993745853"><ele>687.2</ele><time>2026-05-01T07:30:57Z</time></trkpt><trkpt lat="44.40849902247674" lon="10.80325186721393"><ele>689.0</ele><time>2026-05-01T07:30:58Z</time></trkpt><trkpt lat="44.40840522436501" lon="10.803346721439107"><ele>689.0</ele><time>2026-05-01T07:30:59Z</time></trkpt><trkpt lat="44.40832602649305" lon="10.803425285504087"><ele>689.0</ele><time>2026-05-01T07:31:00Z</time></trkpt><trkpt lat="44.40825691907262" lon="10.803441712329624"><ele>689.0</ele><time>2026-05-01T07:31:01Z</time></trkpt><trkpt lat="44.40820793311983" lon="10.803672079850369"><ele>689.0</ele><time>2026-05-01T07:31:07Z</time></trkpt><trkpt lat="44.40815821963767" lon="10.803770370505502"><ele>689.0</ele><time>2026-05-01T07:31:09Z</time></trkpt><trkpt lat="44.40801409501567" lon="10.803804131028544"><ele>688.4000000000001</ele><time>2026-05-01T07:31:11Z</time></trkpt><trkpt lat="44.407924986957994" lon="10.803877202677635"><ele>687.8</ele><time>2026-05-01T07:31:12Z</time></trkpt><trkpt lat="44.40782716647018" lon="10.803948923753556"><ele>687.2</ele><time>2026-05-01T07:31:13Z</time></trkpt><trkpt lat="44.40773982593693" lon="10.803977537565906"><ele>686.5999999999999</ele><time>2026-05-01T07:31:14Z</time></trkpt><trkpt lat="44.407665899595756" lon="10.804008795570246"><ele>686.0</ele><time>2026-05-01T07:31:15Z</time></trkpt><trkpt lat="44.407580241352846" lon="10.80400224059063"><ele>686.0</ele><time>2026-05-01T07:31:16Z</time></trkpt><trkpt lat="44.40749859967159" lon="10.80399740747867"><ele>686.0</ele><time>2026-05-01T07:31:17Z</time></trkpt><trkpt lat="44.407436239514226" lon="10.803971361483056"><ele>686.0</ele><time>2026-05-01T07:31:18Z</time></trkpt><trkpt lat="44.4073608403183" lon="10.803916887987226"><ele>686.0</ele><time>2026-05-01T07:31:19Z</time></trkpt><trkpt lat="44.40729164989262" lon="10.803852444076393"><ele>686.0</ele><time>2026-05-01T07:31:20Z</time></trkpt><trkpt lat="44.40723635854275" lon="10.803794630656586"><ele>686.0</ele><time>2026-05-01T07:31:21Z</time></trkpt><trkpt lat="44.40702935249895" lon="10.803794055076391"><ele>687.75</ele><time>2026-05-01T07:31:29.999Z</time></trkpt><trkpt lat="44.4069135642099" lon="10.803932248775988"><ele>689.5</ele><time>2026-05-01T07:31:31.999Z</time></trkpt><trkpt lat="44.406821474552366" lon="10.80400182584359"><ele>691.25</ele><time>2026-05-01T07:31:32.999Z</time></trkpt><trkpt lat="44.406735518933225" lon="10.804034316828103"><ele>693.0</ele><time>2026-05-01T07:31:33.999Z</time></trkpt><trkpt lat="44.40670434230737" lon="10.804192363115487"><ele>693.0</ele><time>2026-05-01T07:31:35.999Z</time></trkpt><trkpt lat="44.4067159856696" lon="10.804287019498716"><ele>693.0</ele><time>2026-05-01T07:31:36.999Z</time></trkpt><trkpt lat="44.406720918946576" lon="10.804379112551443"><ele>693.0</ele><time>2026-05-01T07:31:37.999Z</time></trkpt><trkpt lat="44.406592665796346" lon="10.804489433257721"><ele>693.0</ele><time>2026-05-01T07:31:39.999Z</time></trkpt><trkpt lat="44.40655064388153" lon="10.804555069739843"><ele>693.0</ele><time>2026-05-01T07:31:40.999Z</time></trkpt><trkpt lat="44.40643512755121" lon="10.804679571024037"><ele>693.8</ele><time>2026-05-01T07:31:42.999Z</time></trkpt><trkpt lat="44.40633156709153" lon="10.80475113972425"><ele>694.5999999999999</ele><time>2026-05-01T07:31:43.999Z</time></trkpt><trkpt lat="44.40624898010942" lon="10.804785636694659"><ele>695.4000000000001</ele><time>2026-05-01T07:31:44.999Z</time></trkpt><trkpt lat="44.406162515087054" lon="10.804788826034494"><ele>696.2</ele><time>2026-05-01T07:31:46.999Z</time></trkpt><trkpt lat="44.406095153318645" lon="10.804733197080877"><ele>697.0</ele><time>2026-05-01T07:31:47.999Z</time></trkpt><trkpt lat="44.4060160628975" lon="10.804675584434271"><ele>699.4000000000001</ele><time>2026-05-01T07:31:48.999Z</time></trkpt><trkpt lat="44.40594312713395" lon="10.804643508673553"><ele>701.8000000000001</ele><time>2026-05-01T07:31:49.999Z</time></trkpt><trkpt lat="44.40587987334116" lon="10.804604479910694"><ele>704.2</ele><time>2026-05-01T07:31:50.999Z</time></trkpt><trkpt lat="44.40579784487379" lon="10.804496602569829"><ele>706.6</ele><time>2026-05-01T07:31:52.999Z</time></trkpt><trkpt lat="44.40572152664208" lon="10.804387963788175"><ele>709.0</ele><time>2026-05-01T07:31:54.999Z</time></trkpt><trkpt lat="44.40559467095008" lon="10.804411757630493"><ele>710.4000000000001</ele><time>2026-05-01T07:31:56.999Z</time></trkpt><trkpt lat="44.405474382129" lon="10.804427440838861"><ele>711.8</ele><time>2026-05-01T07:31:58.999Z</time></trkpt><trkpt lat="44.405358791588085" lon="10.804370006508854"><ele>713.2</ele><time>2026-05-01T07:32:00.999Z</time></trkpt><trkpt lat="44.40524493770146" lon="10.80439320380227"><ele>714.5999999999999</ele><time>2026-05-01T07:32:02.999Z</time></trkpt><trkpt lat="44.40517953905646" lon="10.804416239267539"><ele>716.0</ele><time>2026-05-01T07:32:03.999Z</time></trkpt><trkpt lat="44.404954885980864" lon="10.804550536267154"><ele>716.0</ele><time>2026-05-01T07:34:02.999Z</time></trkpt><trkpt lat="44.4048641297271" lon="10.804561290184177"><ele>716.0</ele><time>2026-05-01T07:34:03.999Z</time></trkpt><trkpt lat="44.404767662867414" lon="10.80458595857816"><ele>716.0</ele><time>2026-05-01T07:34:04.999Z</time></trkpt><trkpt lat="44.404694568896915" lon="10.80462628582828"><ele>716.0</ele><time>2026-05-01T07:34:05.999Z</time></trkpt><trkpt lat="44.40462699817297" lon="10.804673594726678"><ele>716.0</ele><time>2026-05-01T07:34:06.999Z</time></trkpt><trkpt lat="44.404548062899906" lon="10.804684261897313"><ele>716.0</ele><time>2026-05-01T07:34:07.999Z</time></trkpt><trkpt lat="44.404478164894265" lon="10.804742153722467"><ele>714.4</ele><time>2026-05-01T07:34:08.999Z</time></trkpt><trkpt lat="44.404402796572725" lon="10.804804576091545"><ele>712.8</ele><time>2026-05-01T07:34:09.999Z</time></trkpt><trkpt lat="44.40432092091223" lon="10.80480281014344"><ele>711.1999999999999</ele><time>2026-05-01T07:34:10.999Z</time></trkpt><trkpt lat="44.404219125302795" lon="10.804808044213772"><ele>709.5999999999999</ele><time>2026-05-01T07:34:11.999Z</time></trkpt><trkpt lat="44.40410197203169" lon="10.804796258289084"><ele>708.0</ele><time>2026-05-01T07:34:12.999Z</time></trkpt><trkpt lat="44.40399239421674" lon="10.804757647336636"><ele>708.0</ele><time>2026-05-01T07:34:13.999Z</time></trkpt><trkpt lat="44.40388669071497" lon="10.804715767053855"><ele>708.0</ele><time>2026-05-01T07:34:14.999Z</time></trkpt><trkpt lat="44.40378721523009" lon="10.804703175711731"><ele>708.0</ele><time>2026-05-01T07:34:15.999Z</time></trkpt><trkpt lat="44.403695037693446" lon="10.804670570549366"><ele>708.0</ele><time>2026-05-01T07:34:16.999Z</time></trkpt><trkpt lat="44.40360780966456" lon="10.804643143864896"><ele>708.0</ele><time>2026-05-01T07:34:17.999Z</time></trkpt><trkpt lat="44.40351556701136" lon="10.804631904077665"><ele>707.8</ele><time>2026-05-01T07:34:18.999Z</time></trkpt><trkpt lat="44.40341484420022" lon="10.804653047881006"><ele>707.5999999999999</ele><time>2026-05-01T07:34:19.999Z</time></trkpt><trkpt lat="44.403314993618984" lon="10.804699174348732"><ele>707.4000000000001</ele><time>2026-05-01T07:34:20.999Z</time></trkpt><trkpt lat="44.40320496504131" lon="10.804718890122231"><ele>707.2</ele><time>2026-05-01T07:34:21.999Z</time></trkpt><trkpt lat="44.40309929108404" lon="10.804762658033567"><ele>707.0</ele><time>2026-05-01T07:34:22.999Z</time></trkpt><trkpt lat="44.4029937635853" lon="10.80480709067122"><ele>707.0</ele><time>2026-05-01T07:34:23.999Z</time></trkpt><trkpt lat="44.40289158313247" lon="10.804850114454515"><ele>707.0</ele><time>2026-05-01T07:34:24.999Z</time></trkpt><trkpt lat="44.402811174755776" lon="10.805013477067927"><ele>707.0</ele><time>2026-05-01T07:34:25.999Z</time></trkpt><trkpt lat="44.40274122843441" lon="10.805082240466461"><ele>707.0</ele><time>2026-05-01T07:34:26.999Z</time></trkpt><trkpt lat="44.40268481554634" lon="10.805137699250691"><ele>707.0</ele><time>2026-05-01T07:34:28.999Z</time></trkpt><trkpt lat="44.402737383483355" lon="10.80539590444881"><ele>708.4000000000001</ele><time>2026-05-01T07:34:31.999Z</time></trkpt><trkpt lat="44.402762706350146" lon="10.805525742298808"><ele>709.8000000000001</ele><time>2026-05-01T07:34:32.999Z</time></trkpt><trkpt lat="44.40272521294874" lon="10.805665857489036"><ele>711.2</ele><time>2026-05-01T07:34:33.999Z</time></trkpt><trkpt lat="44.40265476544709" lon="10.805786888567008"><ele>712.6</ele><time>2026-05-01T07:34:34.999Z</time></trkpt><trkpt lat="44.40255511396983" lon="10.805867181596556"><ele>714.0</ele><time>2026-05-01T07:34:35.999Z</time></trkpt><trkpt lat="44.40245205637608" lon="10.805958085809218"><ele>715.75</ele><time>2026-05-01T07:34:36.999Z</time></trkpt><trkpt lat="44.402344978253105" lon="10.806050941958073"><ele>717.5</ele><time>2026-05-01T07:34:37.999Z</time></trkpt><trkpt lat="44.40223194808875" lon="10.806145350866453"><ele>719.25</ele><time>2026-05-01T07:34:38.999Z</time></trkpt><trkpt lat="44.40212138638911" lon="10.806244674368406"><ele>721.0</ele><time>2026-05-01T07:34:39.999Z</time></trkpt><trkpt lat="44.402006465342545" lon="10.806339538738731"><ele>721.5</ele><time>2026-05-01T07:34:40.999Z</time></trkpt><trkpt lat="44.401878372027" lon="10.806419107590422"><ele>722.0</ele><time>2026-05-01T07:34:41.999Z</time></trkpt><trkpt lat="44.401737045537736" lon="10.806468595923445"><ele>722.5</ele><time>2026-05-01T07:34:42.999Z</time></trkpt><trkpt lat="44.40158416683873" lon="10.806511217299308"><ele>723.0</ele><time>2026-05-01T07:34:43.999Z</time></trkpt><trkpt lat="44.40143156055933" lon="10.80655376274195"><ele>724.6666666666666</ele><time>2026-05-01T07:34:45Z</time></trkpt><trkpt lat="44.4012789612342" lon="10.806596306235042"><ele>726.3333333333333</ele><time>2026-05-01T07:34:46Z</time></trkpt><trkpt lat="44.40112411588942" lon="10.80663947589126"><ele>728.0</ele><time>2026-05-01T07:34:47Z</time></trkpt><trkpt lat="44.40097359549125" lon="10.806679904387533"><ele>728.0</ele><time>2026-05-01T07:34:48Z</time></trkpt><trkpt lat="44.40082661549558" lon="10.806718975504255"><ele>728.0</ele><time>2026-05-01T07:34:49Z</time></trkpt><trkpt lat="44.40067990037997" lon="10.80677041803308"><ele>728.0</ele><time>2026-05-01T07:34:50Z</time></trkpt><trkpt lat="44.400539384558726" lon="10.806829121488493"><ele>728.0</ele><time>2026-05-01T07:34:51Z</time></trkpt><trkpt lat="44.400398126381496" lon="10.806890042413125"><ele>731.3333333333333</ele><time>2026-05-01T07:34:52Z</time></trkpt><trkpt lat="44.400254507144325" lon="10.8069519816123"><ele>734.6666666666666</ele><time>2026-05-01T07:34:53Z</time></trkpt><trkpt lat="44.400109875064594" lon="10.807014723954998"><ele>738.0</ele><time>2026-05-01T07:34:54Z</time></trkpt><trkpt lat="44.39996367360587" lon="10.807078168052433"><ele>738.0</ele><time>2026-05-01T07:34:55Z</time></trkpt><trkpt lat="44.3998180610134" lon="10.807143983052407"><ele>738.0</ele><time>2026-05-01T07:34:56Z</time></trkpt><trkpt lat="44.39967864610253" lon="10.807226658362248"><ele>738.0</ele><time>2026-05-01T07:34:57Z</time></trkpt><trkpt lat="44.39953198964659" lon="10.80728736403611"><ele>740.3333333333334</ele><time>2026-05-01T07:34:58Z</time></trkpt><trkpt lat="44.399387772191766" lon="10.80735419267423"><ele>742.6666666666667</ele><time>2026-05-01T07:34:59Z</time></trkpt><trkpt lat="44.399242576998205" lon="10.807405175122785"><ele>745.0</ele><time>2026-05-01T07:35:00Z</time></trkpt><trkpt lat="44.39910103896896" lon="10.807469131583085"><ele>745.0</ele><time>2026-05-01T07:35:01Z</time></trkpt><trkpt lat="44.3989598759255" lon="10.807532918577373"><ele>745.0</ele><time>2026-05-01T07:35:02Z</time></trkpt><trkpt lat="44.398819859428194" lon="10.807604816891251"><ele>745.0</ele><time>2026-05-01T07:35:03Z</time></trkpt><trkpt lat="44.398694994691766" lon="10.807706532139822"><ele>745.0</ele><time>2026-05-01T07:35:04Z</time></trkpt><trkpt lat="44.39859464776439" lon="10.807846851463639"><ele>746.75</ele><time>2026-05-01T07:35:05Z</time></trkpt><trkpt lat="44.39849912149659" lon="10.807997156835317"><ele>748.5</ele><time>2026-05-01T07:35:06Z</time></trkpt><trkpt lat="44.39840103732698" lon="10.808150289926251"><ele>750.25</ele><time>2026-05-01T07:35:07Z</time></trkpt><trkpt lat="44.39831041695819" lon="10.808321109907952"><ele>752.0</ele><time>2026-05-01T07:35:08Z</time></trkpt><trkpt lat="44.39821718163862" lon="10.80849548867692"><ele>752.3333333333333</ele><time>2026-05-01T07:35:09Z</time></trkpt><trkpt lat="44.398120511938934" lon="10.808670751844597"><ele>752.6666666666666</ele><time>2026-05-01T07:35:10Z</time></trkpt><trkpt lat="44.398021656186046" lon="10.808850062024435"><ele>753.0</ele><time>2026-05-01T07:35:11Z</time></trkpt><trkpt lat="44.3979208368667" lon="10.809028043812447"><ele>754.0</ele><time>2026-05-01T07:35:12Z</time></trkpt><trkpt lat="44.39781447850944" lon="10.809203972408831"><ele>755.0</ele><time>2026-05-01T07:35:13Z</time></trkpt><trkpt lat="44.397696370921345" lon="10.809353854114528"><ele>756.0</ele><time>2026-05-01T07:35:14Z</time></trkpt><trkpt lat="44.39757843944152" lon="10.809476181139408"><ele>756.0</ele><time>2026-05-01T07:35:15Z</time></trkpt><trkpt lat="44.39746580057886" lon="10.809576839089777"><ele>756.0</ele><time>2026-05-01T07:35:16Z</time></trkpt><trkpt lat="44.39737217122366" lon="10.80966447347791"><ele>756.0</ele><time>2026-05-01T07:35:17Z</time></trkpt><trkpt lat="44.39729635517349" lon="10.809737474887116"><ele>756.0</ele><time>2026-05-01T07:35:18Z</time></trkpt><trkpt lat="44.397238907870594" lon="10.809833732265773"><ele>756.0</ele><time>2026-05-01T07:35:19Z</time></trkpt><trkpt lat="44.39716608748974" lon="10.809862093783094"><ele>756.0</ele><time>2026-05-01T07:35:20Z</time></trkpt><trkpt lat="44.3970931042169" lon="10.809922375159966"><ele>756.0</ele><time>2026-05-01T07:35:21Z</time></trkpt><trkpt lat="44.39701023709398" lon="10.809972243807229"><ele>756.0</ele><time>2026-05-01T07:35:22Z</time></trkpt><trkpt lat="44.39692681907728" lon="10.810032184729748"><ele>756.0</ele><time>2026-05-01T07:35:23Z</time></trkpt><trkpt lat="44.39684235662812" lon="10.81007726083431"><ele>756.0</ele><time>2026-05-01T07:35:24Z</time></trkpt><trkpt lat="44.3967591557618" lon="10.810109257445449"><ele>756.0</ele><time>2026-05-01T07:35:25Z</time></trkpt><trkpt lat="44.39667842572318" lon="10.810176190182705"><ele>756.0</ele><time>2026-05-01T07:35:26Z</time></trkpt><trkpt lat="44.39658587124001" lon="10.810188424745414"><ele>756.0</ele><time>2026-05-01T07:35:27Z</time></trkpt><trkpt lat="44.39649195512256" lon="10.810225618882756"><ele>756.0</ele><time>2026-05-01T07:35:28Z</time></trkpt><trkpt lat="44.396394013841615" lon="10.810280021166822"><ele>756.0</ele><time>2026-05-01T07:35:29Z</time></trkpt><trkpt lat="44.39628756121288" lon="10.8103049249236"><ele>756.0</ele><time>2026-05-01T07:35:30Z</time></trkpt><trkpt lat="44.39618768541648" lon="10.810353791662095"><ele>757.25</ele><time>2026-05-01T07:35:31Z</time></trkpt><trkpt lat="44.396079803974274" lon="10.810416373826333"><ele>758.5</ele><time>2026-05-01T07:35:32Z</time></trkpt><trkpt lat="44.3959705859543" lon="10.81048128119982"><ele>759.75</ele><time>2026-05-01T07:35:33Z</time></trkpt><trkpt lat="44.395875765088455" lon="10.810565689380917"><ele>761.0</ele><time>2026-05-01T07:35:34Z</time></trkpt><trkpt lat="44.3957802449673" lon="10.810644326031856"><ele>761.0</ele><time>2026-05-01T07:35:35Z</time></trkpt><trkpt lat="44.39568102584961" lon="10.81070969474437"><ele>761.0</ele><time>2026-05-01T07:35:36Z</time></trkpt><trkpt lat="44.395594143272554" lon="10.810809332927798"><ele>761.0</ele><time>2026-05-01T07:35:37Z</time></trkpt><trkpt lat="44.39552987840369" lon="10.810897951230773"><ele>761.0</ele><time>2026-05-01T07:35:38Z</time></trkpt><trkpt lat="44.39543708047706" lon="10.810936518908658"><ele>761.0</ele><time>2026-05-01T07:35:39Z</time></trkpt><trkpt lat="44.39532781250738" lon="10.81100445038556"><ele>761.4</ele><time>2026-05-01T07:35:40Z</time></trkpt><trkpt lat="44.39521656367" lon="10.811100298239895"><ele>761.8</ele><time>2026-05-01T07:35:41Z</time></trkpt><trkpt lat="44.395110176294764" lon="10.811190181868987"><ele>762.1999999999999</ele><time>2026-05-01T07:35:42Z</time></trkpt><trkpt lat="44.39502674252525" lon="10.81124364597038"><ele>762.5999999999999</ele><time>2026-05-01T07:35:43Z</time></trkpt><trkpt lat="44.39495173502297" lon="10.811268761413427"><ele>763.0</ele><time>2026-05-01T07:35:44Z</time></trkpt><trkpt lat="44.39486107430009" lon="10.811276397961006"><ele>763.0</ele><time>2026-05-01T07:35:44.999Z</time></trkpt><trkpt lat="44.39477084471842" lon="10.81130533950534"><ele>763.0</ele><time>2026-05-01T07:35:45.999Z</time></trkpt><trkpt lat="44.39467233347476" lon="10.811338002452525"><ele>763.0</ele><time>2026-05-01T07:35:46.999Z</time></trkpt><trkpt lat="44.394586467240245" lon="10.811370107945564"><ele>763.0</ele><time>2026-05-01T07:35:47.999Z</time></trkpt><trkpt lat="44.39448168337413" lon="10.811398522568911"><ele>763.0</ele><time>2026-05-01T07:35:48.999Z</time></trkpt><trkpt lat="44.394375719083364" lon="10.811413206881953"><ele>764.25</ele><time>2026-05-01T07:35:49.999Z</time></trkpt><trkpt lat="44.39426298615219" lon="10.811428019034496"><ele>765.5</ele><time>2026-05-01T07:35:50.999Z</time></trkpt><trkpt lat="44.39414714255767" lon="10.811443239832178"><ele>766.75</ele><time>2026-05-01T07:35:51.999Z</time></trkpt><trkpt lat="44.39402823562926" lon="10.81148347078599"><ele>768.0</ele><time>2026-05-01T07:35:52.999Z</time></trkpt><trkpt lat="44.39391244870259" lon="10.811493031842234"><ele>767.5999999999999</ele><time>2026-05-01T07:35:53.999Z</time></trkpt><trkpt lat="44.393804313635854" lon="10.811481282587737"><ele>767.1999999999999</ele><time>2026-05-01T07:35:54.999Z</time></trkpt><trkpt lat="44.39371134874222" lon="10.811472678978804"><ele>766.8</ele><time>2026-05-01T07:35:55.999Z</time></trkpt><trkpt lat="44.393619384603284" lon="10.81146301891108"><ele>766.4</ele><time>2026-05-01T07:35:56.999Z</time></trkpt><trkpt lat="44.39350844914833" lon="10.811466334304288"><ele>766.0</ele><time>2026-05-01T07:35:57.999Z</time></trkpt><trkpt lat="44.39339729084379" lon="10.81144524346201"><ele>766.0</ele><time>2026-05-01T07:35:58.999Z</time></trkpt><trkpt lat="44.39329238186219" lon="10.811419740151822"><ele>766.0</ele><time>2026-05-01T07:35:59.999Z</time></trkpt><trkpt lat="44.39321001598376" lon="10.811394544421773"><ele>766.0</ele><time>2026-05-01T07:36:00.999Z</time></trkpt><trkpt lat="44.393124881936544" lon="10.811418673483987"><ele>766.0</ele><time>2026-05-01T07:36:01.999Z</time></trkpt><trkpt lat="44.393040463161256" lon="10.811448982416207"><ele>766.0</ele><time>2026-05-01T07:36:02.999Z</time></trkpt><trkpt lat="44.39293498999704" lon="10.811467173123066"><ele>766.5</ele><time>2026-05-01T07:36:03.999Z</time></trkpt><trkpt lat="44.39283093218793" lon="10.811518924503764"><ele>767.0</ele><time>2026-05-01T07:36:04.999Z</time></trkpt><trkpt lat="44.392719851993306" lon="10.811545876505692"><ele>767.5</ele><time>2026-05-01T07:36:05.999Z</time></trkpt><trkpt lat="44.392607011250576" lon="10.811584904875204"><ele>768.0</ele><time>2026-05-01T07:36:06.999Z</time></trkpt><trkpt lat="44.392498939520785" lon="10.811615329373563"><ele>768.0</ele><time>2026-05-01T07:36:07.999Z</time></trkpt><trkpt lat="44.39241670732489" lon="10.811612492658302"><ele>768.0</ele><time>2026-05-01T07:36:08.999Z</time></trkpt><trkpt lat="44.39231423019019" lon="10.81165161694169"><ele>768.0</ele><time>2026-05-01T07:36:10.999Z</time></trkpt><trkpt lat="44.39224240839426" lon="10.811678441497552"><ele>768.0</ele><time>2026-05-01T07:36:11.999Z</time></trkpt><trkpt lat="44.392131408395855" lon="10.811717908846232"><ele>768.0</ele><time>2026-05-01T07:36:12.999Z</time></trkpt><trkpt lat="44.39201299369419" lon="10.811751046130743"><ele>768.75</ele><time>2026-05-01T07:36:13.999Z</time></trkpt><trkpt lat="44.391891687759916" lon="10.81178532240246"><ele>769.5</ele><time>2026-05-01T07:36:14.999Z</time></trkpt><trkpt lat="44.39176061290803" lon="10.811848331631525"><ele>770.25</ele><time>2026-05-01T07:36:15.999Z</time></trkpt><trkpt lat="44.391617061114495" lon="10.811878132724761"><ele>771.0</ele><time>2026-05-01T07:36:16.999Z</time></trkpt><trkpt lat="44.391494904844144" lon="10.81191396305319"><ele>769.8</ele><time>2026-05-01T07:36:17.999Z</time></trkpt><trkpt lat="44.39137555810909" lon="10.81194829499416"><ele>768.5999999999999</ele><time>2026-05-01T07:36:18.999Z</time></trkpt><trkpt lat="44.39126486916531" lon="10.811976792222119"><ele>767.4</ele><time>2026-05-01T07:36:19.999Z</time></trkpt><trkpt lat="44.39117088096209" lon="10.812001291018126"><ele>766.2</ele><time>2026-05-01T07:36:20.999Z</time></trkpt><trkpt lat="44.39107006133834" lon="10.812027570844252"><ele>765.0</ele><time>2026-05-01T07:36:21.999Z</time></trkpt><trkpt lat="44.39096824355426" lon="10.812052899415283"><ele>765.0</ele><time>2026-05-01T07:36:22.999Z</time></trkpt><trkpt lat="44.39086468736349" lon="10.812079930306677"><ele>765.0</ele><time>2026-05-01T07:36:23.999Z</time></trkpt><trkpt lat="44.3907468504762" lon="10.812112293992426"><ele>765.0</ele><time>2026-05-01T07:36:24.999Z</time></trkpt><trkpt lat="44.390653751657936" lon="10.812157365501918"><ele>765.0</ele><time>2026-05-01T07:36:25.999Z</time></trkpt><trkpt lat="44.390569047476475" lon="10.812169784198263"><ele>765.0</ele><time>2026-05-01T07:36:26.999Z</time></trkpt><trkpt lat="44.39050536969416" lon="10.812196068168456"><ele>765.2</ele><time>2026-05-01T07:36:27.999Z</time></trkpt><trkpt lat="44.39043248958304" lon="10.812243190263425"><ele>765.4</ele><time>2026-05-01T07:36:28.999Z</time></trkpt><trkpt lat="44.39034544458172" lon="10.812264250608006"><ele>765.5999999999999</ele><time>2026-05-01T07:36:29.999Z</time></trkpt><trkpt lat="44.39025650478061" lon="10.81230451629892"><ele>765.8</ele><time>2026-05-01T07:36:30.999Z</time></trkpt><trkpt lat="44.390164011104766" lon="10.812348874112407"><ele>766.0</ele><time>2026-05-01T07:36:31.999Z</time></trkpt><trkpt lat="44.390072848716244" lon="10.812401876157558"><ele>766.0</ele><time>2026-05-01T07:36:32.999Z</time></trkpt><trkpt lat="44.38999813389594" lon="10.812435110065332"><ele>766.0</ele><time>2026-05-01T07:36:33.999Z</time></trkpt><trkpt lat="44.38991392799084" lon="10.812437684471432"><ele>766.0</ele><time>2026-05-01T07:36:35.999Z</time></trkpt><trkpt lat="44.3898408024478" lon="10.812396697621528"><ele>766.0</ele><time>2026-05-01T07:36:36.999Z</time></trkpt><trkpt lat="44.38974544941156" lon="10.812377629677034"><ele>766.0</ele><time>2026-05-01T07:36:37.999Z</time></trkpt><trkpt lat="44.38968091200455" lon="10.812339583370242"><ele>766.0</ele><time>2026-05-01T07:36:39.999Z</time></trkpt><trkpt lat="44.389749041269255" lon="10.8121698484606"><ele>766.0</ele><time>2026-05-01T07:36:58Z</time></trkpt><trkpt lat="44.38981591328412" lon="10.812100279652354"><ele>766.0</ele><time>2026-05-01T07:36:59Z</time></trkpt><trkpt lat="44.38987829560144" lon="10.812007512777027"><ele>766.0</ele><time>2026-05-01T07:37:00Z</time></trkpt><trkpt lat="44.389949292142916" lon="10.811905048395134"><ele>766.0</ele><time>2026-05-01T07:37:01Z</time></trkpt><trkpt lat="44.39002418679929" lon="10.811796700236236"><ele>766.0</ele><time>2026-05-01T07:37:02Z</time></trkpt><trkpt lat="44.39010677178026" lon="10.811677189226268"><ele>765.75</ele><time>2026-05-01T07:37:03Z</time></trkpt><trkpt lat="44.390186383496435" lon="10.81154136232354"><ele>765.5</ele><time>2026-05-01T07:37:04Z</time></trkpt><trkpt lat="44.39025798223936" lon="10.811385671997513"><ele>765.25</ele><time>2026-05-01T07:37:05Z</time></trkpt><trkpt lat="44.39031715152274" lon="10.811217735328874"><ele>765.0</ele><time>2026-05-01T07:37:06Z</time></trkpt><trkpt lat="44.390366925554716" lon="10.811037038273769"><ele>764.5</ele><time>2026-05-01T07:37:07Z</time></trkpt><trkpt lat="44.39041531483185" lon="10.810854382819056"><ele>764.0</ele><time>2026-05-01T07:37:08Z</time></trkpt><trkpt lat="44.390465202550416" lon="10.810670665161332"><ele>763.5</ele><time>2026-05-01T07:37:09Z</time></trkpt><trkpt lat="44.39051119706495" lon="10.81048158545422"><ele>763.0</ele><time>2026-05-01T07:37:10Z</time></trkpt><trkpt lat="44.390540886211355" lon="10.810286502514476"><ele>764.75</ele><time>2026-05-01T07:37:11Z</time></trkpt><trkpt lat="44.39055338408033" lon="10.81008704230866"><ele>766.5</ele><time>2026-05-01T07:37:12Z</time></trkpt><trkpt lat="44.3905488879061" lon="10.809888774569707"><ele>768.25</ele><time>2026-05-01T07:37:13Z</time></trkpt><trkpt lat="44.39053584003734" lon="10.809691880317938"><ele>770.0</ele><time>2026-05-01T07:37:14Z</time></trkpt><trkpt lat="44.39054406374718" lon="10.809498717012188"><ele>770.0</ele><time>2026-05-01T07:37:15Z</time></trkpt><trkpt lat="44.39050652602445" lon="10.809288536112216"><ele>770.0</ele><time>2026-05-01T07:37:16Z</time></trkpt><trkpt lat="44.39049325688936" lon="10.809086859158334"><ele>770.0</ele><time>2026-05-01T07:37:17Z</time></trkpt><trkpt lat="44.39049477359859" lon="10.808882347881"><ele>770.0</ele><time>2026-05-01T07:37:18Z</time></trkpt><trkpt lat="44.390517967631496" lon="10.808683234286253"><ele>770.25</ele><time>2026-05-01T07:37:19Z</time></trkpt><trkpt lat="44.390563900573596" lon="10.80849072568488"><ele>770.5</ele><time>2026-05-01T07:37:20Z</time></trkpt><trkpt lat="44.390628356878864" lon="10.808307151307789"><ele>770.75</ele><time>2026-05-01T07:37:21Z</time></trkpt><trkpt lat="44.390702956045004" lon="10.808130108338199"><ele>771.0</ele><time>2026-05-01T07:37:22Z</time></trkpt><trkpt lat="44.3907783689738" lon="10.80795480749635"><ele>771.0</ele><time>2026-05-01T07:37:23Z</time></trkpt><trkpt lat="44.39085248653293" lon="10.807779995661496"><ele>771.0</ele><time>2026-05-01T07:37:24Z</time></trkpt><trkpt lat="44.39092805530681" lon="10.807605129366936"><ele>771.0</ele><time>2026-05-01T07:37:25Z</time></trkpt><trkpt lat="44.39100097100045" lon="10.80743039172737"><ele>771.0</ele><time>2026-05-01T07:37:26Z</time></trkpt><trkpt lat="44.39107947364887" lon="10.807260888783556"><ele>770.5</ele><time>2026-05-01T07:37:27Z</time></trkpt><trkpt lat="44.39115899604567" lon="10.80709876856102"><ele>770.0</ele><time>2026-05-01T07:37:28Z</time></trkpt><trkpt lat="44.39124881536682" lon="10.806941162765227"><ele>769.5</ele><time>2026-05-01T07:37:29Z</time></trkpt><trkpt lat="44.39134710924924" lon="10.806798641617883"><ele>769.0</ele><time>2026-05-01T07:37:30Z</time></trkpt><trkpt lat="44.39146134357982" lon="10.806677551827038"><ele>769.0</ele><time>2026-05-01T07:37:31Z</time></trkpt><trkpt lat="44.391581268101085" lon="10.806568466397842"><ele>769.0</ele><time>2026-05-01T07:37:32Z</time></trkpt><trkpt lat="44.39170654314642" lon="10.806451178367844"><ele>769.0</ele><time>2026-05-01T07:37:33Z</time></trkpt><trkpt lat="44.39183463563449" lon="10.80633026692372"><ele>769.0</ele><time>2026-05-01T07:37:34Z</time></trkpt><trkpt lat="44.391957946788" lon="10.806195663793568"><ele>769.0</ele><time>2026-05-01T07:37:35Z</time></trkpt><trkpt lat="44.39207528190162" lon="10.80604279628803"><ele>769.0</ele><time>2026-05-01T07:37:36Z</time></trkpt><trkpt lat="44.39219033143701" lon="10.805880581752552"><ele>769.0</ele><time>2026-05-01T07:37:37Z</time></trkpt><trkpt lat="44.39229867835548" lon="10.805704919316474"><ele>767.0</ele><time>2026-05-01T07:37:38Z</time></trkpt><trkpt lat="44.39240958080168" lon="10.805531473351593"><ele>765.0</ele><time>2026-05-01T07:37:39Z</time></trkpt><trkpt lat="44.392515978489804" lon="10.805361153816392"><ele>763.0</ele><time>2026-05-01T07:37:40Z</time></trkpt><trkpt lat="44.39261965340295" lon="10.805200877466794"><ele>762.25</ele><time>2026-05-01T07:37:41Z</time></trkpt><trkpt lat="44.39271043228719" lon="10.805050484274085"><ele>761.5</ele><time>2026-05-01T07:37:42Z</time></trkpt><trkpt lat="44.3927965856549" lon="10.804908873243447"><ele>760.75</ele><time>2026-05-01T07:37:43Z</time></trkpt><trkpt lat="44.39287967650864" lon="10.80477927456823"><ele>760.0</ele><time>2026-05-01T07:37:44Z</time></trkpt><trkpt lat="44.39296246573306" lon="10.804664395066318"><ele>759.6</ele><time>2026-05-01T07:37:44.999Z</time></trkpt><trkpt lat="44.393041207377394" lon="10.804558715821438"><ele>759.2</ele><time>2026-05-01T07:37:45.999Z</time></trkpt><trkpt lat="44.39312437467432" lon="10.804479085637183"><ele>758.8</ele><time>2026-05-01T07:37:46.999Z</time></trkpt><trkpt lat="44.393212421941456" lon="10.80443362874823"><ele>758.4</ele><time>2026-05-01T07:37:47.999Z</time></trkpt><trkpt lat="44.39329524464656" lon="10.80443555288644"><ele>758.0</ele><time>2026-05-01T07:37:48.999Z</time></trkpt><trkpt lat="44.39335207341739" lon="10.804299087443104"><ele>758.0</ele><time>2026-05-01T07:37:50.999Z</time></trkpt><trkpt lat="44.393319306456895" lon="10.804215248304507"><ele>758.0</ele><time>2026-05-01T07:37:51.999Z</time></trkpt><trkpt lat="44.393258745951506" lon="10.804157559341272"><ele>758.0</ele><time>2026-05-01T07:37:52.999Z</time></trkpt><trkpt lat="44.3932125643847" lon="10.804093212544185"><ele>758.0</ele><time>2026-05-01T07:37:53.999Z</time></trkpt><trkpt lat="44.39311288098501" lon="10.80412711401018"><ele>758.0</ele><time>2026-05-01T07:37:54.999Z</time></trkpt><trkpt lat="44.39304436672529" lon="10.804115180435327"><ele>758.0</ele><time>2026-05-01T07:37:55.999Z</time></trkpt><trkpt lat="44.393000771491025" lon="10.803986246557846"><ele>758.0</ele><time>2026-05-01T07:37:56.999Z</time></trkpt><trkpt lat="44.39299370118998" lon="10.80383577852226"><ele>758.0</ele><time>2026-05-01T07:37:57.999Z</time></trkpt><trkpt lat="44.39300044670404" lon="10.803684169865093"><ele>758.0</ele><time>2026-05-01T07:37:58.999Z</time></trkpt><trkpt lat="44.3930069020803" lon="10.803512800374522"><ele>758.0</ele><time>2026-05-01T07:37:59.999Z</time></trkpt><trkpt lat="44.39301917773393" lon="10.803337644080884"><ele>756.25</ele><time>2026-05-01T07:38:00.999Z</time></trkpt><trkpt lat="44.39304304326228" lon="10.803155680386192"><ele>754.5</ele><time>2026-05-01T07:38:01.999Z</time></trkpt><trkpt lat="44.393060023232735" lon="10.802978925928729"><ele>752.75</ele><time>2026-05-01T07:38:02.999Z</time></trkpt><trkpt lat="44.39307535724453" lon="10.802833896527261"><ele>751.0</ele><time>2026-05-01T07:38:03.999Z</time></trkpt><trkpt lat="44.39308248783712" lon="10.802711748779341"><ele>750.6666666666667</ele><time>2026-05-01T07:38:04.999Z</time></trkpt><trkpt lat="44.393078228354206" lon="10.802599934329878"><ele>750.3333333333334</ele><time>2026-05-01T07:38:05.999Z</time></trkpt><trkpt lat="44.39306328305396" lon="10.802507629307927"><ele>750.0</ele><time>2026-05-01T07:38:06.999Z</time></trkpt><trkpt lat="44.3930484222694" lon="10.802408980439662"><ele>749.6666666666666</ele><time>2026-05-01T07:38:07.999Z</time></trkpt><trkpt lat="44.39308290698975" lon="10.802298860234282"><ele>749.3333333333333</ele><time>2026-05-01T07:38:08.999Z</time></trkpt><trkpt lat="44.39309530395025" lon="10.80216705897795"><ele>749.0</ele><time>2026-05-01T07:38:09.999Z</time></trkpt><trkpt lat="44.39309934002775" lon="10.802037695849545"><ele>749.0</ele><time>2026-05-01T07:38:10.999Z</time></trkpt><trkpt lat="44.3931154641827" lon="10.801922926584725"><ele>749.0</ele><time>2026-05-01T07:38:11.999Z</time></trkpt><trkpt lat="44.39314530613839" lon="10.801820633792047"><ele>749.0</ele><time>2026-05-01T07:38:12.999Z</time></trkpt><trkpt lat="44.39318332202506" lon="10.801717798697746"><ele>749.0</ele><time>2026-05-01T07:38:13.999Z</time></trkpt><trkpt lat="44.39320660030432" lon="10.80160121294958"><ele>749.0</ele><time>2026-05-01T07:38:14.999Z</time></trkpt><trkpt lat="44.393222202165255" lon="10.80147426879269"><ele>749.0</ele><time>2026-05-01T07:38:15.999Z</time></trkpt><trkpt lat="44.39322574672263" lon="10.801338243195833"><ele>748.8333333333333</ele><time>2026-05-01T07:38:16.999Z</time></trkpt><trkpt lat="44.39321561930241" lon="10.801199045363003"><ele>748.6666666666666</ele><time>2026-05-01T07:38:17.999Z</time></trkpt><trkpt lat="44.39320013243422" lon="10.801064822720612"><ele>748.5</ele><time>2026-05-01T07:38:18.999Z</time></trkpt><trkpt lat="44.39317374121728" lon="10.80094683312904"><ele>748.3333333333334</ele><time>2026-05-01T07:38:19.999Z</time></trkpt><trkpt lat="44.3931754858003" lon="10.800841125214134"><ele>748.1666666666667</ele><time>2026-05-01T07:38:20.999Z</time></trkpt><trkpt lat="44.393151596388165" lon="10.800738035488076"><ele>748.0</ele><time>2026-05-01T07:38:21.999Z</time></trkpt><trkpt lat="44.3931607853496" lon="10.800625211625986"><ele>747.5</ele><time>2026-05-01T07:38:22.999Z</time></trkpt><trkpt lat="44.39316003989755" lon="10.800507766972965"><ele>747.0</ele><time>2026-05-01T07:38:23.999Z</time></trkpt><trkpt lat="44.39316321080696" lon="10.800400674461764"><ele>746.5</ele><time>2026-05-01T07:38:24.999Z</time></trkpt><trkpt lat="44.39317254946599" lon="10.80029234338505"><ele>746.0</ele><time>2026-05-01T07:38:25.999Z</time></trkpt><trkpt lat="44.39319175486711" lon="10.800172925776915"><ele>745.5</ele><time>2026-05-01T07:38:26.999Z</time></trkpt><trkpt lat="44.39320269110368" lon="10.80003639091357"><ele>745.0</ele><time>2026-05-01T07:38:27.999Z</time></trkpt><trkpt lat="44.39321693398536" lon="10.799893883831178"><ele>744.4</ele><time>2026-05-01T07:38:28.999Z</time></trkpt><trkpt lat="44.393246106124494" lon="10.799756673742674"><ele>743.8</ele><time>2026-05-01T07:38:29.999Z</time></trkpt><trkpt lat="44.39326951734303" lon="10.799613753297999"><ele>743.2</ele><time>2026-05-01T07:38:30.999Z</time></trkpt><trkpt lat="44.39331289648913" lon="10.799482971133868"><ele>742.6</ele><time>2026-05-01T07:38:31.999Z</time></trkpt><trkpt lat="44.393350923484455" lon="10.79935418100439"><ele>742.0</ele><time>2026-05-01T07:38:32.999Z</time></trkpt><trkpt lat="44.39338969062811" lon="10.799212830023128"><ele>741.1666666666667</ele><time>2026-05-01T07:38:33.999Z</time></trkpt><trkpt lat="44.39344813038818" lon="10.79909948518278"><ele>740.3333333333334</ele><time>2026-05-01T07:38:34.999Z</time></trkpt><trkpt lat="44.39350411438708" lon="10.799017747503454"><ele>739.5</ele><time>2026-05-01T07:38:35.999Z</time></trkpt><trkpt lat="44.39353486509595" lon="10.798930257777126"><ele>738.6666666666666</ele><time>2026-05-01T07:38:36.999Z</time></trkpt><trkpt lat="44.39357461152337" lon="10.798852836398446"><ele>737.8333333333333</ele><time>2026-05-01T07:38:37.999Z</time></trkpt><trkpt lat="44.39360577564299" lon="10.798761408426152"><ele>737.0</ele><time>2026-05-01T07:38:38.999Z</time></trkpt><trkpt lat="44.393620947796634" lon="10.798662368264852"><ele>737.0</ele><time>2026-05-01T07:38:39.999Z</time></trkpt><trkpt lat="44.393622370453585" lon="10.798553948657704"><ele>737.0</ele><time>2026-05-01T07:38:40.999Z</time></trkpt><trkpt lat="44.39362507766767" lon="10.798433709820097"><ele>737.0</ele><time>2026-05-01T07:38:41.999Z</time></trkpt><trkpt lat="44.393631509516204" lon="10.798308890606501"><ele>737.0</ele><time>2026-05-01T07:38:42.999Z</time></trkpt><trkpt lat="44.393641079717014" lon="10.798183975203246"><ele>737.0</ele><time>2026-05-01T07:38:43.999Z</time></trkpt><trkpt lat="44.39362564716176" lon="10.798060770506916"><ele>737.0</ele><time>2026-05-01T07:38:44.999Z</time></trkpt><trkpt lat="44.393623779735584" lon="10.797955358512613"><ele>735.8333333333333</ele><time>2026-05-01T07:38:45.999Z</time></trkpt><trkpt lat="44.39362768354857" lon="10.797845568481128"><ele>734.6666666666666</ele><time>2026-05-01T07:38:46.999Z</time></trkpt><trkpt lat="44.393626973228635" lon="10.797724921729836"><ele>733.5</ele><time>2026-05-01T07:38:47.999Z</time></trkpt><trkpt lat="44.393611960411576" lon="10.797610200422463"><ele>732.3333333333334</ele><time>2026-05-01T07:38:48.999Z</time></trkpt><trkpt lat="44.39360624279507" lon="10.797492212731534"><ele>731.1666666666667</ele><time>2026-05-01T07:38:49.999Z</time></trkpt><trkpt lat="44.39361213428734" lon="10.797390849053858"><ele>730.0</ele><time>2026-05-01T07:38:50.999Z</time></trkpt><trkpt lat="44.39359229613921" lon="10.797298421525078"><ele>729.0</ele><time>2026-05-01T07:38:51.999Z</time></trkpt><trkpt lat="44.393606023271936" lon="10.797164017261764"><ele>728.0</ele><time>2026-05-01T07:38:53.999Z</time></trkpt><trkpt lat="44.39365484303466" lon="10.797029489788265"><ele>727.0</ele><time>2026-05-01T07:38:55.999Z</time></trkpt><trkpt lat="44.393700268106386" lon="10.796928969758536"><ele>726.0</ele><time>2026-05-01T07:38:57Z</time></trkpt><trkpt lat="44.393735912009596" lon="10.79682894682273"><ele>725.0</ele><time>2026-05-01T07:38:58Z</time></trkpt><trkpt lat="44.39376227942241" lon="10.796725205621964"><ele>724.0</ele><time>2026-05-01T07:38:59Z</time></trkpt><trkpt lat="44.39378863960518" lon="10.796606724123997"><ele>722.8333333333334</ele><time>2026-05-01T07:39:00Z</time></trkpt><trkpt lat="44.393796619998014" lon="10.79649513524568"><ele>721.6666666666667</ele><time>2026-05-01T07:39:01Z</time></trkpt><trkpt lat="44.393798772396465" lon="10.796390129862178"><ele>720.5</ele><time>2026-05-01T07:39:02Z</time></trkpt><trkpt lat="44.39379491084768" lon="10.796285621029051"><ele>719.3333333333334</ele><time>2026-05-01T07:39:03Z</time></trkpt><trkpt lat="44.393780290732124" lon="10.796171919082001"><ele>718.1666666666666</ele><time>2026-05-01T07:39:04Z</time></trkpt><trkpt lat="44.39376011012565" lon="10.796038191321852"><ele>717.0</ele><time>2026-05-01T07:39:05Z</time></trkpt><trkpt lat="44.39375319345052" lon="10.795900473222266"><ele>715.0</ele><time>2026-05-01T07:39:06Z</time></trkpt><trkpt lat="44.39375465390256" lon="10.795762911876622"><ele>713.0</ele><time>2026-05-01T07:39:07Z</time></trkpt><trkpt lat="44.3937604859767" lon="10.795649244466931"><ele>711.0</ele><time>2026-05-01T07:39:08Z</time></trkpt><trkpt lat="44.39376361452914" lon="10.795548876528573"><ele>709.0</ele><time>2026-05-01T07:39:09Z</time></trkpt><trkpt lat="44.393770985636785" lon="10.795457931876618"><ele>707.0</ele><time>2026-05-01T07:39:10Z</time></trkpt><trkpt lat="44.393783411535345" lon="10.795366011448687"><ele>705.0</ele><time>2026-05-01T07:39:11Z</time></trkpt><trkpt lat="44.393788292315534" lon="10.795265425837579"><ele>703.6666666666666</ele><time>2026-05-01T07:39:12Z</time></trkpt><trkpt lat="44.39379471185609" lon="10.79514464580177"><ele>702.3333333333334</ele><time>2026-05-01T07:39:13Z</time></trkpt><trkpt lat="44.393795631613855" lon="10.79501997630946"><ele>701.0</ele><time>2026-05-01T07:39:14Z</time></trkpt><trkpt lat="44.393798998488066" lon="10.794919342612584"><ele>699.6666666666667</ele><time>2026-05-01T07:39:15Z</time></trkpt><trkpt lat="44.39378764965635" lon="10.794816853180306"><ele>698.3333333333334</ele><time>2026-05-01T07:39:16Z</time></trkpt><trkpt lat="44.39378519812902" lon="10.794724093067616"><ele>697.0</ele><time>2026-05-01T07:39:17Z</time></trkpt><trkpt lat="44.393774930153675" lon="10.794599599778207"><ele>697.0</ele><time>2026-05-01T07:39:19Z</time></trkpt><trkpt lat="44.39372132593471" lon="10.794521157601805"><ele>697.0</ele><time>2026-05-01T07:39:43Z</time></trkpt><trkpt lat="44.39363695714656" lon="10.794468569724994"><ele>697.0</ele><time>2026-05-01T07:39:45Z</time></trkpt><trkpt lat="44.393588496221916" lon="10.794396721845247"><ele>697.0</ele><time>2026-05-01T07:39:47.999Z</time></trkpt><trkpt lat="44.39352357345285" lon="10.794281886143144"><ele>697.0</ele><time>2026-05-01T07:39:49.999Z</time></trkpt><trkpt lat="44.39348097140365" lon="10.794199849976078"><ele>697.0</ele><time>2026-05-01T07:39:50.999Z</time></trkpt><trkpt lat="44.393421518422514" lon="10.79412936986336"><ele>696.1666666666667</ele><time>2026-05-01T07:39:51.999Z</time></trkpt><trkpt lat="44.39332009996385" lon="10.794039074758151"><ele>695.3333333333334</ele><time>2026-05-01T07:39:53.999Z</time></trkpt><trkpt lat="44.3932666088381" lon="10.793986435444074"><ele>694.5</ele><time>2026-05-01T07:39:54.999Z</time></trkpt><trkpt lat="44.393202074459836" lon="10.793937066792758"><ele>693.6666666666666</ele><time>2026-05-01T07:39:55.999Z</time></trkpt><trkpt lat="44.39314761150902" lon="10.793883415382217"><ele>692.8333333333333</ele><time>2026-05-01T07:39:56.999Z</time></trkpt><trkpt lat="44.39309870974575" lon="10.793816158695776"><ele>692.0</ele><time>2026-05-01T07:39:58.999Z</time></trkpt><trkpt lat="44.393039725933995" lon="10.793773429823506"><ele>691.8</ele><time>2026-05-01T07:40:00.999Z</time></trkpt><trkpt lat="44.39291311995617" lon="10.793794196206273"><ele>691.6</ele><time>2026-05-01T07:40:02.999Z</time></trkpt><trkpt lat="44.392847823497995" lon="10.793785240247685"><ele>691.4</ele><time>2026-05-01T07:40:03.999Z</time></trkpt><trkpt lat="44.39273548227733" lon="10.793811232709723"><ele>691.1999999999999</ele><time>2026-05-01T07:40:05.999Z</time></trkpt><trkpt lat="44.392644255082146" lon="10.793770020571099"><ele>691.0</ele><time>2026-05-01T07:40:07.999Z</time></trkpt><trkpt lat="44.392590432183155" lon="10.793710613519394"><ele>691.0</ele><time>2026-05-01T07:40:08.999Z</time></trkpt><trkpt lat="44.39252877523548" lon="10.793644635466604"><ele>691.0</ele><time>2026-05-01T07:40:09.999Z</time></trkpt><trkpt lat="44.392470544437614" lon="10.793566526450498"><ele>691.0</ele><time>2026-05-01T07:40:10.999Z</time></trkpt><trkpt lat="44.392418682516436" lon="10.793505471298682"><ele>691.0</ele><time>2026-05-01T07:40:11.999Z</time></trkpt><trkpt lat="44.39235572801682" lon="10.793478463620202"><ele>691.0</ele><time>2026-05-01T07:40:12.999Z</time></trkpt><trkpt lat="44.392271770399866" lon="10.793477803096641"><ele>691.0</ele><time>2026-05-01T07:40:14.999Z</time></trkpt><trkpt lat="44.39215840890355" lon="10.793487625572412"><ele>689.6666666666667</ele><time>2026-05-01T07:40:16.999Z</time></trkpt><trkpt lat="44.392097107900995" lon="10.793557268443383"><ele>688.3333333333334</ele><time>2026-05-01T07:40:17.999Z</time></trkpt><trkpt lat="44.392018562833606" lon="10.793624608743677"><ele>687.0</ele><time>2026-05-01T07:40:18.999Z</time></trkpt><trkpt lat="44.39194862464241" lon="10.793741336723095"><ele>685.6666666666666</ele><time>2026-05-01T07:40:20.999Z</time></trkpt><trkpt lat="44.39189622351898" lon="10.793822595827326"><ele>684.3333333333333</ele><time>2026-05-01T07:40:21.999Z</time></trkpt><trkpt lat="44.391824571596196" lon="10.793900494228238"><ele>683.0</ele><time>2026-05-01T07:40:22.999Z</time></trkpt><trkpt lat="44.39177205123008" lon="10.794015588592899"><ele>683.0</ele><time>2026-05-01T07:40:24.999Z</time></trkpt><trkpt lat="44.39171480416411" lon="10.794085270077579"><ele>683.0</ele><time>2026-05-01T07:40:27.999Z</time></trkpt><trkpt lat="44.39161335692012" lon="10.794049352105024"><ele>683.0</ele><time>2026-05-01T07:40:29.999Z</time></trkpt><trkpt lat="44.39154958934515" lon="10.793975410119675"><ele>683.0</ele><time>2026-05-01T07:40:31.999Z</time></trkpt><trkpt lat="44.391441306280726" lon="10.793964909173495"><ele>683.0</ele><time>2026-05-01T07:40:33.999Z</time></trkpt><trkpt lat="44.391344614353414" lon="10.793943273481325"><ele>682.0</ele><time>2026-05-01T07:40:35.999Z</time></trkpt><trkpt lat="44.39124138094074" lon="10.793952589043696"><ele>681.0</ele><time>2026-05-01T07:40:37.999Z</time></trkpt><trkpt lat="44.39113344364667" lon="10.793986871857024"><ele>680.0</ele><time>2026-05-01T07:40:39.999Z</time></trkpt><trkpt lat="44.39104078910603" lon="10.793975823293522"><ele>679.0</ele><time>2026-05-01T07:40:41.999Z</time></trkpt><trkpt lat="44.390930500520376" lon="10.793985979566493"><ele>678.0</ele><time>2026-05-01T07:40:43.999Z</time></trkpt><trkpt lat="44.39084971364723" lon="10.794001434741684"><ele>678.0</ele><time>2026-05-01T07:40:44.999Z</time></trkpt><trkpt lat="44.39078760338231" lon="10.794019729198016"><ele>678.0</ele><time>2026-05-01T07:40:45.999Z</time></trkpt><trkpt lat="44.39070643132616" lon="10.79407655631239"><ele>678.0</ele><time>2026-05-01T07:40:47.999Z</time></trkpt><trkpt lat="44.39064694215774" lon="10.794157524015018"><ele>678.0</ele><time>2026-05-01T07:40:49.999Z</time></trkpt><trkpt lat="44.390541075711866" lon="10.794205405112793"><ele>678.0</ele><time>2026-05-01T07:40:51.999Z</time></trkpt><trkpt lat="44.390475374194196" lon="10.794233662003467"><ele>678.0</ele><time>2026-05-01T07:40:52.999Z</time></trkpt><trkpt lat="44.39040717078752" lon="10.794268360874334"><ele>677.8333333333334</ele><time>2026-05-01T07:40:53.999Z</time></trkpt><trkpt lat="44.390338904736765" lon="10.794305233769474"><ele>677.6666666666666</ele><time>2026-05-01T07:40:54.999Z</time></trkpt><trkpt lat="44.39027573304252" lon="10.79433634958585"><ele>677.5</ele><time>2026-05-01T07:40:55.999Z</time></trkpt><trkpt lat="44.39014609056402" lon="10.794337752548827"><ele>677.3333333333333</ele><time>2026-05-01T07:40:57.999Z</time></trkpt><trkpt lat="44.39007479618397" lon="10.794337519678631"><ele>677.1666666666666</ele><time>2026-05-01T07:40:58.999Z</time></trkpt><trkpt lat="44.39001122293394" lon="10.794356215551963"><ele>677.0</ele><time>2026-05-01T07:40:59.999Z</time></trkpt><trkpt lat="44.3899371260648" lon="10.794461165245666"><ele>678.1666666666666</ele><time>2026-05-01T07:41:01.999Z</time></trkpt><trkpt lat="44.389902419643974" lon="10.79461567037992"><ele>679.3333333333333</ele><time>2026-05-01T07:41:04Z</time></trkpt><trkpt lat="44.389884579345235" lon="10.79470245473234"><ele>680.5</ele><time>2026-05-01T07:41:05Z</time></trkpt><trkpt lat="44.38987401586091" lon="10.79479477609355"><ele>681.6666666666666</ele><time>2026-05-01T07:41:06Z</time></trkpt><trkpt lat="44.38985446258683" lon="10.794925622002706"><ele>682.8333333333334</ele><time>2026-05-01T07:41:08Z</time></trkpt><trkpt lat="44.38982210854598" lon="10.795022635599171"><ele>684.0</ele><time>2026-05-01T07:41:10Z</time></trkpt><trkpt lat="44.38972384146763" lon="10.79506176878676"><ele>685.0</ele><time>2026-05-01T07:41:12Z</time></trkpt><trkpt lat="44.389639163781965" lon="10.794944011393435"><ele>686.0</ele><time>2026-05-01T07:41:14Z</time></trkpt><trkpt lat="44.38958989606796" lon="10.79488537199107"><ele>687.0</ele><time>2026-05-01T07:41:15Z</time></trkpt><trkpt lat="44.38946407322998" lon="10.794829715271831"><ele>688.0</ele><time>2026-05-01T07:41:17Z</time></trkpt><trkpt lat="44.38939233906592" lon="10.794824142469729"><ele>689.0</ele><time>2026-05-01T07:41:18Z</time></trkpt><trkpt lat="44.38933009625564" lon="10.79479267300293"><ele>689.0</ele><time>2026-05-01T07:41:19Z</time></trkpt><trkpt lat="44.38927045106224" lon="10.794708339115507"><ele>689.0</ele><time>2026-05-01T07:41:20Z</time></trkpt><trkpt lat="44.38924368315292" lon="10.79459127705394"><ele>689.0</ele><time>2026-05-01T07:41:21Z</time></trkpt><trkpt lat="44.389198285748236" lon="10.794507121162757"><ele>689.0</ele><time>2026-05-01T07:41:22Z</time></trkpt><trkpt lat="44.38910957799363" lon="10.794466819474966"><ele>689.0</ele><time>2026-05-01T07:41:23Z</time></trkpt><trkpt lat="44.38900618099185" lon="10.794455364996807"><ele>689.0</ele><time>2026-05-01T07:41:24Z</time></trkpt><trkpt lat="44.38890376961435" lon="10.79451003053657"><ele>688.0</ele><time>2026-05-01T07:41:25Z</time></trkpt><trkpt lat="44.38877166012529" lon="10.794574931421549"><ele>687.0</ele><time>2026-05-01T07:41:26Z</time></trkpt><trkpt lat="44.38863453566669" lon="10.794667067464726"><ele>686.0</ele><time>2026-05-01T07:41:27Z</time></trkpt><trkpt lat="44.38848268850392" lon="10.794761550565175"><ele>686.0</ele><time>2026-05-01T07:41:28Z</time></trkpt><trkpt lat="44.38838673691865" lon="10.794844068328693"><ele>686.0</ele><time>2026-05-01T07:41:29Z</time></trkpt><trkpt lat="44.388299764844604" lon="10.794894686297825"><ele>686.0</ele><time>2026-05-01T07:41:30Z</time></trkpt><trkpt lat="44.38821500145162" lon="10.79492691041785"><ele>686.0</ele><time>2026-05-01T07:41:31Z</time></trkpt><trkpt lat="44.38813529890459" lon="10.794927604122675"><ele>686.0</ele><time>2026-05-01T07:41:32Z</time></trkpt><trkpt lat="44.38806364463732" lon="10.794934390752482"><ele>686.0</ele><time>2026-05-01T07:41:33Z</time></trkpt><trkpt lat="44.38795800613449" lon="10.794932611003238"><ele>686.4</ele><time>2026-05-01T07:41:34Z</time></trkpt><trkpt lat="44.387848994981965" lon="10.794897287375406"><ele>686.8</ele><time>2026-05-01T07:41:35Z</time></trkpt><trkpt lat="44.38773466503311" lon="10.79486878842083"><ele>687.1999999999999</ele><time>2026-05-01T07:41:36Z</time></trkpt><trkpt lat="44.38762007993319" lon="10.794830722681011"><ele>687.5999999999999</ele><time>2026-05-01T07:41:37Z</time></trkpt><trkpt lat="44.38753679122104" lon="10.794831059422037"><ele>688.0</ele><time>2026-05-01T07:41:38Z</time></trkpt><trkpt lat="44.38743872471417" lon="10.794818755996122"><ele>688.0</ele><time>2026-05-01T07:41:39Z</time></trkpt><trkpt lat="44.38733639350958" lon="10.794791741585751"><ele>688.0</ele><time>2026-05-01T07:41:40Z</time></trkpt><trkpt lat="44.38723994047262" lon="10.794758875098982"><ele>688.0</ele><time>2026-05-01T07:41:41Z</time></trkpt><trkpt lat="44.387141726789245" lon="10.794759006514097"><ele>688.0</ele><time>2026-05-01T07:41:42Z</time></trkpt><trkpt lat="44.387052386471126" lon="10.79475131397777"><ele>688.0</ele><time>2026-05-01T07:41:43Z</time></trkpt><trkpt lat="44.38698897637301" lon="10.794805151774774"><ele>686.8333333333334</ele><time>2026-05-01T07:41:44Z</time></trkpt><trkpt lat="44.38692148810747" lon="10.79485146224373"><ele>685.6666666666667</ele><time>2026-05-01T07:41:45Z</time></trkpt><trkpt lat="44.3868464403552" lon="10.794886393266856"><ele>684.5</ele><time>2026-05-01T07:41:46Z</time></trkpt><trkpt lat="44.38678226639138" lon="10.794938755880567"><ele>683.3333333333334</ele><time>2026-05-01T07:41:47Z</time></trkpt><trkpt lat="44.386693454852235" lon="10.795079883991875"><ele>682.1666666666666</ele><time>2026-05-01T07:41:49Z</time></trkpt><trkpt lat="44.38662544658002" lon="10.795120290595278"><ele>681.0</ele><time>2026-05-01T07:41:50Z</time></trkpt><trkpt lat="44.38655922904394" lon="10.795163615325341"><ele>680.7142857142858</ele><time>2026-05-01T07:41:51Z</time></trkpt><trkpt lat="44.38649399239619" lon="10.795189051584902"><ele>680.4285714285714</ele><time>2026-05-01T07:41:51.999Z</time></trkpt><trkpt lat="44.38641793921416" lon="10.79521245489092"><ele>680.1428571428571</ele><time>2026-05-01T07:41:52.999Z</time></trkpt><trkpt lat="44.386349781525304" lon="10.795240010665216"><ele>679.8571428571429</ele><time>2026-05-01T07:41:53.999Z</time></trkpt><trkpt lat="44.38629944350646" lon="10.795295527003882"><ele>679.5714285714286</ele><time>2026-05-01T07:41:54.999Z</time></trkpt><trkpt lat="44.38623329335855" lon="10.7953468565766"><ele>679.2857142857143</ele><time>2026-05-01T07:41:55.999Z</time></trkpt><trkpt lat="44.386165278417174" lon="10.79542123089151"><ele>679.0</ele><time>2026-05-01T07:41:56.999Z</time></trkpt><trkpt lat="44.38607740191459" lon="10.795520106138913"><ele>679.0</ele><time>2026-05-01T07:41:57.999Z</time></trkpt><trkpt lat="44.38598536042998" lon="10.795566532193714"><ele>679.0</ele><time>2026-05-01T07:41:58.999Z</time></trkpt><trkpt lat="44.38588425569278" lon="10.795608540343713"><ele>679.0</ele><time>2026-05-01T07:41:59.999Z</time></trkpt><trkpt lat="44.38578656494721" lon="10.795664179471158"><ele>679.0</ele><time>2026-05-01T07:42:00.999Z</time></trkpt><trkpt lat="44.385683502689574" lon="10.795730651114415"><ele>679.0</ele><time>2026-05-01T07:42:01.999Z</time></trkpt><trkpt lat="44.38557274450428" lon="10.795802852626128"><ele>678.5</ele><time>2026-05-01T07:42:02.999Z</time></trkpt><trkpt lat="44.38547223402094" lon="10.795862104160374"><ele>678.0</ele><time>2026-05-01T07:42:03.999Z</time></trkpt><trkpt lat="44.385394683821005" lon="10.795901204187956"><ele>677.5</ele><time>2026-05-01T07:42:04.999Z</time></trkpt><trkpt lat="44.385314584578474" lon="10.795936838608737"><ele>677.0</ele><time>2026-05-01T07:42:05.999Z</time></trkpt><trkpt lat="44.385246332428444" lon="10.795983926982249"><ele>676.5</ele><time>2026-05-01T07:42:06.999Z</time></trkpt><trkpt lat="44.385191335846045" lon="10.796057508383015"><ele>676.0</ele><time>2026-05-01T07:42:07.999Z</time></trkpt><trkpt lat="44.38514657186337" lon="10.796159440411653"><ele>676.0</ele><time>2026-05-01T07:42:08.999Z</time></trkpt><trkpt lat="44.38512661664244" lon="10.796296309803612"><ele>676.0</ele><time>2026-05-01T07:42:09.999Z</time></trkpt><trkpt lat="44.3851010537411" lon="10.79640265635838"><ele>676.0</ele><time>2026-05-01T07:42:10.999Z</time></trkpt><trkpt lat="44.385072125983775" lon="10.796501274972863"><ele>676.0</ele><time>2026-05-01T07:42:11.999Z</time></trkpt><trkpt lat="44.385049425673664" lon="10.796605871280095"><ele>676.0</ele><time>2026-05-01T07:42:12.999Z</time></trkpt><trkpt lat="44.385004436686145" lon="10.79670134412956"><ele>676.0</ele><time>2026-05-01T07:42:13.999Z</time></trkpt><trkpt lat="44.38495864573621" lon="10.796797957297121"><ele>675.5999999999999</ele><time>2026-05-01T07:42:14.999Z</time></trkpt><trkpt lat="44.38493028279706" lon="10.796907478809965"><ele>675.2</ele><time>2026-05-01T07:42:15.999Z</time></trkpt><trkpt lat="44.38489105233213" lon="10.79705804082068"><ele>674.8</ele><time>2026-05-01T07:42:17.999Z</time></trkpt><trkpt lat="44.384808662890585" lon="10.797102557295363"><ele>674.4000000000001</ele><time>2026-05-01T07:42:19.999Z</time></trkpt><trkpt lat="44.38468989157365" lon="10.797096216363045"><ele>674.0</ele><time>2026-05-01T07:42:21.999Z</time></trkpt><trkpt lat="44.38456860918223" lon="10.797104512853704"><ele>674.0</ele><time>2026-05-01T07:42:23.999Z</time></trkpt><trkpt lat="44.38444923611855" lon="10.79708513913311"><ele>674.0</ele><time>2026-05-01T07:42:25.999Z</time></trkpt><trkpt lat="44.38432867695449" lon="10.797125246018153"><ele>674.0</ele><time>2026-05-01T07:42:27.999Z</time></trkpt><trkpt lat="44.38420961411517" lon="10.797166976620497"><ele>674.0</ele><time>2026-05-01T07:42:29.999Z</time></trkpt><trkpt lat="44.384145180294816" lon="10.797177696733204"><ele>674.0</ele><time>2026-05-01T07:42:30.999Z</time></trkpt><trkpt lat="44.38403394486138" lon="10.797248986277955"><ele>674.0</ele><time>2026-05-01T07:42:32.999Z</time></trkpt><trkpt lat="44.383976949400044" lon="10.797287697080362"><ele>674.0</ele><time>2026-05-01T07:42:33.999Z</time></trkpt><trkpt lat="44.38391830461072" lon="10.797328352664199"><ele>674.0</ele><time>2026-05-01T07:42:34.999Z</time></trkpt><trkpt lat="44.38390597303569" lon="10.797552435052397"><ele>674.0</ele><time>2026-05-01T07:42:36.999Z</time></trkpt><trkpt lat="44.38388036799399" lon="10.797649613656406"><ele>674.0</ele><time>2026-05-01T07:42:37.999Z</time></trkpt><trkpt lat="44.38386837157295" lon="10.79774867915751"><ele>674.0</ele><time>2026-05-01T07:42:38.999Z</time></trkpt><trkpt lat="44.38385986620896" lon="10.797847937824114"><ele>675.3333333333333</ele><time>2026-05-01T07:42:39.999Z</time></trkpt><trkpt lat="44.38386556982735" lon="10.797942608497893"><ele>676.6666666666666</ele><time>2026-05-01T07:42:40.999Z</time></trkpt><trkpt lat="44.383898276099565" lon="10.798045952610288"><ele>678.0</ele><time>2026-05-01T07:42:42.999Z</time></trkpt><trkpt lat="44.38359684663645" lon="10.798083561023251"><ele>677.1666666666666</ele><time>2026-05-01T07:43:13Z</time></trkpt><trkpt lat="44.38350819709494" lon="10.798157485414656"><ele>676.3333333333334</ele><time>2026-05-01T07:43:15Z</time></trkpt><trkpt lat="44.383432423448674" lon="10.79827552218095"><ele>675.5</ele><time>2026-05-01T07:43:17Z</time></trkpt><trkpt lat="44.383398896936896" lon="10.798354528908547"><ele>674.6666666666667</ele><time>2026-05-01T07:43:18Z</time></trkpt><trkpt lat="44.38336082149563" lon="10.798438670380069"><ele>673.8333333333334</ele><time>2026-05-01T07:43:19Z</time></trkpt><trkpt lat="44.38332530572655" lon="10.798529418604254"><ele>673.0</ele><time>2026-05-01T07:43:21Z</time></trkpt><trkpt lat="44.383279272550226" lon="10.798636167881913"><ele>673.0</ele><time>2026-05-01T07:43:23Z</time></trkpt><trkpt lat="44.38322853280245" lon="10.798766193750765"><ele>673.0</ele><time>2026-05-01T07:43:25Z</time></trkpt><trkpt lat="44.38318045114151" lon="10.798896963583616"><ele>673.0</ele><time>2026-05-01T07:43:27Z</time></trkpt><trkpt lat="44.38314047245135" lon="10.799019343034784"><ele>673.0</ele><time>2026-05-01T07:43:29Z</time></trkpt><trkpt lat="44.383095920942395" lon="10.79910198977493"><ele>673.0</ele><time>2026-05-01T07:43:31Z</time></trkpt><trkpt lat="44.382996046377315" lon="10.79912240399918"><ele>671.0</ele><time>2026-05-01T07:43:33Z</time></trkpt><trkpt lat="44.38293344854117" lon="10.799140260820058"><ele>669.0</ele><time>2026-05-01T07:43:34Z</time></trkpt><trkpt lat="44.38286848232046" lon="10.7991677119522"><ele>667.0</ele><time>2026-05-01T07:43:35Z</time></trkpt><trkpt lat="44.382776018759714" lon="10.799183203388766"><ele>665.0</ele><time>2026-05-01T07:43:37Z</time></trkpt><trkpt lat="44.38269526208289" lon="10.799179650279946"><ele>663.0</ele><time>2026-05-01T07:43:39Z</time></trkpt><trkpt lat="44.38257764782004" lon="10.799182642263336"><ele>661.0</ele><time>2026-05-01T07:43:41Z</time></trkpt><trkpt lat="44.38248537381876" lon="10.799226504058973"><ele>661.0</ele><time>2026-05-01T07:43:43Z</time></trkpt><trkpt lat="44.38239321804726" lon="10.799248783471139"><ele>661.0</ele><time>2026-05-01T07:43:45Z</time></trkpt><trkpt lat="44.38229401759346" lon="10.799250495925145"><ele>661.0</ele><time>2026-05-01T07:43:47Z</time></trkpt><trkpt lat="44.382223258463135" lon="10.799274828894012"><ele>661.0</ele><time>2026-05-01T07:43:49Z</time></trkpt><trkpt lat="44.38215600419438" lon="10.799313499264125"><ele>661.0</ele><time>2026-05-01T07:43:52Z</time></trkpt><trkpt lat="44.382064678664506" lon="10.799333728784722"><ele>661.0</ele><time>2026-05-01T07:43:55Z</time></trkpt><trkpt lat="44.38198350447455" lon="10.799394146456955"><ele>661.6666666666667</ele><time>2026-05-01T07:43:57Z</time></trkpt><trkpt lat="44.38192335489465" lon="10.799487659054856"><ele>662.3333333333334</ele><time>2026-05-01T07:43:59Z</time></trkpt><trkpt lat="44.38187254413772" lon="10.799584686471267"><ele>663.0</ele><time>2026-05-01T07:44:01Z</time></trkpt><trkpt lat="44.381856598440926" lon="10.799673908590387"><ele>663.6666666666666</ele><time>2026-05-01T07:44:03Z</time></trkpt><trkpt lat="44.381790021166886" lon="10.799670172477082"><ele>664.3333333333333</ele><time>2026-05-01T07:51:50Z</time></trkpt><trkpt lat="44.381684863339956" lon="10.799657027918451"><ele>665.0</ele><time>2026-05-01T07:51:53Z</time></trkpt><trkpt lat="44.38157766109435" lon="10.799695688502801"><ele>665.0</ele><time>2026-05-01T07:51:55Z</time></trkpt><trkpt lat="44.38151732363529" lon="10.799781710917355"><ele>665.0</ele><time>2026-05-01T07:51:57Z</time></trkpt><trkpt lat="44.3814641162757" lon="10.799868565558963"><ele>665.0</ele><time>2026-05-01T07:51:59Z</time></trkpt><trkpt lat="44.3813644982969" lon="10.799940720010468"><ele>665.0</ele><time>2026-05-01T07:52:01Z</time></trkpt><trkpt lat="44.38128902344472" lon="10.79994810072846"><ele>665.0</ele><time>2026-05-01T07:52:03Z</time></trkpt><trkpt lat="44.381214004171156" lon="10.799919837431425"><ele>665.0</ele><time>2026-05-01T07:52:05Z</time></trkpt><trkpt lat="44.38116916143662" lon="10.80003110945171"><ele>668.0</ele><time>2026-05-01T07:52:07Z</time></trkpt><trkpt lat="44.38111803724681" lon="10.800140064133249"><ele>671.0</ele><time>2026-05-01T07:52:09Z</time></trkpt><trkpt lat="44.38102892250015" lon="10.800155436299107"><ele>674.0</ele><time>2026-05-01T07:52:11Z</time></trkpt><trkpt lat="44.380918195756955" lon="10.800188668988405"><ele>677.0</ele><time>2026-05-01T07:52:13Z</time></trkpt><trkpt lat="44.38086598231552" lon="10.800284813244552"><ele>680.0</ele><time>2026-05-01T07:52:15Z</time></trkpt><trkpt lat="44.38079247908168" lon="10.800371345175222"><ele>680.0</ele><time>2026-05-01T07:52:17Z</time></trkpt><trkpt lat="44.38074267926806" lon="10.800443044133631"><ele>680.0</ele><time>2026-05-01T07:52:19Z</time></trkpt><trkpt lat="44.380752902165824" lon="10.800589509986798"><ele>680.0</ele><time>2026-05-01T07:52:22Z</time></trkpt><trkpt lat="44.38072127673047" lon="10.800691686012277"><ele>680.0</ele><time>2026-05-01T07:52:24Z</time></trkpt><trkpt lat="44.380703196125936" lon="10.800795418293921"><ele>680.0</ele><time>2026-05-01T07:52:26Z</time></trkpt><trkpt lat="44.38064329064384" lon="10.800861838408402"><ele>680.0</ele><time>2026-05-01T07:52:28Z</time></trkpt><trkpt lat="44.38057274609849" lon="10.800855177003488"><ele>680.0</ele><time>2026-05-01T07:52:30Z</time></trkpt><trkpt lat="44.38051671423441" lon="10.800757942987573"><ele>680.0</ele><time>2026-05-01T07:52:32.999Z</time></trkpt><trkpt lat="44.38052860084097" lon="10.800667302520294"><ele>680.0</ele><time>2026-05-01T07:52:34.999Z</time></trkpt><trkpt lat="44.38054305580575" lon="10.800574295221091"><ele>680.0</ele><time>2026-05-01T07:52:36.999Z</time></trkpt><trkpt lat="44.380558110550155" lon="10.800404075879916"><ele>680.0</ele><time>2026-05-01T07:52:38.999Z</time></trkpt><trkpt lat="44.38055528710939" lon="10.800311918881922"><ele>680.0</ele><time>2026-05-01T07:52:39.999Z</time></trkpt><trkpt lat="44.380600114136676" lon="10.80021520224688"><ele>680.8333333333333</ele><time>2026-05-01T07:52:40.999Z</time></trkpt><trkpt lat="44.380646316889276" lon="10.800125430694791"><ele>681.6666666666666</ele><time>2026-05-01T07:52:42.999Z</time></trkpt><trkpt lat="44.380692273310146" lon="10.8000252737622"><ele>682.5</ele><time>2026-05-01T07:52:44.999Z</time></trkpt><trkpt lat="44.380679160866244" lon="10.799904685917813"><ele>683.3333333333334</ele><time>2026-05-01T07:52:46.999Z</time></trkpt><trkpt lat="44.38065280938477" lon="10.799764151344343"><ele>684.1666666666667</ele><time>2026-05-01T07:52:48.999Z</time></trkpt><trkpt lat="44.38058249265803" lon="10.799680937741783"><ele>685.0</ele><time>2026-05-01T07:52:50.999Z</time></trkpt><trkpt lat="44.380482004717706" lon="10.799590921215163"><ele>688.6666666666667</ele><time>2026-05-01T07:52:52.999Z</time></trkpt><trkpt lat="44.38041060978767" lon="10.799573105888044"><ele>692.3333333333334</ele><time>2026-05-01T07:52:54.999Z</time></trkpt><trkpt lat="44.38033110145053" lon="10.799530638379244"><ele>696.0</ele><time>2026-05-01T07:52:56.999Z</time></trkpt><trkpt lat="44.38027733564623" lon="10.799612083555765"><ele>699.6666666666666</ele><time>2026-05-01T07:53:03.999Z</time></trkpt><trkpt lat="44.38026450416681" lon="10.799751453182752"><ele>703.3333333333333</ele><time>2026-05-01T07:53:05.999Z</time></trkpt><trkpt lat="44.38024147538397" lon="10.799884439487874"><ele>707.0</ele><time>2026-05-01T07:53:07.999Z</time></trkpt><trkpt lat="44.38021486797156" lon="10.800018862356906"><ele>707.0</ele><time>2026-05-01T07:53:09.999Z</time></trkpt><trkpt lat="44.38022782544727" lon="10.800108858617184"><ele>707.0</ele><time>2026-05-01T07:53:10.999Z</time></trkpt><trkpt lat="44.38019473943782" lon="10.8002325067475"><ele>707.0</ele><time>2026-05-01T07:53:12.999Z</time></trkpt><trkpt lat="44.380191984897216" lon="10.800388655182926"><ele>707.0</ele><time>2026-05-01T07:53:14.999Z</time></trkpt><trkpt lat="44.38012758954726" lon="10.80050865365772"><ele>707.0</ele><time>2026-05-01T07:53:16.999Z</time></trkpt><trkpt lat="44.38006745289082" lon="10.800546665248756"><ele>707.0</ele><time>2026-05-01T07:53:17.999Z</time></trkpt><trkpt lat="44.37998150112741" lon="10.800552754706814"><ele>706.3333333333333</ele><time>2026-05-01T07:53:19.999Z</time></trkpt><trkpt lat="44.379913168176884" lon="10.80047610923452"><ele>705.6666666666666</ele><time>2026-05-01T07:53:21.999Z</time></trkpt><trkpt lat="44.37984341941892" lon="10.800346380810046"><ele>705.0</ele><time>2026-05-01T07:53:23.999Z</time></trkpt><trkpt lat="44.37978131594991" lon="10.80027076727092"><ele>704.3333333333334</ele><time>2026-05-01T07:53:26.999Z</time></trkpt><trkpt lat="44.379702653583394" lon="10.800238785606078"><ele>703.6666666666667</ele><time>2026-05-01T07:53:43Z</time></trkpt><trkpt lat="44.37963417858157" lon="10.800227884921751"><ele>703.0</ele><time>2026-05-01T07:53:45Z</time></trkpt><trkpt lat="44.37955355886914" lon="10.800217930118222"><ele>707.4</ele><time>2026-05-01T07:53:47Z</time></trkpt><trkpt lat="44.37947497617568" lon="10.800170450524814"><ele>711.8</ele><time>2026-05-01T07:53:49Z</time></trkpt><trkpt lat="44.37937555020592" lon="10.800170250031211"><ele>716.2</ele><time>2026-05-01T07:53:51Z</time></trkpt><trkpt lat="44.379288136789505" lon="10.800110749549408"><ele>720.6</ele><time>2026-05-01T07:53:53Z</time></trkpt><trkpt lat="44.37919313750115" lon="10.800036522481843"><ele>725.0</ele><time>2026-05-01T07:53:55Z</time></trkpt><trkpt lat="44.379091762020735" lon="10.799948151956917"><ele>725.5</ele><time>2026-05-01T07:53:57Z</time></trkpt><trkpt lat="44.37899598390354" lon="10.79983565334742"><ele>726.0</ele><time>2026-05-01T07:53:59Z</time></trkpt><trkpt lat="44.378944183527814" lon="10.799777019363246"><ele>726.5</ele><time>2026-05-01T07:54:00Z</time></trkpt><trkpt lat="44.378883466096354" lon="10.799740046909514"><ele>727.0</ele><time>2026-05-01T07:54:01Z</time></trkpt><trkpt lat="44.37882376572689" lon="10.799706834872245"><ele>727.5</ele><time>2026-05-01T07:54:03Z</time></trkpt><trkpt lat="44.37871914636653" lon="10.799746422349221"><ele>728.0</ele><time>2026-05-01T07:54:40.999Z</time></trkpt><trkpt lat="44.37861947056019" lon="10.799816290836025"><ele>728.8</ele><time>2026-05-01T07:54:42.999Z</time></trkpt><trkpt lat="44.37850733388937" lon="10.799891884775612"><ele>729.5999999999999</ele><time>2026-05-01T07:54:44.999Z</time></trkpt><trkpt lat="44.37844515301929" lon="10.799931239056704"><ele>730.4000000000001</ele><time>2026-05-01T07:54:45.999Z</time></trkpt><trkpt lat="44.37838854093014" lon="10.799970130080842"><ele>731.2</ele><time>2026-05-01T07:54:46.999Z</time></trkpt><trkpt lat="44.37827481442664" lon="10.800041026399539"><ele>732.0</ele><time>2026-05-01T07:54:48.999Z</time></trkpt><trkpt lat="44.378221735479435" lon="10.80011012704623"><ele>732.0</ele><time>2026-05-01T07:54:49.999Z</time></trkpt><trkpt lat="44.37816048297847" lon="10.80015249816271"><ele>732.0</ele><time>2026-05-01T07:54:50.999Z</time></trkpt><trkpt lat="44.37810044189162" lon="10.800208823009584"><ele>732.0</ele><time>2026-05-01T07:54:51.999Z</time></trkpt><trkpt lat="44.37804842769968" lon="10.800278261118686"><ele>732.0</ele><time>2026-05-01T07:54:52.999Z</time></trkpt><trkpt lat="44.377994290538865" lon="10.800335463238095"><ele>732.0</ele><time>2026-05-01T07:54:53.999Z</time></trkpt><trkpt lat="44.37793660751646" lon="10.800387098078083"><ele>732.0</ele><time>2026-05-01T07:54:54.999Z</time></trkpt><trkpt lat="44.37787467838816" lon="10.80043252118508"><ele>732.0</ele><time>2026-05-01T07:54:55.999Z</time></trkpt><trkpt lat="44.37780642099573" lon="10.800462871777885"><ele>733.8</ele><time>2026-05-01T07:54:56.999Z</time></trkpt><trkpt lat="44.377738851862155" lon="10.800446243372308"><ele>735.6</ele><time>2026-05-01T07:54:57.999Z</time></trkpt><trkpt lat="44.37765638744005" lon="10.800393903587786"><ele>737.4</ele><time>2026-05-01T07:54:58.999Z</time></trkpt><trkpt lat="44.377550508400695" lon="10.800377033139807"><ele>739.1999999999999</ele><time>2026-05-01T07:54:59.999Z</time></trkpt><trkpt lat="44.37744362438824" lon="10.800383305147694"><ele>741.0</ele><time>2026-05-01T07:55:00.999Z</time></trkpt><trkpt lat="44.377338453961194" lon="10.800372731500754"><ele>741.0</ele><time>2026-05-01T07:55:01.999Z</time></trkpt><trkpt lat="44.377272068433626" lon="10.800365034845775"><ele>741.0</ele><time>2026-05-01T07:55:02.999Z</time></trkpt><trkpt lat="44.37724089095397" lon="10.80050663485658"><ele>741.0</ele><time>2026-05-01T07:55:04.999Z</time></trkpt><trkpt lat="44.37722692782055" lon="10.800668785076494"><ele>741.0</ele><time>2026-05-01T07:55:05.999Z</time></trkpt><trkpt lat="44.37718308535654" lon="10.800839441026934"><ele>741.0</ele><time>2026-05-01T07:55:06.999Z</time></trkpt><trkpt lat="44.37714189623626" lon="10.800939907462185"><ele>740.5</ele><time>2026-05-01T07:55:07.999Z</time></trkpt><trkpt lat="44.37713134462365" lon="10.801040588443414"><ele>740.0</ele><time>2026-05-01T07:55:08.999Z</time></trkpt><trkpt lat="44.377146628017265" lon="10.801198748882726"><ele>739.5</ele><time>2026-05-01T07:55:09.999Z</time></trkpt><trkpt lat="44.37716017091024" lon="10.801297753798185"><ele>739.0</ele><time>2026-05-01T07:55:10.999Z</time></trkpt><trkpt lat="44.37713521379276" lon="10.801424767091468"><ele>738.5</ele><time>2026-05-01T07:55:12.999Z</time></trkpt><trkpt lat="44.377047882977784" lon="10.801423258110137"><ele>738.0</ele><time>2026-05-01T07:55:14.999Z</time></trkpt><trkpt lat="44.37698473003642" lon="10.801338290911493"><ele>738.0</ele><time>2026-05-01T07:55:15.999Z</time></trkpt><trkpt lat="44.37696593505821" lon="10.80119461304472"><ele>738.0</ele><time>2026-05-01T07:55:16.999Z</time></trkpt><trkpt lat="44.37688548870201" lon="10.801065452448025"><ele>738.0</ele><time>2026-05-01T07:55:18.999Z</time></trkpt><trkpt lat="44.37683433051013" lon="10.801002490351527"><ele>738.0</ele><time>2026-05-01T07:55:19.999Z</time></trkpt><trkpt lat="44.376771021094164" lon="10.800939388891454"><ele>738.0</ele><time>2026-05-01T07:55:20.999Z</time></trkpt><trkpt lat="44.37672669363612" lon="10.800853122851423"><ele>738.0</ele><time>2026-05-01T07:55:21.999Z</time></trkpt><trkpt lat="44.37670434505689" lon="10.800760433069069"><ele>738.8333333333334</ele><time>2026-05-01T07:55:22.999Z</time></trkpt><trkpt lat="44.37667132854681" lon="10.800682788734404"><ele>739.6666666666666</ele><time>2026-05-01T07:55:23.999Z</time></trkpt><trkpt lat="44.376601010791994" lon="10.800627837022438"><ele>740.5</ele><time>2026-05-01T07:55:25.999Z</time></trkpt><trkpt lat="44.37654652940679" lon="10.800516833506872"><ele>741.3333333333333</ele><time>2026-05-01T07:55:27.999Z</time></trkpt><trkpt lat="44.3764674866701" lon="10.800423356735491"><ele>742.1666666666666</ele><time>2026-05-01T07:55:29.999Z</time></trkpt><trkpt lat="44.37639682147534" lon="10.800379241012692"><ele>743.0</ele><time>2026-05-01T07:55:31.999Z</time></trkpt><trkpt lat="44.37630421010394" lon="10.80039206991891"><ele>743.0</ele><time>2026-05-01T07:55:33.999Z</time></trkpt><trkpt lat="44.37622705912013" lon="10.80042661322849"><ele>743.0</ele><time>2026-05-01T07:55:35.999Z</time></trkpt><trkpt lat="44.37614411345171" lon="10.800417534542548"><ele>743.0</ele><time>2026-05-01T07:55:37.999Z</time></trkpt><trkpt lat="44.376045730088045" lon="10.800413777467437"><ele>743.0</ele><time>2026-05-01T07:55:39.999Z</time></trkpt><trkpt lat="44.37597431596872" lon="10.800425881748104"><ele>743.0</ele><time>2026-05-01T07:55:41.999Z</time></trkpt><trkpt lat="44.37588881984051" lon="10.80043416429067"><ele>743.0</ele><time>2026-05-01T07:55:45Z</time></trkpt><trkpt lat="44.37579647787073" lon="10.800446188078729"><ele>743.0</ele><time>2026-05-01T07:55:47Z</time></trkpt><trkpt lat="44.37569407479879" lon="10.800474775070628"><ele>743.0</ele><time>2026-05-01T07:55:49Z</time></trkpt><trkpt lat="44.37559838795766" lon="10.800465577512774"><ele>743.0</ele><time>2026-05-01T07:55:51Z</time></trkpt><trkpt lat="44.37551302095917" lon="10.800407727432122"><ele>743.0</ele><time>2026-05-01T07:55:53Z</time></trkpt><trkpt lat="44.375428821061085" lon="10.800317388599954"><ele>743.0</ele><time>2026-05-01T07:55:55Z</time></trkpt><trkpt lat="44.375362481616555" lon="10.800218077533199"><ele>743.5999999999999</ele><time>2026-05-01T07:55:57Z</time></trkpt><trkpt lat="44.37531217911083" lon="10.80011981827821"><ele>744.1999999999999</ele><time>2026-05-01T07:55:59Z</time></trkpt><trkpt lat="44.37527128043248" lon="10.799990969190183"><ele>744.8</ele><time>2026-05-01T07:56:09Z</time></trkpt><trkpt lat="44.37522935083908" lon="10.799841953039163"><ele>745.4</ele><time>2026-05-01T07:56:11Z</time></trkpt><trkpt lat="44.37518572593195" lon="10.799680107817487"><ele>746.0</ele><time>2026-05-01T07:56:13Z</time></trkpt><trkpt lat="44.37514725685292" lon="10.799529904123625"><ele>746.0</ele><time>2026-05-01T07:56:15Z</time></trkpt><trkpt lat="44.37511942186595" lon="10.79940996714149"><ele>746.0</ele><time>2026-05-01T07:56:17Z</time></trkpt><trkpt lat="44.3751018267294" lon="10.799301855898815"><ele>746.0</ele><time>2026-05-01T07:56:20Z</time></trkpt><trkpt lat="44.37509424866353" lon="10.799209689120902"><ele>746.0</ele><time>2026-05-01T07:56:24Z</time></trkpt><trkpt lat="44.37506407264837" lon="10.799116126722907"><ele>746.0</ele><time>2026-05-01T07:56:27Z</time></trkpt><trkpt lat="44.37498760073261" lon="10.799117850990521"><ele>746.0</ele><time>2026-05-01T07:56:29Z</time></trkpt><trkpt lat="44.374882260855145" lon="10.799184020012838"><ele>745.8333333333333</ele><time>2026-05-01T07:56:31Z</time></trkpt><trkpt lat="44.37482285073902" lon="10.79924221092361"><ele>745.6666666666666</ele><time>2026-05-01T07:56:32Z</time></trkpt><trkpt lat="44.374760181238784" lon="10.799293197347492"><ele>745.5</ele><time>2026-05-01T07:56:33Z</time></trkpt><trkpt lat="44.37467880268992" lon="10.799324598573564"><ele>745.3333333333334</ele><time>2026-05-01T07:56:34Z</time></trkpt><trkpt lat="44.37459393181317" lon="10.799330126108934"><ele>745.1666666666667</ele><time>2026-05-01T07:56:34.999Z</time></trkpt><trkpt lat="44.3745107213149" lon="10.799340559186927"><ele>745.0</ele><time>2026-05-01T07:56:35.999Z</time></trkpt><trkpt lat="44.37442546512571" lon="10.799362795637933"><ele>743.2</ele><time>2026-05-01T07:56:36.999Z</time></trkpt><trkpt lat="44.37434102136816" lon="10.79938078663847"><ele>741.4</ele><time>2026-05-01T07:56:37.999Z</time></trkpt><trkpt lat="44.37426885946476" lon="10.79939543102735"><ele>739.5999999999999</ele><time>2026-05-01T07:56:38.999Z</time></trkpt><trkpt lat="44.37416381287206" lon="10.799439259421339"><ele>737.8</ele><time>2026-05-01T07:56:40.999Z</time></trkpt><trkpt lat="44.37407506503893" lon="10.79944203625722"><ele>736.0</ele><time>2026-05-01T07:56:42.999Z</time></trkpt><trkpt lat="44.374108885474584" lon="10.799671851521062"><ele>736.0</ele><time>2026-05-01T07:56:59.999Z</time></trkpt><trkpt lat="44.37410968934699" lon="10.799848383042137"><ele>736.0</ele><time>2026-05-01T07:57:01.999Z</time></trkpt><trkpt lat="44.37411590590512" lon="10.799968565013923"><ele>736.0</ele><time>2026-05-01T07:57:02.999Z</time></trkpt><trkpt lat="44.37409238027592" lon="10.800096708467384"><ele>736.0</ele><time>2026-05-01T07:57:03.999Z</time></trkpt><trkpt lat="44.37409591370783" lon="10.800225103623323"><ele>736.0</ele><time>2026-05-01T07:57:04.999Z</time></trkpt><trkpt lat="44.37409950681834" lon="10.800343740028406"><ele>735.0</ele><time>2026-05-01T07:57:05.999Z</time></trkpt><trkpt lat="44.37410298391115" lon="10.800446233542374"><ele>734.0</ele><time>2026-05-01T07:57:06.999Z</time></trkpt><trkpt lat="44.37410640441878" lon="10.800547059059976"><ele>733.0</ele><time>2026-05-01T07:57:07.999Z</time></trkpt><trkpt lat="44.37410919728521" lon="10.80063651690214"><ele>732.0</ele><time>2026-05-01T07:57:08.999Z</time></trkpt><trkpt lat="44.37412379547318" lon="10.800728358463092"><ele>731.0</ele><time>2026-05-01T07:57:09.999Z</time></trkpt><trkpt lat="44.37411241658834" lon="10.800834863698988"><ele>730.0</ele><time>2026-05-01T07:57:10.999Z</time></trkpt><trkpt lat="44.37411471507752" lon="10.80094825026201"><ele>729.0</ele><time>2026-05-01T07:57:11.999Z</time></trkpt><trkpt lat="44.374117520636034" lon="10.801047814052074"><ele>728.0</ele><time>2026-05-01T07:57:12.999Z</time></trkpt><trkpt lat="44.3741142006622" lon="10.801184220428858"><ele>727.0</ele><time>2026-05-01T07:57:13.999Z</time></trkpt><trkpt lat="44.37410845918045" lon="10.80131986100872"><ele>726.0</ele><time>2026-05-01T07:57:14.999Z</time></trkpt><trkpt lat="44.374103051191256" lon="10.801457500049187"><ele>725.0</ele><time>2026-05-01T07:57:15.999Z</time></trkpt><trkpt lat="44.37409477773211" lon="10.801594313247339"><ele>724.0</ele><time>2026-05-01T07:57:16.999Z</time></trkpt><trkpt lat="44.3740908408287" lon="10.801736980760426"><ele>725.0</ele><time>2026-05-01T07:57:17.999Z</time></trkpt><trkpt lat="44.374089208742326" lon="10.801880448561445"><ele>726.0</ele><time>2026-05-01T07:57:18.999Z</time></trkpt><trkpt lat="44.37408824632238" lon="10.8020251066473"><ele>727.0</ele><time>2026-05-01T07:57:19.999Z</time></trkpt><trkpt lat="44.374081206677744" lon="10.802163913040504"><ele>728.0</ele><time>2026-05-01T07:57:20.999Z</time></trkpt><trkpt lat="44.37406548267318" lon="10.802304847625885"><ele>729.0</ele><time>2026-05-01T07:57:21.999Z</time></trkpt><trkpt lat="44.37402345415476" lon="10.802435003250915"><ele>729.0</ele><time>2026-05-01T07:57:22.999Z</time></trkpt><trkpt lat="44.37393515362285" lon="10.802516098580616"><ele>729.0</ele><time>2026-05-01T07:57:23.999Z</time></trkpt><trkpt lat="44.37385152427236" lon="10.802589121651375"><ele>729.0</ele><time>2026-05-01T07:57:24.999Z</time></trkpt><trkpt lat="44.37376292958668" lon="10.802647769176493"><ele>729.0</ele><time>2026-05-01T07:57:25.999Z</time></trkpt><trkpt lat="44.3736696496526" lon="10.802709446585906"><ele>729.0</ele><time>2026-05-01T07:57:26.999Z</time></trkpt><trkpt lat="44.37357977967459" lon="10.802765945734278"><ele>729.6</ele><time>2026-05-01T07:57:27.999Z</time></trkpt><trkpt lat="44.37348323656373" lon="10.802827551961936"><ele>730.2</ele><time>2026-05-01T07:57:28.999Z</time></trkpt><trkpt lat="44.373397792404916" lon="10.802920758539864"><ele>730.8000000000001</ele><time>2026-05-01T07:57:29.999Z</time></trkpt><trkpt lat="44.373313731896424" lon="10.802998785119067"><ele>731.4000000000001</ele><time>2026-05-01T07:57:30.999Z</time></trkpt><trkpt lat="44.37325799435814" lon="10.803103000291227"><ele>732.0</ele><time>2026-05-01T07:57:31.999Z</time></trkpt><trkpt lat="44.373254681179276" lon="10.803242030183936"><ele>732.0</ele><time>2026-05-01T07:57:32.999Z</time></trkpt><trkpt lat="44.373294567132504" lon="10.803384935833806"><ele>732.0</ele><time>2026-05-01T07:57:33.999Z</time></trkpt><trkpt lat="44.37334971842932" lon="10.803527379264713"><ele>732.0</ele><time>2026-05-01T07:57:34.999Z</time></trkpt><trkpt lat="44.37344050330155" lon="10.803656527433851"><ele>732.0</ele><time>2026-05-01T07:57:35.999Z</time></trkpt><trkpt lat="44.373490531553564" lon="10.803776079744466"><ele>732.2</ele><time>2026-05-01T07:57:36.999Z</time></trkpt><trkpt lat="44.373523769976" lon="10.803865988262292"><ele>732.4000000000001</ele><time>2026-05-01T07:57:37.999Z</time></trkpt><trkpt lat="44.373537216309224" lon="10.803972539665905"><ele>732.5999999999999</ele><time>2026-05-01T07:57:39.999Z</time></trkpt><trkpt lat="44.37339374230496" lon="10.804014522558303"><ele>732.8</ele><time>2026-05-01T07:57:40.999Z</time></trkpt><trkpt lat="44.373308202367575" lon="10.804004159111663"><ele>733.0</ele><time>2026-05-01T07:57:41.999Z</time></trkpt><trkpt lat="44.37321391664879" lon="10.803986262364637"><ele>733.0</ele><time>2026-05-01T07:57:42.999Z</time></trkpt><trkpt lat="44.373110425786344" lon="10.803978610625638"><ele>733.0</ele><time>2026-05-01T07:57:43.999Z</time></trkpt><trkpt lat="44.37300754835511" lon="10.803951793286519"><ele>733.0</ele><time>2026-05-01T07:57:44.999Z</time></trkpt><trkpt lat="44.3728973163307" lon="10.803919886325701"><ele>733.0</ele><time>2026-05-01T07:57:45.999Z</time></trkpt><trkpt lat="44.372788160390634" lon="10.8038681536157"><ele>733.0</ele><time>2026-05-01T07:57:46.999Z</time></trkpt><trkpt lat="44.372670655831875" lon="10.803853351215174"><ele>732.25</ele><time>2026-05-01T07:57:47.999Z</time></trkpt><trkpt lat="44.37255542547445" lon="10.80381502943207"><ele>731.5</ele><time>2026-05-01T07:57:48.999Z</time></trkpt><trkpt lat="44.372445619149055" lon="10.803782530549316"><ele>730.75</ele><time>2026-05-01T07:57:49.999Z</time></trkpt><trkpt lat="44.37233295734984" lon="10.80375804395739"><ele>730.0</ele><time>2026-05-01T07:57:51Z</time></trkpt><trkpt lat="44.37222028024539" lon="10.80372764538676"><ele>729.25</ele><time>2026-05-01T07:57:52Z</time></trkpt><trkpt lat="44.37210643625942" lon="10.803687094795126"><ele>728.5</ele><time>2026-05-01T07:57:53Z</time></trkpt><trkpt lat="44.371995578639286" lon="10.803630381869105"><ele>727.75</ele><time>2026-05-01T07:57:54Z</time></trkpt><trkpt lat="44.37188369177493" lon="10.803567001327089"><ele>727.0</ele><time>2026-05-01T07:57:55Z</time></trkpt><trkpt lat="44.371764522949384" lon="10.803501532578673"><ele>727.5</ele><time>2026-05-01T07:57:56Z</time></trkpt><trkpt lat="44.37164653441664" lon="10.803431060922705"><ele>728.0</ele><time>2026-05-01T07:57:57Z</time></trkpt><trkpt lat="44.37152180722974" lon="10.80337559287005"><ele>728.5</ele><time>2026-05-01T07:57:58Z</time></trkpt><trkpt lat="44.37140074309236" lon="10.803319658213404"><ele>729.0</ele><time>2026-05-01T07:57:59Z</time></trkpt><trkpt lat="44.37127653387525" lon="10.803261679723017"><ele>729.0</ele><time>2026-05-01T07:58:00Z</time></trkpt><trkpt lat="44.371146106762744" lon="10.803197080887601"><ele>729.0</ele><time>2026-05-01T07:58:01Z</time></trkpt><trkpt lat="44.371015651373625" lon="10.803127280304661"><ele>729.0</ele><time>2026-05-01T07:58:02Z</time></trkpt><trkpt lat="44.37087935607436" lon="10.803051044985027"><ele>729.0</ele><time>2026-05-01T07:58:03Z</time></trkpt><trkpt lat="44.37074430056095" lon="10.802978745141505"><ele>729.0</ele><time>2026-05-01T07:58:04Z</time></trkpt><trkpt lat="44.37060496738914" lon="10.802896576959272"><ele>729.0</ele><time>2026-05-01T07:58:05Z</time></trkpt><trkpt lat="44.370469899200906" lon="10.802814887208234"><ele>729.0</ele><time>2026-05-01T07:58:06Z</time></trkpt><trkpt lat="44.37033465506894" lon="10.802731307489085"><ele>729.0</ele><time>2026-05-01T07:58:07Z</time></trkpt><trkpt lat="44.3702029885224" lon="10.80264382088555"><ele>729.0</ele><time>2026-05-01T07:58:08Z</time></trkpt><trkpt lat="44.37007845461548" lon="10.802538384801545"><ele>729.0</ele><time>2026-05-01T07:58:09Z</time></trkpt><trkpt lat="44.36994305893699" lon="10.802473283779616"><ele>729.0</ele><time>2026-05-01T07:58:10Z</time></trkpt><trkpt lat="44.369809993883784" lon="10.802394625331782"><ele>729.0</ele><time>2026-05-01T07:58:11Z</time></trkpt><trkpt lat="44.36967306997022" lon="10.802309228448523"><ele>729.0</ele><time>2026-05-01T07:58:12Z</time></trkpt><trkpt lat="44.36953378747835" lon="10.8022523704765"><ele>729.0</ele><time>2026-05-01T07:58:13Z</time></trkpt><trkpt lat="44.36939324467369" lon="10.80219612979076"><ele>729.0</ele><time>2026-05-01T07:58:14Z</time></trkpt><trkpt lat="44.36925156727628" lon="10.802140042338147"><ele>729.0</ele><time>2026-05-01T07:58:15Z</time></trkpt><trkpt lat="44.36910820777813" lon="10.802091358517918"><ele>729.0</ele><time>2026-05-01T07:58:16Z</time></trkpt><trkpt lat="44.36895238869635" lon="10.80205650413597"><ele>729.0</ele><time>2026-05-01T07:58:17Z</time></trkpt><trkpt lat="44.36879931922688" lon="10.802060147981926"><ele>729.0</ele><time>2026-05-01T07:58:18Z</time></trkpt><trkpt lat="44.368659867248844" lon="10.802066037119399"><ele>727.6666666666666</ele><time>2026-05-01T07:58:19Z</time></trkpt><trkpt lat="44.36850851249124" lon="10.802069335199352"><ele>726.3333333333333</ele><time>2026-05-01T07:58:20Z</time></trkpt><trkpt lat="44.36835403928982" lon="10.802069699805301"><ele>725.0</ele><time>2026-05-01T07:58:21Z</time></trkpt><trkpt lat="44.36819697392532" lon="10.80206535735346"><ele>725.0</ele><time>2026-05-01T07:58:22Z</time></trkpt><trkpt lat="44.36803940969343" lon="10.802058973284907"><ele>725.0</ele><time>2026-05-01T07:58:23Z</time></trkpt><trkpt lat="44.36790534614921" lon="10.802054736458498"><ele>725.0</ele><time>2026-05-01T07:58:24Z</time></trkpt><trkpt lat="44.367764144907035" lon="10.802048703097176"><ele>725.0</ele><time>2026-05-01T07:58:25Z</time></trkpt><trkpt lat="44.36762253364096" lon="10.802030200997294"><ele>725.3333333333333</ele><time>2026-05-01T07:58:26Z</time></trkpt><trkpt lat="44.367482676053214" lon="10.801983570862767"><ele>725.6666666666666</ele><time>2026-05-01T07:58:27Z</time></trkpt><trkpt lat="44.3673287071258" lon="10.801913970115313"><ele>726.0</ele><time>2026-05-01T07:58:28Z</time></trkpt><trkpt lat="44.367189581660014" lon="10.801833309209112"><ele>728.3333333333334</ele><time>2026-05-01T07:58:29Z</time></trkpt><trkpt lat="44.36704459821926" lon="10.801741734233474"><ele>730.6666666666667</ele><time>2026-05-01T07:58:30Z</time></trkpt><trkpt lat="44.36689658535634" lon="10.801638719741312"><ele>733.0</ele><time>2026-05-01T07:58:31Z</time></trkpt><trkpt lat="44.36675275583548" lon="10.80153506852157"><ele>733.0</ele><time>2026-05-01T07:58:32Z</time></trkpt><trkpt lat="44.36663274542201" lon="10.80145216338621"><ele>733.0</ele><time>2026-05-01T07:58:33Z</time></trkpt><trkpt lat="44.36650931346561" lon="10.801397823254968"><ele>733.0</ele><time>2026-05-01T07:58:34Z</time></trkpt><trkpt lat="44.36638560304159" lon="10.801353484484906"><ele>733.0</ele><time>2026-05-01T07:58:35Z</time></trkpt><trkpt lat="44.36625033127304" lon="10.801293977844775"><ele>733.25</ele><time>2026-05-01T07:58:36Z</time></trkpt><trkpt lat="44.36611244888229" lon="10.801257745255967"><ele>733.5</ele><time>2026-05-01T07:58:37Z</time></trkpt><trkpt lat="44.36600050046721" lon="10.801213136387373"><ele>733.75</ele><time>2026-05-01T07:58:38Z</time></trkpt><trkpt lat="44.36589939806917" lon="10.801163380206654"><ele>734.0</ele><time>2026-05-01T07:58:39Z</time></trkpt><trkpt lat="44.36580571201581" lon="10.801107717813926"><ele>734.0</ele><time>2026-05-01T07:58:39.999Z</time></trkpt><trkpt lat="44.36571677578303" lon="10.801063848307823"><ele>734.0</ele><time>2026-05-01T07:58:40.999Z</time></trkpt><trkpt lat="44.36565625758155" lon="10.800981914766801"><ele>734.0</ele><time>2026-05-01T07:58:41.999Z</time></trkpt><trkpt lat="44.365579826728386" lon="10.800907476079944"><ele>734.0</ele><time>2026-05-01T07:58:42.999Z</time></trkpt><trkpt lat="44.36551593884196" lon="10.80084199786749"><ele>734.0</ele><time>2026-05-01T07:58:43.999Z</time></trkpt><trkpt lat="44.36545552685534" lon="10.800779690614004"><ele>734.0</ele><time>2026-05-01T07:58:44.999Z</time></trkpt><trkpt lat="44.36539398107867" lon="10.80071822366179"><ele>734.7142857142857</ele><time>2026-05-01T07:58:45.999Z</time></trkpt><trkpt lat="44.36533713755518" lon="10.800661828302374"><ele>735.4285714285714</ele><time>2026-05-01T07:58:46.999Z</time></trkpt><trkpt lat="44.36528472759166" lon="10.800609831577695"><ele>736.1428571428571</ele><time>2026-05-01T07:58:47.999Z</time></trkpt><trkpt lat="44.365226412119426" lon="10.800554063724366"><ele>736.8571428571429</ele><time>2026-05-01T07:58:48.999Z</time></trkpt><trkpt lat="44.36514509958085" lon="10.800479600313324"><ele>737.5714285714287</ele><time>2026-05-01T07:58:50.999Z</time></trkpt><trkpt lat="44.36508759780068" lon="10.800426964460195"><ele>738.2857142857143</ele><time>2026-05-01T07:58:51.999Z</time></trkpt><trkpt lat="44.365020548831765" lon="10.800374289787449"><ele>739.0</ele><time>2026-05-01T07:58:52.999Z</time></trkpt><trkpt lat="44.364938951597466" lon="10.800328967191055"><ele>739.0</ele><time>2026-05-01T07:58:53.999Z</time></trkpt><trkpt lat="44.36486074650913" lon="10.800247163123185"><ele>739.0</ele><time>2026-05-01T07:58:54.999Z</time></trkpt><trkpt lat="44.3647890122878" lon="10.800134243826221"><ele>739.0</ele><time>2026-05-01T07:58:55.999Z</time></trkpt><trkpt lat="44.3647041867135" lon="10.800032992172502"><ele>739.0</ele><time>2026-05-01T07:58:56.999Z</time></trkpt><trkpt lat="44.3646169297957" lon="10.79992973806893"><ele>739.0</ele><time>2026-05-01T07:58:57.999Z</time></trkpt><trkpt lat="44.36452784171726" lon="10.799824372921487"><ele>740.25</ele><time>2026-05-01T07:58:58.999Z</time></trkpt><trkpt lat="44.364437083614966" lon="10.799722511297356"><ele>741.5</ele><time>2026-05-01T07:58:59.999Z</time></trkpt><trkpt lat="44.364344336683864" lon="10.799619399920134"><ele>742.75</ele><time>2026-05-01T07:59:00.999Z</time></trkpt><trkpt lat="44.364242688020035" lon="10.79953384532625"><ele>744.0</ele><time>2026-05-01T07:59:01.999Z</time></trkpt><trkpt lat="44.36415304710752" lon="10.799429933994597"><ele>744.4000000000001</ele><time>2026-05-01T07:59:02.999Z</time></trkpt><trkpt lat="44.364063058603044" lon="10.799326273893964"><ele>744.8</ele><time>2026-05-01T07:59:03.999Z</time></trkpt><trkpt lat="44.36396036836916" lon="10.799237029728486"><ele>745.2</ele><time>2026-05-01T07:59:04.999Z</time></trkpt><trkpt lat="44.36385881267765" lon="10.79915595713788"><ele>745.5999999999999</ele><time>2026-05-01T07:59:05.999Z</time></trkpt><trkpt lat="44.36378197495573" lon="10.799082943620247"><ele>746.0</ele><time>2026-05-01T07:59:06.999Z</time></trkpt><trkpt lat="44.3637090675835" lon="10.799026662915317"><ele>746.8333333333333</ele><time>2026-05-01T07:59:07.999Z</time></trkpt><trkpt lat="44.363653478321794" lon="10.79894138337516"><ele>747.6666666666666</ele><time>2026-05-01T07:59:08.999Z</time></trkpt><trkpt lat="44.363583888274825" lon="10.798886543519925"><ele>748.5</ele><time>2026-05-01T07:59:09.999Z</time></trkpt><trkpt lat="44.36353983007916" lon="10.7987965303145"><ele>749.3333333333334</ele><time>2026-05-01T07:59:10.999Z</time></trkpt><trkpt lat="44.36349004292852" lon="10.798713945606856"><ele>750.1666666666667</ele><time>2026-05-01T07:59:11.999Z</time></trkpt><trkpt lat="44.36342098223736" lon="10.79864938480404"><ele>751.0</ele><time>2026-05-01T07:59:12.999Z</time></trkpt><trkpt lat="44.36334365659246" lon="10.798601402667677"><ele>751.0</ele><time>2026-05-01T07:59:13.999Z</time></trkpt><trkpt lat="44.36326839990226" lon="10.798534087957727"><ele>751.0</ele><time>2026-05-01T07:59:14.999Z</time></trkpt><trkpt lat="44.36317352661388" lon="10.798506264289896"><ele>751.0</ele><time>2026-05-01T07:59:15.999Z</time></trkpt><trkpt lat="44.3630897839559" lon="10.798455080239126"><ele>751.0</ele><time>2026-05-01T07:59:16.999Z</time></trkpt><trkpt lat="44.363007522507914" lon="10.798380252431329"><ele>751.0</ele><time>2026-05-01T07:59:17.999Z</time></trkpt><trkpt lat="44.36293725864297" lon="10.798289262543184"><ele>751.0</ele><time>2026-05-01T07:59:18.999Z</time></trkpt><trkpt lat="44.36287893631873" lon="10.798189134778289"><ele>751.0</ele><time>2026-05-01T07:59:19.999Z</time></trkpt><trkpt lat="44.362815235066314" lon="10.79810714790929"><ele>751.0</ele><time>2026-05-01T07:59:20.999Z</time></trkpt><trkpt lat="44.36275228092368" lon="10.798020393897398"><ele>751.0</ele><time>2026-05-01T07:59:21.999Z</time></trkpt><trkpt lat="44.36269450350219" lon="10.7979499916721"><ele>751.0</ele><time>2026-05-01T07:59:22.999Z</time></trkpt><trkpt lat="44.3626692675707" lon="10.797846442421998"><ele>751.0</ele><time>2026-05-01T07:59:23.999Z</time></trkpt><trkpt lat="44.36266226122229" lon="10.797725212855193"><ele>751.4</ele><time>2026-05-01T07:59:24.999Z</time></trkpt><trkpt lat="44.362651642913576" lon="10.797596242535127"><ele>751.8</ele><time>2026-05-01T07:59:25.999Z</time></trkpt><trkpt lat="44.362624491741165" lon="10.797470241628632"><ele>752.1999999999999</ele><time>2026-05-01T07:59:26.999Z</time></trkpt><trkpt lat="44.36258143737587" lon="10.797350348476012"><ele>752.5999999999999</ele><time>2026-05-01T07:59:27.999Z</time></trkpt><trkpt lat="44.36254286203016" lon="10.797225540789068"><ele>753.0</ele><time>2026-05-01T07:59:28.999Z</time></trkpt><trkpt lat="44.36250394731672" lon="10.797093974219234"><ele>753.0</ele><time>2026-05-01T07:59:29.999Z</time></trkpt><trkpt lat="44.36246109813432" lon="10.79696324879215"><ele>753.0</ele><time>2026-05-01T07:59:30.999Z</time></trkpt><trkpt lat="44.362424112178694" lon="10.796826993967386"><ele>753.0</ele><time>2026-05-01T07:59:31.999Z</time></trkpt><trkpt lat="44.362388354685244" lon="10.7966883393356"><ele>753.0</ele><time>2026-05-01T07:59:32.999Z</time></trkpt><trkpt lat="44.362348670803286" lon="10.79655374799672"><ele>753.0</ele><time>2026-05-01T07:59:33.999Z</time></trkpt><trkpt lat="44.36230410001067" lon="10.796421676777928"><ele>753.2</ele><time>2026-05-01T07:59:34.999Z</time></trkpt><trkpt lat="44.362259230676855" lon="10.796277326440187"><ele>753.4</ele><time>2026-05-01T07:59:35.999Z</time></trkpt><trkpt lat="44.36221989263486" lon="10.796141851191287"><ele>753.6</ele><time>2026-05-01T07:59:36.999Z</time></trkpt><trkpt lat="44.36218098569807" lon="10.796003947139303"><ele>753.8000000000001</ele><time>2026-05-01T07:59:37.999Z</time></trkpt><trkpt lat="44.36214263088341" lon="10.795872086142143"><ele>754.0</ele><time>2026-05-01T07:59:38.999Z</time></trkpt><trkpt lat="44.362116190983734" lon="10.79575960432979"><ele>753.0</ele><time>2026-05-01T07:59:39.999Z</time></trkpt><trkpt lat="44.36209642802715" lon="10.79565205396301"><ele>752.0</ele><time>2026-05-01T07:59:40.999Z</time></trkpt><trkpt lat="44.36206813074339" lon="10.79554914912303"><ele>751.0</ele><time>2026-05-01T07:59:41.999Z</time></trkpt><trkpt lat="44.362036675816114" lon="10.79543940420009"><ele>750.0</ele><time>2026-05-01T07:59:42.999Z</time></trkpt><trkpt lat="44.36200816676174" lon="10.795320223985234"><ele>749.0</ele><time>2026-05-01T07:59:43.999Z</time></trkpt><trkpt lat="44.36197620914549" lon="10.795223426112086"><ele>748.0</ele><time>2026-05-01T07:59:44.999Z</time></trkpt><trkpt lat="44.36194814148515" lon="10.795118721242725"><ele>748.0</ele><time>2026-05-01T07:59:45.999Z</time></trkpt><trkpt lat="44.361901701982696" lon="10.795023070407328"><ele>748.0</ele><time>2026-05-01T07:59:46.999Z</time></trkpt><trkpt lat="44.361857383659505" lon="10.794935004974024"><ele>748.0</ele><time>2026-05-01T07:59:47.999Z</time></trkpt><trkpt lat="44.36180038691947" lon="10.794865231058179"><ele>748.0</ele><time>2026-05-01T07:59:48.999Z</time></trkpt><trkpt lat="44.36175775751441" lon="10.794781746833447"><ele>748.0</ele><time>2026-05-01T07:59:49.999Z</time></trkpt><trkpt lat="44.36171422216102" lon="10.794704927742446"><ele>748.0</ele><time>2026-05-01T07:59:50.999Z</time></trkpt><trkpt lat="44.36167691848199" lon="10.79463117321109"><ele>748.0</ele><time>2026-05-01T07:59:51.999Z</time></trkpt><trkpt lat="44.36163832810733" lon="10.794557213474839"><ele>748.0</ele><time>2026-05-01T07:59:52.999Z</time></trkpt><trkpt lat="44.361565881790625" lon="10.794408999422254"><ele>748.0</ele><time>2026-05-01T07:59:54.999Z</time></trkpt><trkpt lat="44.36148825262911" lon="10.794263419328592"><ele>748.0</ele><time>2026-05-01T07:59:57Z</time></trkpt><trkpt lat="44.361448287325175" lon="10.79417594044219"><ele>748.0</ele><time>2026-05-01T07:59:58Z</time></trkpt><trkpt lat="44.36140389836209" lon="10.794085727662521"><ele>748.0</ele><time>2026-05-01T07:59:59Z</time></trkpt><trkpt lat="44.361364500586696" lon="10.7939905587965"><ele>748.5</ele><time>2026-05-01T08:00:00Z</time></trkpt><trkpt lat="44.36132986401319" lon="10.793901023287697"><ele>749.0</ele><time>2026-05-01T08:00:01Z</time></trkpt><trkpt lat="44.36128476526956" lon="10.793815127037867"><ele>749.5</ele><time>2026-05-01T08:00:02Z</time></trkpt><trkpt lat="44.36123159820221" lon="10.79373670794023"><ele>750.0</ele><time>2026-05-01T08:00:03Z</time></trkpt><trkpt lat="44.36117532512011" lon="10.793646368692169"><ele>750.5</ele><time>2026-05-01T08:00:04Z</time></trkpt><trkpt lat="44.361099545541215" lon="10.79359807348731"><ele>751.0</ele><time>2026-05-01T08:00:05Z</time></trkpt><trkpt lat="44.361035529139926" lon="10.793529905701826"><ele>750.5999999999999</ele><time>2026-05-01T08:00:06Z</time></trkpt><trkpt lat="44.36096135270248" lon="10.793474326350015"><ele>750.2</ele><time>2026-05-01T08:00:07Z</time></trkpt><trkpt lat="44.36088170758325" lon="10.793433991219118"><ele>749.8</ele><time>2026-05-01T08:00:08Z</time></trkpt><trkpt lat="44.360797847561884" lon="10.793397834017687"><ele>749.4000000000001</ele><time>2026-05-01T08:00:09Z</time></trkpt><trkpt lat="44.36071407748778" lon="10.793329885916714"><ele>749.0</ele><time>2026-05-01T08:00:10Z</time></trkpt><trkpt lat="44.36062050352248" lon="10.793285289689157"><ele>747.8000000000001</ele><time>2026-05-01T08:00:11Z</time></trkpt><trkpt lat="44.36052040544364" lon="10.79324046049587"><ele>746.6</ele><time>2026-05-01T08:00:12Z</time></trkpt><trkpt lat="44.36041175176356" lon="10.793210943783341"><ele>745.4</ele><time>2026-05-01T08:00:13Z</time></trkpt><trkpt lat="44.36030953074541" lon="10.793155640814748"><ele>744.2</ele><time>2026-05-01T08:00:14Z</time></trkpt><trkpt lat="44.360210207403874" lon="10.793078946901112"><ele>743.0</ele><time>2026-05-01T08:00:15Z</time></trkpt><trkpt lat="44.36010660513496" lon="10.793039736129417"><ele>743.0</ele><time>2026-05-01T08:00:16Z</time></trkpt><trkpt lat="44.3600342232081" lon="10.792963301361748"><ele>743.0</ele><time>2026-05-01T08:00:17Z</time></trkpt><trkpt lat="44.35995942927106" lon="10.792918090148278"><ele>743.0</ele><time>2026-05-01T08:00:18Z</time></trkpt><trkpt lat="44.359909153240096" lon="10.79283589949018"><ele>743.0</ele><time>2026-05-01T08:00:19Z</time></trkpt><trkpt lat="44.35988711497319" lon="10.792733317534513"><ele>743.0</ele><time>2026-05-01T08:00:20Z</time></trkpt><trkpt lat="44.35988774188787" lon="10.792612746641012"><ele>743.0</ele><time>2026-05-01T08:00:21Z</time></trkpt><trkpt lat="44.35988847535011" lon="10.792501680992613"><ele>742.2</ele><time>2026-05-01T08:00:22Z</time></trkpt><trkpt lat="44.359851860259646" lon="10.792403697521463"><ele>741.4</ele><time>2026-05-01T08:00:23Z</time></trkpt><trkpt lat="44.35980784942807" lon="10.792292585833863"><ele>740.6</ele><time>2026-05-01T08:00:24Z</time></trkpt><trkpt lat="44.35974063639809" lon="10.792195061422234"><ele>739.8000000000001</ele><time>2026-05-01T08:00:25Z</time></trkpt><trkpt lat="44.359669772827935" lon="10.792097413704747"><ele>739.0</ele><time>2026-05-01T08:00:26Z</time></trkpt><trkpt lat="44.35958284312141" lon="10.792013038977359"><ele>737.0</ele><time>2026-05-01T08:00:27Z</time></trkpt><trkpt lat="44.35951687925579" lon="10.791916038046727"><ele>735.0</ele><time>2026-05-01T08:00:28Z</time></trkpt><trkpt lat="44.35946445127808" lon="10.79180722640317"><ele>733.0</ele><time>2026-05-01T08:00:29Z</time></trkpt><trkpt lat="44.35938743811312" lon="10.791729323337949"><ele>731.0</ele><time>2026-05-01T08:00:30Z</time></trkpt><trkpt lat="44.35931931555537" lon="10.791645344240623"><ele>729.0</ele><time>2026-05-01T08:00:30.999Z</time></trkpt><trkpt lat="44.35924539785401" lon="10.791554050941956"><ele>728.0</ele><time>2026-05-01T08:00:31.999Z</time></trkpt><trkpt lat="44.359156810394325" lon="10.791483210920482"><ele>727.0</ele><time>2026-05-01T08:00:32.999Z</time></trkpt><trkpt lat="44.3590631721902" lon="10.791418752252044"><ele>726.0</ele><time>2026-05-01T08:00:33.999Z</time></trkpt><trkpt lat="44.3589693233773" lon="10.791366619893342"><ele>725.0</ele><time>2026-05-01T08:00:34.999Z</time></trkpt><trkpt lat="44.35886944745001" lon="10.79135101074095"><ele>724.0</ele><time>2026-05-01T08:00:35.999Z</time></trkpt><trkpt lat="44.35877557072277" lon="10.791346752585717"><ele>722.5</ele><time>2026-05-01T08:00:36.999Z</time></trkpt><trkpt lat="44.35868443649055" lon="10.791346135275102"><ele>721.0</ele><time>2026-05-01T08:00:37.999Z</time></trkpt><trkpt lat="44.35860501156417" lon="10.791346905097681"><ele>719.5</ele><time>2026-05-01T08:00:38.999Z</time></trkpt><trkpt lat="44.3585316756012" lon="10.791327350714239"><ele>718.0</ele><time>2026-05-01T08:00:39.999Z</time></trkpt><trkpt lat="44.35846458780465" lon="10.7912689048544"><ele>716.5</ele><time>2026-05-01T08:00:40.999Z</time></trkpt><trkpt lat="44.35842565009401" lon="10.791158598426675"><ele>715.0</ele><time>2026-05-01T08:00:41.999Z</time></trkpt><trkpt lat="44.35835654722421" lon="10.791076905554664"><ele>715.0</ele><time>2026-05-01T08:00:42.999Z</time></trkpt><trkpt lat="44.35828537176518" lon="10.79101279148626"><ele>715.0</ele><time>2026-05-01T08:00:43.999Z</time></trkpt><trkpt lat="44.35821044374799" lon="10.79095294861126"><ele>715.0</ele><time>2026-05-01T08:00:44.999Z</time></trkpt><trkpt lat="44.35813530293708" lon="10.790895126743376"><ele>715.0</ele><time>2026-05-01T08:00:45.999Z</time></trkpt><trkpt lat="44.35805947224395" lon="10.79084059769504"><ele>715.0</ele><time>2026-05-01T08:00:46.999Z</time></trkpt><trkpt lat="44.357984084776724" lon="10.790795715127535"><ele>715.0</ele><time>2026-05-01T08:00:47.999Z</time></trkpt><trkpt lat="44.35790825049912" lon="10.79076529607526"><ele>711.5</ele><time>2026-05-01T08:00:48.999Z</time></trkpt><trkpt lat="44.357838063358386" lon="10.790751781214606"><ele>708.0</ele><time>2026-05-01T08:00:49.999Z</time></trkpt><trkpt lat="44.35777750029154" lon="10.790705437722929"><ele>704.5</ele><time>2026-05-01T08:00:50.999Z</time></trkpt><trkpt lat="44.35772599442006" lon="10.790607473272713"><ele>701.0</ele><time>2026-05-01T08:00:51.999Z</time></trkpt><trkpt lat="44.357644794110804" lon="10.790542328864396"><ele>697.5</ele><time>2026-05-01T08:00:52.999Z</time></trkpt><trkpt lat="44.3575660502702" lon="10.790482365187778"><ele>694.0</ele><time>2026-05-01T08:00:53.999Z</time></trkpt><trkpt lat="44.35748796919459" lon="10.790422641223326"><ele>694.0</ele><time>2026-05-01T08:00:54.999Z</time></trkpt><trkpt lat="44.35740727980309" lon="10.790372348345104"><ele>694.0</ele><time>2026-05-01T08:00:55.999Z</time></trkpt><trkpt lat="44.357340195587376" lon="10.790297657932472"><ele>694.0</ele><time>2026-05-01T08:00:56.999Z</time></trkpt><trkpt lat="44.357282622607215" lon="10.79021737938658"><ele>694.0</ele><time>2026-05-01T08:00:57.999Z</time></trkpt><trkpt lat="44.357228754319486" lon="10.790123679588346"><ele>694.0</ele><time>2026-05-01T08:00:58.999Z</time></trkpt><trkpt lat="44.35717819885185" lon="10.790031714196909"><ele>694.0</ele><time>2026-05-01T08:00:59.999Z</time></trkpt><trkpt lat="44.357127932745314" lon="10.78993596572155"><ele>690.0</ele><time>2026-05-01T08:01:00.999Z</time></trkpt><trkpt lat="44.35706702524946" lon="10.789850433310013"><ele>686.0</ele><time>2026-05-01T08:01:01.999Z</time></trkpt><trkpt lat="44.357022481723845" lon="10.789750593609025"><ele>682.0</ele><time>2026-05-01T08:01:02.999Z</time></trkpt><trkpt lat="44.35698428722721" lon="10.78963632256983"><ele>678.0</ele><time>2026-05-01T08:01:03.999Z</time></trkpt><trkpt lat="44.35693837679101" lon="10.789532366516863"><ele>674.0</ele><time>2026-05-01T08:01:04.999Z</time></trkpt><trkpt lat="44.35689273889767" lon="10.789428291346079"><ele>670.0</ele><time>2026-05-01T08:01:05.999Z</time></trkpt><trkpt lat="44.35683411348072" lon="10.789326457677122"><ele>668.6666666666667</ele><time>2026-05-01T08:01:06.999Z</time></trkpt><trkpt lat="44.35679823589103" lon="10.789225556685134"><ele>667.3333333333334</ele><time>2026-05-01T08:01:07.999Z</time></trkpt><trkpt lat="44.35674284755705" lon="10.789138956255703"><ele>666.0</ele><time>2026-05-01T08:01:08.999Z</time></trkpt><trkpt lat="44.35669849762207" lon="10.789057861914237"><ele>664.6666666666666</ele><time>2026-05-01T08:01:09.999Z</time></trkpt><trkpt lat="44.35666544438916" lon="10.788978256767914"><ele>663.3333333333333</ele><time>2026-05-01T08:01:10.999Z</time></trkpt><trkpt lat="44.35661659825857" lon="10.788905339447943"><ele>662.0</ele><time>2026-05-01T08:01:11.999Z</time></trkpt><trkpt lat="44.356546643322666" lon="10.788858956330342"><ele>662.0</ele><time>2026-05-01T08:01:12.999Z</time></trkpt><trkpt lat="44.35648453115509" lon="10.78881282319569"><ele>662.0</ele><time>2026-05-01T08:01:13.999Z</time></trkpt><trkpt lat="44.35641632082714" lon="10.788788123482119"><ele>662.0</ele><time>2026-05-01T08:01:14.999Z</time></trkpt><trkpt lat="44.356364031715934" lon="10.788723491663003"><ele>662.0</ele><time>2026-05-01T08:01:15.999Z</time></trkpt><trkpt lat="44.356295754324314" lon="10.788689050520302"><ele>662.0</ele><time>2026-05-01T08:01:16.999Z</time></trkpt><trkpt lat="44.35622521384406" lon="10.788677063017749"><ele>662.0</ele><time>2026-05-01T08:01:17.999Z</time></trkpt><trkpt lat="44.35611764302001" lon="10.788609125708842"><ele>660.1428571428571</ele><time>2026-05-01T08:01:19.999Z</time></trkpt><trkpt lat="44.35608247592143" lon="10.78853323002897"><ele>658.2857142857142</ele><time>2026-05-01T08:01:20.999Z</time></trkpt><trkpt lat="44.356012967395536" lon="10.788398676295797"><ele>656.4285714285713</ele><time>2026-05-01T08:01:22.999Z</time></trkpt><trkpt lat="44.35599337230563" lon="10.788314723326561"><ele>654.5714285714286</ele><time>2026-05-01T08:01:23.999Z</time></trkpt><trkpt lat="44.355988588582356" lon="10.788225194670057"><ele>652.7142857142857</ele><time>2026-05-01T08:01:24.999Z</time></trkpt><trkpt lat="44.355988115066864" lon="10.788136168984554"><ele>650.8571428571428</ele><time>2026-05-01T08:01:25.999Z</time></trkpt><trkpt lat="44.35597046145017" lon="10.788042710267444"><ele>649.0</ele><time>2026-05-01T08:01:26.999Z</time></trkpt><trkpt lat="44.35595493106793" lon="10.78794052616854"><ele>648.5</ele><time>2026-05-01T08:01:27.999Z</time></trkpt><trkpt lat="44.35590755857519" lon="10.787849704831439"><ele>648.0</ele><time>2026-05-01T08:01:28.999Z</time></trkpt><trkpt lat="44.355856586883014" lon="10.787757751549155"><ele>647.5</ele><time>2026-05-01T08:01:29.999Z</time></trkpt><trkpt lat="44.355804272449426" lon="10.787665520104182"><ele>647.0</ele><time>2026-05-01T08:01:30.999Z</time></trkpt><trkpt lat="44.35574034846255" lon="10.787582046118024"><ele>646.5</ele><time>2026-05-01T08:01:31.999Z</time></trkpt><trkpt lat="44.35568912221073" lon="10.78748313086771"><ele>646.0</ele><time>2026-05-01T08:01:32.999Z</time></trkpt><trkpt lat="44.35563926375593" lon="10.787386081353242"><ele>644.0</ele><time>2026-05-01T08:01:33.999Z</time></trkpt><trkpt lat="44.35558568431294" lon="10.787289402562305"><ele>642.0</ele><time>2026-05-01T08:01:34.999Z</time></trkpt><trkpt lat="44.3555181492131" lon="10.787204145110707"><ele>640.0</ele><time>2026-05-01T08:01:35.999Z</time></trkpt><trkpt lat="44.355441135265025" lon="10.78714585200637"><ele>638.0</ele><time>2026-05-01T08:01:36.999Z</time></trkpt><trkpt lat="44.355393904755296" lon="10.787049147928588"><ele>636.0</ele><time>2026-05-01T08:01:37.999Z</time></trkpt><trkpt lat="44.355337331809864" lon="10.786964024281836"><ele>634.0</ele><time>2026-05-01T08:01:38.999Z</time></trkpt><trkpt lat="44.35527594737195" lon="10.786886406378029"><ele>631.0</ele><time>2026-05-01T08:01:39.999Z</time></trkpt><trkpt lat="44.35523166321634" lon="10.786781860862046"><ele>628.0</ele><time>2026-05-01T08:01:40.999Z</time></trkpt><trkpt lat="44.355198343287626" lon="10.786659335575106"><ele>625.0</ele><time>2026-05-01T08:01:41.999Z</time></trkpt><trkpt lat="44.355141945636404" lon="10.786560681977617"><ele>622.0</ele><time>2026-05-01T08:01:42.999Z</time></trkpt><trkpt lat="44.35509698320983" lon="10.78645395026079"><ele>619.0</ele><time>2026-05-01T08:01:43.999Z</time></trkpt><trkpt lat="44.35505134720702" lon="10.786345893172365"><ele>616.0</ele><time>2026-05-01T08:01:44.999Z</time></trkpt><trkpt lat="44.35501057507627" lon="10.78624141773093"><ele>616.0</ele><time>2026-05-01T08:01:45.999Z</time></trkpt><trkpt lat="44.354985164172476" lon="10.78613839881851"><ele>616.0</ele><time>2026-05-01T08:01:46.999Z</time></trkpt><trkpt lat="44.35493282122249" lon="10.786010490804324"><ele>616.0</ele><time>2026-05-01T08:01:48.999Z</time></trkpt><trkpt lat="44.35493672839531" lon="10.785911387733108"><ele>616.0</ele><time>2026-05-01T08:01:50.999Z</time></trkpt><trkpt lat="44.355050653690064" lon="10.78592829159883"><ele>616.0</ele><time>2026-05-01T08:01:52.999Z</time></trkpt><trkpt lat="44.35511263229046" lon="10.785947465287757"><ele>616.0</ele><time>2026-05-01T08:01:53.999Z</time></trkpt><trkpt lat="44.35518083634831" lon="10.785944076707755"><ele>615.0</ele><time>2026-05-01T08:01:54.998Z</time></trkpt><trkpt lat="44.35525323602341" lon="10.785947916355324"><ele>614.0</ele><time>2026-05-01T08:01:55.998Z</time></trkpt><trkpt lat="44.355331665436054" lon="10.785961715059026"><ele>613.0</ele><time>2026-05-01T08:01:56.998Z</time></trkpt><trkpt lat="44.35541470117274" lon="10.7859710612749"><ele>612.0</ele><time>2026-05-01T08:01:57.998Z</time></trkpt><trkpt lat="44.35549916593986" lon="10.785965957695952"><ele>611.0</ele><time>2026-05-01T08:01:58.998Z</time></trkpt><trkpt lat="44.35558377276807" lon="10.785960852942301"><ele>610.0</ele><time>2026-05-01T08:01:59.998Z</time></trkpt><trkpt lat="44.355662453433666" lon="10.785949518792735"><ele>608.6666666666667</ele><time>2026-05-01T08:02:00.998Z</time></trkpt><trkpt lat="44.355740835783585" lon="10.785952901730113"><ele>607.3333333333334</ele><time>2026-05-01T08:02:01.998Z</time></trkpt><trkpt lat="44.35580980868806" lon="10.785945601337865"><ele>606.0</ele><time>2026-05-01T08:02:02.999Z</time></trkpt><trkpt lat="44.35589074170669" lon="10.78587763902532"><ele>604.6666666666666</ele><time>2026-05-01T08:02:03.999Z</time></trkpt><trkpt lat="44.355967783063846" lon="10.785897734889913"><ele>603.3333333333333</ele><time>2026-05-01T08:02:04.999Z</time></trkpt><trkpt lat="44.35604712273379" lon="10.785890326223889"><ele>602.0</ele><time>2026-05-01T08:02:06Z</time></trkpt><trkpt lat="44.35612085130282" lon="10.78584707195141"><ele>602.0</ele><time>2026-05-01T08:02:07Z</time></trkpt><trkpt lat="44.35618693958132" lon="10.785799745552316"><ele>602.0</ele><time>2026-05-01T08:02:08Z</time></trkpt><trkpt lat="44.35630270319106" lon="10.785777014348247"><ele>602.0</ele><time>2026-05-01T08:02:10Z</time></trkpt><trkpt lat="44.356371305410256" lon="10.785780587451688"><ele>602.0</ele><time>2026-05-01T08:02:11Z</time></trkpt><trkpt lat="44.35644281445444" lon="10.785755476652977"><ele>602.0</ele><time>2026-05-01T08:02:12Z</time></trkpt><trkpt lat="44.35652301821439" lon="10.785731742004861"><ele>602.0</ele><time>2026-05-01T08:02:13Z</time></trkpt><trkpt lat="44.356596708830324" lon="10.78572763640176"><ele>602.8000000000001</ele><time>2026-05-01T08:02:14Z</time></trkpt><trkpt lat="44.35669420766963" lon="10.785696978776164"><ele>603.6</ele><time>2026-05-01T08:02:16Z</time></trkpt><trkpt lat="44.3567637954163" lon="10.785552681008896"><ele>604.4000000000001</ele><time>2026-05-01T08:02:19Z</time></trkpt><trkpt lat="44.3567918932529" lon="10.785448599084424"><ele>605.2</ele><time>2026-05-01T08:02:20Z</time></trkpt><trkpt lat="44.35682158590642" lon="10.785352758581256"><ele>606.0</ele><time>2026-05-01T08:02:21Z</time></trkpt><trkpt lat="44.35685297731486" lon="10.785251218947321"><ele>604.1666666666666</ele><time>2026-05-01T08:02:22Z</time></trkpt><trkpt lat="44.35686308046924" lon="10.78515262219454"><ele>602.3333333333334</ele><time>2026-05-01T08:02:23Z</time></trkpt><trkpt lat="44.356868731956155" lon="10.78505411619152"><ele>600.5</ele><time>2026-05-01T08:02:24Z</time></trkpt><trkpt lat="44.35686423754344" lon="10.784961700913625"><ele>598.6666666666667</ele><time>2026-05-01T08:02:25Z</time></trkpt><trkpt lat="44.35685588972992" lon="10.784858006447358"><ele>596.8333333333334</ele><time>2026-05-01T08:02:26Z</time></trkpt><trkpt lat="44.35683917368184" lon="10.78476317427081"><ele>595.0</ele><time>2026-05-01T08:02:27Z</time></trkpt><trkpt lat="44.3568039131606" lon="10.784606411261345"><ele>595.0</ele><time>2026-05-01T08:02:29Z</time></trkpt><trkpt lat="44.35678029497703" lon="10.784514098578452"><ele>595.0</ele><time>2026-05-01T08:02:30Z</time></trkpt><trkpt lat="44.35675411665395" lon="10.784419617104366"><ele>595.0</ele><time>2026-05-01T08:02:31Z</time></trkpt><trkpt lat="44.35674346191594" lon="10.784299618284717"><ele>595.0</ele><time>2026-05-01T08:02:32Z</time></trkpt><trkpt lat="44.356747100822744" lon="10.784189539401362"><ele>595.0</ele><time>2026-05-01T08:02:33Z</time></trkpt><trkpt lat="44.35677212007678" lon="10.784102489523924"><ele>595.0</ele><time>2026-05-01T08:02:34Z</time></trkpt><trkpt lat="44.35681846173427" lon="10.784038249787773"><ele>595.0</ele><time>2026-05-01T08:02:35Z</time></trkpt><trkpt lat="44.3568127068396" lon="10.783924449618535"><ele>594.5</ele><time>2026-05-01T08:02:37Z</time></trkpt><trkpt lat="44.356769376042905" lon="10.783856893378266"><ele>594.0</ele><time>2026-05-01T08:02:38Z</time></trkpt><trkpt lat="44.35671092289241" lon="10.783819815638623"><ele>593.5</ele><time>2026-05-01T08:02:39Z</time></trkpt><trkpt lat="44.35663287883814" lon="10.7837796676103"><ele>593.0</ele><time>2026-05-01T08:02:40Z</time></trkpt><trkpt lat="44.35655939983332" lon="10.783699614893813"><ele>592.5</ele><time>2026-05-01T08:02:41Z</time></trkpt><trkpt lat="44.35649898980104" lon="10.783643208425824"><ele>592.0</ele><time>2026-05-01T08:02:42Z</time></trkpt><trkpt lat="44.356406080075125" lon="10.783549527400654"><ele>589.0</ele><time>2026-05-01T08:02:44Z</time></trkpt><trkpt lat="44.35634167077201" lon="10.783514135532728"><ele>586.0</ele><time>2026-05-01T08:02:46Z</time></trkpt><trkpt lat="44.356268682330104" lon="10.783457987591094"><ele>583.0</ele><time>2026-05-01T08:02:48Z</time></trkpt><trkpt lat="44.35622444467573" lon="10.783346034798074"><ele>580.0</ele><time>2026-05-01T08:02:49.999Z</time></trkpt><trkpt lat="44.356181174448885" lon="10.783240658016673"><ele>577.0</ele><time>2026-05-01T08:02:51.999Z</time></trkpt><trkpt lat="44.35610075576265" lon="10.783163697163689"><ele>574.0</ele><time>2026-05-01T08:02:53.999Z</time></trkpt><trkpt lat="44.35599502489821" lon="10.783163826446387"><ele>573.5714285714286</ele><time>2026-05-01T08:02:55.999Z</time></trkpt><trkpt lat="44.35592418267767" lon="10.783160227168153"><ele>573.1428571428571</ele><time>2026-05-01T08:02:56.999Z</time></trkpt><trkpt lat="44.35585399933885" lon="10.783142845480358"><ele>572.7142857142858</ele><time>2026-05-01T08:02:57.999Z</time></trkpt><trkpt lat="44.355787271690055" lon="10.78310737004261"><ele>572.2857142857142</ele><time>2026-05-01T08:02:58.999Z</time></trkpt><trkpt lat="44.35571772117739" lon="10.783075660738865"><ele>571.8571428571429</ele><time>2026-05-01T08:02:59.999Z</time></trkpt><trkpt lat="44.355644888351314" lon="10.783054533765231"><ele>571.4285714285714</ele><time>2026-05-01T08:03:00.999Z</time></trkpt><trkpt lat="44.3555853237547" lon="10.78300344669822"><ele>571.0</ele><time>2026-05-01T08:03:01.999Z</time></trkpt><trkpt lat="44.35553833150776" lon="10.78292976161696"><ele>569.6</ele><time>2026-05-01T08:03:02.999Z</time></trkpt><trkpt lat="44.35548210345078" lon="10.782859766943902"><ele>568.2</ele><time>2026-05-01T08:03:03.999Z</time></trkpt><trkpt lat="44.35542327459691" lon="10.782802091098732"><ele>566.8</ele><time>2026-05-01T08:03:04.999Z</time></trkpt><trkpt lat="44.355332440457076" lon="10.78270540250889"><ele>565.4</ele><time>2026-05-01T08:03:06.999Z</time></trkpt><trkpt lat="44.35522489231228" lon="10.782618540691463"><ele>564.0</ele><time>2026-05-01T08:03:08.999Z</time></trkpt><trkpt lat="44.35512844910818" lon="10.78251978784168"><ele>562.3333333333334</ele><time>2026-05-01T08:03:10.999Z</time></trkpt><trkpt lat="44.35502092597173" lon="10.782453268712981"><ele>560.6666666666666</ele><time>2026-05-01T08:03:12.999Z</time></trkpt><trkpt lat="44.35496225493986" lon="10.782417536614197"><ele>559.0</ele><time>2026-05-01T08:03:13.999Z</time></trkpt><trkpt lat="44.35484954162313" lon="10.782371278423582"><ele>557.3333333333333</ele><time>2026-05-01T08:03:15.999Z</time></trkpt><trkpt lat="44.35478529095329" lon="10.78232857905066"><ele>555.6666666666666</ele><time>2026-05-01T08:03:16.999Z</time></trkpt><trkpt lat="44.354716442005255" lon="10.782278263853424"><ele>554.0</ele><time>2026-05-01T08:03:17.999Z</time></trkpt><trkpt lat="44.35462209499051" lon="10.782247650282224"><ele>552.1666666666666</ele><time>2026-05-01T08:03:18.999Z</time></trkpt><trkpt lat="44.35454594579663" lon="10.782183532530063"><ele>550.3333333333333</ele><time>2026-05-01T08:03:19.999Z</time></trkpt><trkpt lat="44.354475903921006" lon="10.78210086435822"><ele>548.5</ele><time>2026-05-01T08:03:20.999Z</time></trkpt><trkpt lat="44.35440891666029" lon="10.782047978968947"><ele>546.6666666666666</ele><time>2026-05-01T08:03:21.999Z</time></trkpt><trkpt lat="44.35434362027298" lon="10.781996531898836"><ele>544.8333333333334</ele><time>2026-05-01T08:03:22.999Z</time></trkpt><trkpt lat="44.35428566920275" lon="10.781932748989853"><ele>543.0</ele><time>2026-05-01T08:03:23.999Z</time></trkpt><trkpt lat="44.35422788285866" lon="10.781861917116299"><ele>542.1666666666666</ele><time>2026-05-01T08:03:24.999Z</time></trkpt><trkpt lat="44.35416578240494" lon="10.7817993641166"><ele>541.3333333333334</ele><time>2026-05-01T08:03:25.999Z</time></trkpt><trkpt lat="44.35410058617463" lon="10.781738814721885"><ele>540.5</ele><time>2026-05-01T08:03:26.999Z</time></trkpt><trkpt lat="44.354028353384464" lon="10.781684453871955"><ele>539.6666666666667</ele><time>2026-05-01T08:03:27.999Z</time></trkpt><trkpt lat="44.353951734745486" lon="10.781638194358754"><ele>538.8333333333334</ele><time>2026-05-01T08:03:28.999Z</time></trkpt><trkpt lat="44.35387405613224" lon="10.781591385437547"><ele>538.0</ele><time>2026-05-01T08:03:29.999Z</time></trkpt><trkpt lat="44.35379784887484" lon="10.781542798797528"><ele>535.8333333333334</ele><time>2026-05-01T08:03:30.999Z</time></trkpt><trkpt lat="44.3537181061106" lon="10.78149744405311"><ele>533.6666666666667</ele><time>2026-05-01T08:03:31.999Z</time></trkpt><trkpt lat="44.35364765271232" lon="10.781446619508888"><ele>531.5</ele><time>2026-05-01T08:03:32.999Z</time></trkpt><trkpt lat="44.35359148210506" lon="10.781385198748568"><ele>529.3333333333334</ele><time>2026-05-01T08:03:33.999Z</time></trkpt><trkpt lat="44.35350771429011" lon="10.781267841784999"><ele>527.1666666666666</ele><time>2026-05-01T08:03:35.999Z</time></trkpt><trkpt lat="44.35346849545167" lon="10.781194850472973"><ele>525.0</ele><time>2026-05-01T08:03:36.999Z</time></trkpt><trkpt lat="44.35342461665866" lon="10.781129026860755"><ele>525.0</ele><time>2026-05-01T08:03:37.999Z</time></trkpt><trkpt lat="44.353380838685304" lon="10.781057565911368"><ele>525.0</ele><time>2026-05-01T08:03:38.999Z</time></trkpt><trkpt lat="44.353331076837556" lon="10.780984469947423"><ele>525.0</ele><time>2026-05-01T08:03:39.999Z</time></trkpt><trkpt lat="44.35328636883263" lon="10.78091834881566"><ele>525.0</ele><time>2026-05-01T08:03:40.999Z</time></trkpt><trkpt lat="44.35323860576099" lon="10.780790050926868"><ele>525.0</ele><time>2026-05-01T08:03:42.999Z</time></trkpt><trkpt lat="44.35332954697151" lon="10.78065517078869"><ele>525.0</ele><time>2026-05-01T08:03:44.999Z</time></trkpt><trkpt lat="44.353376976848615" lon="10.780589228938872"><ele>523.8333333333334</ele><time>2026-05-01T08:03:45.999Z</time></trkpt><trkpt lat="44.35335576590087" lon="10.780437801359648"><ele>522.6666666666666</ele><time>2026-05-01T08:03:47.999Z</time></trkpt><trkpt lat="44.353289655769885" lon="10.780371308410087"><ele>521.5</ele><time>2026-05-01T08:03:48.999Z</time></trkpt><trkpt lat="44.353208392058896" lon="10.780319543109183"><ele>520.3333333333333</ele><time>2026-05-01T08:03:49.999Z</time></trkpt><trkpt lat="44.35314054658614" lon="10.780275313815514"><ele>519.1666666666666</ele><time>2026-05-01T08:03:50.999Z</time></trkpt><trkpt lat="44.353073784037406" lon="10.780263043767688"><ele>518.0</ele><time>2026-05-01T08:03:51.999Z</time></trkpt><trkpt lat="44.352993608632936" lon="10.780287651487956"><ele>516.6666666666666</ele><time>2026-05-01T08:03:52.999Z</time></trkpt><trkpt lat="44.35290985076142" lon="10.780318145266433"><ele>515.3333333333333</ele><time>2026-05-01T08:03:53.999Z</time></trkpt><trkpt lat="44.35283224305673" lon="10.780288485737698"><ele>514.0</ele><time>2026-05-01T08:03:54.999Z</time></trkpt><trkpt lat="44.352764456894676" lon="10.780223619581724"><ele>512.6666666666666</ele><time>2026-05-01T08:03:55.999Z</time></trkpt><trkpt lat="44.35268933717576" lon="10.780173308666827"><ele>511.3333333333333</ele><time>2026-05-01T08:03:57.999Z</time></trkpt><trkpt lat="44.3526188174372" lon="10.780222376633532"><ele>510.0</ele><time>2026-05-01T08:04:06.999Z</time></trkpt><trkpt lat="44.3525872839312" lon="10.780319752016947"><ele>509.6</ele><time>2026-05-01T08:04:07.999Z</time></trkpt><trkpt lat="44.3525586737673" lon="10.780432562567599"><ele>509.2</ele><time>2026-05-01T08:04:09Z</time></trkpt><trkpt lat="44.35252632141445" lon="10.780549550257902"><ele>508.79999999999995</ele><time>2026-05-01T08:04:10Z</time></trkpt><trkpt lat="44.35251087419601" lon="10.780679442993767"><ele>508.4</ele><time>2026-05-01T08:04:11Z</time></trkpt><trkpt lat="44.35248077209477" lon="10.780818294140722"><ele>508.0</ele><time>2026-05-01T08:04:12Z</time></trkpt><trkpt lat="44.352454027676536" lon="10.780959935756517"><ele>508.4</ele><time>2026-05-01T08:04:13Z</time></trkpt><trkpt lat="44.352428020221986" lon="10.781104467800617"><ele>508.79999999999995</ele><time>2026-05-01T08:04:14Z</time></trkpt><trkpt lat="44.35241074674805" lon="10.781248620430135"><ele>509.2</ele><time>2026-05-01T08:04:15Z</time></trkpt><trkpt lat="44.3523992158417" lon="10.781400280012855"><ele>509.6</ele><time>2026-05-01T08:04:16Z</time></trkpt><trkpt lat="44.35237994490777" lon="10.78155101318618"><ele>510.0</ele><time>2026-05-01T08:04:17Z</time></trkpt><trkpt lat="44.352362519631995" lon="10.781685145681909"><ele>510.0</ele><time>2026-05-01T08:04:18Z</time></trkpt><trkpt lat="44.35231897236109" lon="10.781810572374473"><ele>510.0</ele><time>2026-05-01T08:04:19Z</time></trkpt><trkpt lat="44.35225303016887" lon="10.781938774878858"><ele>510.0</ele><time>2026-05-01T08:04:20Z</time></trkpt><trkpt lat="44.35215285470957" lon="10.782016822637816"><ele>510.0</ele><time>2026-05-01T08:04:21Z</time></trkpt><trkpt lat="44.35205688170355" lon="10.782105229201186"><ele>510.0</ele><time>2026-05-01T08:04:22Z</time></trkpt><trkpt lat="44.35196587002441" lon="10.782188252384966"><ele>511.75</ele><time>2026-05-01T08:04:23Z</time></trkpt><trkpt lat="44.35186900703748" lon="10.782270393917514"><ele>513.5</ele><time>2026-05-01T08:04:24Z</time></trkpt><trkpt lat="44.35177437048527" lon="10.782349236528438"><ele>515.25</ele><time>2026-05-01T08:04:25Z</time></trkpt><trkpt lat="44.35166752678585" lon="10.78241554719336"><ele>517.0</ele><time>2026-05-01T08:04:26Z</time></trkpt><trkpt lat="44.351554227876285" lon="10.782471358840288"><ele>517.0</ele><time>2026-05-01T08:04:27Z</time></trkpt><trkpt lat="44.35143933758684" lon="10.78252942223533"><ele>517.0</ele><time>2026-05-01T08:04:28Z</time></trkpt><trkpt lat="44.35132222168219" lon="10.78259310912458"><ele>517.0</ele><time>2026-05-01T08:04:29Z</time></trkpt><trkpt lat="44.35120419495584" lon="10.782661880133261"><ele>517.0</ele><time>2026-05-01T08:04:30Z</time></trkpt><trkpt lat="44.35108709697074" lon="10.782720083282934"><ele>519.6</ele><time>2026-05-01T08:04:31Z</time></trkpt><trkpt lat="44.35103053009305" lon="10.782870458757914"><ele>522.2</ele><time>2026-05-01T08:04:32Z</time></trkpt><trkpt lat="44.35093411730392" lon="10.782922935463922"><ele>524.8</ele><time>2026-05-01T08:04:33Z</time></trkpt><trkpt lat="44.350828344299124" lon="10.782939565939293"><ele>527.4</ele><time>2026-05-01T08:04:34Z</time></trkpt><trkpt lat="44.35071621814809" lon="10.782915009559828"><ele>530.0</ele><time>2026-05-01T08:04:35Z</time></trkpt><trkpt lat="44.350610250542736" lon="10.782877771721685"><ele>531.4</ele><time>2026-05-01T08:04:36Z</time></trkpt><trkpt lat="44.35050587607415" lon="10.78282387486257"><ele>532.8</ele><time>2026-05-01T08:04:37Z</time></trkpt><trkpt lat="44.35041051833811" lon="10.782739652257588"><ele>534.2</ele><time>2026-05-01T08:04:38Z</time></trkpt><trkpt lat="44.35033388227511" lon="10.782624946194092"><ele>535.6</ele><time>2026-05-01T08:04:39Z</time></trkpt><trkpt lat="44.35028662587688" lon="10.782511877848421"><ele>537.0</ele><time>2026-05-01T08:04:40Z</time></trkpt><trkpt lat="44.35025872096758" lon="10.782399546793249"><ele>537.5</ele><time>2026-05-01T08:04:41Z</time></trkpt><trkpt lat="44.35026487199627" lon="10.782274580019308"><ele>538.0</ele><time>2026-05-01T08:04:42Z</time></trkpt><trkpt lat="44.35030667041483" lon="10.78216609949741"><ele>538.5</ele><time>2026-05-01T08:04:43Z</time></trkpt><trkpt lat="44.35037628293967" lon="10.78211198106724"><ele>539.0</ele><time>2026-05-01T08:04:44Z</time></trkpt><trkpt lat="44.35043130316738" lon="10.782051040638041"><ele>539.5</ele><time>2026-05-01T08:04:45Z</time></trkpt><trkpt lat="44.35047602553262" lon="10.781985721584297"><ele>540.0</ele><time>2026-05-01T08:04:46Z</time></trkpt><trkpt lat="44.35052138893809" lon="10.78187088750406"><ele>541.0</ele><time>2026-05-01T08:04:48Z</time></trkpt><trkpt lat="44.35051607393271" lon="10.78169906487182"><ele>542.0</ele><time>2026-05-01T08:04:50Z</time></trkpt><trkpt lat="44.35049055617084" lon="10.7816088062573"><ele>543.0</ele><time>2026-05-01T08:04:51Z</time></trkpt><trkpt lat="44.35045015480533" lon="10.781529390510322"><ele>544.0</ele><time>2026-05-01T08:04:52Z</time></trkpt><trkpt lat="44.35040949137004" lon="10.781453416145915"><ele>545.0</ele><time>2026-05-01T08:04:53Z</time></trkpt><trkpt lat="44.350364319910454" lon="10.78135432264565"><ele>546.0</ele><time>2026-05-01T08:04:54Z</time></trkpt><trkpt lat="44.350326391298616" lon="10.781263859310695"><ele>546.0</ele><time>2026-05-01T08:04:55Z</time></trkpt><trkpt lat="44.35029851952464" lon="10.781164802408508"><ele>546.0</ele><time>2026-05-01T08:04:56Z</time></trkpt><trkpt lat="44.35028096134268" lon="10.781063196959321"><ele>546.0</ele><time>2026-05-01T08:04:57Z</time></trkpt><trkpt lat="44.35025915490737" lon="10.780951662343972"><ele>546.0</ele><time>2026-05-01T08:04:58Z</time></trkpt><trkpt lat="44.35023743553277" lon="10.780846651308385"><ele>546.0</ele><time>2026-05-01T08:04:59Z</time></trkpt><trkpt lat="44.35020959695514" lon="10.78073800071505"><ele>546.0</ele><time>2026-05-01T08:05:00Z</time></trkpt><trkpt lat="44.35018699296265" lon="10.780622354525363"><ele>547.1666666666666</ele><time>2026-05-01T08:05:00.999Z</time></trkpt><trkpt lat="44.350163522253396" lon="10.78051648486095"><ele>548.3333333333334</ele><time>2026-05-01T08:05:01.999Z</time></trkpt><trkpt lat="44.35015023558884" lon="10.780396759086903"><ele>549.5</ele><time>2026-05-01T08:05:02.999Z</time></trkpt><trkpt lat="44.3501536478783" lon="10.780277839807848"><ele>550.6666666666667</ele><time>2026-05-01T08:05:03.999Z</time></trkpt><trkpt lat="44.350176019940484" lon="10.780165356994651"><ele>551.8333333333334</ele><time>2026-05-01T08:05:04.999Z</time></trkpt><trkpt lat="44.35020103144006" lon="10.780053375249267"><ele>553.0</ele><time>2026-05-01T08:05:05.999Z</time></trkpt><trkpt lat="44.350212086320305" lon="10.779936227708957"><ele>554.1666666666667</ele><time>2026-05-01T08:05:06.999Z</time></trkpt><trkpt lat="44.350201720616774" lon="10.779813650303424"><ele>555.3333333333334</ele><time>2026-05-01T08:05:07.999Z</time></trkpt><trkpt lat="44.350184041536814" lon="10.77969010834722"><ele>556.5</ele><time>2026-05-01T08:05:08.999Z</time></trkpt><trkpt lat="44.350159102048316" lon="10.779573079037155"><ele>557.6666666666666</ele><time>2026-05-01T08:05:09.999Z</time></trkpt><trkpt lat="44.35013129997831" lon="10.779456831159218"><ele>558.8333333333333</ele><time>2026-05-01T08:05:10.999Z</time></trkpt><trkpt lat="44.35010199812559" lon="10.779341473133416"><ele>560.0</ele><time>2026-05-01T08:05:11.999Z</time></trkpt><trkpt lat="44.350092108815176" lon="10.779214990435781"><ele>562.6</ele><time>2026-05-01T08:05:12.999Z</time></trkpt><trkpt lat="44.35010567568866" lon="10.779079768123273"><ele>565.2</ele><time>2026-05-01T08:05:13.999Z</time></trkpt><trkpt lat="44.35012013225534" lon="10.778942203387142"><ele>567.8</ele><time>2026-05-01T08:05:14.999Z</time></trkpt><trkpt lat="44.35013640571608" lon="10.778816616558705"><ele>570.4</ele><time>2026-05-01T08:05:15.999Z</time></trkpt><trkpt lat="44.35017772240152" lon="10.778690317833291"><ele>573.0</ele><time>2026-05-01T08:05:16.999Z</time></trkpt><trkpt lat="44.35021825935358" lon="10.778557962156887"><ele>575.1999999999999</ele><time>2026-05-01T08:05:17.999Z</time></trkpt><trkpt lat="44.35023761502254" lon="10.778423023216925"><ele>577.4</ele><time>2026-05-01T08:05:18.999Z</time></trkpt><trkpt lat="44.35024020598714" lon="10.778295470809187"><ele>579.5999999999999</ele><time>2026-05-01T08:05:19.999Z</time></trkpt><trkpt lat="44.35023471591596" lon="10.778165865746095"><ele>581.8</ele><time>2026-05-01T08:05:20.999Z</time></trkpt><trkpt lat="44.35022745656089" lon="10.778033986725385"><ele>584.0</ele><time>2026-05-01T08:05:21.999Z</time></trkpt><trkpt lat="44.35022717569971" lon="10.777906801407905"><ele>584.0</ele><time>2026-05-01T08:05:22.999Z</time></trkpt><trkpt lat="44.35023095849451" lon="10.77777849099211"><ele>584.0</ele><time>2026-05-01T08:05:23.999Z</time></trkpt><trkpt lat="44.3502333341098" lon="10.777667699001249"><ele>584.0</ele><time>2026-05-01T08:05:24.999Z</time></trkpt><trkpt lat="44.350205542603355" lon="10.77752576829115"><ele>584.0</ele><time>2026-05-01T08:05:26.999Z</time></trkpt><trkpt lat="44.35009294902909" lon="10.777445338411503"><ele>584.0</ele><time>2026-05-01T08:05:28.999Z</time></trkpt><trkpt lat="44.350018982594804" lon="10.777468857012282"><ele>585.1666666666666</ele><time>2026-05-01T08:05:29.999Z</time></trkpt><trkpt lat="44.34993980709674" lon="10.777501457465538"><ele>586.3333333333333</ele><time>2026-05-01T08:05:30.999Z</time></trkpt><trkpt lat="44.34986599084951" lon="10.777540951154021"><ele>587.5</ele><time>2026-05-01T08:05:31.999Z</time></trkpt><trkpt lat="44.349782419684" lon="10.777572518243048"><ele>588.6666666666666</ele><time>2026-05-01T08:05:32.999Z</time></trkpt><trkpt lat="44.349694633744946" lon="10.777602261404652"><ele>589.8333333333334</ele><time>2026-05-01T08:05:33.999Z</time></trkpt><trkpt lat="44.349603602503294" lon="10.777628808108421"><ele>591.0</ele><time>2026-05-01T08:05:34.999Z</time></trkpt><trkpt lat="44.34950570554361" lon="10.777662516523144"><ele>593.2</ele><time>2026-05-01T08:05:35.999Z</time></trkpt><trkpt lat="44.34941331638084" lon="10.777692093027824"><ele>595.4000000000001</ele><time>2026-05-01T08:05:36.999Z</time></trkpt><trkpt lat="44.3493235817862" lon="10.777714387052646"><ele>597.6</ele><time>2026-05-01T08:05:37.999Z</time></trkpt><trkpt lat="44.34923277972701" lon="10.777733943610112"><ele>599.8000000000001</ele><time>2026-05-01T08:05:38.999Z</time></trkpt><trkpt lat="44.349144358316316" lon="10.77775051580709"><ele>602.0</ele><time>2026-05-01T08:05:39.999Z</time></trkpt><trkpt lat="44.34905884301259" lon="10.777772417805066"><ele>602.0</ele><time>2026-05-01T08:05:40.999Z</time></trkpt><trkpt lat="44.34897176775037" lon="10.77779613814115"><ele>602.0</ele><time>2026-05-01T08:05:41.999Z</time></trkpt><trkpt lat="44.348895790832294" lon="10.777823410320195"><ele>602.0</ele><time>2026-05-01T08:05:42.999Z</time></trkpt><trkpt lat="44.348829002157466" lon="10.777840787279347"><ele>602.0</ele><time>2026-05-01T08:05:43.999Z</time></trkpt><trkpt lat="44.34870564145327" lon="10.777827420210874"><ele>602.0</ele><time>2026-05-01T08:05:45.999Z</time></trkpt><trkpt lat="44.34864370509294" lon="10.777775925643475"><ele>602.0</ele><time>2026-05-01T08:05:46.999Z</time></trkpt><trkpt lat="44.34858250606271" lon="10.77771852966475"><ele>605.6666666666666</ele><time>2026-05-01T08:05:47.999Z</time></trkpt><trkpt lat="44.34851746521297" lon="10.777666222040859"><ele>609.3333333333333</ele><time>2026-05-01T08:05:48.999Z</time></trkpt><trkpt lat="44.348448057955956" lon="10.777607618065367"><ele>613.0</ele><time>2026-05-01T08:05:49.999Z</time></trkpt><trkpt lat="44.348375626993835" lon="10.777550632425205"><ele>616.6666666666666</ele><time>2026-05-01T08:05:50.999Z</time></trkpt><trkpt lat="44.34830328252818" lon="10.777498653393053"><ele>620.3333333333334</ele><time>2026-05-01T08:05:51.999Z</time></trkpt><trkpt lat="44.34823286132179" lon="10.777458256349485"><ele>624.0</ele><time>2026-05-01T08:05:52.999Z</time></trkpt><trkpt lat="44.34813798010235" lon="10.777438006545294"><ele>624.0</ele><time>2026-05-01T08:05:54.999Z</time></trkpt><trkpt lat="44.34806155746208" lon="10.777414713227273"><ele>624.0</ele><time>2026-05-01T08:05:56.999Z</time></trkpt><trkpt lat="44.34797288799274" lon="10.777359430554514"><ele>624.0</ele><time>2026-05-01T08:05:58.999Z</time></trkpt><trkpt lat="44.34790805465924" lon="10.77729679127433"><ele>624.0</ele><time>2026-05-01T08:06:01.999Z</time></trkpt><trkpt lat="44.3478478849654" lon="10.777218248423667"><ele>624.0</ele><time>2026-05-01T08:06:05.999Z</time></trkpt><trkpt lat="44.34780991082146" lon="10.777132069226843"><ele>624.0</ele><time>2026-05-01T08:06:07.999Z</time></trkpt><trkpt lat="44.34780030217296" lon="10.776949763004941"><ele>625.4</ele><time>2026-05-01T08:06:09.999Z</time></trkpt><trkpt lat="44.34780063177192" lon="10.776853912684086"><ele>626.8</ele><time>2026-05-01T08:06:10.999Z</time></trkpt><trkpt lat="44.34773171955032" lon="10.776701867865809"><ele>628.2</ele><time>2026-05-01T08:06:12.999Z</time></trkpt><trkpt lat="44.347648779780485" lon="10.776583382424207"><ele>629.6</ele><time>2026-05-01T08:06:15Z</time></trkpt><trkpt lat="44.34754546939961" lon="10.776548111557917"><ele>631.0</ele><time>2026-05-01T08:06:17Z</time></trkpt><trkpt lat="44.34747662007284" lon="10.776538379848942"><ele>632.4</ele><time>2026-05-01T08:06:18Z</time></trkpt><trkpt lat="44.34740081916073" lon="10.776487195943606"><ele>633.8</ele><time>2026-05-01T08:06:20Z</time></trkpt><trkpt lat="44.347327689217124" lon="10.77638873968789"><ele>635.1999999999999</ele><time>2026-05-01T08:06:22Z</time></trkpt><trkpt lat="44.34727092750145" lon="10.776259892278231"><ele>636.6</ele><time>2026-05-01T08:06:24Z</time></trkpt><trkpt lat="44.34715187851734" lon="10.776195431536332"><ele>638.0</ele><time>2026-05-01T08:06:26Z</time></trkpt><trkpt lat="44.34705918778942" lon="10.776105003470347"><ele>639.8</ele><time>2026-05-01T08:06:28Z</time></trkpt><trkpt lat="44.34695757028514" lon="10.776033502886117"><ele>641.5999999999999</ele><time>2026-05-01T08:06:30Z</time></trkpt><trkpt lat="44.34688276459395" lon="10.776063291167313"><ele>643.4000000000001</ele><time>2026-05-01T08:06:31Z</time></trkpt><trkpt lat="44.34681895101561" lon="10.776065096841112"><ele>645.2</ele><time>2026-05-01T08:06:32Z</time></trkpt><trkpt lat="44.34673045814376" lon="10.776033464196741"><ele>647.0</ele><time>2026-05-01T08:06:34Z</time></trkpt><trkpt lat="44.346642887435145" lon="10.775922892478677"><ele>648.8333333333333</ele><time>2026-05-01T08:06:36Z</time></trkpt><trkpt lat="44.34660000669731" lon="10.77584277493396"><ele>650.6666666666666</ele><time>2026-05-01T08:06:37Z</time></trkpt><trkpt lat="44.34654668695624" lon="10.775794223176746"><ele>652.5</ele><time>2026-05-01T08:06:38Z</time></trkpt><trkpt lat="44.34649058432767" lon="10.775753577750013"><ele>654.3333333333334</ele><time>2026-05-01T08:06:39Z</time></trkpt><trkpt lat="44.34641091260232" lon="10.775618151059852"><ele>656.1666666666667</ele><time>2026-05-01T08:06:41Z</time></trkpt><trkpt lat="44.346358233018016" lon="10.775550952774436"><ele>658.0</ele><time>2026-05-01T08:06:42Z</time></trkpt><trkpt lat="44.34629754109934" lon="10.775491276745882"><ele>659.1666666666667</ele><time>2026-05-01T08:06:43Z</time></trkpt><trkpt lat="44.346235030108254" lon="10.775441723854415"><ele>660.3333333333334</ele><time>2026-05-01T08:06:44Z</time></trkpt><trkpt lat="44.34620242322432" lon="10.775360613877055"><ele>661.5</ele><time>2026-05-01T08:06:45Z</time></trkpt><trkpt lat="44.34616549036025" lon="10.775226933406536"><ele>662.6666666666666</ele><time>2026-05-01T08:06:47Z</time></trkpt><trkpt lat="44.346136506983434" lon="10.77509133437827"><ele>663.8333333333333</ele><time>2026-05-01T08:06:49Z</time></trkpt><trkpt lat="44.34611928517073" lon="10.775006329026168"><ele>665.0</ele><time>2026-05-01T08:06:50Z</time></trkpt><trkpt lat="44.34611226778596" lon="10.77491500125397"><ele>667.0</ele><time>2026-05-01T08:06:51Z</time></trkpt><trkpt lat="44.346112016349124" lon="10.7747666311906"><ele>669.0</ele><time>2026-05-01T08:06:53Z</time></trkpt><trkpt lat="44.34611991374038" lon="10.774673179080146"><ele>671.0</ele><time>2026-05-01T08:06:56Z</time></trkpt><trkpt lat="44.34610192515741" lon="10.774543853704376"><ele>673.0</ele><time>2026-05-01T08:06:58Z</time></trkpt><trkpt lat="44.3461320991364" lon="10.774387474583381"><ele>675.0</ele><time>2026-05-01T08:07:00Z</time></trkpt><trkpt lat="44.34614319356026" lon="10.774288117700205"><ele>676.7142857142857</ele><time>2026-05-01T08:07:01Z</time></trkpt><trkpt lat="44.34615398963209" lon="10.774183908279788"><ele>678.4285714285714</ele><time>2026-05-01T08:07:02Z</time></trkpt><trkpt lat="44.34616862154932" lon="10.77408971779644"><ele>680.1428571428571</ele><time>2026-05-01T08:07:03Z</time></trkpt><trkpt lat="44.34618082683949" lon="10.773998658540684"><ele>681.8571428571429</ele><time>2026-05-01T08:07:04Z</time></trkpt><trkpt lat="44.34618593271657" lon="10.77390448825782"><ele>683.5714285714286</ele><time>2026-05-01T08:07:05Z</time></trkpt><trkpt lat="44.34615971558921" lon="10.773807419768163"><ele>685.2857142857143</ele><time>2026-05-01T08:07:06Z</time></trkpt><trkpt lat="44.346109971077524" lon="10.773740514079906"><ele>687.0</ele><time>2026-05-01T08:07:07Z</time></trkpt><trkpt lat="44.34603679537879" lon="10.773744416553464"><ele>687.0</ele><time>2026-05-01T08:07:08Z</time></trkpt><trkpt lat="44.345959546968786" lon="10.773766518768756"><ele>687.0</ele><time>2026-05-01T08:07:09Z</time></trkpt><trkpt lat="44.345884112874195" lon="10.773775987131605"><ele>687.0</ele><time>2026-05-01T08:07:10Z</time></trkpt><trkpt lat="44.345816094128864" lon="10.773779354878187"><ele>687.0</ele><time>2026-05-01T08:07:11Z</time></trkpt><trkpt lat="44.345745964132405" lon="10.773780823234162"><ele>687.0</ele><time>2026-05-01T08:07:12Z</time></trkpt><trkpt lat="44.34567276188147" lon="10.773781817961122"><ele>687.0</ele><time>2026-05-01T08:07:13Z</time></trkpt><trkpt lat="44.34560016638834" lon="10.773786019482875"><ele>687.0</ele><time>2026-05-01T08:07:13.999Z</time></trkpt><trkpt lat="44.34552738794099" lon="10.773785330745499"><ele>689.8</ele><time>2026-05-01T08:07:14.999Z</time></trkpt><trkpt lat="44.3454507166875" lon="10.773778825394615"><ele>692.6</ele><time>2026-05-01T08:07:15.999Z</time></trkpt><trkpt lat="44.345378579048784" lon="10.77377910934792"><ele>695.4</ele><time>2026-05-01T08:07:16.999Z</time></trkpt><trkpt lat="44.34526108622351" lon="10.773793408869576"><ele>698.1999999999999</ele><time>2026-05-01T08:07:18.999Z</time></trkpt><trkpt lat="44.34514778656306" lon="10.773798522187832"><ele>701.0</ele><time>2026-05-01T08:07:20.999Z</time></trkpt><trkpt lat="44.3450481066954" lon="10.773801475368344"><ele>701.0</ele><time>2026-05-01T08:07:22.999Z</time></trkpt><trkpt lat="44.34495369985215" lon="10.773790083760053"><ele>701.0</ele><time>2026-05-01T08:07:24.999Z</time></trkpt><trkpt lat="44.344875959693944" lon="10.773822287043222"><ele>701.0</ele><time>2026-05-01T08:07:26.999Z</time></trkpt><trkpt lat="44.344813890920655" lon="10.773923901925098"><ele>701.0</ele><time>2026-05-01T08:07:28.999Z</time></trkpt><trkpt lat="44.34471740042136" lon="10.774029619943708"><ele>701.0</ele><time>2026-05-01T08:07:30.999Z</time></trkpt><trkpt lat="44.34467377412758" lon="10.774112297134605"><ele>701.5999999999999</ele><time>2026-05-01T08:07:31.999Z</time></trkpt><trkpt lat="44.34463128258011" lon="10.774178918875567"><ele>702.2</ele><time>2026-05-01T08:07:32.999Z</time></trkpt><trkpt lat="44.34458569236079" lon="10.774289437132822"><ele>702.8</ele><time>2026-05-01T08:07:34.999Z</time></trkpt><trkpt lat="44.34448880202534" lon="10.774383019111438"><ele>703.4000000000001</ele><time>2026-05-01T08:07:36.999Z</time></trkpt><trkpt lat="44.344390250150454" lon="10.774419389009806"><ele>704.0</ele><time>2026-05-01T08:07:38.999Z</time></trkpt><trkpt lat="44.34427407318115" lon="10.77439220666723"><ele>706.8000000000001</ele><time>2026-05-01T08:07:40.999Z</time></trkpt><trkpt lat="44.34420011090337" lon="10.774286300838492"><ele>709.6</ele><time>2026-05-01T08:07:42.999Z</time></trkpt><trkpt lat="44.34416744188211" lon="10.774137835906647"><ele>712.4</ele><time>2026-05-01T08:07:44.999Z</time></trkpt><trkpt lat="44.344189454402866" lon="10.774054124577992"><ele>715.2</ele><time>2026-05-01T08:07:45.999Z</time></trkpt><trkpt lat="44.3442261018964" lon="10.773894824938816"><ele>718.0</ele><time>2026-05-01T08:07:47.999Z</time></trkpt><trkpt lat="44.344258715289754" lon="10.773767626610242"><ele>718.0</ele><time>2026-05-01T08:07:49.999Z</time></trkpt><trkpt lat="44.34427727919986" lon="10.773676046836096"><ele>718.0</ele><time>2026-05-01T08:07:50.999Z</time></trkpt><trkpt lat="44.344290991000534" lon="10.773520059326612"><ele>718.0</ele><time>2026-05-01T08:07:52.999Z</time></trkpt><trkpt lat="44.34425228779978" lon="10.773384465788604"><ele>718.0</ele><time>2026-05-01T08:07:54.999Z</time></trkpt><trkpt lat="44.344174332012976" lon="10.773270759038073"><ele>718.0</ele><time>2026-05-01T08:07:56.999Z</time></trkpt><trkpt lat="44.34410712042682" lon="10.773152302225498"><ele>720.4</ele><time>2026-05-01T08:07:58.999Z</time></trkpt><trkpt lat="44.344050631210834" lon="10.773030994223022"><ele>722.8</ele><time>2026-05-01T08:08:00.999Z</time></trkpt><trkpt lat="44.3440473519277" lon="10.772881804626733"><ele>725.2</ele><time>2026-05-01T08:08:02.999Z</time></trkpt><trkpt lat="44.34397740874008" lon="10.772787362828778"><ele>727.6</ele><time>2026-05-01T08:08:05.999Z</time></trkpt><trkpt lat="44.34388748594081" lon="10.772692834506287"><ele>730.0</ele><time>2026-05-01T08:08:07.999Z</time></trkpt><trkpt lat="44.343831119742894" lon="10.772628793920644"><ele>737.8</ele><time>2026-05-01T08:08:08.999Z</time></trkpt><trkpt lat="44.343783069783036" lon="10.772487145321428"><ele>745.6</ele><time>2026-05-01T08:08:10.999Z</time></trkpt><trkpt lat="44.34371796953055" lon="10.772382372899443"><ele>753.4000000000001</ele><time>2026-05-01T08:08:12.999Z</time></trkpt><trkpt lat="44.3436586543995" lon="10.772266357294027"><ele>761.2</ele><time>2026-05-01T08:08:14.999Z</time></trkpt><trkpt lat="44.343610400243165" lon="10.772154728389204"><ele>769.0</ele><time>2026-05-01T08:08:16.999Z</time></trkpt><trkpt lat="44.34355586147233" lon="10.772023868714951"><ele>769.0</ele><time>2026-05-01T08:08:18.999Z</time></trkpt><trkpt lat="44.343507857196364" lon="10.771962905175107"><ele>769.0</ele><time>2026-05-01T08:08:19.999Z</time></trkpt><trkpt lat="44.34341818049798" lon="10.77184716565156"><ele>769.0</ele><time>2026-05-01T08:08:22Z</time></trkpt><trkpt lat="44.34338843591441" lon="10.771758380977344"><ele>769.0</ele><time>2026-05-01T08:08:23Z</time></trkpt><trkpt lat="44.343350773497505" lon="10.77160099128051"><ele>769.0</ele><time>2026-05-01T08:08:25Z</time></trkpt><trkpt lat="44.34335911786925" lon="10.771487986276547"><ele>769.8333333333333</ele><time>2026-05-01T08:08:26Z</time></trkpt><trkpt lat="44.34332160859768" lon="10.771314269652686"><ele>770.6666666666666</ele><time>2026-05-01T08:08:28Z</time></trkpt><trkpt lat="44.34333525261503" lon="10.77122651042595"><ele>771.5</ele><time>2026-05-01T08:08:29Z</time></trkpt><trkpt lat="44.34334818455048" lon="10.77113448101413"><ele>772.3333333333333</ele><time>2026-05-01T08:08:31Z</time></trkpt><trkpt lat="44.34335591785847" lon="10.771029325428257"><ele>773.1666666666666</ele><time>2026-05-01T08:08:34Z</time></trkpt><trkpt lat="44.34338975729669" lon="10.77094069005208"><ele>774.0</ele><time>2026-05-01T08:08:36Z</time></trkpt><trkpt lat="44.34351329371964" lon="10.770769810607298"><ele>774.6</ele><time>2026-05-01T08:08:56Z</time></trkpt><trkpt lat="44.343650689144404" lon="10.77071552533111"><ele>775.2</ele><time>2026-05-01T08:08:58Z</time></trkpt><trkpt lat="44.34371854683992" lon="10.770622372224326"><ele>775.8000000000001</ele><time>2026-05-01T08:09:00Z</time></trkpt><trkpt lat="44.343789364256274" lon="10.770528701640737"><ele>776.4000000000001</ele><time>2026-05-01T08:09:02Z</time></trkpt><trkpt lat="44.343821684999796" lon="10.770396171704796"><ele>777.0</ele><time>2026-05-01T08:09:04Z</time></trkpt><trkpt lat="44.34382600042247" lon="10.770266993972442"><ele>776.4000000000001</ele><time>2026-05-01T08:09:06Z</time></trkpt><trkpt lat="44.34382499569961" lon="10.770128968589805"><ele>775.8000000000001</ele><time>2026-05-01T08:09:08Z</time></trkpt><trkpt lat="44.3438592466682" lon="10.769967186169888"><ele>775.2</ele><time>2026-05-01T08:09:10Z</time></trkpt><trkpt lat="44.3439122119465" lon="10.769813448186156"><ele>774.6</ele><time>2026-05-01T08:09:12Z</time></trkpt><trkpt lat="44.34399006128564" lon="10.769711972982734"><ele>774.0</ele><time>2026-05-01T08:09:14Z</time></trkpt><trkpt lat="44.34405222898201" lon="10.76962178442034"><ele>771.6</ele><time>2026-05-01T08:09:17Z</time></trkpt><trkpt lat="44.3441113340262" lon="10.76956960475237"><ele>769.2</ele><time>2026-05-01T08:09:18Z</time></trkpt><trkpt lat="44.34416194473466" lon="10.76950848854368"><ele>766.8000000000001</ele><time>2026-05-01T08:09:18.999Z</time></trkpt><trkpt lat="44.34423527799533" lon="10.769381658487463"><ele>764.4000000000001</ele><time>2026-05-01T08:09:20.999Z</time></trkpt><trkpt lat="44.34429008758384" lon="10.76922640770777"><ele>762.0</ele><time>2026-05-01T08:09:22.999Z</time></trkpt><trkpt lat="44.344333921968264" lon="10.769132029735752"><ele>760.8</ele><time>2026-05-01T08:09:23.999Z</time></trkpt><trkpt lat="44.34438110331775" lon="10.769032855337294"><ele>759.6</ele><time>2026-05-01T08:09:24.999Z</time></trkpt><trkpt lat="44.34442305908147" lon="10.768916996866182"><ele>758.4</ele><time>2026-05-01T08:09:25.999Z</time></trkpt><trkpt lat="44.34448245254312" lon="10.768815606711728"><ele>757.1999999999999</ele><time>2026-05-01T08:09:26.999Z</time></trkpt><trkpt lat="44.344552990577576" lon="10.76872576863109"><ele>756.0</ele><time>2026-05-01T08:09:27.999Z</time></trkpt><trkpt lat="44.344630582567305" lon="10.768649187817603"><ele>756.0</ele><time>2026-05-01T08:09:28.999Z</time></trkpt><trkpt lat="44.3447086905037" lon="10.768587486450343"><ele>756.0</ele><time>2026-05-01T08:09:29.999Z</time></trkpt><trkpt lat="44.34479906212315" lon="10.768560729840523"><ele>756.0</ele><time>2026-05-01T08:09:30.999Z</time></trkpt><trkpt lat="44.34487921723948" lon="10.768509983638992"><ele>756.0</ele><time>2026-05-01T08:09:31.999Z</time></trkpt><trkpt lat="44.344964269679245" lon="10.768443597614503"><ele>756.0</ele><time>2026-05-01T08:09:32.999Z</time></trkpt><trkpt lat="44.34505717744366" lon="10.768397355158257"><ele>752.5999999999999</ele><time>2026-05-01T08:09:33.999Z</time></trkpt><trkpt lat="44.345145666366726" lon="10.768346090981035"><ele>749.2</ele><time>2026-05-01T08:09:34.999Z</time></trkpt><trkpt lat="44.3452334286361" lon="10.76829637833864"><ele>745.8</ele><time>2026-05-01T08:09:35.999Z</time></trkpt><trkpt lat="44.345289141961636" lon="10.768250113673323"><ele>742.4000000000001</ele><time>2026-05-01T08:09:36.999Z</time></trkpt><trkpt lat="44.34538561533578" lon="10.768165787858862"><ele>739.0</ele><time>2026-05-01T08:09:38.999Z</time></trkpt><trkpt lat="44.34546564621647" lon="10.768069459685188"><ele>739.0</ele><time>2026-05-01T08:09:40.999Z</time></trkpt><trkpt lat="44.34551373116371" lon="10.768001831818907"><ele>739.0</ele><time>2026-05-01T08:09:41.999Z</time></trkpt><trkpt lat="44.345565737181815" lon="10.76794421829793"><ele>739.0</ele><time>2026-05-01T08:09:42.999Z</time></trkpt><trkpt lat="44.34563424975446" lon="10.767832655820506"><ele>739.0</ele><time>2026-05-01T08:09:44.999Z</time></trkpt><trkpt lat="44.345681338839675" lon="10.767746729416045"><ele>739.0</ele><time>2026-05-01T08:09:46.999Z</time></trkpt><trkpt lat="44.345764634692706" lon="10.767681130528095"><ele>739.0</ele><time>2026-05-01T08:09:48.999Z</time></trkpt><trkpt lat="44.34586421551352" lon="10.76765703285619"><ele>737.8333333333334</ele><time>2026-05-01T08:09:50.999Z</time></trkpt><trkpt lat="44.345960523894114" lon="10.767631257806356"><ele>736.6666666666667</ele><time>2026-05-01T08:09:52.999Z</time></trkpt><trkpt lat="44.3460349400114" lon="10.767613543322533"><ele>735.5</ele><time>2026-05-01T08:09:54.999Z</time></trkpt><trkpt lat="44.34608696712005" lon="10.76752464292139"><ele>734.3333333333334</ele><time>2026-05-01T08:09:56.999Z</time></trkpt><trkpt lat="44.34610702610401" lon="10.767410951560874"><ele>733.1666666666666</ele><time>2026-05-01T08:09:58.999Z</time></trkpt><trkpt lat="44.3461287773697" lon="10.767291735904998"><ele>732.0</ele><time>2026-05-01T08:10:01.999Z</time></trkpt><trkpt lat="44.346100565597496" lon="10.76737459465673"><ele>732.0</ele><time>2026-05-01T08:10:48Z</time></trkpt><trkpt lat="44.346085721439756" lon="10.7674679802745"><ele>732.0</ele><time>2026-05-01T08:10:52Z</time></trkpt><trkpt lat="44.346054199113844" lon="10.767573243392873"><ele>732.0</ele><time>2026-05-01T08:11:02Z</time></trkpt><trkpt lat="44.3459568916561" lon="10.767603301500728"><ele>732.0</ele><time>2026-05-01T08:11:05Z</time></trkpt><trkpt lat="44.3458862275509" lon="10.767624379411446"><ele>732.0</ele><time>2026-05-01T08:11:07Z</time></trkpt><trkpt lat="44.34581197936651" lon="10.767654502404822"><ele>732.0</ele><time>2026-05-01T08:11:08Z</time></trkpt><trkpt lat="44.34571104204495" lon="10.767703644060148"><ele>731.8</ele><time>2026-05-01T08:11:10Z</time></trkpt><trkpt lat="44.34563339954372" lon="10.76781023682127"><ele>731.6</ele><time>2026-05-01T08:11:12Z</time></trkpt><trkpt lat="44.34556065782112" lon="10.767958235947308"><ele>731.4</ele><time>2026-05-01T08:11:14Z</time></trkpt><trkpt lat="44.34546636718643" lon="10.76805941902857"><ele>731.1999999999999</ele><time>2026-05-01T08:11:16Z</time></trkpt><trkpt lat="44.34540608967124" lon="10.768114783402334"><ele>731.0</ele><time>2026-05-01T08:11:17Z</time></trkpt><trkpt lat="44.34531421885255" lon="10.768211979655076"><ele>732.3333333333333</ele><time>2026-05-01T08:11:19Z</time></trkpt><trkpt lat="44.34521776608352" lon="10.768288516562723"><ele>733.6666666666666</ele><time>2026-05-01T08:11:21Z</time></trkpt><trkpt lat="44.34515875806137" lon="10.768321870269538"><ele>735.0</ele><time>2026-05-01T08:11:22Z</time></trkpt><trkpt lat="44.34510083952761" lon="10.768367161710755"><ele>736.3333333333334</ele><time>2026-05-01T08:11:23Z</time></trkpt><trkpt lat="44.345043163497834" lon="10.76841213578962"><ele>737.6666666666667</ele><time>2026-05-01T08:11:24Z</time></trkpt><trkpt lat="44.34497397621763" lon="10.768448579537084"><ele>739.0</ele><time>2026-05-01T08:11:25Z</time></trkpt><trkpt lat="44.34490824645793" lon="10.768483698020754"><ele>738.8333333333334</ele><time>2026-05-01T08:11:26Z</time></trkpt><trkpt lat="44.34485103615761" lon="10.76853354139121"><ele>738.6666666666667</ele><time>2026-05-01T08:11:27Z</time></trkpt><trkpt lat="44.34478878890263" lon="10.768588586262029"><ele>738.5</ele><time>2026-05-01T08:11:28Z</time></trkpt><trkpt lat="44.344719049182636" lon="10.76862347303763"><ele>738.3333333333334</ele><time>2026-05-01T08:11:29Z</time></trkpt><trkpt lat="44.34464573507158" lon="10.76866822033636"><ele>738.1666666666666</ele><time>2026-05-01T08:11:30Z</time></trkpt><trkpt lat="44.34457403794783" lon="10.768731079951191"><ele>738.0</ele><time>2026-05-01T08:11:31Z</time></trkpt><trkpt lat="44.344496502377545" lon="10.768820216391225"><ele>742.5</ele><time>2026-05-01T08:11:32Z</time></trkpt><trkpt lat="44.34443401079178" lon="10.768945898098035"><ele>747.0</ele><time>2026-05-01T08:11:33Z</time></trkpt><trkpt lat="44.34436564809387" lon="10.769079814340497"><ele>751.5</ele><time>2026-05-01T08:11:34Z</time></trkpt><trkpt lat="44.344308490454466" lon="10.769223410573357"><ele>756.0</ele><time>2026-05-01T08:11:35Z</time></trkpt><trkpt lat="44.34424870491298" lon="10.769364643827533"><ele>757.0</ele><time>2026-05-01T08:11:36Z</time></trkpt><trkpt lat="44.34420791694124" lon="10.76946649418237"><ele>758.0</ele><time>2026-05-01T08:11:37Z</time></trkpt><trkpt lat="44.344155278006234" lon="10.769531888817243"><ele>759.0</ele><time>2026-05-01T08:11:37.999Z</time></trkpt><trkpt lat="44.34410700903636" lon="10.7695910456257"><ele>760.0</ele><time>2026-05-01T08:11:38.999Z</time></trkpt><trkpt lat="44.3440034308021" lon="10.769656550473327"><ele>761.0</ele><time>2026-05-01T08:11:40.999Z</time></trkpt><trkpt lat="44.34406772026491" lon="10.769600956426348"><ele>762.0</ele><time>2026-05-01T08:32:19Z</time></trkpt><trkpt lat="44.344153078787386" lon="10.769524171506562"><ele>762.0</ele><time>2026-05-01T08:32:21Z</time></trkpt><trkpt lat="44.344207078874845" lon="10.769437122537571"><ele>762.0</ele><time>2026-05-01T08:32:23Z</time></trkpt><trkpt lat="44.34425644881016" lon="10.76931335166031"><ele>762.0</ele><time>2026-05-01T08:32:25Z</time></trkpt><trkpt lat="44.34432345846342" lon="10.769156938108637"><ele>762.0</ele><time>2026-05-01T08:32:27Z</time></trkpt><trkpt lat="44.34436279762471" lon="10.769066331887057"><ele>762.0</ele><time>2026-05-01T08:32:28Z</time></trkpt><trkpt lat="44.34441284351448" lon="10.768976134364069"><ele>761.0</ele><time>2026-05-01T08:32:29Z</time></trkpt><trkpt lat="44.34445281838587" lon="10.76888701024209"><ele>760.0</ele><time>2026-05-01T08:32:30Z</time></trkpt><trkpt lat="44.344496328679654" lon="10.768788790282564"><ele>759.0</ele><time>2026-05-01T08:32:31Z</time></trkpt><trkpt lat="44.34455379128029" lon="10.768726545041424"><ele>758.0</ele><time>2026-05-01T08:32:32Z</time></trkpt><trkpt lat="44.34461974863791" lon="10.768675909479734"><ele>757.0</ele><time>2026-05-01T08:32:33Z</time></trkpt><trkpt lat="44.344682997018786" lon="10.768624174341692"><ele>756.0</ele><time>2026-05-01T08:32:34Z</time></trkpt><trkpt lat="44.34476203523517" lon="10.76857996848883"><ele>752.5999999999999</ele><time>2026-05-01T08:32:35Z</time></trkpt><trkpt lat="44.34484503749507" lon="10.768523096031267"><ele>749.2</ele><time>2026-05-01T08:32:36Z</time></trkpt><trkpt lat="44.34492805432437" lon="10.768450553798834"><ele>745.8</ele><time>2026-05-01T08:32:37Z</time></trkpt><trkpt lat="44.34502796015601" lon="10.76840820235782"><ele>742.4000000000001</ele><time>2026-05-01T08:32:38Z</time></trkpt><trkpt lat="44.34510973602433" lon="10.768347942437439"><ele>739.0</ele><time>2026-05-01T08:32:39Z</time></trkpt><trkpt lat="44.345193291270185" lon="10.768290497345248"><ele>739.0</ele><time>2026-05-01T08:32:40Z</time></trkpt><trkpt lat="44.34526933334931" lon="10.768242669387822"><ele>739.0</ele><time>2026-05-01T08:32:41Z</time></trkpt><trkpt lat="44.34533062977239" lon="10.768188580259665"><ele>739.0</ele><time>2026-05-01T08:32:42Z</time></trkpt><trkpt lat="44.34542094179751" lon="10.7680770455104"><ele>739.0</ele><time>2026-05-01T08:32:44Z</time></trkpt><trkpt lat="44.345479748990385" lon="10.768019197972881"><ele>739.0</ele><time>2026-05-01T08:32:45Z</time></trkpt><trkpt lat="44.34553360384266" lon="10.767951154316256"><ele>739.0</ele><time>2026-05-01T08:32:46Z</time></trkpt><trkpt lat="44.34558818872233" lon="10.767871146778754"><ele>737.6</ele><time>2026-05-01T08:32:47Z</time></trkpt><trkpt lat="44.34565617247281" lon="10.76775423731089"><ele>736.2</ele><time>2026-05-01T08:32:49Z</time></trkpt><trkpt lat="44.34572463129285" lon="10.767676048267742"><ele>734.8000000000001</ele><time>2026-05-01T08:32:51Z</time></trkpt><trkpt lat="44.345828248346905" lon="10.767636279895665"><ele>733.4000000000001</ele><time>2026-05-01T08:32:53Z</time></trkpt><trkpt lat="44.34592711222933" lon="10.767613891036632"><ele>732.0</ele><time>2026-05-01T08:32:55Z</time></trkpt><trkpt lat="44.34599594439889" lon="10.76760482752485"><ele>732.0</ele><time>2026-05-01T08:33:00Z</time></trkpt><trkpt lat="44.34606669145365" lon="10.767529532147297"><ele>732.0</ele><time>2026-05-01T08:33:03Z</time></trkpt><trkpt lat="44.346091290334755" lon="10.76742889559387"><ele>732.0</ele><time>2026-05-01T08:33:05Z</time></trkpt><trkpt lat="44.346117358102994" lon="10.767315445148125"><ele>732.0</ele><time>2026-05-01T08:33:07Z</time></trkpt><trkpt lat="44.34608953870073" lon="10.767217490084334"><ele>732.0</ele><time>2026-05-01T08:33:09.001Z</time></trkpt><trkpt lat="44.34603282348791" lon="10.767149776717666"><ele>732.0</ele><time>2026-05-01T08:33:11.001Z</time></trkpt><trkpt lat="44.34593837866687" lon="10.767118508952802"><ele>732.0</ele><time>2026-05-01T08:33:13.001Z</time></trkpt><trkpt lat="44.34584258694814" lon="10.767084787727434"><ele>732.0</ele><time>2026-05-01T08:33:15.001Z</time></trkpt><trkpt lat="44.345740005297024" lon="10.767016844353062"><ele>732.0</ele><time>2026-05-01T08:33:17.001Z</time></trkpt><trkpt lat="44.3456188578078" lon="10.76696848139938"><ele>732.0</ele><time>2026-05-01T08:33:19.001Z</time></trkpt><trkpt lat="44.345557149625165" lon="10.766935859935334"><ele>732.0</ele><time>2026-05-01T08:33:20.001Z</time></trkpt><trkpt lat="44.345491098695646" lon="10.76689675674956"><ele>730.1666666666666</ele><time>2026-05-01T08:33:21.001Z</time></trkpt><trkpt lat="44.3454220111663" lon="10.76684699875339"><ele>728.3333333333334</ele><time>2026-05-01T08:33:22.001Z</time></trkpt><trkpt lat="44.345353839681465" lon="10.766793231532068"><ele>726.5</ele><time>2026-05-01T08:33:23.001Z</time></trkpt><trkpt lat="44.34529141062192" lon="10.766737629225409"><ele>724.6666666666667</ele><time>2026-05-01T08:33:24.001Z</time></trkpt><trkpt lat="44.34521727388376" lon="10.766691714356437"><ele>722.8333333333334</ele><time>2026-05-01T08:33:25.001Z</time></trkpt><trkpt lat="44.345159373712036" lon="10.766622793668722"><ele>721.0</ele><time>2026-05-01T08:33:26.001Z</time></trkpt><trkpt lat="44.34508282590726" lon="10.766568514135939"><ele>721.0</ele><time>2026-05-01T08:33:27.001Z</time></trkpt><trkpt lat="44.34501014034139" lon="10.766503973722584"><ele>721.0</ele><time>2026-05-01T08:33:28.001Z</time></trkpt><trkpt lat="44.344932591360916" lon="10.766437230271727"><ele>721.0</ele><time>2026-05-01T08:33:29.001Z</time></trkpt><trkpt lat="44.34486835460589" lon="10.766379062587703"><ele>721.0</ele><time>2026-05-01T08:33:30.001Z</time></trkpt><trkpt lat="44.34481416670735" lon="10.766325817392033"><ele>721.0</ele><time>2026-05-01T08:33:31.001Z</time></trkpt><trkpt lat="44.34475601048759" lon="10.76628945202375"><ele>721.0</ele><time>2026-05-01T08:33:32.001Z</time></trkpt><trkpt lat="44.34463596312635" lon="10.766240092271193"><ele>720.1666666666667</ele><time>2026-05-01T08:33:33.999Z</time></trkpt><trkpt lat="44.34456451552756" lon="10.766225477675672"><ele>719.3333333333334</ele><time>2026-05-01T08:33:34.999Z</time></trkpt><trkpt lat="44.34449119894585" lon="10.76620886590179"><ele>718.5</ele><time>2026-05-01T08:33:35.999Z</time></trkpt><trkpt lat="44.34441151362492" lon="10.766196996391974"><ele>717.6666666666666</ele><time>2026-05-01T08:33:36.999Z</time></trkpt><trkpt lat="44.344324034304904" lon="10.766194822424312"><ele>716.8333333333333</ele><time>2026-05-01T08:33:37.999Z</time></trkpt><trkpt lat="44.34423604192473" lon="10.766174748441134"><ele>716.0</ele><time>2026-05-01T08:33:38.999Z</time></trkpt><trkpt lat="44.344143292579965" lon="10.766143299723142"><ele>716.0</ele><time>2026-05-01T08:33:39.999Z</time></trkpt><trkpt lat="44.34405182443061" lon="10.766113228618657"><ele>716.0</ele><time>2026-05-01T08:33:40.999Z</time></trkpt><trkpt lat="44.343949211904835" lon="10.766098283420021"><ele>716.0</ele><time>2026-05-01T08:33:41.999Z</time></trkpt><trkpt lat="44.343854791495694" lon="10.766063716258106"><ele>716.0</ele><time>2026-05-01T08:33:42.999Z</time></trkpt><trkpt lat="44.34377449346386" lon="10.766020975698565"><ele>716.0</ele><time>2026-05-01T08:33:43.999Z</time></trkpt><trkpt lat="44.34371568162746" lon="10.765937572935071"><ele>714.5</ele><time>2026-05-01T08:33:44.999Z</time></trkpt><trkpt lat="44.343673335335104" lon="10.765825384605122"><ele>713.0</ele><time>2026-05-01T08:33:45.999Z</time></trkpt><trkpt lat="44.34364042270949" lon="10.765713380736104"><ele>711.5</ele><time>2026-05-01T08:33:46.999Z</time></trkpt><trkpt lat="44.3436102018744" lon="10.765618302924695"><ele>710.0</ele><time>2026-05-01T08:33:47.999Z</time></trkpt><trkpt lat="44.34357802536393" lon="10.765535428824784"><ele>708.5</ele><time>2026-05-01T08:33:48.999Z</time></trkpt><trkpt lat="44.34353217531009" lon="10.76546024553441"><ele>707.0</ele><time>2026-05-01T08:33:49.999Z</time></trkpt><trkpt lat="44.34346424652412" lon="10.765407451823787"><ele>707.0</ele><time>2026-05-01T08:33:50.999Z</time></trkpt><trkpt lat="44.34341502696994" lon="10.765296037554329"><ele>707.0</ele><time>2026-05-01T08:33:51.999Z</time></trkpt><trkpt lat="44.34338267637769" lon="10.76518567810399"><ele>707.0</ele><time>2026-05-01T08:33:52.999Z</time></trkpt><trkpt lat="44.343358505530276" lon="10.765050710916826"><ele>707.0</ele><time>2026-05-01T08:33:53.999Z</time></trkpt><trkpt lat="44.34333128671205" lon="10.764932376086383"><ele>707.0</ele><time>2026-05-01T08:33:54.999Z</time></trkpt><trkpt lat="44.34328996460726" lon="10.764821283592056"><ele>706.5</ele><time>2026-05-01T08:33:55.999Z</time></trkpt><trkpt lat="44.343226985414766" lon="10.764723409385379"><ele>706.0</ele><time>2026-05-01T08:33:57Z</time></trkpt><trkpt lat="44.34315683799755" lon="10.764638560135554"><ele>705.5</ele><time>2026-05-01T08:33:58Z</time></trkpt><trkpt lat="44.34309008756782" lon="10.764572833836658"><ele>705.0</ele><time>2026-05-01T08:33:59Z</time></trkpt><trkpt lat="44.3430192902505" lon="10.764512005642782"><ele>704.5</ele><time>2026-05-01T08:34:00Z</time></trkpt><trkpt lat="44.34294873703686" lon="10.764466614290182"><ele>704.0</ele><time>2026-05-01T08:34:01Z</time></trkpt><trkpt lat="44.34287802057537" lon="10.764432005870907"><ele>704.0</ele><time>2026-05-01T08:34:02Z</time></trkpt><trkpt lat="44.34279574872109" lon="10.764413362320125"><ele>704.0</ele><time>2026-05-01T08:34:03Z</time></trkpt><trkpt lat="44.34272124519492" lon="10.764376647738022"><ele>704.0</ele><time>2026-05-01T08:34:04Z</time></trkpt><trkpt lat="44.34263576760602" lon="10.76435619620948"><ele>704.0</ele><time>2026-05-01T08:34:05Z</time></trkpt><trkpt lat="44.34254797311561" lon="10.764308593318699"><ele>704.0</ele><time>2026-05-01T08:34:06Z</time></trkpt><trkpt lat="44.34245479950149" lon="10.764251412681988"><ele>704.0</ele><time>2026-05-01T08:34:07Z</time></trkpt><trkpt lat="44.342357819186994" lon="10.764181193560445"><ele>702.0</ele><time>2026-05-01T08:34:08Z</time></trkpt><trkpt lat="44.342285698394726" lon="10.764106298957325"><ele>700.0</ele><time>2026-05-01T08:34:09Z</time></trkpt><trkpt lat="44.34224471779731" lon="10.764013819178457"><ele>698.0</ele><time>2026-05-01T08:34:10Z</time></trkpt><trkpt lat="44.342194989959886" lon="10.763908696077497"><ele>696.0</ele><time>2026-05-01T08:34:11Z</time></trkpt><trkpt lat="44.34213741998305" lon="10.763823496754513"><ele>694.0</ele><time>2026-05-01T08:34:12Z</time></trkpt><trkpt lat="44.342083041573396" lon="10.763757744084234"><ele>692.0</ele><time>2026-05-01T08:34:13Z</time></trkpt><trkpt lat="44.342017143749764" lon="10.763719661071402"><ele>692.0</ele><time>2026-05-01T08:34:14Z</time></trkpt><trkpt lat="44.34193547066857" lon="10.76368681684068"><ele>692.0</ele><time>2026-05-01T08:34:15Z</time></trkpt><trkpt lat="44.34185843884503" lon="10.763618278718102"><ele>692.0</ele><time>2026-05-01T08:34:16Z</time></trkpt><trkpt lat="44.34176036246692" lon="10.763571380635378"><ele>692.0</ele><time>2026-05-01T08:34:17Z</time></trkpt><trkpt lat="44.34165668033901" lon="10.763525446190812"><ele>692.0</ele><time>2026-05-01T08:34:18Z</time></trkpt><trkpt lat="44.341554413470085" lon="10.763477945541325"><ele>691.4000000000001</ele><time>2026-05-01T08:34:19Z</time></trkpt><trkpt lat="44.341455102465936" lon="10.763446019211123"><ele>690.8000000000001</ele><time>2026-05-01T08:34:20Z</time></trkpt><trkpt lat="44.34137218821003" lon="10.763378408129862"><ele>690.2</ele><time>2026-05-01T08:34:21Z</time></trkpt><trkpt lat="44.341296612360736" lon="10.763275544975972"><ele>689.6</ele><time>2026-05-01T08:34:22Z</time></trkpt><trkpt lat="44.341250882114736" lon="10.763142193229362"><ele>689.0</ele><time>2026-05-01T08:34:23Z</time></trkpt><trkpt lat="44.341196343474685" lon="10.7630212739436"><ele>689.0</ele><time>2026-05-01T08:34:24Z</time></trkpt><trkpt lat="44.341154240273355" lon="10.762889926922846"><ele>689.0</ele><time>2026-05-01T08:34:25Z</time></trkpt><trkpt lat="44.34112788131249" lon="10.762749704251881"><ele>689.0</ele><time>2026-05-01T08:34:26Z</time></trkpt><trkpt lat="44.34110091868968" lon="10.762616625309795"><ele>689.0</ele><time>2026-05-01T08:34:27Z</time></trkpt><trkpt lat="44.34110776654175" lon="10.762479907058182"><ele>689.0</ele><time>2026-05-01T08:34:28Z</time></trkpt><trkpt lat="44.341081821199154" lon="10.762338681522786"><ele>690.8000000000001</ele><time>2026-05-01T08:34:29Z</time></trkpt><trkpt lat="44.34108099663389" lon="10.762183808856559"><ele>692.6</ele><time>2026-05-01T08:34:30Z</time></trkpt><trkpt lat="44.34108785530342" lon="10.762048272964957"><ele>694.4</ele><time>2026-05-01T08:34:31Z</time></trkpt><trkpt lat="44.3411117486346" lon="10.761921634745715"><ele>696.2</ele><time>2026-05-01T08:34:32Z</time></trkpt><trkpt lat="44.34115497648509" lon="10.761765931351494"><ele>698.0</ele><time>2026-05-01T08:34:33Z</time></trkpt><trkpt lat="44.34123406069182" lon="10.761621167916468"><ele>698.2</ele><time>2026-05-01T08:34:34Z</time></trkpt><trkpt lat="44.34128566798294" lon="10.761480663009102"><ele>698.4</ele><time>2026-05-01T08:34:35Z</time></trkpt><trkpt lat="44.34133059159839" lon="10.761349913738332"><ele>698.6</ele><time>2026-05-01T08:34:36Z</time></trkpt><trkpt lat="44.34138093327717" lon="10.761220240427196"><ele>698.8000000000001</ele><time>2026-05-01T08:34:37Z</time></trkpt><trkpt lat="44.34145255689807" lon="10.761116384708853"><ele>699.0</ele><time>2026-05-01T08:34:38Z</time></trkpt><trkpt lat="44.34150981232488" lon="10.761013135854824"><ele>695.8333333333334</ele><time>2026-05-01T08:34:39Z</time></trkpt><trkpt lat="44.341549935294836" lon="10.76090684224755"><ele>692.6666666666666</ele><time>2026-05-01T08:34:40Z</time></trkpt><trkpt lat="44.34157719528328" lon="10.760802844957878"><ele>689.5</ele><time>2026-05-01T08:34:41Z</time></trkpt><trkpt lat="44.341584182538774" lon="10.76068733712582"><ele>686.3333333333333</ele><time>2026-05-01T08:34:42Z</time></trkpt><trkpt lat="44.3415797696572" lon="10.76057002576678"><ele>683.1666666666666</ele><time>2026-05-01T08:34:43Z</time></trkpt><trkpt lat="44.34158385401163" lon="10.760463248671591"><ele>680.0</ele><time>2026-05-01T08:34:44Z</time></trkpt><trkpt lat="44.341587597782905" lon="10.760363358078788"><ele>680.0</ele><time>2026-05-01T08:34:45Z</time></trkpt><trkpt lat="44.34160463366679" lon="10.760201593164341"><ele>680.0</ele><time>2026-05-01T08:34:47Z</time></trkpt><trkpt lat="44.3416177277771" lon="10.760044372259822"><ele>680.0</ele><time>2026-05-01T08:34:49Z</time></trkpt><trkpt lat="44.341649413836365" lon="10.759879477525798"><ele>680.0</ele><time>2026-05-01T08:34:51Z</time></trkpt><trkpt lat="44.341672360744525" lon="10.759796455727882"><ele>680.0</ele><time>2026-05-01T08:34:52Z</time></trkpt><trkpt lat="44.341698446523104" lon="10.759712844495487"><ele>681.4</ele><time>2026-05-01T08:34:53Z</time></trkpt><trkpt lat="44.34172795263658" lon="10.75962878744162"><ele>682.8</ele><time>2026-05-01T08:34:54Z</time></trkpt><trkpt lat="44.34175880526143" lon="10.759550270969884"><ele>684.2</ele><time>2026-05-01T08:34:55Z</time></trkpt><trkpt lat="44.341814732705764" lon="10.759411024770516"><ele>685.6</ele><time>2026-05-01T08:34:57Z</time></trkpt><trkpt lat="44.34186860486201" lon="10.759276725408574"><ele>687.0</ele><time>2026-05-01T08:34:59Z</time></trkpt><trkpt lat="44.34193883765196" lon="10.759151243160426"><ele>686.8333333333334</ele><time>2026-05-01T08:35:01.001Z</time></trkpt><trkpt lat="44.34201525347375" lon="10.759044657259293"><ele>686.6666666666666</ele><time>2026-05-01T08:35:03.001Z</time></trkpt><trkpt lat="44.34206127134557" lon="10.758973161618421"><ele>686.5</ele><time>2026-05-01T08:35:05.001Z</time></trkpt><trkpt lat="44.342111792354984" lon="10.758891531261229"><ele>686.3333333333333</ele><time>2026-05-01T08:35:45.999Z</time></trkpt><trkpt lat="44.34214910112527" lon="10.758814122911764"><ele>686.1666666666666</ele><time>2026-05-01T08:35:46.999Z</time></trkpt><trkpt lat="44.34219037916089" lon="10.758716770694843"><ele>686.0</ele><time>2026-05-01T08:35:47.999Z</time></trkpt><trkpt lat="44.34222182301943" lon="10.758629563742582"><ele>686.8</ele><time>2026-05-01T08:35:48.999Z</time></trkpt><trkpt lat="44.34224757677768" lon="10.758519937803731"><ele>687.5999999999999</ele><time>2026-05-01T08:35:50.999Z</time></trkpt><trkpt lat="44.34221429376107" lon="10.758604366413678"><ele>688.4</ele><time>2026-05-01T08:36:03Z</time></trkpt><trkpt lat="44.34216415296051" lon="10.758753993614686"><ele>689.2</ele><time>2026-05-01T08:36:05Z</time></trkpt><trkpt lat="44.34209215516677" lon="10.758910590671865"><ele>690.0</ele><time>2026-05-01T08:36:07Z</time></trkpt><trkpt lat="44.34203929158557" lon="10.758999846287555"><ele>689.5</ele><time>2026-05-01T08:36:08Z</time></trkpt><trkpt lat="44.3419821930216" lon="10.759083569375711"><ele>689.0</ele><time>2026-05-01T08:36:09Z</time></trkpt><trkpt lat="44.34191872135433" lon="10.759163978521961"><ele>688.5</ele><time>2026-05-01T08:36:10Z</time></trkpt><trkpt lat="44.341867333120305" lon="10.759256343203063"><ele>688.0</ele><time>2026-05-01T08:36:11Z</time></trkpt><trkpt lat="44.341827509164155" lon="10.759332222398394"><ele>687.5</ele><time>2026-05-01T08:36:12Z</time></trkpt><trkpt lat="44.34179495736988" lon="10.759427658185945"><ele>687.0</ele><time>2026-05-01T08:36:13Z</time></trkpt><trkpt lat="44.34173949741885" lon="10.759561802991957"><ele>687.0</ele><time>2026-05-01T08:36:15Z</time></trkpt><trkpt lat="44.341690874602484" lon="10.759705774904246"><ele>687.0</ele><time>2026-05-01T08:36:17Z</time></trkpt><trkpt lat="44.34166429335801" lon="10.759789816693642"><ele>687.0</ele><time>2026-05-01T08:36:18Z</time></trkpt><trkpt lat="44.34163328503082" lon="10.759891539226816"><ele>687.0</ele><time>2026-05-01T08:36:19Z</time></trkpt><trkpt lat="44.34160665203849" lon="10.7599973241098"><ele>687.0</ele><time>2026-05-01T08:36:20Z</time></trkpt><trkpt lat="44.34159357057972" lon="10.760115484775152"><ele>687.0</ele><time>2026-05-01T08:36:21Z</time></trkpt><trkpt lat="44.34158170404083" lon="10.760236430388751"><ele>685.8333333333334</ele><time>2026-05-01T08:36:22Z</time></trkpt><trkpt lat="44.34156656754794" lon="10.760354266303517"><ele>684.6666666666666</ele><time>2026-05-01T08:36:23Z</time></trkpt><trkpt lat="44.34155914836654" lon="10.76046476894172"><ele>683.5</ele><time>2026-05-01T08:36:24Z</time></trkpt><trkpt lat="44.341553348062156" lon="10.76057250642622"><ele>682.3333333333333</ele><time>2026-05-01T08:36:25Z</time></trkpt><trkpt lat="44.34155800479661" lon="10.76067953235006"><ele>681.1666666666666</ele><time>2026-05-01T08:36:26Z</time></trkpt><trkpt lat="44.34155021573199" lon="10.760783250086245"><ele>680.0</ele><time>2026-05-01T08:36:27Z</time></trkpt><trkpt lat="44.341536522110275" lon="10.760877161100485"><ele>680.0</ele><time>2026-05-01T08:36:28Z</time></trkpt><trkpt lat="44.34147988107742" lon="10.76102218684033"><ele>680.0</ele><time>2026-05-01T08:36:30Z</time></trkpt><trkpt lat="44.34142135181427" lon="10.761147402935851"><ele>680.0</ele><time>2026-05-01T08:36:32Z</time></trkpt><trkpt lat="44.34136035856328" lon="10.761263068420185"><ele>680.0</ele><time>2026-05-01T08:36:34Z</time></trkpt><trkpt lat="44.34128831700453" lon="10.761259473787526"><ele>680.0</ele><time>2026-05-01T08:36:38Z</time></trkpt><trkpt lat="44.3412775023321" lon="10.761148289095601"><ele>683.8</ele><time>2026-05-01T08:36:41Z</time></trkpt><trkpt lat="44.34123382807035" lon="10.761042573899296"><ele>687.6</ele><time>2026-05-01T08:36:43Z</time></trkpt><trkpt lat="44.3412001298949" lon="10.76094542802543"><ele>691.4000000000001</ele><time>2026-05-01T08:36:45Z</time></trkpt><trkpt lat="44.341151307955315" lon="10.760835450959336"><ele>695.2</ele><time>2026-05-01T08:36:47Z</time></trkpt><trkpt lat="44.34110856590487" lon="10.760716159938086"><ele>699.0</ele><time>2026-05-01T08:36:49Z</time></trkpt><trkpt lat="44.34104692523876" lon="10.760584631621146"><ele>699.2</ele><time>2026-05-01T08:36:51.001Z</time></trkpt><trkpt lat="44.34095447707898" lon="10.76047695728933"><ele>699.4000000000001</ele><time>2026-05-01T08:36:53.001Z</time></trkpt><trkpt lat="44.340864526065936" lon="10.760421279280656"><ele>699.6</ele><time>2026-05-01T08:36:55.001Z</time></trkpt><trkpt lat="44.34079789140917" lon="10.76038776980081"><ele>699.8</ele><time>2026-05-01T08:36:59.001Z</time></trkpt><trkpt lat="44.34071533323116" lon="10.760335319359477"><ele>700.0</ele><time>2026-05-01T08:37:02.001Z</time></trkpt><trkpt lat="44.34062169350913" lon="10.760277703351015"><ele>701.1666666666667</ele><time>2026-05-01T08:37:04.001Z</time></trkpt><trkpt lat="44.34055646373266" lon="10.760187034161298"><ele>702.3333333333334</ele><time>2026-05-01T08:37:06.001Z</time></trkpt><trkpt lat="44.34050679601003" lon="10.76009690496233"><ele>703.5</ele><time>2026-05-01T08:37:08.001Z</time></trkpt><trkpt lat="44.34052927388551" lon="10.759999139188329"><ele>704.6666666666666</ele><time>2026-05-01T08:37:10.001Z</time></trkpt><trkpt lat="44.340605893873516" lon="10.759976773495147"><ele>705.8333333333333</ele><time>2026-05-01T08:37:12.001Z</time></trkpt><trkpt lat="44.34066192645449" lon="10.759926514923976"><ele>707.0</ele><time>2026-05-01T08:37:14.001Z</time></trkpt><trkpt lat="44.34068301295373" lon="10.759806519602924"><ele>707.0</ele><time>2026-05-01T08:37:16.001Z</time></trkpt><trkpt lat="44.340652575832316" lon="10.759698211490518"><ele>707.0</ele><time>2026-05-01T08:37:18.001Z</time></trkpt><trkpt lat="44.34061955307349" lon="10.759563238399704"><ele>707.0</ele><time>2026-05-01T08:37:20.001Z</time></trkpt><trkpt lat="44.34058745799956" lon="10.759442820721002"><ele>707.0</ele><time>2026-05-01T08:37:22.001Z</time></trkpt><trkpt lat="44.34055137872494" lon="10.759334778142998"><ele>707.0</ele><time>2026-05-01T08:37:24.001Z</time></trkpt><trkpt lat="44.34048714206548" lon="10.759226740981516"><ele>713.0</ele><time>2026-05-01T08:37:26.001Z</time></trkpt><trkpt lat="44.34047983955577" lon="10.759107597327162"><ele>719.0</ele><time>2026-05-01T08:37:28.001Z</time></trkpt><trkpt lat="44.340435906639534" lon="10.759040825165945"><ele>725.0</ele><time>2026-05-01T08:37:30.001Z</time></trkpt><trkpt lat="44.34036972587782" lon="10.759050125942359"><ele>731.0</ele><time>2026-05-01T08:37:31.001Z</time></trkpt><trkpt lat="44.34030151512704" lon="10.759083170569502"><ele>737.0</ele><time>2026-05-01T08:37:32.001Z</time></trkpt><trkpt lat="44.34023003187398" lon="10.759104862663149"><ele>743.0</ele><time>2026-05-01T08:37:33.001Z</time></trkpt><trkpt lat="44.34016097285535" lon="10.75913163491362"><ele>749.0</ele><time>2026-05-01T08:37:34.001Z</time></trkpt><trkpt lat="44.340096026358964" lon="10.759203617254917"><ele>749.0</ele><time>2026-05-01T08:37:35.001Z</time></trkpt><trkpt lat="44.34005188940364" lon="10.759280861991686"><ele>749.0</ele><time>2026-05-01T08:37:36.001Z</time></trkpt><trkpt lat="44.339943267428744" lon="10.759324038738761"><ele>749.0</ele><time>2026-05-01T08:37:38.001Z</time></trkpt><trkpt lat="44.3398417901516" lon="10.759404516367816"><ele>749.0</ele><time>2026-05-01T08:37:40.001Z</time></trkpt><trkpt lat="44.3397726321576" lon="10.759408092277312"><ele>749.0</ele><time>2026-05-01T08:37:42.001Z</time></trkpt><trkpt lat="44.339737778343455" lon="10.759333092098334"><ele>749.0</ele><time>2026-05-01T08:37:45Z</time></trkpt><trkpt lat="44.3396979970077" lon="10.759231928976876"><ele>752.8333333333333</ele><time>2026-05-01T08:37:48Z</time></trkpt><trkpt lat="44.33965460394913" lon="10.759147386073431"><ele>756.6666666666666</ele><time>2026-05-01T08:37:51Z</time></trkpt><trkpt lat="44.339593111983774" lon="10.75908322934398"><ele>760.5</ele><time>2026-05-01T08:37:53Z</time></trkpt><trkpt lat="44.33950893222486" lon="10.759061950013018"><ele>764.3333333333333</ele><time>2026-05-01T08:37:55Z</time></trkpt><trkpt lat="44.33940939646586" lon="10.759041053380857"><ele>768.1666666666666</ele><time>2026-05-01T08:37:57Z</time></trkpt><trkpt lat="44.33934114631396" lon="10.758990178657857"><ele>772.0</ele><time>2026-05-01T08:37:59Z</time></trkpt><trkpt lat="44.33926393829137" lon="10.758925088656502"><ele>772.0</ele><time>2026-05-01T08:38:02Z</time></trkpt><trkpt lat="44.33926433838255" lon="10.75877742790921"><ele>772.0</ele><time>2026-05-01T08:38:05Z</time></trkpt><trkpt lat="44.33925621374516" lon="10.758640697891451"><ele>772.0</ele><time>2026-05-01T08:38:07Z</time></trkpt><trkpt lat="44.339233386378616" lon="10.758524663768995"><ele>772.0</ele><time>2026-05-01T08:38:09Z</time></trkpt><trkpt lat="44.33918322780559" lon="10.758445717003822"><ele>772.0</ele><time>2026-05-01T08:38:11Z</time></trkpt><trkpt lat="44.33910013824297" lon="10.758425310187807"><ele>771.6666666666666</ele><time>2026-05-01T08:38:13Z</time></trkpt><trkpt lat="44.339003443753484" lon="10.758389734109103"><ele>771.3333333333333</ele><time>2026-05-01T08:38:18Z</time></trkpt><trkpt lat="44.338931064046264" lon="10.758339831009405"><ele>771.0</ele><time>2026-05-01T08:38:20Z</time></trkpt><trkpt lat="44.338872513896106" lon="10.7582986258501"><ele>770.6666666666667</ele><time>2026-05-01T08:38:22Z</time></trkpt><trkpt lat="44.33878175669464" lon="10.758281871097367"><ele>770.3333333333334</ele><time>2026-05-01T08:38:24.001Z</time></trkpt><trkpt lat="44.3386871713828" lon="10.758218806006957"><ele>770.0</ele><time>2026-05-01T08:38:26.001Z</time></trkpt><trkpt lat="44.338618809360135" lon="10.75814191485992"><ele>770.1666666666667</ele><time>2026-05-01T08:38:28.001Z</time></trkpt><trkpt lat="44.33853173980322" lon="10.75802921863679"><ele>770.3333333333334</ele><time>2026-05-01T08:38:30.001Z</time></trkpt><trkpt lat="44.33847423778278" lon="10.757901290505611"><ele>770.5</ele><time>2026-05-01T08:38:32.001Z</time></trkpt><trkpt lat="44.33842456641197" lon="10.757838178289383"><ele>770.6666666666667</ele><time>2026-05-01T08:38:34.001Z</time></trkpt><trkpt lat="44.338361033059115" lon="10.75777739006918"><ele>770.8333333333334</ele><time>2026-05-01T08:38:38.001Z</time></trkpt><trkpt lat="44.3383308284648" lon="10.75769379210214"><ele>771.0</ele><time>2026-05-01T08:38:42.001Z</time></trkpt><trkpt lat="44.33824714556136" lon="10.757602710242804"><ele>771.0</ele><time>2026-05-01T08:38:47.001Z</time></trkpt><trkpt lat="44.338159134958076" lon="10.757527839682034"><ele>771.0</ele><time>2026-05-01T08:38:49.001Z</time></trkpt><trkpt lat="44.33813306226912" lon="10.757406548522004"><ele>771.0</ele><time>2026-05-01T08:38:51.001Z</time></trkpt><trkpt lat="44.33815903191222" lon="10.757307981015268"><ele>771.0</ele><time>2026-05-01T08:38:53.001Z</time></trkpt><trkpt lat="44.3381977979247" lon="10.757204953223196"><ele>771.0</ele><time>2026-05-01T08:38:56.001Z</time></trkpt><trkpt lat="44.33822833882731" lon="10.757101234993279"><ele>771.0</ele><time>2026-05-01T08:38:59.001Z</time></trkpt><trkpt lat="44.338191134910126" lon="10.75698238359095"><ele>771.0</ele><time>2026-05-01T08:39:02.001Z</time></trkpt><trkpt lat="44.338143722169455" lon="10.756883976754125"><ele>771.0</ele><time>2026-05-01T08:39:04.001Z</time></trkpt><trkpt lat="44.3380851950012" lon="10.756796531890565"><ele>771.0</ele><time>2026-05-01T08:39:06.001Z</time></trkpt><trkpt lat="44.33807495846251" lon="10.75667374037667"><ele>771.0</ele><time>2026-05-01T08:39:08.001Z</time></trkpt><trkpt lat="44.338063169784235" lon="10.756578076695458"><ele>771.0</ele><time>2026-05-01T08:39:10.001Z</time></trkpt><trkpt lat="44.3380319644186" lon="10.756469506532593"><ele>771.0</ele><time>2026-05-01T08:39:12.001Z</time></trkpt><trkpt lat="44.338005648387686" lon="10.756373997161827"><ele>770.0</ele><time>2026-05-01T08:39:14.001Z</time></trkpt><trkpt lat="44.33797909432608" lon="10.756275050267336"><ele>769.0</ele><time>2026-05-01T08:39:16.001Z</time></trkpt><trkpt lat="44.33791342289342" lon="10.756158121768596"><ele>768.0</ele><time>2026-05-01T08:39:19.001Z</time></trkpt><trkpt lat="44.337863720534955" lon="10.756103058668396"><ele>767.0</ele><time>2026-05-01T08:39:21.001Z</time></trkpt><trkpt lat="44.33779743573597" lon="10.756055302044272"><ele>766.0</ele><time>2026-05-01T08:39:26.001Z</time></trkpt><trkpt lat="44.33773232797319" lon="10.75600193046298"><ele>765.0</ele><time>2026-05-01T08:39:29.001Z</time></trkpt><trkpt lat="44.33769980335321" lon="10.755894219935522"><ele>760.2</ele><time>2026-05-01T08:39:31.001Z</time></trkpt><trkpt lat="44.33767289903843" lon="10.75575782252462"><ele>755.4</ele><time>2026-05-01T08:39:33.001Z</time></trkpt><trkpt lat="44.3376252425528" lon="10.755670795657322"><ele>750.5999999999999</ele><time>2026-05-01T08:39:35.002Z</time></trkpt><trkpt lat="44.33759335175128" lon="10.755530783425808"><ele>745.8</ele><time>2026-05-01T08:39:37.002Z</time></trkpt><trkpt lat="44.33757916106745" lon="10.755389637002308"><ele>741.0</ele><time>2026-05-01T08:39:39.002Z</time></trkpt><trkpt lat="44.3375681896916" lon="10.755281348231113"><ele>739.5</ele><time>2026-05-01T08:39:41.002Z</time></trkpt><trkpt lat="44.337519530941655" lon="10.755189799681617"><ele>738.0</ele><time>2026-05-01T08:39:43.002Z</time></trkpt><trkpt lat="44.33743646316649" lon="10.755180271796203"><ele>736.5</ele><time>2026-05-01T08:39:45.002Z</time></trkpt><trkpt lat="44.33737723979097" lon="10.755139167471306"><ele>735.0</ele><time>2026-05-01T08:39:47.002Z</time></trkpt><trkpt lat="44.33732062740333" lon="10.755090394092514"><ele>733.5</ele><time>2026-05-01T08:39:51.001Z</time></trkpt><trkpt lat="44.337259448946" lon="10.755020943222645"><ele>732.0</ele><time>2026-05-01T08:39:55.001Z</time></trkpt><trkpt lat="44.33721323488315" lon="10.754932033861492"><ele>732.0</ele><time>2026-05-01T08:39:57.001Z</time></trkpt><trkpt lat="44.337176080315864" lon="10.754824648760625"><ele>732.0</ele><time>2026-05-01T08:39:59.001Z</time></trkpt><trkpt lat="44.33716818949002" lon="10.75470347404448"><ele>732.0</ele><time>2026-05-01T08:40:01.001Z</time></trkpt><trkpt lat="44.337151251279835" lon="10.754605046313696"><ele>732.0</ele><time>2026-05-01T08:40:03.001Z</time></trkpt><trkpt lat="44.337139785069844" lon="10.754497343539398"><ele>732.0</ele><time>2026-05-01T08:40:05.001Z</time></trkpt><trkpt lat="44.3371191802701" lon="10.754387478553218"><ele>732.0</ele><time>2026-05-01T08:40:07.001Z</time></trkpt><trkpt lat="44.33706368150412" lon="10.75430196518531"><ele>728.4000000000001</ele><time>2026-05-01T08:40:09.001Z</time></trkpt><trkpt lat="44.33699866674783" lon="10.75424981349268"><ele>724.8000000000001</ele><time>2026-05-01T08:40:11.001Z</time></trkpt><trkpt lat="44.336933308818" lon="10.754143143191984"><ele>721.2</ele><time>2026-05-01T08:40:13.001Z</time></trkpt><trkpt lat="44.33686689624482" lon="10.75405590392022"><ele>717.6</ele><time>2026-05-01T08:40:15.001Z</time></trkpt><trkpt lat="44.33678192923421" lon="10.75398862254367"><ele>714.0</ele><time>2026-05-01T08:40:17.001Z</time></trkpt><trkpt lat="44.33669912834906" lon="10.753924315863518"><ele>714.0</ele><time>2026-05-01T08:40:19.001Z</time></trkpt><trkpt lat="44.33665236985813" lon="10.753854771317572"><ele>714.0</ele><time>2026-05-01T08:40:21.001Z</time></trkpt><trkpt lat="44.336601106360604" lon="10.753787761546494"><ele>714.0</ele><time>2026-05-01T08:40:23.001Z</time></trkpt><trkpt lat="44.33655488628965" lon="10.753697958720096"><ele>714.0</ele><time>2026-05-01T08:40:25.001Z</time></trkpt><trkpt lat="44.33653494741712" lon="10.753598159457065"><ele>714.0</ele><time>2026-05-01T08:40:32.001Z</time></trkpt><trkpt lat="44.336494125449086" lon="10.753517131955375"><ele>714.0</ele><time>2026-05-01T08:40:34.001Z</time></trkpt><trkpt lat="44.336436349084266" lon="10.753481034301004"><ele>714.0</ele><time>2026-05-01T08:40:37.001Z</time></trkpt><trkpt lat="44.33636730982802" lon="10.753372042084697"><ele>713.1666666666666</ele><time>2026-05-01T08:40:39.001Z</time></trkpt><trkpt lat="44.336306269279504" lon="10.753306732746564"><ele>712.3333333333334</ele><time>2026-05-01T08:40:41.001Z</time></trkpt><trkpt lat="44.33625628813026" lon="10.753243558711883"><ele>711.5</ele><time>2026-05-01T08:40:45.001Z</time></trkpt><trkpt lat="44.3362167158902" lon="10.753143467959854"><ele>710.6666666666667</ele><time>2026-05-01T08:40:48.001Z</time></trkpt><trkpt lat="44.33615268413408" lon="10.75308473049722"><ele>709.8333333333334</ele><time>2026-05-01T08:40:50.001Z</time></trkpt><trkpt lat="44.33609955459406" lon="10.75301660164205"><ele>709.0</ele><time>2026-05-01T08:40:53.001Z</time></trkpt><trkpt lat="44.33601556771935" lon="10.752947686756498"><ele>709.0000000000001</ele><time>2026-05-01T08:40:56.001Z</time></trkpt><trkpt lat="44.33594588718395" lon="10.752883874868216"><ele>709.0</ele><time>2026-05-01T08:40:58.001Z</time></trkpt><trkpt lat="44.33586513501604" lon="10.752835600761209"><ele>709.0</ele><time>2026-05-01T08:41:01.001Z</time></trkpt><trkpt lat="44.335853561233996" lon="10.752746446098595"><ele>709.0</ele><time>2026-05-01T08:41:04.001Z</time></trkpt><trkpt lat="44.33583269199392" lon="10.752661253938257"><ele>709.0</ele><time>2026-05-01T08:41:15.001Z</time></trkpt><trkpt lat="44.33582132782641" lon="10.752564047041751"><ele>709.0000000000001</ele><time>2026-05-01T08:41:25.001Z</time></trkpt><trkpt lat="44.33577343632241" lon="10.752490652719203"><ele>709.0</ele><time>2026-05-01T08:41:30.001Z</time></trkpt><trkpt lat="44.335752490388266" lon="10.752361669151304"><ele>706.8000000000001</ele><time>2026-05-01T08:41:32.001Z</time></trkpt><trkpt lat="44.335799253804865" lon="10.752281299160192"><ele>704.6</ele><time>2026-05-01T08:41:34.001Z</time></trkpt><trkpt lat="44.335792155092044" lon="10.752145795229982"><ele>702.4</ele><time>2026-05-01T08:41:37.002Z</time></trkpt><trkpt lat="44.335799756925944" lon="10.751984738130833"><ele>700.2</ele><time>2026-05-01T08:41:39.002Z</time></trkpt><trkpt lat="44.3357899155306" lon="10.751830332540662"><ele>698.0</ele><time>2026-05-01T08:41:41.002Z</time></trkpt><trkpt lat="44.335775297925636" lon="10.751728166792748"><ele>698.0</ele><time>2026-05-01T08:41:43.002Z</time></trkpt><trkpt lat="44.335793504300725" lon="10.751578344319439"><ele>698.0</ele><time>2026-05-01T08:41:45.002Z</time></trkpt><trkpt lat="44.33578840965772" lon="10.751436515781807"><ele>698.0</ele><time>2026-05-01T08:41:47.002Z</time></trkpt><trkpt lat="44.33575492087481" lon="10.751301280907793"><ele>698.0</ele><time>2026-05-01T08:41:50.002Z</time></trkpt><trkpt lat="44.3357570023327" lon="10.7511875777627"><ele>698.0</ele><time>2026-05-01T08:41:52.002Z</time></trkpt><trkpt lat="44.33575943491861" lon="10.751061048209163"><ele>699.5</ele><time>2026-05-01T08:41:54.002Z</time></trkpt><trkpt lat="44.3358044892956" lon="10.7509551262134"><ele>701.0</ele><time>2026-05-01T08:41:56.002Z</time></trkpt><trkpt lat="44.335839813860865" lon="10.750840822490773"><ele>702.5</ele><time>2026-05-01T08:41:58.001Z</time></trkpt><trkpt lat="44.3358969375645" lon="10.750738357266297"><ele>704.0</ele><time>2026-05-01T08:42:00.001Z</time></trkpt><trkpt lat="44.3359500065353" lon="10.75065462064471"><ele>705.5</ele><time>2026-05-01T08:42:02.001Z</time></trkpt><trkpt lat="44.336008372468505" lon="10.750566077446608"><ele>707.0</ele><time>2026-05-01T08:42:04.001Z</time></trkpt><trkpt lat="44.336100484076404" lon="10.750479785521355"><ele>707.0</ele><time>2026-05-01T08:42:06.001Z</time></trkpt><trkpt lat="44.336196949000325" lon="10.750414833918866"><ele>707.0</ele><time>2026-05-01T08:42:08.001Z</time></trkpt><trkpt lat="44.336236473710336" lon="10.750337231432116"><ele>707.0</ele><time>2026-05-01T08:42:10.001Z</time></trkpt><trkpt lat="44.33626396492532" lon="10.750244282340285"><ele>707.0</ele><time>2026-05-01T08:42:12.001Z</time></trkpt><trkpt lat="44.336308930099285" lon="10.750157733361222"><ele>707.0</ele><time>2026-05-01T08:42:14.001Z</time></trkpt><trkpt lat="44.33627205300183" lon="10.7502321834193"><ele>707.0</ele><time>2026-05-01T08:43:49.001Z</time></trkpt><trkpt lat="44.33624056455888" lon="10.750341563643232"><ele>707.0</ele><time>2026-05-01T08:43:59.001Z</time></trkpt><trkpt lat="44.33619357620172" lon="10.750422116532235"><ele>707.0</ele><time>2026-05-01T08:44:04.002Z</time></trkpt><trkpt lat="44.336115389754866" lon="10.750492723001484"><ele>707.0</ele><time>2026-05-01T08:44:08.001Z</time></trkpt><trkpt lat="44.33604963048688" lon="10.75056277418198"><ele>707.0</ele><time>2026-05-01T08:44:11.001Z</time></trkpt><trkpt lat="44.33599060020991" lon="10.75064506407159"><ele>707.0</ele><time>2026-05-01T08:44:14.001Z</time></trkpt><trkpt lat="44.335943467460375" lon="10.75070613819945"><ele>707.0</ele><time>2026-05-01T08:44:17.001Z</time></trkpt><trkpt lat="44.335901956259804" lon="10.75077994102729"><ele>707.0</ele><time>2026-05-01T08:44:19.001Z</time></trkpt><trkpt lat="44.33585738206722" lon="10.750907661405726"><ele>707.0</ele><time>2026-05-01T08:44:22.001Z</time></trkpt><trkpt lat="44.335827603444855" lon="10.75103074141798"><ele>707.0</ele><time>2026-05-01T08:44:25.001Z</time></trkpt><trkpt lat="44.335813404345984" lon="10.751120532859812"><ele>707.0</ele><time>2026-05-01T08:44:27.001Z</time></trkpt><trkpt lat="44.33579461402487" lon="10.751229818089639"><ele>707.0</ele><time>2026-05-01T08:44:29.001Z</time></trkpt><trkpt lat="44.33582631560241" lon="10.75132824249933"><ele>707.0</ele><time>2026-05-01T08:44:31.001Z</time></trkpt><trkpt lat="44.335829641962476" lon="10.751444267052475"><ele>705.5</ele><time>2026-05-01T08:44:33.001Z</time></trkpt><trkpt lat="44.33583792598356" lon="10.751537681735718"><ele>704.0</ele><time>2026-05-01T08:44:35.001Z</time></trkpt><trkpt lat="44.33580659580031" lon="10.751650288371524"><ele>702.5</ele><time>2026-05-01T08:44:37.001Z</time></trkpt><trkpt lat="44.33579925549914" lon="10.75175113146428"><ele>701.0</ele><time>2026-05-01T08:44:39.001Z</time></trkpt><trkpt lat="44.33578911635772" lon="10.751862107006675"><ele>699.5</ele><time>2026-05-01T08:44:41.001Z</time></trkpt><trkpt lat="44.335793146463004" lon="10.751977979112207"><ele>698.0</ele><time>2026-05-01T08:44:43.001Z</time></trkpt><trkpt lat="44.33578894066274" lon="10.752066428588535"><ele>696.8333333333333</ele><time>2026-05-01T08:44:45.001Z</time></trkpt><trkpt lat="44.335783792247355" lon="10.752174734578649"><ele>695.6666666666666</ele><time>2026-05-01T08:44:52.001Z</time></trkpt><trkpt lat="44.335787224842974" lon="10.75229493982813"><ele>694.5</ele><time>2026-05-01T08:44:55.001Z</time></trkpt><trkpt lat="44.335759496695296" lon="10.75239963324356"><ele>693.3333333333334</ele><time>2026-05-01T08:44:58.001Z</time></trkpt><trkpt lat="44.33581718991862" lon="10.752526597205927"><ele>692.1666666666667</ele><time>2026-05-01T08:45:01.001Z</time></trkpt><trkpt lat="44.335870771283915" lon="10.752588362557606"><ele>691.0</ele><time>2026-05-01T08:45:03.001Z</time></trkpt><trkpt lat="44.33588009201138" lon="10.752678543678565"><ele>693.5714285714286</ele><time>2026-05-01T08:45:12.001Z</time></trkpt><trkpt lat="44.33589734625098" lon="10.752763652724889"><ele>696.1428571428571</ele><time>2026-05-01T08:45:14.001Z</time></trkpt><trkpt lat="44.33594156673974" lon="10.752827272489968"><ele>698.7142857142858</ele><time>2026-05-01T08:45:16.001Z</time></trkpt><trkpt lat="44.33602299170917" lon="10.752908797671816"><ele>701.2857142857142</ele><time>2026-05-01T08:45:19.001Z</time></trkpt><trkpt lat="44.33608155379057" lon="10.752956143658354"><ele>703.8571428571429</ele><time>2026-05-01T08:45:21.001Z</time></trkpt><trkpt lat="44.33613996630633" lon="10.753015709789771"><ele>706.4285714285714</ele><time>2026-05-01T08:45:23.001Z</time></trkpt><trkpt lat="44.33617597896512" lon="10.753114323211127"><ele>709.0</ele><time>2026-05-01T08:45:26.001Z</time></trkpt><trkpt lat="44.33622791911523" lon="10.75316649842004"><ele>709.0</ele><time>2026-05-01T08:45:29.001Z</time></trkpt><trkpt lat="44.33626142987042" lon="10.753265918032088"><ele>709.0</ele><time>2026-05-01T08:45:31.001Z</time></trkpt><trkpt lat="44.33631369195183" lon="10.753319727667968"><ele>709.0</ele><time>2026-05-01T08:45:33.001Z</time></trkpt><trkpt lat="44.33637011647288" lon="10.753370962008647"><ele>709.0</ele><time>2026-05-01T08:45:35.001Z</time></trkpt><trkpt lat="44.33643934172806" lon="10.75347766909791"><ele>709.0</ele><time>2026-05-01T08:45:37.001Z</time></trkpt><trkpt lat="44.336517372992844" lon="10.753512838967627"><ele>709.0</ele><time>2026-05-01T08:45:41.001Z</time></trkpt><trkpt lat="44.33656113437845" lon="10.753412942452222"><ele>706.5</ele><time>2026-05-01T08:45:44.001Z</time></trkpt><trkpt lat="44.336608565061624" lon="10.75333262241017"><ele>704.0</ele><time>2026-05-01T08:45:50.001Z</time></trkpt><trkpt lat="44.33664300033" lon="10.753234238835654"><ele>701.5</ele><time>2026-05-01T08:45:53.001Z</time></trkpt><trkpt lat="44.33672338634833" lon="10.753149975193935"><ele>699.0</ele><time>2026-05-01T08:45:56.001Z</time></trkpt><trkpt lat="44.336791037651146" lon="10.753059982907677"><ele>696.5</ele><time>2026-05-01T08:45:58.001Z</time></trkpt><trkpt lat="44.33684743001974" lon="10.752954683373522"><ele>694.0</ele><time>2026-05-01T08:46:00.001Z</time></trkpt><trkpt lat="44.336908383962076" lon="10.75286042915466"><ele>694.0</ele><time>2026-05-01T08:46:02.001Z</time></trkpt><trkpt lat="44.33695658720658" lon="10.752770958853409"><ele>694.0</ele><time>2026-05-01T08:46:04.001Z</time></trkpt><trkpt lat="44.3370203782606" lon="10.752724309183423"><ele>694.0</ele><time>2026-05-01T08:46:06.001Z</time></trkpt><trkpt lat="44.33707761001301" lon="10.752657931541679"><ele>694.0</ele><time>2026-05-01T08:46:08.001Z</time></trkpt><trkpt lat="44.33714302024004" lon="10.752594308426845"><ele>694.0</ele><time>2026-05-01T08:46:10.001Z</time></trkpt><trkpt lat="44.33719847481954" lon="10.752527763541062"><ele>694.0</ele><time>2026-05-01T08:46:12.001Z</time></trkpt><trkpt lat="44.337250159605574" lon="10.752434611116033"><ele>690.8000000000001</ele><time>2026-05-01T08:46:14.001Z</time></trkpt><trkpt lat="44.337328048794326" lon="10.752336504067488"><ele>687.6</ele><time>2026-05-01T08:46:16.001Z</time></trkpt><trkpt lat="44.33742327523882" lon="10.752245859165612"><ele>684.4</ele><time>2026-05-01T08:46:18.001Z</time></trkpt><trkpt lat="44.33752768144583" lon="10.75216837954245"><ele>681.2</ele><time>2026-05-01T08:46:20.001Z</time></trkpt><trkpt lat="44.3376272429906" lon="10.752104674069408"><ele>678.0</ele><time>2026-05-01T08:46:22.001Z</time></trkpt><trkpt lat="44.33773947493386" lon="10.752136089129618"><ele>678.0</ele><time>2026-05-01T08:46:24.001Z</time></trkpt><trkpt lat="44.337791483617686" lon="10.752191960301936"><ele>678.0</ele><time>2026-05-01T08:46:25.001Z</time></trkpt><trkpt lat="44.337847514886995" lon="10.752256292588099"><ele>678.0</ele><time>2026-05-01T08:46:26.001Z</time></trkpt><trkpt lat="44.33790246422937" lon="10.752319406780922"><ele>678.0</ele><time>2026-05-01T08:46:27.001Z</time></trkpt><trkpt lat="44.33797143790003" lon="10.752356914729317"><ele>678.0</ele><time>2026-05-01T08:46:28.001Z</time></trkpt><trkpt lat="44.33803562000327" lon="10.752392137819829"><ele>678.0</ele><time>2026-05-01T08:46:29.001Z</time></trkpt><trkpt lat="44.3380986742179" lon="10.752425241173638"><ele>678.0</ele><time>2026-05-01T08:46:30.001Z</time></trkpt><trkpt lat="44.338162661433984" lon="10.752455667417921"><ele>676.6666666666666</ele><time>2026-05-01T08:46:31.001Z</time></trkpt><trkpt lat="44.338231550744446" lon="10.752497269910565"><ele>675.3333333333334</ele><time>2026-05-01T08:46:32.001Z</time></trkpt><trkpt lat="44.33831617440862" lon="10.752528376486982"><ele>674.0</ele><time>2026-05-01T08:46:33.001Z</time></trkpt><trkpt lat="44.33840561772741" lon="10.752560918698128"><ele>672.6666666666667</ele><time>2026-05-01T08:46:34.001Z</time></trkpt><trkpt lat="44.33848368575535" lon="10.752590196587677"><ele>671.3333333333334</ele><time>2026-05-01T08:46:35.001Z</time></trkpt><trkpt lat="44.33854045702476" lon="10.752632849334677"><ele>670.0</ele><time>2026-05-01T08:46:36.001Z</time></trkpt><trkpt lat="44.33862822472171" lon="10.752685344329262"><ele>670.0</ele><time>2026-05-01T08:46:38.001Z</time></trkpt><trkpt lat="44.33871791224272" lon="10.752694256887978"><ele>670.0</ele><time>2026-05-01T08:46:40.001Z</time></trkpt><trkpt lat="44.33881072873528" lon="10.752599625366267"><ele>670.0</ele><time>2026-05-01T08:46:42.001Z</time></trkpt><trkpt lat="44.33885085795733" lon="10.752527461693676"><ele>670.0</ele><time>2026-05-01T08:46:43.001Z</time></trkpt><trkpt lat="44.3389410841646" lon="10.752407455431472"><ele>670.0</ele><time>2026-05-01T08:46:45.001Z</time></trkpt><trkpt lat="44.33902728778708" lon="10.7522903350521"><ele>671.0</ele><time>2026-05-01T08:46:47.001Z</time></trkpt><trkpt lat="44.33911430689608" lon="10.752193702877102"><ele>672.0</ele><time>2026-05-01T08:46:49.001Z</time></trkpt><trkpt lat="44.339182204128555" lon="10.752092662768462"><ele>673.0</ele><time>2026-05-01T08:46:54.001Z</time></trkpt><trkpt lat="44.33929895999689" lon="10.752149997935582"><ele>674.0</ele><time>2026-05-01T08:46:56.001Z</time></trkpt><trkpt lat="44.339360967754814" lon="10.75224104199339"><ele>675.0</ele><time>2026-05-01T08:46:57.001Z</time></trkpt><trkpt lat="44.3394992792429" lon="10.752277443624124"><ele>675.0</ele><time>2026-05-01T08:46:59.001Z</time></trkpt><trkpt lat="44.339571984036326" lon="10.752327727901532"><ele>675.0</ele><time>2026-05-01T08:47:00.001Z</time></trkpt><trkpt lat="44.33965248136562" lon="10.752339898497075"><ele>675.0</ele><time>2026-05-01T08:47:01.001Z</time></trkpt><trkpt lat="44.33977934091162" lon="10.752326685562466"><ele>675.0</ele><time>2026-05-01T08:47:03.001Z</time></trkpt><trkpt lat="44.33990332891307" lon="10.752329779733538"><ele>675.0</ele><time>2026-05-01T08:47:05.001Z</time></trkpt><trkpt lat="44.3399694232413" lon="10.75232966315037"><ele>674.1666666666666</ele><time>2026-05-01T08:47:06.001Z</time></trkpt><trkpt lat="44.34003347862223" lon="10.752356298357283"><ele>673.3333333333334</ele><time>2026-05-01T08:47:07.001Z</time></trkpt><trkpt lat="44.34011673842963" lon="10.752347133547453"><ele>672.5</ele><time>2026-05-01T08:47:09.001Z</time></trkpt><trkpt lat="44.34019246189648" lon="10.752318046119033"><ele>671.6666666666667</ele><time>2026-05-01T08:47:11.001Z</time></trkpt><trkpt lat="44.34026870532407" lon="10.75229886733717"><ele>670.8333333333334</ele><time>2026-05-01T08:47:13.001Z</time></trkpt><trkpt lat="44.340377950827744" lon="10.752273922588795"><ele>670.0</ele><time>2026-05-01T08:47:17.001Z</time></trkpt><trkpt lat="44.340441252009136" lon="10.752170526760787"><ele>670.0</ele><time>2026-05-01T08:47:20.001Z</time></trkpt><trkpt lat="44.34046215785635" lon="10.752058646815891"><ele>670.0</ele><time>2026-05-01T08:47:22.001Z</time></trkpt><trkpt lat="44.340459050129574" lon="10.751927606637107"><ele>670.0</ele><time>2026-05-01T08:47:24.001Z</time></trkpt><trkpt lat="44.34049138533074" lon="10.751806745411798"><ele>670.0</ele><time>2026-05-01T08:47:26.001Z</time></trkpt><trkpt lat="44.340530111463686" lon="10.75171845762006"><ele>670.0</ele><time>2026-05-01T08:47:29.001Z</time></trkpt><trkpt lat="44.34052331205488" lon="10.751592560325669"><ele>670.0</ele><time>2026-05-01T08:47:42.001Z</time></trkpt><trkpt lat="44.340442588022476" lon="10.751549512394494"><ele>667.0</ele><time>2026-05-01T08:47:48.001Z</time></trkpt><trkpt lat="44.34036840037604" lon="10.751522817310748"><ele>664.0</ele><time>2026-05-01T08:47:54.001Z</time></trkpt><trkpt lat="44.3403086196189" lon="10.751453729070018"><ele>661.0</ele><time>2026-05-01T08:47:56.001Z</time></trkpt><trkpt lat="44.34024507547251" lon="10.751339958544042"><ele>658.0</ele><time>2026-05-01T08:47:58.001Z</time></trkpt><trkpt lat="44.34018826470953" lon="10.751237053254844"><ele>655.0</ele><time>2026-05-01T08:48:00.001Z</time></trkpt><trkpt lat="44.34013163040997" lon="10.75114632599071"><ele>652.0</ele><time>2026-05-01T08:48:02.001Z</time></trkpt><trkpt lat="44.34010380985738" lon="10.751061388659272"><ele>649.1666666666667</ele><time>2026-05-01T08:48:04.001Z</time></trkpt><trkpt lat="44.340064620905835" lon="10.750965419817554"><ele>646.3333333333334</ele><time>2026-05-01T08:48:08.001Z</time></trkpt><trkpt lat="44.3400301271132" lon="10.750842699768477"><ele>643.5</ele><time>2026-05-01T08:48:11.001Z</time></trkpt><trkpt lat="44.33998755511759" lon="10.750751378855123"><ele>640.6666666666666</ele><time>2026-05-01T08:48:14.001Z</time></trkpt><trkpt lat="44.33995622920522" lon="10.750671816783832"><ele>637.8333333333333</ele><time>2026-05-01T08:48:16.001Z</time></trkpt><trkpt lat="44.339915397024264" lon="10.750593036657959"><ele>635.0</ele><time>2026-05-01T08:48:18.001Z</time></trkpt><trkpt lat="44.3398826087108" lon="10.750513870213346"><ele>635.0</ele><time>2026-05-01T08:48:20.001Z</time></trkpt><trkpt lat="44.339841088939785" lon="10.750427785757466"><ele>635.0</ele><time>2026-05-01T08:48:22.001Z</time></trkpt><trkpt lat="44.33979007130123" lon="10.750343045577807"><ele>635.0</ele><time>2026-05-01T08:48:24.001Z</time></trkpt><trkpt lat="44.33972585515794" lon="10.750284211421295"><ele>635.0</ele><time>2026-05-01T08:48:26.001Z</time></trkpt><trkpt lat="44.33967717566061" lon="10.750203435409196"><ele>635.0</ele><time>2026-05-01T08:48:28.001Z</time></trkpt><trkpt lat="44.33963709012682" lon="10.750096468969495"><ele>635.0</ele><time>2026-05-01T08:48:30.001Z</time></trkpt><trkpt lat="44.33961201912165" lon="10.749984363827304"><ele>632.8333333333333</ele><time>2026-05-01T08:48:36Z</time></trkpt><trkpt lat="44.33957538128026" lon="10.74987598597932"><ele>630.6666666666666</ele><time>2026-05-01T08:48:38Z</time></trkpt><trkpt lat="44.339536074652386" lon="10.749769436734717"><ele>628.5</ele><time>2026-05-01T08:48:40Z</time></trkpt><trkpt lat="44.33949288289857" lon="10.74965206929494"><ele>626.3333333333334</ele><time>2026-05-01T08:48:42Z</time></trkpt><trkpt lat="44.33945698748403" lon="10.749532944147631"><ele>624.1666666666667</ele><time>2026-05-01T08:48:44Z</time></trkpt><trkpt lat="44.33942624267924" lon="10.749426407004428"><ele>622.0</ele><time>2026-05-01T08:48:46Z</time></trkpt><trkpt lat="44.339371781899594" lon="10.74935309071796"><ele>621.8333333333334</ele><time>2026-05-01T08:48:48Z</time></trkpt><trkpt lat="44.33929139122073" lon="10.749288714689717"><ele>621.6666666666667</ele><time>2026-05-01T08:48:50Z</time></trkpt><trkpt lat="44.33924403933623" lon="10.749214441337907"><ele>621.5</ele><time>2026-05-01T08:48:54Z</time></trkpt><trkpt lat="44.339238957396546" lon="10.749104816370279"><ele>621.3333333333334</ele><time>2026-05-01T08:48:56Z</time></trkpt><trkpt lat="44.33930381967275" lon="10.748965687124645"><ele>621.1666666666666</ele><time>2026-05-01T08:48:58Z</time></trkpt><trkpt lat="44.33933043079887" lon="10.748885026023004"><ele>621.0</ele><time>2026-05-01T08:48:59Z</time></trkpt><trkpt lat="44.33939650398396" lon="10.748758887213056"><ele>621.0</ele><time>2026-05-01T08:49:01Z</time></trkpt><trkpt lat="44.33947935676299" lon="10.748624213753626"><ele>621.0</ele><time>2026-05-01T08:49:03Z</time></trkpt><trkpt lat="44.33944849415841" lon="10.748495465176351"><ele>621.0</ele><time>2026-05-01T08:49:05Z</time></trkpt><trkpt lat="44.33934175127063" lon="10.748395511645578"><ele>621.0</ele><time>2026-05-01T08:49:07Z</time></trkpt><trkpt lat="44.33932226010658" lon="10.748289246044335"><ele>621.0</ele><time>2026-05-01T08:49:08Z</time></trkpt><trkpt lat="44.3393181179004" lon="10.748162953228782"><ele>622.1666666666666</ele><time>2026-05-01T08:49:09Z</time></trkpt><trkpt lat="44.33930107818591" lon="10.748027514554074"><ele>623.3333333333334</ele><time>2026-05-01T08:49:10Z</time></trkpt><trkpt lat="44.33931310753742" lon="10.747938070965814"><ele>624.5</ele><time>2026-05-01T08:49:11Z</time></trkpt><trkpt lat="44.339244794661376" lon="10.747838261437787"><ele>625.6666666666667</ele><time>2026-05-01T08:49:14Z</time></trkpt><trkpt lat="44.33918568330231" lon="10.74780140737869"><ele>626.8333333333334</ele><time>2026-05-01T08:49:18Z</time></trkpt><trkpt lat="44.33909656779012" lon="10.74772143844917"><ele>628.0</ele><time>2026-05-01T08:49:20Z</time></trkpt><trkpt lat="44.33902991370768" lon="10.747683658134527"><ele>628.0</ele><time>2026-05-01T08:49:21Z</time></trkpt><trkpt lat="44.33896029686657" lon="10.74765945113447"><ele>628.0</ele><time>2026-05-01T08:49:22Z</time></trkpt><trkpt lat="44.33888600081739" lon="10.74762611530884"><ele>628.0</ele><time>2026-05-01T08:49:23Z</time></trkpt><trkpt lat="44.33880982054761" lon="10.747574099950691"><ele>628.0</ele><time>2026-05-01T08:49:24Z</time></trkpt><trkpt lat="44.33872927282341" lon="10.747514890702806"><ele>628.0</ele><time>2026-05-01T08:49:25Z</time></trkpt><trkpt lat="44.33865714581296" lon="10.747453768202545"><ele>628.0</ele><time>2026-05-01T08:49:26Z</time></trkpt><trkpt lat="44.33859323594413" lon="10.747400458011839"><ele>630.3333333333334</ele><time>2026-05-01T08:49:27Z</time></trkpt><trkpt lat="44.3385272227845" lon="10.747354514721483"><ele>632.6666666666667</ele><time>2026-05-01T08:49:28Z</time></trkpt><trkpt lat="44.33846174733535" lon="10.747294710437224"><ele>635.0</ele><time>2026-05-01T08:49:29Z</time></trkpt><trkpt lat="44.3383975570702" lon="10.74724515949771"><ele>637.3333333333334</ele><time>2026-05-01T08:49:30Z</time></trkpt><trkpt lat="44.33833105394609" lon="10.747195026190651"><ele>639.6666666666666</ele><time>2026-05-01T08:49:31Z</time></trkpt><trkpt lat="44.33823534464243" lon="10.747114331751305"><ele>642.0</ele><time>2026-05-01T08:49:33Z</time></trkpt><trkpt lat="44.33818810709302" lon="10.747048908250688"><ele>642.0</ele><time>2026-05-01T08:49:34Z</time></trkpt><trkpt lat="44.338164890739314" lon="10.746953055852732"><ele>642.0</ele><time>2026-05-01T08:49:35Z</time></trkpt><trkpt lat="44.338127051329224" lon="10.746806752828986"><ele>642.0</ele><time>2026-05-01T08:49:37Z</time></trkpt><trkpt lat="44.33809441985847" lon="10.746724927950778"><ele>642.0</ele><time>2026-05-01T08:49:38Z</time></trkpt><trkpt lat="44.338070675740994" lon="10.746638223779495"><ele>642.0</ele><time>2026-05-01T08:49:39Z</time></trkpt><trkpt lat="44.33803642820991" lon="10.746546748223954"><ele>642.0</ele><time>2026-05-01T08:49:40Z</time></trkpt><trkpt lat="44.33800298922206" lon="10.746465725206358"><ele>643.0</ele><time>2026-05-01T08:49:41Z</time></trkpt><trkpt lat="44.33795694667585" lon="10.746373178034643"><ele>644.0</ele><time>2026-05-01T08:49:42Z</time></trkpt><trkpt lat="44.33791289647516" lon="10.746281164095802"><ele>645.0</ele><time>2026-05-01T08:49:43Z</time></trkpt><trkpt lat="44.33786517200267" lon="10.746202929317198"><ele>646.0</ele><time>2026-05-01T08:49:44Z</time></trkpt><trkpt lat="44.33782149552" lon="10.746119503544897"><ele>647.0</ele><time>2026-05-01T08:49:45Z</time></trkpt><trkpt lat="44.33770461716314" lon="10.745989620718778"><ele>644.0</ele><time>2026-05-01T08:49:47Z</time></trkpt><trkpt lat="44.33763996402906" lon="10.74593581206469"><ele>641.0</ele><time>2026-05-01T08:49:48Z</time></trkpt><trkpt lat="44.337581728138225" lon="10.745889324305534"><ele>638.0</ele><time>2026-05-01T08:49:49Z</time></trkpt><trkpt lat="44.337530270812586" lon="10.745831737987142"><ele>635.0</ele><time>2026-05-01T08:49:50Z</time></trkpt><trkpt lat="44.33743908209338" lon="10.74571606735066"><ele>632.0</ele><time>2026-05-01T08:49:52Z</time></trkpt><trkpt lat="44.33736896939614" lon="10.745583366866496"><ele>629.0</ele><time>2026-05-01T08:49:54Z</time></trkpt><trkpt lat="44.33730736993937" lon="10.74544660468954"><ele>629.0</ele><time>2026-05-01T08:49:56Z</time></trkpt><trkpt lat="44.337236517795546" lon="10.74533557822346"><ele>629.0</ele><time>2026-05-01T08:49:58Z</time></trkpt><trkpt lat="44.33720542077456" lon="10.745208928718835"><ele>629.0</ele><time>2026-05-01T08:50:00Z</time></trkpt><trkpt lat="44.33715329356485" lon="10.745082496884661"><ele>629.0</ele><time>2026-05-01T08:50:02Z</time></trkpt><trkpt lat="44.33710967199507" lon="10.744955100293271"><ele>629.0</ele><time>2026-05-01T08:50:04Z</time></trkpt><trkpt lat="44.3370648209155" lon="10.744825806996273"><ele>629.0</ele><time>2026-05-01T08:50:06Z</time></trkpt><trkpt lat="44.33702462173267" lon="10.744742997501305"><ele>629.0</ele><time>2026-05-01T08:50:08Z</time></trkpt><trkpt lat="44.336999359592575" lon="10.744633767091265"><ele>629.0</ele><time>2026-05-01T08:50:21Z</time></trkpt><trkpt lat="44.33696983106579" lon="10.74454606277755"><ele>629.0</ele><time>2026-05-01T08:50:23Z</time></trkpt><trkpt lat="44.336890369818875" lon="10.744467178372242"><ele>629.0</ele><time>2026-05-01T08:50:30Z</time></trkpt><trkpt lat="44.33679538961782" lon="10.744428538124094"><ele>629.0</ele><time>2026-05-01T08:50:32Z</time></trkpt><trkpt lat="44.33672796914211" lon="10.744421371383623"><ele>629.0</ele><time>2026-05-01T08:50:34Z</time></trkpt><trkpt lat="44.336635018621536" lon="10.744426015119329"><ele>629.0</ele><time>2026-05-01T08:50:37Z</time></trkpt><trkpt lat="44.336540540156236" lon="10.744469614589649"><ele>629.0</ele><time>2026-05-01T08:50:40Z</time></trkpt><trkpt lat="44.33647969011291" lon="10.744502290086457"><ele>629.0</ele><time>2026-05-01T08:50:43Z</time></trkpt><trkpt lat="44.336541347064525" lon="10.744471707694489"><ele>629.0</ele><time>2026-05-01T08:51:40Z</time></trkpt><trkpt lat="44.336655314591454" lon="10.744443319024146"><ele>629.0</ele><time>2026-05-01T08:51:56Z</time></trkpt><trkpt lat="44.33673692790931" lon="10.744451809415247"><ele>629.0</ele><time>2026-05-01T08:52:01Z</time></trkpt><trkpt lat="44.336806470066044" lon="10.744462499785106"><ele>629.0</ele><time>2026-05-01T08:52:08Z</time></trkpt><trkpt lat="44.33687516745856" lon="10.744469848433472"><ele>629.0</ele><time>2026-05-01T08:52:13Z</time></trkpt><trkpt lat="44.336944033485004" lon="10.74449390183504"><ele>629.0</ele><time>2026-05-01T08:52:24Z</time></trkpt><trkpt lat="44.337015238012306" lon="10.744412385074828"><ele>629.0</ele><time>2026-05-01T08:52:31Z</time></trkpt><trkpt lat="44.33709541847902" lon="10.744314401783837"><ele>629.0</ele><time>2026-05-01T08:52:34Z</time></trkpt><trkpt lat="44.33717798932689" lon="10.74422478842582"><ele>626.8333333333333</ele><time>2026-05-01T08:52:36Z</time></trkpt><trkpt lat="44.337182015845436" lon="10.744108330077843"><ele>624.6666666666666</ele><time>2026-05-01T08:52:38Z</time></trkpt><trkpt lat="44.337147188986584" lon="10.74400632389104"><ele>622.5</ele><time>2026-05-01T08:52:40Z</time></trkpt><trkpt lat="44.33711854870529" lon="10.743912810861175"><ele>620.3333333333334</ele><time>2026-05-01T08:52:42Z</time></trkpt><trkpt lat="44.33708403004099" lon="10.74380730983402"><ele>618.1666666666667</ele><time>2026-05-01T08:52:44Z</time></trkpt><trkpt lat="44.33703907072322" lon="10.743706244936226"><ele>616.0</ele><time>2026-05-01T08:52:46Z</time></trkpt><trkpt lat="44.33697970429462" lon="10.743604478379844"><ele>613.3333333333334</ele><time>2026-05-01T08:52:48Z</time></trkpt><trkpt lat="44.336896991868514" lon="10.743516851501777"><ele>610.6666666666667</ele><time>2026-05-01T08:52:50Z</time></trkpt><trkpt lat="44.336805386440474" lon="10.743458793493767"><ele>608.0</ele><time>2026-05-01T08:52:52Z</time></trkpt><trkpt lat="44.33672016493359" lon="10.743400575131203"><ele>605.3333333333334</ele><time>2026-05-01T08:52:54Z</time></trkpt><trkpt lat="44.33664467403691" lon="10.743405235924218"><ele>602.6666666666666</ele><time>2026-05-01T08:52:57Z</time></trkpt><trkpt lat="44.33657347724534" lon="10.74341583246056"><ele>600.0</ele><time>2026-05-01T08:53:01Z</time></trkpt><trkpt lat="44.3365096619263" lon="10.7434276306895"><ele>600.0</ele><time>2026-05-01T08:53:03Z</time></trkpt><trkpt lat="44.33641061851069" lon="10.743407044653818"><ele>600.0</ele><time>2026-05-01T08:53:05Z</time></trkpt><trkpt lat="44.33634583439108" lon="10.743402979290492"><ele>600.0</ele><time>2026-05-01T08:53:06Z</time></trkpt><trkpt lat="44.3362226782635" lon="10.743395224813892"><ele>600.0</ele><time>2026-05-01T08:53:08Z</time></trkpt><trkpt lat="44.33613906915349" lon="10.743298162841379"><ele>600.0</ele><time>2026-05-01T08:53:10Z</time></trkpt><trkpt lat="44.336052487202885" lon="10.743195327640734"><ele>599.2</ele><time>2026-05-01T08:53:12Z</time></trkpt><trkpt lat="44.336014445095806" lon="10.743094575994535"><ele>598.4</ele><time>2026-05-01T08:53:14Z</time></trkpt><trkpt lat="44.33603421499802" lon="10.742949655248632"><ele>597.6</ele><time>2026-05-01T08:53:16Z</time></trkpt><trkpt lat="44.33604721681389" lon="10.742776337848008"><ele>596.8</ele><time>2026-05-01T08:53:18Z</time></trkpt><trkpt lat="44.33605025035259" lon="10.742617477136855"><ele>596.0</ele><time>2026-05-01T08:53:20Z</time></trkpt><trkpt lat="44.3360593521609" lon="10.74252252052288"><ele>594.1666666666666</ele><time>2026-05-01T08:53:21Z</time></trkpt><trkpt lat="44.336071233920975" lon="10.742406599012977"><ele>592.3333333333333</ele><time>2026-05-01T08:53:22Z</time></trkpt><trkpt lat="44.336076506829606" lon="10.742280151266257"><ele>590.5</ele><time>2026-05-01T08:53:23Z</time></trkpt><trkpt lat="44.33607963104665" lon="10.742178364783603"><ele>588.6666666666666</ele><time>2026-05-01T08:53:24Z</time></trkpt><trkpt lat="44.33609505609158" lon="10.742082392176652"><ele>586.8333333333334</ele><time>2026-05-01T08:53:25Z</time></trkpt><trkpt lat="44.33612159149547" lon="10.741981642527193"><ele>585.0</ele><time>2026-05-01T08:53:26Z</time></trkpt><trkpt lat="44.33612998841338" lon="10.741871351654176"><ele>583.0</ele><time>2026-05-01T08:53:27Z</time></trkpt><trkpt lat="44.33613332399594" lon="10.74177867292549"><ele>581.0</ele><time>2026-05-01T08:53:28Z</time></trkpt><trkpt lat="44.3361712730947" lon="10.741606413515136"><ele>579.0</ele><time>2026-05-01T08:53:30Z</time></trkpt><trkpt lat="44.33617627265893" lon="10.741518120710055"><ele>577.0</ele><time>2026-05-01T08:53:31Z</time></trkpt><trkpt lat="44.3361633464627" lon="10.741366347440565"><ele>575.0</ele><time>2026-05-01T08:53:33Z</time></trkpt><trkpt lat="44.33617177057464" lon="10.741217851881862"><ele>575.0</ele><time>2026-05-01T08:53:35Z</time></trkpt><trkpt lat="44.33618672356405" lon="10.741100272367968"><ele>575.0</ele><time>2026-05-01T08:53:37Z</time></trkpt><trkpt lat="44.33605059574858" lon="10.741169587884489"><ele>575.0</ele><time>2026-05-01T08:53:59Z</time></trkpt><trkpt lat="44.33593266096037" lon="10.741201045635403"><ele>575.0</ele><time>2026-05-01T08:54:01Z</time></trkpt><trkpt lat="44.33586849142489" lon="10.741209457592081"><ele>575.0</ele><time>2026-05-01T08:54:02Z</time></trkpt><trkpt lat="44.335778672023146" lon="10.741213732624228"><ele>575.0</ele><time>2026-05-01T08:54:04Z</time></trkpt><trkpt lat="44.33571085563591" lon="10.741208170843832"><ele>575.0</ele><time>2026-05-01T08:54:07Z</time></trkpt><trkpt lat="44.33563798438057" lon="10.74122689536823"><ele>575.0</ele><time>2026-05-01T08:54:10Z</time></trkpt><trkpt lat="44.33557796667383" lon="10.741276668079049"><ele>575.0</ele><time>2026-05-01T08:54:12Z</time></trkpt><trkpt lat="44.335504359291804" lon="10.741287737239873"><ele>575.0</ele><time>2026-05-01T08:54:15Z</time></trkpt><trkpt lat="44.33543065556106" lon="10.741309150437312"><ele>575.0</ele><time>2026-05-01T08:54:18Z</time></trkpt><trkpt lat="44.33535914134782" lon="10.741365550344222"><ele>575.0</ele><time>2026-05-01T08:54:22Z</time></trkpt><trkpt lat="44.33531002829618" lon="10.74143630569863"><ele>576.5</ele><time>2026-05-01T08:54:24Z</time></trkpt><trkpt lat="44.33527487252421" lon="10.741525281215418"><ele>578.0</ele><time>2026-05-01T08:54:26Z</time></trkpt><trkpt lat="44.33521491993111" lon="10.741555935992421"><ele>579.5</ele><time>2026-05-01T08:54:29Z</time></trkpt><trkpt lat="44.33512225021437" lon="10.741524046373318"><ele>581.0</ele><time>2026-05-01T08:54:32Z</time></trkpt><trkpt lat="44.33506330144863" lon="10.741589701429419"><ele>582.5</ele><time>2026-05-01T08:54:55Z</time></trkpt><trkpt lat="44.33513676256755" lon="10.741556849129303"><ele>584.0</ele><time>2026-05-01T08:55:21Z</time></trkpt><trkpt lat="44.33522610400853" lon="10.741550514379606"><ele>584.0</ele><time>2026-05-01T08:55:26Z</time></trkpt><trkpt lat="44.335273981946415" lon="10.741465275786924"><ele>584.0</ele><time>2026-05-01T08:55:28Z</time></trkpt><trkpt lat="44.335319944186935" lon="10.74138557744401"><ele>584.0</ele><time>2026-05-01T08:55:30Z</time></trkpt><trkpt lat="44.33540969649122" lon="10.74129877205624"><ele>584.0</ele><time>2026-05-01T08:55:32Z</time></trkpt><trkpt lat="44.335493068569306" lon="10.741272473162198"><ele>584.0</ele><time>2026-05-01T08:55:34Z</time></trkpt><trkpt lat="44.33560103552755" lon="10.741248970362207"><ele>582.2</ele><time>2026-05-01T08:55:36Z</time></trkpt><trkpt lat="44.3357121321005" lon="10.7412086645478"><ele>580.4</ele><time>2026-05-01T08:55:38Z</time></trkpt><trkpt lat="44.33582764563797" lon="10.741214576512709"><ele>578.6</ele><time>2026-05-01T08:55:40Z</time></trkpt><trkpt lat="44.335927670005034" lon="10.741205636685669"><ele>576.8</ele><time>2026-05-01T08:55:42Z</time></trkpt><trkpt lat="44.33601321936757" lon="10.741192221788173"><ele>575.0</ele><time>2026-05-01T08:55:44Z</time></trkpt><trkpt lat="44.33610089465119" lon="10.741188814518281"><ele>575.0</ele><time>2026-05-01T08:55:47Z</time></trkpt><trkpt lat="44.336175714178374" lon="10.741146295599608"><ele>575.0</ele><time>2026-05-01T08:55:50Z</time></trkpt><trkpt lat="44.33619295560966" lon="10.741030598484151"><ele>575.0</ele><time>2026-05-01T08:55:52Z</time></trkpt><trkpt lat="44.33622120495502" lon="10.740899742766851"><ele>575.0</ele><time>2026-05-01T08:55:54Z</time></trkpt><trkpt lat="44.336237771017935" lon="10.74078200697951"><ele>575.0</ele><time>2026-05-01T08:55:56Z</time></trkpt><trkpt lat="44.33623763008128" lon="10.740683218426941"><ele>575.0</ele><time>2026-05-01T08:55:59Z</time></trkpt><trkpt lat="44.33618969899419" lon="10.740590556211993"><ele>573.8333333333333</ele><time>2026-05-01T08:56:01Z</time></trkpt><trkpt lat="44.336103093891474" lon="10.740503143936003"><ele>572.6666666666666</ele><time>2026-05-01T08:56:03Z</time></trkpt><trkpt lat="44.336008965467855" lon="10.740388453161296"><ele>571.5</ele><time>2026-05-01T08:56:05Z</time></trkpt><trkpt lat="44.33595169377361" lon="10.740340446564156"><ele>570.3333333333334</ele><time>2026-05-01T08:56:06Z</time></trkpt><trkpt lat="44.335892971015774" lon="10.740299282996617"><ele>569.1666666666667</ele><time>2026-05-01T08:56:07Z</time></trkpt><trkpt lat="44.33582339940901" lon="10.740269835872109"><ele>568.0</ele><time>2026-05-01T08:56:08Z</time></trkpt><trkpt lat="44.3357464828906" lon="10.740251360661524"><ele>568.0</ele><time>2026-05-01T08:56:09Z</time></trkpt><trkpt lat="44.33566534173726" lon="10.740246247269202"><ele>568.0</ele><time>2026-05-01T08:56:10Z</time></trkpt><trkpt lat="44.335579252378" lon="10.740258470072872"><ele>568.0</ele><time>2026-05-01T08:56:11Z</time></trkpt><trkpt lat="44.33549203760046" lon="10.74029063841737"><ele>568.0</ele><time>2026-05-01T08:56:12Z</time></trkpt><trkpt lat="44.33540013199574" lon="10.740340132089921"><ele>568.0</ele><time>2026-05-01T08:56:13Z</time></trkpt><trkpt lat="44.33530705682487" lon="10.740392353126285"><ele>567.8333333333334</ele><time>2026-05-01T08:56:14Z</time></trkpt><trkpt lat="44.33522581466412" lon="10.740434297566322"><ele>567.6666666666667</ele><time>2026-05-01T08:56:15Z</time></trkpt><trkpt lat="44.33515002320127" lon="10.740459561407294"><ele>567.5</ele><time>2026-05-01T08:56:16Z</time></trkpt><trkpt lat="44.33503733280724" lon="10.740434380737279"><ele>567.3333333333334</ele><time>2026-05-01T08:56:18Z</time></trkpt><trkpt lat="44.33499391212788" lon="10.740355248909994"><ele>567.1666666666666</ele><time>2026-05-01T08:56:19Z</time></trkpt><trkpt lat="44.33499147232859" lon="10.74023192182711"><ele>567.0</ele><time>2026-05-01T08:56:20Z</time></trkpt><trkpt lat="44.33502236443237" lon="10.740107431085974"><ele>567.0</ele><time>2026-05-01T08:56:21Z</time></trkpt><trkpt lat="44.335077063621" lon="10.739990115852189"><ele>567.0</ele><time>2026-05-01T08:56:22Z</time></trkpt><trkpt lat="44.335140111562254" lon="10.739864043768092"><ele>567.0</ele><time>2026-05-01T08:56:23Z</time></trkpt><trkpt lat="44.33519509201368" lon="10.739739997674759"><ele>567.0</ele><time>2026-05-01T08:56:24Z</time></trkpt><trkpt lat="44.335229203459505" lon="10.73964260328066"><ele>567.0</ele><time>2026-05-01T08:56:25Z</time></trkpt><trkpt lat="44.33527214123491" lon="10.739532092307828"><ele>567.0</ele><time>2026-05-01T08:56:26Z</time></trkpt><trkpt lat="44.335299414578024" lon="10.739413723000224"><ele>567.0</ele><time>2026-05-01T08:56:27Z</time></trkpt><trkpt lat="44.33529952067756" lon="10.7392938921871"><ele>567.0</ele><time>2026-05-01T08:56:28Z</time></trkpt><trkpt lat="44.33526893467239" lon="10.739167535826585"><ele>567.0</ele><time>2026-05-01T08:56:29Z</time></trkpt><trkpt lat="44.335233252649914" lon="10.739044210237061"><ele>567.0</ele><time>2026-05-01T08:56:30Z</time></trkpt><trkpt lat="44.33519404943001" lon="10.73892000214363"><ele>567.8000000000001</ele><time>2026-05-01T08:56:31Z</time></trkpt><trkpt lat="44.335149583652935" lon="10.738798904122556"><ele>568.6</ele><time>2026-05-01T08:56:32Z</time></trkpt><trkpt lat="44.33509888779734" lon="10.738682974816484"><ele>569.4000000000001</ele><time>2026-05-01T08:56:33Z</time></trkpt><trkpt lat="44.33503959586756" lon="10.738579981961502"><ele>570.2</ele><time>2026-05-01T08:56:34Z</time></trkpt><trkpt lat="44.3349731901286" lon="10.738474360170658"><ele>571.0</ele><time>2026-05-01T08:56:35Z</time></trkpt><trkpt lat="44.3349098422755" lon="10.738363189051373"><ele>571.2</ele><time>2026-05-01T08:56:36Z</time></trkpt><trkpt lat="44.33484635086465" lon="10.738251497029479"><ele>571.4000000000001</ele><time>2026-05-01T08:56:37Z</time></trkpt><trkpt lat="44.334781955110984" lon="10.738139637290308"><ele>571.6</ele><time>2026-05-01T08:56:38Z</time></trkpt><trkpt lat="44.33471606295623" lon="10.73802821943667"><ele>571.8000000000001</ele><time>2026-05-01T08:56:39Z</time></trkpt><trkpt lat="44.33464895385319" lon="10.73791206976618"><ele>572.0</ele><time>2026-05-01T08:56:40Z</time></trkpt><trkpt lat="44.33457846879205" lon="10.737789833984992"><ele>572.8333333333333</ele><time>2026-05-01T08:56:41Z</time></trkpt><trkpt lat="44.3345074718106" lon="10.73766357315759"><ele>573.6666666666666</ele><time>2026-05-01T08:56:42Z</time></trkpt><trkpt lat="44.33444620193064" lon="10.737558658784565"><ele>574.5</ele><time>2026-05-01T08:56:43Z</time></trkpt><trkpt lat="44.33438580547978" lon="10.737486027228737"><ele>575.3333333333334</ele><time>2026-05-01T08:56:44Z</time></trkpt><trkpt lat="44.334321589847065" lon="10.73745020579821"><ele>576.1666666666667</ele><time>2026-05-01T08:56:45Z</time></trkpt><trkpt lat="44.334247265506434" lon="10.737460083488326"><ele>577.0</ele><time>2026-05-01T08:56:46Z</time></trkpt><trkpt lat="44.33418076438118" lon="10.737526274323812"><ele>577.0</ele><time>2026-05-01T08:56:47Z</time></trkpt><trkpt lat="44.3341669755231" lon="10.737688939614275"><ele>577.0</ele><time>2026-05-01T08:56:48Z</time></trkpt><trkpt lat="44.33416570439239" lon="10.737804611635875"><ele>577.0</ele><time>2026-05-01T08:56:49Z</time></trkpt><trkpt lat="44.33417319524463" lon="10.737926763619022"><ele>577.0</ele><time>2026-05-01T08:56:50Z</time></trkpt><trkpt lat="44.33417711375599" lon="10.738057578142932"><ele>577.0</ele><time>2026-05-01T08:56:51Z</time></trkpt><trkpt lat="44.33417570419854" lon="10.738194854607503"><ele>579.0</ele><time>2026-05-01T08:56:52Z</time></trkpt><trkpt lat="44.334172530519595" lon="10.738338481586881"><ele>581.0</ele><time>2026-05-01T08:56:53Z</time></trkpt><trkpt lat="44.33416851961159" lon="10.738486083737294"><ele>583.0</ele><time>2026-05-01T08:56:54Z</time></trkpt><trkpt lat="44.33416509529428" lon="10.738634265016264"><ele>585.0</ele><time>2026-05-01T08:56:55Z</time></trkpt><trkpt lat="44.334161652100484" lon="10.73877888494524"><ele>587.0</ele><time>2026-05-01T08:56:56Z</time></trkpt><trkpt lat="44.334160790889534" lon="10.738927736818669"><ele>587.2</ele><time>2026-05-01T08:56:57Z</time></trkpt><trkpt lat="44.33415569058152" lon="10.739079323131621"><ele>587.4000000000001</ele><time>2026-05-01T08:56:58Z</time></trkpt><trkpt lat="44.33415134364679" lon="10.739234041856637"><ele>587.5999999999999</ele><time>2026-05-01T08:56:59Z</time></trkpt><trkpt lat="44.334148014061924" lon="10.739369718632222"><ele>587.8</ele><time>2026-05-01T08:57:00Z</time></trkpt><trkpt lat="44.33414240148041" lon="10.739476337394922"><ele>588.0</ele><time>2026-05-01T08:57:01Z</time></trkpt><trkpt lat="44.33411682771428" lon="10.739563366258245"><ele>588.0</ele><time>2026-05-01T08:57:02Z</time></trkpt><trkpt lat="44.33406722042359" lon="10.73963369678048"><ele>588.0</ele><time>2026-05-01T08:57:03Z</time></trkpt><trkpt lat="44.334008298725195" lon="10.739682167796518"><ele>588.0</ele><time>2026-05-01T08:57:04Z</time></trkpt><trkpt lat="44.33394024141477" lon="10.739713225566039"><ele>588.0</ele><time>2026-05-01T08:57:05Z</time></trkpt><trkpt lat="44.333864483079886" lon="10.739721481350376"><ele>588.0</ele><time>2026-05-01T08:57:06Z</time></trkpt><trkpt lat="44.33378642551094" lon="10.739707330412449"><ele>588.0</ele><time>2026-05-01T08:57:07Z</time></trkpt><trkpt lat="44.33371105884443" lon="10.739662133954281"><ele>588.0</ele><time>2026-05-01T08:57:08Z</time></trkpt><trkpt lat="44.333644064746785" lon="10.739587326400123"><ele>590.0</ele><time>2026-05-01T08:57:09Z</time></trkpt><trkpt lat="44.33358710307537" lon="10.739491923259918"><ele>592.0</ele><time>2026-05-01T08:57:10Z</time></trkpt><trkpt lat="44.3335278301102" lon="10.739390304727523"><ele>594.0</ele><time>2026-05-01T08:57:11Z</time></trkpt><trkpt lat="44.33346424911339" lon="10.73930227627292"><ele>596.0</ele><time>2026-05-01T08:57:12Z</time></trkpt><trkpt lat="44.33340396789217" lon="10.739224387623294"><ele>598.0</ele><time>2026-05-01T08:57:13Z</time></trkpt><trkpt lat="44.333350998370086" lon="10.739151063918676"><ele>600.0</ele><time>2026-05-01T08:57:14Z</time></trkpt><trkpt lat="44.333299477709886" lon="10.739080991341492"><ele>600.2</ele><time>2026-05-01T08:57:15Z</time></trkpt><trkpt lat="44.33325523248043" lon="10.73901440181374"><ele>600.4</ele><time>2026-05-01T08:57:16Z</time></trkpt><trkpt lat="44.33317142028187" lon="10.738903708805696"><ele>600.6</ele><time>2026-05-01T08:57:18Z</time></trkpt><trkpt lat="44.333099800051116" lon="10.738816959619868"><ele>600.8</ele><time>2026-05-01T08:57:20Z</time></trkpt><trkpt lat="44.33302527506633" lon="10.738741585599175"><ele>601.0</ele><time>2026-05-01T08:57:22Z</time></trkpt><trkpt lat="44.33294819274323" lon="10.738665825629196"><ele>602.6</ele><time>2026-05-01T08:57:24Z</time></trkpt><trkpt lat="44.33285995874897" lon="10.73858975897083"><ele>604.2</ele><time>2026-05-01T08:57:26Z</time></trkpt><trkpt lat="44.3327683675406" lon="10.738498502998192"><ele>605.8</ele><time>2026-05-01T08:57:28Z</time></trkpt><trkpt lat="44.33268411058058" lon="10.73841456351707"><ele>607.4</ele><time>2026-05-01T08:57:30Z</time></trkpt><trkpt lat="44.33260520537693" lon="10.738345106837322"><ele>609.0</ele><time>2026-05-01T08:57:32Z</time></trkpt><trkpt lat="44.33254466693589" lon="10.738270198666715"><ele>609.6</ele><time>2026-05-01T08:57:34Z</time></trkpt><trkpt lat="44.33247747401043" lon="10.738229922634398"><ele>610.2</ele><time>2026-05-01T08:57:37Z</time></trkpt><trkpt lat="44.33235392679287" lon="10.738266269842347"><ele>610.8000000000001</ele><time>2026-05-01T08:58:25Z</time></trkpt><trkpt lat="44.3322794029633" lon="10.73830190904239"><ele>611.4</ele><time>2026-05-01T08:58:26Z</time></trkpt><trkpt lat="44.33219753455117" lon="10.73835427625192"><ele>612.0</ele><time>2026-05-01T08:58:27Z</time></trkpt><trkpt lat="44.33211637821195" lon="10.738424153044324"><ele>614.4</ele><time>2026-05-01T08:58:28Z</time></trkpt><trkpt lat="44.3320283021525" lon="10.738494243370825"><ele>616.8000000000001</ele><time>2026-05-01T08:58:29Z</time></trkpt><trkpt lat="44.331949434074595" lon="10.738574033504586"><ele>619.2</ele><time>2026-05-01T08:58:30Z</time></trkpt><trkpt lat="44.331892916550736" lon="10.738651168197142"><ele>621.6</ele><time>2026-05-01T08:58:31Z</time></trkpt><trkpt lat="44.33184579304604" lon="10.738745285261189"><ele>624.0</ele><time>2026-05-01T08:58:32Z</time></trkpt><trkpt lat="44.33182689387955" lon="10.738872111079669"><ele>625.75</ele><time>2026-05-01T08:58:33Z</time></trkpt><trkpt lat="44.33183820030729" lon="10.739024129333998"><ele>627.5</ele><time>2026-05-01T08:58:34Z</time></trkpt><trkpt lat="44.331862957748214" lon="10.739183718818817"><ele>629.25</ele><time>2026-05-01T08:58:35Z</time></trkpt><trkpt lat="44.33190150036312" lon="10.739343907039014"><ele>631.0</ele><time>2026-05-01T08:58:36Z</time></trkpt><trkpt lat="44.331958447690305" lon="10.739495597297879"><ele>634.25</ele><time>2026-05-01T08:58:37Z</time></trkpt><trkpt lat="44.33201898506652" lon="10.739646804648842"><ele>637.5</ele><time>2026-05-01T08:58:38Z</time></trkpt><trkpt lat="44.33207449426197" lon="10.739802397556872"><ele>640.75</ele><time>2026-05-01T08:58:39Z</time></trkpt><trkpt lat="44.332125026939025" lon="10.739956461795792"><ele>644.0</ele><time>2026-05-01T08:58:40Z</time></trkpt><trkpt lat="44.33217358356628" lon="10.74011048263015"><ele>646.5</ele><time>2026-05-01T08:58:41Z</time></trkpt><trkpt lat="44.33219889430335" lon="10.740275872879776"><ele>649.0</ele><time>2026-05-01T08:58:42Z</time></trkpt><trkpt lat="44.33220994972492" lon="10.740442712208454"><ele>651.5</ele><time>2026-05-01T08:58:43Z</time></trkpt><trkpt lat="44.33221638309419" lon="10.740604953004913"><ele>654.0</ele><time>2026-05-01T08:58:44Z</time></trkpt><trkpt lat="44.33222128628553" lon="10.740759649852901"><ele>650.4000000000001</ele><time>2026-05-01T08:58:45Z</time></trkpt><trkpt lat="44.33224591052112" lon="10.740909681396527"><ele>646.8000000000001</ele><time>2026-05-01T08:58:46Z</time></trkpt><trkpt lat="44.332292249373026" lon="10.741048035781168"><ele>643.2</ele><time>2026-05-01T08:58:47Z</time></trkpt><trkpt lat="44.33234628972932" lon="10.741184183560573"><ele>639.6</ele><time>2026-05-01T08:58:48Z</time></trkpt><trkpt lat="44.332398991791756" lon="10.741318138930835"><ele>636.0</ele><time>2026-05-01T08:58:49Z</time></trkpt><trkpt lat="44.332453660062846" lon="10.741443081756442"><ele>636.0</ele><time>2026-05-01T08:58:50Z</time></trkpt><trkpt lat="44.332503163701524" lon="10.74156725640917"><ele>636.0</ele><time>2026-05-01T08:58:51Z</time></trkpt><trkpt lat="44.33254481044193" lon="10.741679901366169"><ele>636.0</ele><time>2026-05-01T08:58:52Z</time></trkpt><trkpt lat="44.332571632037116" lon="10.741769903193326"><ele>636.0</ele><time>2026-05-01T08:58:53Z</time></trkpt><trkpt lat="44.33257420622677" lon="10.741869071686015"><ele>636.0</ele><time>2026-05-01T08:58:54Z</time></trkpt><trkpt lat="44.332545916642275" lon="10.741968369102505"><ele>636.0</ele><time>2026-05-01T08:58:55Z</time></trkpt><trkpt lat="44.33249539777778" lon="10.74206170232794"><ele>637.8</ele><time>2026-05-01T08:58:56Z</time></trkpt><trkpt lat="44.33244556582603" lon="10.742172318856346"><ele>639.6</ele><time>2026-05-01T08:58:57Z</time></trkpt><trkpt lat="44.33240539776015" lon="10.742284538848846"><ele>641.4</ele><time>2026-05-01T08:58:58Z</time></trkpt><trkpt lat="44.332344916400714" lon="10.742390481162273"><ele>643.2</ele><time>2026-05-01T08:58:59Z</time></trkpt><trkpt lat="44.33229770592172" lon="10.742498689612132"><ele>645.0</ele><time>2026-05-01T08:59:00Z</time></trkpt><trkpt lat="44.332247148125006" lon="10.742603135104883"><ele>647.8333333333334</ele><time>2026-05-01T08:59:01Z</time></trkpt><trkpt lat="44.33219243012166" lon="10.742695915725395"><ele>650.6666666666666</ele><time>2026-05-01T08:59:02Z</time></trkpt><trkpt lat="44.33214625299287" lon="10.742794919440541"><ele>653.5</ele><time>2026-05-01T08:59:03Z</time></trkpt><trkpt lat="44.332099065706444" lon="10.742870922125235"><ele>656.3333333333333</ele><time>2026-05-01T08:59:04Z</time></trkpt><trkpt lat="44.332045075249205" lon="10.742935064601783"><ele>659.1666666666666</ele><time>2026-05-01T08:59:05Z</time></trkpt><trkpt lat="44.331973532122774" lon="10.74299016472368"><ele>662.0</ele><time>2026-05-01T08:59:06Z</time></trkpt><trkpt lat="44.33189438707681" lon="10.743032512683255"><ele>663.2</ele><time>2026-05-01T08:59:07Z</time></trkpt><trkpt lat="44.33181001381625" lon="10.743065271803388"><ele>664.4000000000001</ele><time>2026-05-01T08:59:08Z</time></trkpt><trkpt lat="44.331723129699974" lon="10.743112406373355"><ele>665.5999999999999</ele><time>2026-05-01T08:59:09Z</time></trkpt><trkpt lat="44.331628925144294" lon="10.743154703563253"><ele>666.8</ele><time>2026-05-01T08:59:10Z</time></trkpt><trkpt lat="44.33154174586579" lon="10.74321632614389"><ele>668.0</ele><time>2026-05-01T08:59:11Z</time></trkpt><trkpt lat="44.33145902487595" lon="10.743259154656297"><ele>671.5</ele><time>2026-05-01T08:59:12Z</time></trkpt><trkpt lat="44.33138160227112" lon="10.743276444700403"><ele>675.0</ele><time>2026-05-01T08:59:13Z</time></trkpt><trkpt lat="44.331309860200406" lon="10.743240498853199"><ele>678.5</ele><time>2026-05-01T08:59:14Z</time></trkpt><trkpt lat="44.331268947230384" lon="10.743137309382188"><ele>682.0</ele><time>2026-05-01T08:59:15Z</time></trkpt><trkpt lat="44.331267411700125" lon="10.7430130088599"><ele>685.5</ele><time>2026-05-01T08:59:16Z</time></trkpt><trkpt lat="44.331285123909765" lon="10.742875959067918"><ele>689.0</ele><time>2026-05-01T08:59:17Z</time></trkpt><trkpt lat="44.331299495446856" lon="10.742736211905605"><ele>688.6</ele><time>2026-05-01T08:59:18Z</time></trkpt><trkpt lat="44.3313125038864" lon="10.74259032306412"><ele>688.2</ele><time>2026-05-01T08:59:19Z</time></trkpt><trkpt lat="44.331325929381286" lon="10.74244175093798"><ele>687.8000000000001</ele><time>2026-05-01T08:59:20Z</time></trkpt><trkpt lat="44.33133318974447" lon="10.742290303197628"><ele>687.4000000000001</ele><time>2026-05-01T08:59:21Z</time></trkpt><trkpt lat="44.33131362608126" lon="10.74213280577332"><ele>687.0</ele><time>2026-05-01T08:59:22Z</time></trkpt><trkpt lat="44.33128913840482" lon="10.741973717028044"><ele>686.75</ele><time>2026-05-01T08:59:23Z</time></trkpt><trkpt lat="44.331264008195795" lon="10.741814284382883"><ele>686.5</ele><time>2026-05-01T08:59:24Z</time></trkpt><trkpt lat="44.33124077958386" lon="10.741657238174307"><ele>686.25</ele><time>2026-05-01T08:59:25Z</time></trkpt><trkpt lat="44.33121675356704" lon="10.741498770825634"><ele>686.0</ele><time>2026-05-01T08:59:26Z</time></trkpt><trkpt lat="44.33119420246156" lon="10.74133867546266"><ele>686.0</ele><time>2026-05-01T08:59:27Z</time></trkpt><trkpt lat="44.331171978183015" lon="10.74120113616772"><ele>686.0</ele><time>2026-05-01T08:59:28Z</time></trkpt><trkpt lat="44.33114336196198" lon="10.741097698514583"><ele>686.0</ele><time>2026-05-01T08:59:29Z</time></trkpt><trkpt lat="44.331096580967994" lon="10.741009917840275"><ele>686.0</ele><time>2026-05-01T08:59:30Z</time></trkpt><trkpt lat="44.33101678700416" lon="10.740969185503417"><ele>686.0</ele><time>2026-05-01T08:59:31Z</time></trkpt><trkpt lat="44.33092191643095" lon="10.740957256971752"><ele>686.0</ele><time>2026-05-01T08:59:32Z</time></trkpt><trkpt lat="44.3308155415809" lon="10.7409530876358"><ele>684.75</ele><time>2026-05-01T08:59:33Z</time></trkpt><trkpt lat="44.330709472725374" lon="10.740939613991893"><ele>683.5</ele><time>2026-05-01T08:59:34Z</time></trkpt><trkpt lat="44.330602378709116" lon="10.740916121558962"><ele>682.25</ele><time>2026-05-01T08:59:35Z</time></trkpt><trkpt lat="44.33048128815904" lon="10.740902606305035"><ele>681.0</ele><time>2026-05-01T08:59:36Z</time></trkpt><trkpt lat="44.330358978093344" lon="10.740897804394452"><ele>683.5999999999999</ele><time>2026-05-01T08:59:37Z</time></trkpt><trkpt lat="44.330239340210554" lon="10.740882311393177"><ele>686.2</ele><time>2026-05-01T08:59:38Z</time></trkpt><trkpt lat="44.33014177866352" lon="10.740869140140868"><ele>688.8</ele><time>2026-05-01T08:59:39Z</time></trkpt><trkpt lat="44.330049907735386" lon="10.740824034277571"><ele>691.4000000000001</ele><time>2026-05-01T08:59:40Z</time></trkpt><trkpt lat="44.32997414668077" lon="10.740762814321355"><ele>694.0</ele><time>2026-05-01T08:59:41Z</time></trkpt><trkpt lat="44.32992529117698" lon="10.740670041143265"><ele>694.0</ele><time>2026-05-01T08:59:42Z</time></trkpt><trkpt lat="44.32989317623443" lon="10.740549902731404"><ele>694.0</ele><time>2026-05-01T08:59:43Z</time></trkpt><trkpt lat="44.3298681331606" lon="10.740428504540255"><ele>694.0</ele><time>2026-05-01T08:59:44Z</time></trkpt><trkpt lat="44.32982869546987" lon="10.74030998898398"><ele>694.0</ele><time>2026-05-01T08:59:45Z</time></trkpt><trkpt lat="44.3297847215009" lon="10.740189317275536"><ele>694.0</ele><time>2026-05-01T08:59:46Z</time></trkpt><trkpt lat="44.329747323811574" lon="10.740070301416436"><ele>696.0</ele><time>2026-05-01T08:59:47Z</time></trkpt><trkpt lat="44.32971447255895" lon="10.73996767200284"><ele>698.0</ele><time>2026-05-01T08:59:48Z</time></trkpt><trkpt lat="44.32968209522377" lon="10.739875094862692"><ele>700.0</ele><time>2026-05-01T08:59:49Z</time></trkpt><trkpt lat="44.32964697067515" lon="10.739787727562144"><ele>702.0</ele><time>2026-05-01T08:59:50Z</time></trkpt><trkpt lat="44.32959820196988" lon="10.739706149449349"><ele>704.0</ele><time>2026-05-01T08:59:51Z</time></trkpt><trkpt lat="44.32953055834442" lon="10.739652131566666"><ele>706.0</ele><time>2026-05-01T08:59:52Z</time></trkpt><trkpt lat="44.32945409227077" lon="10.73962242356779"><ele>706.0</ele><time>2026-05-01T08:59:53Z</time></trkpt><trkpt lat="44.32937445708209" lon="10.73961627677559"><ele>706.0</ele><time>2026-05-01T08:59:54Z</time></trkpt><trkpt lat="44.329289473518784" lon="10.739618414043553"><ele>706.0</ele><time>2026-05-01T08:59:55Z</time></trkpt><trkpt lat="44.329204206928345" lon="10.739622459533576"><ele>706.0</ele><time>2026-05-01T08:59:56Z</time></trkpt><trkpt lat="44.32912421403665" lon="10.739616163163445"><ele>706.0</ele><time>2026-05-01T08:59:57Z</time></trkpt><trkpt lat="44.32904612575813" lon="10.739613648526104"><ele>706.0</ele><time>2026-05-01T08:59:58Z</time></trkpt><trkpt lat="44.32897465939611" lon="10.739613267098816"><ele>708.6666666666667</ele><time>2026-05-01T08:59:59Z</time></trkpt><trkpt lat="44.32884770205468" lon="10.739616833506203"><ele>711.3333333333334</ele><time>2026-05-01T09:00:01Z</time></trkpt><trkpt lat="44.32877827813386" lon="10.739601239989877"><ele>714.0</ele><time>2026-05-01T09:00:02Z</time></trkpt><trkpt lat="44.32871046724861" lon="10.739554109692877"><ele>716.6666666666666</ele><time>2026-05-01T09:00:03Z</time></trkpt><trkpt lat="44.32866472552643" lon="10.739456202724515"><ele>719.3333333333333</ele><time>2026-05-01T09:00:04Z</time></trkpt><trkpt lat="44.32865545617628" lon="10.73933141890631"><ele>722.0</ele><time>2026-05-01T09:00:05Z</time></trkpt><trkpt lat="44.32865595052402" lon="10.739212300564004"><ele>722.0</ele><time>2026-05-01T09:00:06Z</time></trkpt><trkpt lat="44.32864971159417" lon="10.739090979190085"><ele>722.0</ele><time>2026-05-01T09:00:07Z</time></trkpt><trkpt lat="44.328637098652294" lon="10.738968973993416"><ele>722.0</ele><time>2026-05-01T09:00:08Z</time></trkpt><trkpt lat="44.3286246349606" lon="10.738847366103286"><ele>722.0</ele><time>2026-05-01T09:00:09Z</time></trkpt><trkpt lat="44.32861613239923" lon="10.738730386255725"><ele>722.0</ele><time>2026-05-01T09:00:10Z</time></trkpt><trkpt lat="44.328612103985165" lon="10.73861370381994"><ele>722.0</ele><time>2026-05-01T09:00:11Z</time></trkpt><trkpt lat="44.32862207469543" lon="10.73848432856342"><ele>722.8</ele><time>2026-05-01T09:00:12Z</time></trkpt><trkpt lat="44.328633111640656" lon="10.738352714617294"><ele>723.6</ele><time>2026-05-01T09:00:13Z</time></trkpt><trkpt lat="44.32864783015228" lon="10.738224080162993"><ele>724.4</ele><time>2026-05-01T09:00:14Z</time></trkpt><trkpt lat="44.32867172400678" lon="10.738101315647214"><ele>725.1999999999999</ele><time>2026-05-01T09:00:15Z</time></trkpt><trkpt lat="44.32870669339035" lon="10.737984822718174"><ele>726.0</ele><time>2026-05-01T09:00:16Z</time></trkpt><trkpt lat="44.328737653763916" lon="10.737871656691071"><ele>726.0</ele><time>2026-05-01T09:00:17Z</time></trkpt><trkpt lat="44.32876738378207" lon="10.737762369164262"><ele>726.0</ele><time>2026-05-01T09:00:18Z</time></trkpt><trkpt lat="44.32878994336479" lon="10.737673088079664"><ele>726.0</ele><time>2026-05-01T09:00:19Z</time></trkpt><trkpt lat="44.32881268426928" lon="10.737547813924422"><ele>726.0</ele><time>2026-05-01T09:00:21Z</time></trkpt><trkpt lat="44.328800154822055" lon="10.737451437672327"><ele>726.0</ele><time>2026-05-01T09:00:25Z</time></trkpt><trkpt lat="44.32875594002245" lon="10.737364046773585"><ele>726.0</ele><time>2026-05-01T09:00:29Z</time></trkpt><trkpt lat="44.32867462633281" lon="10.737308226199762"><ele>725.1666666666666</ele><time>2026-05-01T09:00:31Z</time></trkpt><trkpt lat="44.32856694732355" lon="10.737239711577944"><ele>724.3333333333334</ele><time>2026-05-01T09:00:33Z</time></trkpt><trkpt lat="44.3285030871" lon="10.737204441721621"><ele>723.5</ele><time>2026-05-01T09:00:34Z</time></trkpt><trkpt lat="44.328430270994005" lon="10.737173600484384"><ele>722.6666666666667</ele><time>2026-05-01T09:00:35Z</time></trkpt><trkpt lat="44.32835456323589" lon="10.737135313794493"><ele>721.8333333333334</ele><time>2026-05-01T09:00:36Z</time></trkpt><trkpt lat="44.328275687885245" lon="10.737103032720961"><ele>721.0</ele><time>2026-05-01T09:00:37Z</time></trkpt><trkpt lat="44.32820453928856" lon="10.737067432912704"><ele>721.0</ele><time>2026-05-01T09:00:38Z</time></trkpt><trkpt lat="44.32813164004991" lon="10.737014521221289"><ele>721.0</ele><time>2026-05-01T09:00:39Z</time></trkpt><trkpt lat="44.32804872443143" lon="10.736948808637038"><ele>721.0</ele><time>2026-05-01T09:00:40Z</time></trkpt><trkpt lat="44.3279672980709" lon="10.736875380386525"><ele>721.0</ele><time>2026-05-01T09:00:41Z</time></trkpt><trkpt lat="44.32788838697184" lon="10.736791313573393"><ele>721.0</ele><time>2026-05-01T09:00:42Z</time></trkpt><trkpt lat="44.32781122898313" lon="10.736701089905099"><ele>721.0</ele><time>2026-05-01T09:00:43Z</time></trkpt><trkpt lat="44.32773569725888" lon="10.73660688515885"><ele>721.0</ele><time>2026-05-01T09:00:44Z</time></trkpt><trkpt lat="44.32766169892932" lon="10.736503789452861"><ele>721.0</ele><time>2026-05-01T09:00:45Z</time></trkpt><trkpt lat="44.32759293572559" lon="10.736401681507846"><ele>721.0</ele><time>2026-05-01T09:00:46Z</time></trkpt><trkpt lat="44.32752632318288" lon="10.736304731986072"><ele>721.0</ele><time>2026-05-01T09:00:47Z</time></trkpt><trkpt lat="44.32746228041549" lon="10.73621167045029"><ele>721.0</ele><time>2026-05-01T09:00:48Z</time></trkpt><trkpt lat="44.32738973680056" lon="10.736128170964008"><ele>721.0</ele><time>2026-05-01T09:00:49Z</time></trkpt><trkpt lat="44.327311223984864" lon="10.736054946354662"><ele>721.0</ele><time>2026-05-01T09:00:50Z</time></trkpt><trkpt lat="44.32722847308597" lon="10.736005311361632"><ele>721.0</ele><time>2026-05-01T09:00:51Z</time></trkpt><trkpt lat="44.32714309074879" lon="10.73597542761289"><ele>721.0</ele><time>2026-05-01T09:00:52Z</time></trkpt><trkpt lat="44.32705874964362" lon="10.735936996644996"><ele>720.1666666666667</ele><time>2026-05-01T09:00:53Z</time></trkpt><trkpt lat="44.32697790341163" lon="10.735895008111358"><ele>719.3333333333334</ele><time>2026-05-01T09:00:54Z</time></trkpt><trkpt lat="44.3269073498558" lon="10.735855002957088"><ele>718.5</ele><time>2026-05-01T09:00:55Z</time></trkpt><trkpt lat="44.32680141966738" lon="10.735790881558499"><ele>717.6666666666666</ele><time>2026-05-01T09:00:57Z</time></trkpt><trkpt lat="44.32673795455891" lon="10.73573391888599"><ele>716.8333333333333</ele><time>2026-05-01T09:00:59Z</time></trkpt><trkpt lat="44.326684416654714" lon="10.735676952301178"><ele>716.0</ele><time>2026-05-01T09:01:02Z</time></trkpt><trkpt lat="44.32661931182975" lon="10.735615824779988"><ele>716.0</ele><time>2026-05-01T09:01:06Z</time></trkpt><trkpt lat="44.32655684010339" lon="10.735654137251855"><ele>716.0</ele><time>2026-05-01T09:01:50Z</time></trkpt><trkpt lat="44.32651123848613" lon="10.735754038043996"><ele>716.0</ele><time>2026-05-01T09:01:52Z</time></trkpt><trkpt lat="44.326468100430084" lon="10.73581999080595"><ele>716.0</ele><time>2026-05-01T09:01:55Z</time></trkpt><trkpt lat="44.32642140591272" lon="10.73592286439438"><ele>716.0</ele><time>2026-05-01T09:01:58Z</time></trkpt><trkpt lat="44.326379358424795" lon="10.736004501254877"><ele>716.0</ele><time>2026-05-01T09:02:00Z</time></trkpt><trkpt lat="44.326388621" lon="10.736119176766412"><ele>718.1666666666666</ele><time>2026-05-01T09:02:03Z</time></trkpt><trkpt lat="44.3263830320151" lon="10.736238065856886"><ele>720.3333333333333</ele><time>2026-05-01T09:02:06Z</time></trkpt><trkpt lat="44.32639545323612" lon="10.73634774599208"><ele>722.5</ele><time>2026-05-01T09:02:08Z</time></trkpt><trkpt lat="44.32640154805159" lon="10.73646450057057"><ele>724.6666666666666</ele><time>2026-05-01T09:02:10Z</time></trkpt><trkpt lat="44.32638481550691" lon="10.73657039807545"><ele>726.8333333333334</ele><time>2026-05-01T09:02:12Z</time></trkpt><trkpt lat="44.32636802402763" lon="10.73668408623903"><ele>729.0</ele><time>2026-05-01T09:02:14Z</time></trkpt><trkpt lat="44.32631662136314" lon="10.736792738523157"><ele>732.6666666666666</ele><time>2026-05-01T09:02:16Z</time></trkpt><trkpt lat="44.32628794886505" lon="10.736912725321213"><ele>736.3333333333334</ele><time>2026-05-01T09:02:18Z</time></trkpt><trkpt lat="44.32627225292326" lon="10.73704752982595"><ele>740.0</ele><time>2026-05-01T09:02:21Z</time></trkpt><trkpt lat="44.32623699079177" lon="10.737158528052813"><ele>743.6666666666667</ele><time>2026-05-01T09:02:23Z</time></trkpt><trkpt lat="44.326182986896946" lon="10.737227036274184"><ele>747.3333333333334</ele><time>2026-05-01T09:02:25Z</time></trkpt><trkpt lat="44.32611658305348" lon="10.737311285331469"><ele>751.0</ele><time>2026-05-01T09:02:27Z</time></trkpt><trkpt lat="44.32603683898492" lon="10.737378092155797"><ele>751.0</ele><time>2026-05-01T09:02:30Z</time></trkpt><trkpt lat="44.32597307368221" lon="10.737471669153347"><ele>751.0</ele><time>2026-05-01T09:02:32Z</time></trkpt><trkpt lat="44.32593781664923" lon="10.737587727458004"><ele>751.0</ele><time>2026-05-01T09:02:34Z</time></trkpt><trkpt lat="44.325910871667226" lon="10.737703242887168"><ele>751.0</ele><time>2026-05-01T09:02:36Z</time></trkpt><trkpt lat="44.32585524042556" lon="10.737780422548248"><ele>751.0</ele><time>2026-05-01T09:02:38Z</time></trkpt><trkpt lat="44.3258011264535" lon="10.737868000105443"><ele>751.0</ele><time>2026-05-01T09:02:40Z</time></trkpt><trkpt lat="44.325709836341794" lon="10.737889793563962"><ele>753.5</ele><time>2026-05-01T09:02:42Z</time></trkpt><trkpt lat="44.32564322539998" lon="10.737901790738027"><ele>756.0</ele><time>2026-05-01T09:02:44Z</time></trkpt><trkpt lat="44.32557004283453" lon="10.737922523017094"><ele>758.5</ele><time>2026-05-01T09:02:46Z</time></trkpt><trkpt lat="44.32549366605347" lon="10.73796246658842"><ele>761.0</ele><time>2026-05-01T09:02:48Z</time></trkpt><trkpt lat="44.32542719370477" lon="10.737985615200385"><ele>763.5</ele><time>2026-05-01T09:02:57Z</time></trkpt><trkpt lat="44.32537973690169" lon="10.738076765025173"><ele>766.0</ele><time>2026-05-01T09:03:01Z</time></trkpt><trkpt lat="44.3253128400821" lon="10.738158176669408"><ele>766.0</ele><time>2026-05-01T09:03:06Z</time></trkpt><trkpt lat="44.32526180697561" lon="10.738220279574724"><ele>766.0</ele><time>2026-05-01T09:03:10Z</time></trkpt><trkpt lat="44.32521829974059" lon="10.738294386813736"><ele>766.0</ele><time>2026-05-01T09:03:12Z</time></trkpt><trkpt lat="44.32524698130858" lon="10.738208738710819"><ele>766.0</ele><time>2026-05-01T09:04:21Z</time></trkpt><trkpt lat="44.32530690785115" lon="10.73813208457299"><ele>766.0</ele><time>2026-05-01T09:04:26Z</time></trkpt><trkpt lat="44.32534138518428" lon="10.738054284554712"><ele>766.0</ele><time>2026-05-01T09:04:37Z</time></trkpt><trkpt lat="44.32540519227464" lon="10.738034335596296"><ele>766.0</ele><time>2026-05-01T09:04:42Z</time></trkpt><trkpt lat="44.32541317263669" lon="10.737939932122067"><ele>766.0</ele><time>2026-05-01T09:04:46Z</time></trkpt><trkpt lat="44.32554277863595" lon="10.737937031229196"><ele>766.0</ele><time>2026-05-01T09:04:55Z</time></trkpt><trkpt lat="44.32557491452818" lon="10.73804677369664"><ele>766.0</ele><time>2026-05-01T09:04:59Z</time></trkpt><trkpt lat="44.325566081552424" lon="10.737924204811343"><ele>766.0</ele><time>2026-05-01T09:06:00Z</time></trkpt><trkpt lat="44.32562414717103" lon="10.737876051142106"><ele>766.0</ele><time>2026-05-01T09:06:02Z</time></trkpt><trkpt lat="44.32573193021227" lon="10.737855703293288"><ele>766.0</ele><time>2026-05-01T09:06:04Z</time></trkpt><trkpt lat="44.32582036805739" lon="10.737801379881347"><ele>766.0</ele><time>2026-05-01T09:06:06Z</time></trkpt><trkpt lat="44.32587827451219" lon="10.737685841872118"><ele>766.0</ele><time>2026-05-01T09:06:08Z</time></trkpt><trkpt lat="44.32592806148244" lon="10.737538479630821"><ele>766.0</ele><time>2026-05-01T09:06:10Z</time></trkpt><trkpt lat="44.32596821684998" lon="10.737432791565414"><ele>766.0</ele><time>2026-05-01T09:06:12Z</time></trkpt><trkpt lat="44.32603973324581" lon="10.737367626258296"><ele>763.5</ele><time>2026-05-01T09:06:14Z</time></trkpt><trkpt lat="44.32610898126218" lon="10.737280930353068"><ele>761.0</ele><time>2026-05-01T09:06:16Z</time></trkpt><trkpt lat="44.32616784844093" lon="10.737228795540148"><ele>758.5</ele><time>2026-05-01T09:06:18Z</time></trkpt><trkpt lat="44.326224458185536" lon="10.737164550790135"><ele>756.0</ele><time>2026-05-01T09:06:20Z</time></trkpt><trkpt lat="44.326268300884394" lon="10.737042392873489"><ele>753.5</ele><time>2026-05-01T09:06:23Z</time></trkpt><trkpt lat="44.3262727949053" lon="10.73692424070268"><ele>751.0</ele><time>2026-05-01T09:06:25Z</time></trkpt><trkpt lat="44.32630245052704" lon="10.736814273149282"><ele>749.8</ele><time>2026-05-01T09:06:27Z</time></trkpt><trkpt lat="44.326343337046595" lon="10.736694051988762"><ele>748.5999999999999</ele><time>2026-05-01T09:06:29Z</time></trkpt><trkpt lat="44.326383655260386" lon="10.736578880723743"><ele>747.4</ele><time>2026-05-01T09:06:31Z</time></trkpt><trkpt lat="44.32639131260935" lon="10.736445489245659"><ele>746.2</ele><time>2026-05-01T09:06:33Z</time></trkpt><trkpt lat="44.32638569123111" lon="10.736308010458119"><ele>745.0</ele><time>2026-05-01T09:06:35Z</time></trkpt><trkpt lat="44.32637531254678" lon="10.736183653099415"><ele>745.0</ele><time>2026-05-01T09:06:37Z</time></trkpt><trkpt lat="44.32637311476412" lon="10.736071660747971"><ele>745.0</ele><time>2026-05-01T09:06:39Z</time></trkpt><trkpt lat="44.32638526239407" lon="10.73594478150428"><ele>745.0</ele><time>2026-05-01T09:06:42Z</time></trkpt><trkpt lat="44.326450158184336" lon="10.735834954689537"><ele>745.0</ele><time>2026-05-01T09:06:45Z</time></trkpt><trkpt lat="44.326510153441426" lon="10.73573562549196"><ele>745.0</ele><time>2026-05-01T09:06:47Z</time></trkpt><trkpt lat="44.326564346731" lon="10.735668048969377"><ele>745.0</ele><time>2026-05-01T09:06:50Z</time></trkpt><trkpt lat="44.326415572303105" lon="10.735509250184283"><ele>742.1666666666667</ele><time>2026-05-01T09:07:31Z</time></trkpt><trkpt lat="44.32634744347923" lon="10.735475335196536"><ele>739.3333333333334</ele><time>2026-05-01T09:07:32Z</time></trkpt><trkpt lat="44.326276229922605" lon="10.735430793527627"><ele>736.5</ele><time>2026-05-01T09:07:33Z</time></trkpt><trkpt lat="44.32620037696398" lon="10.735384832844952"><ele>733.6666666666666</ele><time>2026-05-01T09:07:34Z</time></trkpt><trkpt lat="44.32612409927976" lon="10.735334547106296"><ele>730.8333333333333</ele><time>2026-05-01T09:07:35Z</time></trkpt><trkpt lat="44.326046683470636" lon="10.735294769233137"><ele>728.0</ele><time>2026-05-01T09:07:36Z</time></trkpt><trkpt lat="44.325974746030695" lon="10.73525881727366"><ele>728.0</ele><time>2026-05-01T09:07:37Z</time></trkpt><trkpt lat="44.32590606003243" lon="10.735230745442417"><ele>728.0</ele><time>2026-05-01T09:07:38Z</time></trkpt><trkpt lat="44.32584229596754" lon="10.735215044755542"><ele>728.0</ele><time>2026-05-01T09:07:39Z</time></trkpt><trkpt lat="44.32577911342924" lon="10.735219329738493"><ele>728.0</ele><time>2026-05-01T09:07:40Z</time></trkpt><trkpt lat="44.32571514768894" lon="10.735222110304672"><ele>728.0</ele><time>2026-05-01T09:07:41Z</time></trkpt><trkpt lat="44.32564789794858" lon="10.735211043835955"><ele>728.0</ele><time>2026-05-01T09:07:42Z</time></trkpt><trkpt lat="44.325569749868" lon="10.735175580675332"><ele>728.0</ele><time>2026-05-01T09:07:43Z</time></trkpt><trkpt lat="44.325499231777506" lon="10.735113616813111"><ele>725.0</ele><time>2026-05-01T09:07:44Z</time></trkpt><trkpt lat="44.32545040332962" lon="10.735015300027095"><ele>722.0</ele><time>2026-05-01T09:07:45Z</time></trkpt><trkpt lat="44.325418117369935" lon="10.734910161420272"><ele>719.0</ele><time>2026-05-01T09:07:46Z</time></trkpt><trkpt lat="44.325386515913216" lon="10.734806941180203"><ele>716.0</ele><time>2026-05-01T09:07:47Z</time></trkpt><trkpt lat="44.32536331074478" lon="10.734695532934268"><ele>713.0</ele><time>2026-05-01T09:07:48Z</time></trkpt><trkpt lat="44.32531107373897" lon="10.734603099143474"><ele>710.0</ele><time>2026-05-01T09:07:49Z</time></trkpt><trkpt lat="44.325239538385254" lon="10.73454753164712"><ele>710.0</ele><time>2026-05-01T09:07:50Z</time></trkpt><trkpt lat="44.3251568441754" lon="10.73453830977659"><ele>710.0</ele><time>2026-05-01T09:07:51Z</time></trkpt><trkpt lat="44.32507262188977" lon="10.734537656979047"><ele>710.0</ele><time>2026-05-01T09:07:52Z</time></trkpt><trkpt lat="44.32498527809225" lon="10.734512228254241"><ele>710.0</ele><time>2026-05-01T09:07:53Z</time></trkpt><trkpt lat="44.324893564104315" lon="10.73452155473429"><ele>710.0</ele><time>2026-05-01T09:07:54Z</time></trkpt><trkpt lat="44.32480482144442" lon="10.734533952602643"><ele>710.0</ele><time>2026-05-01T09:07:55Z</time></trkpt><trkpt lat="44.324711514152035" lon="10.734565640712153"><ele>712.4</ele><time>2026-05-01T09:07:56Z</time></trkpt><trkpt lat="44.32462506444151" lon="10.734561896176771"><ele>714.8</ele><time>2026-05-01T09:07:57Z</time></trkpt><trkpt lat="44.32452983311533" lon="10.734556612243827"><ele>717.2</ele><time>2026-05-01T09:07:58Z</time></trkpt><trkpt lat="44.32443721656401" lon="10.734555826217989"><ele>719.6</ele><time>2026-05-01T09:07:59Z</time></trkpt><trkpt lat="44.32435203286532" lon="10.734522806942293"><ele>722.0</ele><time>2026-05-01T09:08:00Z</time></trkpt><trkpt lat="44.324263125059765" lon="10.734497347455392"><ele>722.0</ele><time>2026-05-01T09:08:01Z</time></trkpt><trkpt lat="44.32417152700894" lon="10.734462668320663"><ele>722.0</ele><time>2026-05-01T09:08:02Z</time></trkpt><trkpt lat="44.324072158834745" lon="10.734436259142964"><ele>722.0</ele><time>2026-05-01T09:08:03Z</time></trkpt><trkpt lat="44.3239777130909" lon="10.734372021310152"><ele>722.0</ele><time>2026-05-01T09:08:04Z</time></trkpt><trkpt lat="44.323883237873424" lon="10.734306694691183"><ele>722.0</ele><time>2026-05-01T09:08:05Z</time></trkpt><trkpt lat="44.32380074417546" lon="10.734213424669733"><ele>721.6</ele><time>2026-05-01T09:08:06Z</time></trkpt><trkpt lat="44.323762745173354" lon="10.73409964052557"><ele>721.2</ele><time>2026-05-01T09:08:07Z</time></trkpt><trkpt lat="44.323731504106966" lon="10.733979580629788"><ele>720.8</ele><time>2026-05-01T09:08:08Z</time></trkpt><trkpt lat="44.32374201838397" lon="10.733824783626922"><ele>720.4</ele><time>2026-05-01T09:08:09Z</time></trkpt><trkpt lat="44.32377236906723" lon="10.733662533936151"><ele>720.0</ele><time>2026-05-01T09:08:10Z</time></trkpt><trkpt lat="44.32376446711212" lon="10.733482455448682"><ele>720.0</ele><time>2026-05-01T09:08:11Z</time></trkpt><trkpt lat="44.32376719400992" lon="10.73334968544674"><ele>720.0</ele><time>2026-05-01T09:08:12Z</time></trkpt><trkpt lat="44.32377770194421" lon="10.733245886209522"><ele>720.0</ele><time>2026-05-01T09:08:13Z</time></trkpt><trkpt lat="44.3237494704564" lon="10.733153223655334"><ele>720.0</ele><time>2026-05-01T09:08:14Z</time></trkpt><trkpt lat="44.32369642044366" lon="10.73308830767833"><ele>720.0</ele><time>2026-05-01T09:08:15Z</time></trkpt><trkpt lat="44.32362388061681" lon="10.73306840710971"><ele>720.0</ele><time>2026-05-01T09:08:16Z</time></trkpt><trkpt lat="44.32354727619029" lon="10.733099869472461"><ele>720.0</ele><time>2026-05-01T09:08:17Z</time></trkpt><trkpt lat="44.32345917623181" lon="10.733154088978722"><ele>720.0</ele><time>2026-05-01T09:08:18Z</time></trkpt><trkpt lat="44.323406500624074" lon="10.733271927764495"><ele>720.0</ele><time>2026-05-01T09:08:19Z</time></trkpt><trkpt lat="44.32337752590768" lon="10.733407546539281"><ele>720.0</ele><time>2026-05-01T09:08:20Z</time></trkpt><trkpt lat="44.323355660398526" lon="10.733533387012137"><ele>720.0</ele><time>2026-05-01T09:08:21Z</time></trkpt><trkpt lat="44.32334066754338" lon="10.733666228637459"><ele>721.8</ele><time>2026-05-01T09:08:22Z</time></trkpt><trkpt lat="44.32333091010138" lon="10.733795196576155"><ele>723.6</ele><time>2026-05-01T09:08:23Z</time></trkpt><trkpt lat="44.32329380516305" lon="10.733915203533064"><ele>725.4000000000001</ele><time>2026-05-01T09:08:24Z</time></trkpt><trkpt lat="44.323260493003936" lon="10.734022110633585"><ele>727.2</ele><time>2026-05-01T09:08:25Z</time></trkpt><trkpt lat="44.32314564887591" lon="10.734076259392364"><ele>729.0</ele><time>2026-05-01T09:08:27Z</time></trkpt><trkpt lat="44.32306653766588" lon="10.734039433201668"><ele>734.2</ele><time>2026-05-01T09:08:28Z</time></trkpt><trkpt lat="44.32298502791992" lon="10.734001513787623"><ele>739.4000000000001</ele><time>2026-05-01T09:08:29Z</time></trkpt><trkpt lat="44.3228992279349" lon="10.733952855337005"><ele>744.6</ele><time>2026-05-01T09:08:30Z</time></trkpt><trkpt lat="44.322805826585395" lon="10.733909627634802"><ele>749.8</ele><time>2026-05-01T09:08:31Z</time></trkpt><trkpt lat="44.322707665744936" lon="10.733866630448997"><ele>755.0</ele><time>2026-05-01T09:08:32Z</time></trkpt><trkpt lat="44.32260547657504" lon="10.733802962340631"><ele>755.0</ele><time>2026-05-01T09:08:33Z</time></trkpt><trkpt lat="44.32250785846787" lon="10.733731484299302"><ele>755.0</ele><time>2026-05-01T09:08:34Z</time></trkpt><trkpt lat="44.32240588298591" lon="10.733651858005736"><ele>755.0</ele><time>2026-05-01T09:08:35Z</time></trkpt><trkpt lat="44.322304301790815" lon="10.733563638392555"><ele>755.0</ele><time>2026-05-01T09:08:36Z</time></trkpt><trkpt lat="44.32220209404626" lon="10.733482014635177"><ele>757.5</ele><time>2026-05-01T09:08:37Z</time></trkpt><trkpt lat="44.32210065753807" lon="10.73340078857184"><ele>760.0</ele><time>2026-05-01T09:08:38Z</time></trkpt><trkpt lat="44.32200066897656" lon="10.733326064086896"><ele>762.5</ele><time>2026-05-01T09:08:39Z</time></trkpt><trkpt lat="44.321897458990854" lon="10.733257630731904"><ele>765.0</ele><time>2026-05-01T09:08:40Z</time></trkpt><trkpt lat="44.32179281964621" lon="10.73320085201798"><ele>765.0</ele><time>2026-05-01T09:08:41Z</time></trkpt><trkpt lat="44.32169637511929" lon="10.733122435352842"><ele>765.0</ele><time>2026-05-01T09:08:42Z</time></trkpt><trkpt lat="44.32158716128173" lon="10.73306182314459"><ele>765.0</ele><time>2026-05-01T09:08:43Z</time></trkpt><trkpt lat="44.321481781302424" lon="10.73300702288477"><ele>765.0</ele><time>2026-05-01T09:08:44Z</time></trkpt><trkpt lat="44.32137407785496" lon="10.732970440760244"><ele>767.8333333333334</ele><time>2026-05-01T09:08:45Z</time></trkpt><trkpt lat="44.32130847739465" lon="10.732906426125654"><ele>770.6666666666667</ele><time>2026-05-01T09:08:46Z</time></trkpt><trkpt lat="44.32124086232787" lon="10.732904088703883"><ele>773.5</ele><time>2026-05-01T09:08:47Z</time></trkpt><trkpt lat="44.321164467960685" lon="10.732941629220502"><ele>776.3333333333334</ele><time>2026-05-01T09:08:48Z</time></trkpt><trkpt lat="44.32107998024509" lon="10.732991821947927"><ele>779.1666666666667</ele><time>2026-05-01T09:08:49Z</time></trkpt><trkpt lat="44.321009650765184" lon="10.733059534737206"><ele>782.0</ele><time>2026-05-01T09:08:50Z</time></trkpt><trkpt lat="44.320915674126425" lon="10.73306294451367"><ele>782.0000000000001</ele><time>2026-05-01T09:08:51Z</time></trkpt><trkpt lat="44.32082613525663" lon="10.73304585183899"><ele>782.0</ele><time>2026-05-01T09:08:52Z</time></trkpt><trkpt lat="44.32074157398676" lon="10.733021922829245"><ele>782.0</ele><time>2026-05-01T09:08:53Z</time></trkpt><trkpt lat="44.32065672774722" lon="10.732993089854984"><ele>782.0</ele><time>2026-05-01T09:08:54Z</time></trkpt><trkpt lat="44.32057665146273" lon="10.732950024775654"><ele>782.0000000000001</ele><time>2026-05-01T09:08:55Z</time></trkpt><trkpt lat="44.3205003502883" lon="10.732899136321736"><ele>782.0</ele><time>2026-05-01T09:08:56Z</time></trkpt><trkpt lat="44.32042297605273" lon="10.732856397170425"><ele>780.4000000000001</ele><time>2026-05-01T09:08:57Z</time></trkpt><trkpt lat="44.32034096913375" lon="10.732810511376613"><ele>778.8000000000001</ele><time>2026-05-01T09:08:58Z</time></trkpt><trkpt lat="44.3202573530757" lon="10.732764231139653"><ele>777.2</ele><time>2026-05-01T09:08:59Z</time></trkpt><trkpt lat="44.32016825016957" lon="10.732726180459183"><ele>775.6</ele><time>2026-05-01T09:09:00Z</time></trkpt><trkpt lat="44.32007097714171" lon="10.732713618682052"><ele>774.0</ele><time>2026-05-01T09:09:01Z</time></trkpt><trkpt lat="44.3199749801979" lon="10.73268551216106"><ele>774.0</ele><time>2026-05-01T09:09:02Z</time></trkpt><trkpt lat="44.319887726750714" lon="10.732680404571747"><ele>774.0</ele><time>2026-05-01T09:09:03Z</time></trkpt><trkpt lat="44.31980710388398" lon="10.732679164221324"><ele>774.0</ele><time>2026-05-01T09:09:04Z</time></trkpt><trkpt lat="44.31973687203077" lon="10.732678083731978"><ele>774.0</ele><time>2026-05-01T09:09:05Z</time></trkpt><trkpt lat="44.31967052697201" lon="10.732677063040018"><ele>774.0</ele><time>2026-05-01T09:09:06Z</time></trkpt><trkpt lat="44.31960577216911" lon="10.732690896429208"><ele>774.0</ele><time>2026-05-01T09:09:07Z</time></trkpt><trkpt lat="44.31949097265448" lon="10.732679376843812"><ele>775.6666666666666</ele><time>2026-05-01T09:09:09Z</time></trkpt><trkpt lat="44.31939794827607" lon="10.732675900686571"><ele>777.3333333333333</ele><time>2026-05-01T09:09:11Z</time></trkpt><trkpt lat="44.31932833992965" lon="10.73266346012821"><ele>779.0</ele><time>2026-05-01T09:09:13Z</time></trkpt><trkpt lat="44.31924551545687" lon="10.732642605256915"><ele>780.6666666666666</ele><time>2026-05-01T09:09:32Z</time></trkpt><trkpt lat="44.319172317376626" lon="10.73260807581408"><ele>782.3333333333333</ele><time>2026-05-01T09:09:33Z</time></trkpt><trkpt lat="44.31908217200492" lon="10.732556678426619"><ele>784.0</ele><time>2026-05-01T09:09:34Z</time></trkpt><trkpt lat="44.31898082347515" lon="10.732512675022765"><ele>784.4999999999999</ele><time>2026-05-01T09:09:35Z</time></trkpt><trkpt lat="44.318884500320905" lon="10.732460001411296"><ele>785.0</ele><time>2026-05-01T09:09:36Z</time></trkpt><trkpt lat="44.318788974669225" lon="10.73242241179427"><ele>785.5</ele><time>2026-05-01T09:09:37Z</time></trkpt><trkpt lat="44.31871244579444" lon="10.732411903723193"><ele>786.0</ele><time>2026-05-01T09:09:38Z</time></trkpt><trkpt lat="44.31863075993094" lon="10.732401797167222"><ele>786.4999999999999</ele><time>2026-05-01T09:09:39Z</time></trkpt><trkpt lat="44.318551240422025" lon="10.732434583438442"><ele>787.0</ele><time>2026-05-01T09:09:40Z</time></trkpt><trkpt lat="44.31848428672412" lon="10.73249518590478"><ele>787.0</ele><time>2026-05-01T09:09:41Z</time></trkpt><trkpt lat="44.31842309103023" lon="10.732595858370246"><ele>787.0</ele><time>2026-05-01T09:09:42Z</time></trkpt><trkpt lat="44.318371727169875" lon="10.732711829121737"><ele>787.0</ele><time>2026-05-01T09:09:43Z</time></trkpt><trkpt lat="44.31831667420637" lon="10.732820153949929"><ele>787.0</ele><time>2026-05-01T09:09:44Z</time></trkpt><trkpt lat="44.3182474577457" lon="10.732912473023072"><ele>787.0</ele><time>2026-05-01T09:09:45Z</time></trkpt><trkpt lat="44.31814476221093" lon="10.73294528695955"><ele>791.0</ele><time>2026-05-01T09:09:46Z</time></trkpt><trkpt lat="44.318043012832476" lon="10.73300588047399"><ele>795.0</ele><time>2026-05-01T09:09:47Z</time></trkpt><trkpt lat="44.317900478467166" lon="10.733102792948872"><ele>799.0</ele><time>2026-05-01T09:09:49Z</time></trkpt><trkpt lat="44.317795500217755" lon="10.73315012750145"><ele>803.0</ele><time>2026-05-01T09:09:50Z</time></trkpt><trkpt lat="44.317691617093445" lon="10.733183692055094"><ele>803.0</ele><time>2026-05-01T09:09:51Z</time></trkpt><trkpt lat="44.317610202341385" lon="10.733213115135442"><ele>803.0</ele><time>2026-05-01T09:09:52Z</time></trkpt><trkpt lat="44.317539083952624" lon="10.73323859766461"><ele>803.0</ele><time>2026-05-01T09:09:53Z</time></trkpt><trkpt lat="44.317436510774876" lon="10.733128607835354"><ele>803.0</ele><time>2026-05-01T09:09:55Z</time></trkpt><trkpt lat="44.317383586919625" lon="10.733011765309596"><ele>803.0</ele><time>2026-05-01T09:09:56Z</time></trkpt><trkpt lat="44.31731711222174" lon="10.732906210541229"><ele>803.0</ele><time>2026-05-01T09:09:57Z</time></trkpt><trkpt lat="44.3172562264222" lon="10.732800528937949"><ele>803.0</ele><time>2026-05-01T09:09:58Z</time></trkpt><trkpt lat="44.31718010873652" lon="10.732719099301885"><ele>803.0</ele><time>2026-05-01T09:09:59Z</time></trkpt><trkpt lat="44.317097420158426" lon="10.732651895412221"><ele>803.0</ele><time>2026-05-01T09:10:00Z</time></trkpt><trkpt lat="44.31700656937777" lon="10.732594306875724"><ele>803.0</ele><time>2026-05-01T09:10:01Z</time></trkpt><trkpt lat="44.31691512626221" lon="10.732532692464124"><ele>803.4</ele><time>2026-05-01T09:10:02Z</time></trkpt><trkpt lat="44.31681734390515" lon="10.732474391128283"><ele>803.8</ele><time>2026-05-01T09:10:03Z</time></trkpt><trkpt lat="44.31672118892656" lon="10.732416796593759"><ele>804.2</ele><time>2026-05-01T09:10:04Z</time></trkpt><trkpt lat="44.316615309835655" lon="10.732396023258325"><ele>804.6</ele><time>2026-05-01T09:10:05Z</time></trkpt><trkpt lat="44.31650774451058" lon="10.732367306738775"><ele>805.0</ele><time>2026-05-01T09:10:06Z</time></trkpt><trkpt lat="44.31639608162583" lon="10.732340436146186"><ele>805.0</ele><time>2026-05-01T09:10:07Z</time></trkpt><trkpt lat="44.31628508437124" lon="10.732310899359362"><ele>805.0</ele><time>2026-05-01T09:10:08Z</time></trkpt><trkpt lat="44.316177139706184" lon="10.732275682859898"><ele>805.0</ele><time>2026-05-01T09:10:09Z</time></trkpt><trkpt lat="44.3160658059244" lon="10.732239607343114"><ele>805.0</ele><time>2026-05-01T09:10:10Z</time></trkpt><trkpt lat="44.31595694191194" lon="10.732219218603001"><ele>805.0</ele><time>2026-05-01T09:10:11Z</time></trkpt><trkpt lat="44.31584750798112" lon="10.732186006189046"><ele>805.0</ele><time>2026-05-01T09:10:12Z</time></trkpt><trkpt lat="44.31574654205202" lon="10.732117123135096"><ele>805.0</ele><time>2026-05-01T09:10:13Z</time></trkpt><trkpt lat="44.31565697545022" lon="10.7320264390137"><ele>805.0</ele><time>2026-05-01T09:10:14Z</time></trkpt><trkpt lat="44.315559115203605" lon="10.731958247797746"><ele>805.0</ele><time>2026-05-01T09:10:15Z</time></trkpt><trkpt lat="44.315457220966536" lon="10.731929119515158"><ele>805.0</ele><time>2026-05-01T09:10:16Z</time></trkpt><trkpt lat="44.315348926572376" lon="10.731915715656458"><ele>804.0</ele><time>2026-05-01T09:10:17Z</time></trkpt><trkpt lat="44.315246298814856" lon="10.731907551477299"><ele>803.0</ele><time>2026-05-01T09:10:18Z</time></trkpt><trkpt lat="44.31514710459312" lon="10.731906728154161"><ele>802.0</ele><time>2026-05-01T09:10:19Z</time></trkpt><trkpt lat="44.31506566220551" lon="10.731931508696837"><ele>801.0</ele><time>2026-05-01T09:10:20Z</time></trkpt><trkpt lat="44.314986491064595" lon="10.731979728187474"><ele>800.0</ele><time>2026-05-01T09:10:21Z</time></trkpt><trkpt lat="44.314902339900264" lon="10.732071155760053"><ele>800.0</ele><time>2026-05-01T09:10:22Z</time></trkpt><trkpt lat="44.31482351967084" lon="10.73215796513806"><ele>800.0</ele><time>2026-05-01T09:10:23Z</time></trkpt><trkpt lat="44.31474187053904" lon="10.732247890140616"><ele>800.0</ele><time>2026-05-01T09:10:24Z</time></trkpt><trkpt lat="44.31465685681198" lon="10.732337441676176"><ele>800.0</ele><time>2026-05-01T09:10:25Z</time></trkpt><trkpt lat="44.31456971359632" lon="10.732425311592998"><ele>800.0</ele><time>2026-05-01T09:10:26Z</time></trkpt><trkpt lat="44.314474353476385" lon="10.73249307907889"><ele>797.0</ele><time>2026-05-01T09:10:27Z</time></trkpt><trkpt lat="44.31436648931844" lon="10.732530941808017"><ele>794.0</ele><time>2026-05-01T09:10:28Z</time></trkpt><trkpt lat="44.31426217142163" lon="10.732582194801932"><ele>791.0</ele><time>2026-05-01T09:10:29Z</time></trkpt><trkpt lat="44.31415494587992" lon="10.73260229101714"><ele>788.0</ele><time>2026-05-01T09:10:30Z</time></trkpt><trkpt lat="44.31404203406835" lon="10.732627318102393"><ele>785.0</ele><time>2026-05-01T09:10:31Z</time></trkpt><trkpt lat="44.31393229187217" lon="10.732658415687682"><ele>784.25</ele><time>2026-05-01T09:10:32Z</time></trkpt><trkpt lat="44.3138171278571" lon="10.732678296090198"><ele>783.5</ele><time>2026-05-01T09:10:33Z</time></trkpt><trkpt lat="44.31370177689472" lon="10.732696682594835"><ele>782.75</ele><time>2026-05-01T09:10:34Z</time></trkpt><trkpt lat="44.31357787891972" lon="10.732697021575747"><ele>782.0</ele><time>2026-05-01T09:10:35Z</time></trkpt><trkpt lat="44.31345721159822" lon="10.732668787966528"><ele>782.0</ele><time>2026-05-01T09:10:36Z</time></trkpt><trkpt lat="44.313345830439935" lon="10.732599262893313"><ele>782.0</ele><time>2026-05-01T09:10:37Z</time></trkpt><trkpt lat="44.313252873319456" lon="10.732492196276597"><ele>782.0</ele><time>2026-05-01T09:10:38Z</time></trkpt><trkpt lat="44.31315958579366" lon="10.732394633129887"><ele>782.0</ele><time>2026-05-01T09:10:39Z</time></trkpt><trkpt lat="44.313064022777084" lon="10.732305389605479"><ele>782.6</ele><time>2026-05-01T09:10:40Z</time></trkpt><trkpt lat="44.31297183985567" lon="10.732208041628839"><ele>783.2</ele><time>2026-05-01T09:10:41Z</time></trkpt><trkpt lat="44.31289642886752" lon="10.732107501291525"><ele>783.8</ele><time>2026-05-01T09:10:42Z</time></trkpt><trkpt lat="44.312832421414384" lon="10.732003933357332"><ele>784.4</ele><time>2026-05-01T09:10:43Z</time></trkpt><trkpt lat="44.312765879624344" lon="10.73188203065606"><ele>785.0</ele><time>2026-05-01T09:10:44Z</time></trkpt><trkpt lat="44.312695225681004" lon="10.731756391819944"><ele>783.5</ele><time>2026-05-01T09:10:45Z</time></trkpt><trkpt lat="44.31261851668847" lon="10.731618612115781"><ele>782.0</ele><time>2026-05-01T09:10:46Z</time></trkpt><trkpt lat="44.31253879900416" lon="10.731481935440465"><ele>780.5</ele><time>2026-05-01T09:10:47Z</time></trkpt><trkpt lat="44.31245634474763" lon="10.73134118001499"><ele>779.0</ele><time>2026-05-01T09:10:48Z</time></trkpt><trkpt lat="44.312380953953316" lon="10.731216780578107"><ele>779.0</ele><time>2026-05-01T09:10:49Z</time></trkpt><trkpt lat="44.3123169565575" lon="10.731108275249388"><ele>779.0</ele><time>2026-05-01T09:10:50Z</time></trkpt><trkpt lat="44.31224976665407" lon="10.731017976865747"><ele>779.0</ele><time>2026-05-01T09:10:51Z</time></trkpt><trkpt lat="44.31216991566133" lon="10.730963602929393"><ele>779.0</ele><time>2026-05-01T09:10:52Z</time></trkpt><trkpt lat="44.3120856735765" lon="10.730915048069308"><ele>779.0</ele><time>2026-05-01T09:10:53Z</time></trkpt><trkpt lat="44.311984986661685" lon="10.730902004810586"><ele>778.4000000000001</ele><time>2026-05-01T09:10:54Z</time></trkpt><trkpt lat="44.31188092155326" lon="10.730888980274157"><ele>777.8</ele><time>2026-05-01T09:10:55Z</time></trkpt><trkpt lat="44.31177400217485" lon="10.730870495409288"><ele>777.2</ele><time>2026-05-01T09:10:56Z</time></trkpt><trkpt lat="44.311663422818626" lon="10.730846042277095"><ele>776.5999999999999</ele><time>2026-05-01T09:10:57Z</time></trkpt><trkpt lat="44.311552155471794" lon="10.730805954149275"><ele>776.0</ele><time>2026-05-01T09:10:58Z</time></trkpt><trkpt lat="44.31144032061535" lon="10.73074604437529"><ele>776.4</ele><time>2026-05-01T09:10:59Z</time></trkpt><trkpt lat="44.311337471133996" lon="10.73066756862087"><ele>776.8</ele><time>2026-05-01T09:11:00Z</time></trkpt><trkpt lat="44.311246712526284" lon="10.730572085370829"><ele>777.1999999999999</ele><time>2026-05-01T09:11:01Z</time></trkpt><trkpt lat="44.311174306862036" lon="10.730482541829968"><ele>777.5999999999999</ele><time>2026-05-01T09:11:02Z</time></trkpt><trkpt lat="44.31108639663243" lon="10.730442117105097"><ele>778.0</ele><time>2026-05-01T09:11:03Z</time></trkpt><trkpt lat="44.310993516496154" lon="10.730434089484705"><ele>777.9999999999999</ele><time>2026-05-01T09:11:04Z</time></trkpt><trkpt lat="44.3109080602612" lon="10.730469553712304"><ele>778.0</ele><time>2026-05-01T09:11:05Z</time></trkpt><trkpt lat="44.31084334434104" lon="10.730532006439644"><ele>778.0</ele><time>2026-05-01T09:11:05.999Z</time></trkpt><trkpt lat="44.310774087344036" lon="10.730567693750357"><ele>778.0</ele><time>2026-05-01T09:11:06.999Z</time></trkpt><trkpt lat="44.31070736030862" lon="10.730609441547292"><ele>777.9999999999999</ele><time>2026-05-01T09:11:07.999Z</time></trkpt><trkpt lat="44.310612036189006" lon="10.730573383935004"><ele>778.0</ele><time>2026-05-01T09:11:08.999Z</time></trkpt><trkpt lat="44.31051711679355" lon="10.730540670083913"><ele>780.4</ele><time>2026-05-01T09:11:09.999Z</time></trkpt><trkpt lat="44.31042797955493" lon="10.73049969549966"><ele>782.8</ele><time>2026-05-01T09:11:10.999Z</time></trkpt><trkpt lat="44.31032616644006" lon="10.730470659617756"><ele>785.2</ele><time>2026-05-01T09:11:11.999Z</time></trkpt><trkpt lat="44.31022035313301" lon="10.7304307583937"><ele>787.6</ele><time>2026-05-01T09:11:12.999Z</time></trkpt><trkpt lat="44.31014034031272" lon="10.730374251586408"><ele>790.0</ele><time>2026-05-01T09:11:13.999Z</time></trkpt><trkpt lat="44.31005154815874" lon="10.730348275971991"><ele>790.0</ele><time>2026-05-01T09:11:14.999Z</time></trkpt><trkpt lat="44.309961390670566" lon="10.730346468882528"><ele>790.0</ele><time>2026-05-01T09:11:15.999Z</time></trkpt><trkpt lat="44.309849443748135" lon="10.73036762426765"><ele>790.0</ele><time>2026-05-01T09:11:16.999Z</time></trkpt><trkpt lat="44.30975284664708" lon="10.730362637150348"><ele>790.0</ele><time>2026-05-01T09:11:17.999Z</time></trkpt><trkpt lat="44.309652350947644" lon="10.730354372085195"><ele>790.0</ele><time>2026-05-01T09:11:18.999Z</time></trkpt><trkpt lat="44.30955788993945" lon="10.730353552421988"><ele>792.4999999999999</ele><time>2026-05-01T09:11:19.999Z</time></trkpt><trkpt lat="44.30946818679092" lon="10.730351456935843"><ele>795.0</ele><time>2026-05-01T09:11:21Z</time></trkpt><trkpt lat="44.30934197891588" lon="10.730358809926734"><ele>797.5</ele><time>2026-05-01T09:11:23Z</time></trkpt><trkpt lat="44.309272381057674" lon="10.730373143257674"><ele>800.0</ele><time>2026-05-01T09:11:24Z</time></trkpt><trkpt lat="44.30920550582998" lon="10.730359480665431"><ele>802.4999999999999</ele><time>2026-05-01T09:11:25Z</time></trkpt><trkpt lat="44.3091383134301" lon="10.73036646493103"><ele>805.0</ele><time>2026-05-01T09:11:26Z</time></trkpt><trkpt lat="44.309069115452886" lon="10.73037392629585"><ele>805.0</ele><time>2026-05-01T09:11:27Z</time></trkpt><trkpt lat="44.30899177710432" lon="10.730379633621373"><ele>805.0</ele><time>2026-05-01T09:11:28Z</time></trkpt><trkpt lat="44.30889738653309" lon="10.730399617805643"><ele>805.0</ele><time>2026-05-01T09:11:29Z</time></trkpt><trkpt lat="44.308815466686575" lon="10.730400822987576"><ele>805.0</ele><time>2026-05-01T09:11:30Z</time></trkpt><trkpt lat="44.30872415454758" lon="10.730396723943251"><ele>805.0</ele><time>2026-05-01T09:11:31Z</time></trkpt><trkpt lat="44.30859873061439" lon="10.730391470982381"><ele>807.2</ele><time>2026-05-01T09:11:33Z</time></trkpt><trkpt lat="44.308519405432165" lon="10.730407565822214"><ele>809.4</ele><time>2026-05-01T09:11:35Z</time></trkpt><trkpt lat="44.308532217399" lon="10.730609914873273"><ele>811.5999999999999</ele><time>2026-05-01T09:11:40Z</time></trkpt><trkpt lat="44.30859425426787" lon="10.730758035657328"><ele>813.8</ele><time>2026-05-01T09:11:42Z</time></trkpt><trkpt lat="44.308631441539575" lon="10.730851922406558"><ele>816.0</ele><time>2026-05-01T09:11:43Z</time></trkpt><trkpt lat="44.30867051626797" lon="10.730950574382062"><ele>816.0</ele><time>2026-05-01T09:11:44Z</time></trkpt><trkpt lat="44.308714188637495" lon="10.731051695183309"><ele>816.0</ele><time>2026-05-01T09:11:45Z</time></trkpt><trkpt lat="44.30876886707979" lon="10.731164314632117"><ele>816.0</ele><time>2026-05-01T09:11:46Z</time></trkpt><trkpt lat="44.30883493018669" lon="10.73126475631761"><ele>816.0</ele><time>2026-05-01T09:11:47Z</time></trkpt><trkpt lat="44.30893708383396" lon="10.731305449032522"><ele>816.0</ele><time>2026-05-01T09:11:48Z</time></trkpt><trkpt lat="44.309020129664596" lon="10.731368341841707"><ele>814.5999999999999</ele><time>2026-05-01T09:11:49Z</time></trkpt><trkpt lat="44.3091184708662" lon="10.731401678166101"><ele>813.2</ele><time>2026-05-01T09:11:50Z</time></trkpt><trkpt lat="44.30920036604859" lon="10.73147973264438"><ele>811.8</ele><time>2026-05-01T09:11:51Z</time></trkpt><trkpt lat="44.30926203105787" lon="10.731567280559775"><ele>810.4000000000001</ele><time>2026-05-01T09:11:52Z</time></trkpt><trkpt lat="44.30927171628834" lon="10.731689145201605"><ele>809.0</ele><time>2026-05-01T09:11:53Z</time></trkpt><trkpt lat="44.3091883399586" lon="10.731802384904716"><ele>809.5</ele><time>2026-05-01T09:11:54Z</time></trkpt><trkpt lat="44.309123312444655" lon="10.731935777905413"><ele>810.0</ele><time>2026-05-01T09:11:55Z</time></trkpt><trkpt lat="44.30905141354132" lon="10.73207324645037"><ele>810.5</ele><time>2026-05-01T09:11:56Z</time></trkpt><trkpt lat="44.30898413356238" lon="10.73222041606502"><ele>811.0</ele><time>2026-05-01T09:11:57Z</time></trkpt><trkpt lat="44.30892439593239" lon="10.73238033640408"><ele>817.25</ele><time>2026-05-01T09:11:58Z</time></trkpt><trkpt lat="44.30886283751318" lon="10.73253195940604"><ele>823.5</ele><time>2026-05-01T09:11:59Z</time></trkpt><trkpt lat="44.30884044604233" lon="10.732719506207104"><ele>829.75</ele><time>2026-05-01T09:12:00Z</time></trkpt><trkpt lat="44.30882473856286" lon="10.732919334712632"><ele>836.0</ele><time>2026-05-01T09:12:01Z</time></trkpt><trkpt lat="44.30882577313174" lon="10.733118313011929"><ele>836.0</ele><time>2026-05-01T09:12:02Z</time></trkpt><trkpt lat="44.308828671911826" lon="10.73332546641982"><ele>836.0</ele><time>2026-05-01T09:12:03Z</time></trkpt><trkpt lat="44.30883206361404" lon="10.733537321270848"><ele>836.0</ele><time>2026-05-01T09:12:04Z</time></trkpt><trkpt lat="44.308834117195" lon="10.733732163252949"><ele>836.0</ele><time>2026-05-01T09:12:05Z</time></trkpt><trkpt lat="44.30883427506375" lon="10.73389411991235"><ele>836.0</ele><time>2026-05-01T09:12:06Z</time></trkpt><trkpt lat="44.30882662233774" lon="10.734040712488785"><ele>836.0</ele><time>2026-05-01T09:12:07Z</time></trkpt><trkpt lat="44.30879440392088" lon="10.734192048139468"><ele>836.0</ele><time>2026-05-01T09:12:08Z</time></trkpt><trkpt lat="44.30875092247035" lon="10.734359704057507"><ele>836.0</ele><time>2026-05-01T09:12:09Z</time></trkpt><trkpt lat="44.30869695087511" lon="10.734532158552417"><ele>836.75</ele><time>2026-05-01T09:12:10Z</time></trkpt><trkpt lat="44.30863074985838" lon="10.734701955490515"><ele>837.5</ele><time>2026-05-01T09:12:11Z</time></trkpt><trkpt lat="44.3085828655948" lon="10.73488814534644"><ele>838.25</ele><time>2026-05-01T09:12:12Z</time></trkpt><trkpt lat="44.30860195851882" lon="10.735083163319866"><ele>839.0</ele><time>2026-05-01T09:12:13Z</time></trkpt><trkpt lat="44.30863321492483" lon="10.735274929252043"><ele>839.75</ele><time>2026-05-01T09:12:14Z</time></trkpt><trkpt lat="44.308649181306826" lon="10.735472363846524"><ele>840.5</ele><time>2026-05-01T09:12:15Z</time></trkpt><trkpt lat="44.308681850913885" lon="10.735665540709999"><ele>841.25</ele><time>2026-05-01T09:12:16Z</time></trkpt><trkpt lat="44.308714331438374" lon="10.735857599356665"><ele>842.0</ele><time>2026-05-01T09:12:17Z</time></trkpt><trkpt lat="44.30874251816016" lon="10.73603030355719"><ele>842.8</ele><time>2026-05-01T09:12:18Z</time></trkpt><trkpt lat="44.30875914507057" lon="10.736162909963278"><ele>843.6</ele><time>2026-05-01T09:12:19Z</time></trkpt><trkpt lat="44.30876867869223" lon="10.73627583150888"><ele>844.4</ele><time>2026-05-01T09:12:20Z</time></trkpt><trkpt lat="44.30876943869442" lon="10.736372546185285"><ele>845.1999999999999</ele><time>2026-05-01T09:12:21Z</time></trkpt><trkpt lat="44.30866805857553" lon="10.736449698611922"><ele>846.0</ele><time>2026-05-01T09:12:23Z</time></trkpt><trkpt lat="44.308595865182454" lon="10.736360960279477"><ele>846.0</ele><time>2026-05-01T09:12:24Z</time></trkpt><trkpt lat="44.30856349399867" lon="10.736195774953389"><ele>846.0</ele><time>2026-05-01T09:12:25Z</time></trkpt><trkpt lat="44.30854055483673" lon="10.736005535879915"><ele>846.0</ele><time>2026-05-01T09:12:26Z</time></trkpt><trkpt lat="44.308510891488524" lon="10.735806912670752"><ele>846.0</ele><time>2026-05-01T09:12:27Z</time></trkpt><trkpt lat="44.30846935260101" lon="10.735588676271595"><ele>844.6666666666667</ele><time>2026-05-01T09:12:28Z</time></trkpt><trkpt lat="44.30842146518512" lon="10.735357839179017"><ele>843.3333333333334</ele><time>2026-05-01T09:12:29Z</time></trkpt><trkpt lat="44.30837401832459" lon="10.735116699931982"><ele>842.0</ele><time>2026-05-01T09:12:30Z</time></trkpt><trkpt lat="44.30831171834953" lon="10.734869852878523"><ele>841.0</ele><time>2026-05-01T09:12:31Z</time></trkpt><trkpt lat="44.30823134834045" lon="10.73463037099668"><ele>840.0</ele><time>2026-05-01T09:12:32Z</time></trkpt><trkpt lat="44.30815336500391" lon="10.734398837010607"><ele>839.0</ele><time>2026-05-01T09:12:33Z</time></trkpt><trkpt lat="44.308110850432236" lon="10.734186469916981"><ele>838.6666666666667</ele><time>2026-05-01T09:12:34Z</time></trkpt><trkpt lat="44.308088516701126" lon="10.733981234730647"><ele>838.3333333333333</ele><time>2026-05-01T09:12:35Z</time></trkpt><trkpt lat="44.30809523048579" lon="10.73376132586207"><ele>838.0</ele><time>2026-05-01T09:12:36Z</time></trkpt><trkpt lat="44.3081137953324" lon="10.733533327487166"><ele>838.0</ele><time>2026-05-01T09:12:37Z</time></trkpt><trkpt lat="44.30811228273495" lon="10.733312930589832"><ele>838.0</ele><time>2026-05-01T09:12:38Z</time></trkpt><trkpt lat="44.30812316616716" lon="10.733085693859545"><ele>838.0</ele><time>2026-05-01T09:12:39Z</time></trkpt><trkpt lat="44.30816269188514" lon="10.7328897779851"><ele>838.0</ele><time>2026-05-01T09:12:40Z</time></trkpt><trkpt lat="44.30821964180999" lon="10.732734365592517"><ele>838.0</ele><time>2026-05-01T09:12:41Z</time></trkpt><trkpt lat="44.308254698867266" lon="10.732601535133185"><ele>838.0</ele><time>2026-05-01T09:12:42Z</time></trkpt><trkpt lat="44.308243348920506" lon="10.732451088461639"><ele>838.0</ele><time>2026-05-01T09:12:43Z</time></trkpt><trkpt lat="44.30817824067751" lon="10.732334049028822"><ele>838.0</ele><time>2026-05-01T09:12:44Z</time></trkpt><trkpt lat="44.30807933170189" lon="10.732246360152287"><ele>840.5</ele><time>2026-05-01T09:12:45Z</time></trkpt><trkpt lat="44.3079576967273" lon="10.73218070272215"><ele>843.0</ele><time>2026-05-01T09:12:46Z</time></trkpt><trkpt lat="44.30784184979783" lon="10.732066937330659"><ele>845.5</ele><time>2026-05-01T09:12:47Z</time></trkpt><trkpt lat="44.30772835160901" lon="10.731966386623368"><ele>848.0</ele><time>2026-05-01T09:12:48Z</time></trkpt><trkpt lat="44.30761213196583" lon="10.731891772005177"><ele>847.0</ele><time>2026-05-01T09:12:49Z</time></trkpt><trkpt lat="44.30751913152164" lon="10.731841881881255"><ele>846.0</ele><time>2026-05-01T09:12:50Z</time></trkpt><trkpt lat="44.30744317638943" lon="10.731809325136883"><ele>845.0</ele><time>2026-05-01T09:12:51Z</time></trkpt><trkpt lat="44.30734231466092" lon="10.731819044188864"><ele>844.0</ele><time>2026-05-01T09:12:53Z</time></trkpt><trkpt lat="44.30725187588491" lon="10.731848694366724"><ele>843.0</ele><time>2026-05-01T09:13:28Z</time></trkpt><trkpt lat="44.3071655567432" lon="10.73184988749192"><ele>842.3333333333334</ele><time>2026-05-01T09:13:30Z</time></trkpt><trkpt lat="44.30719957877903" lon="10.731773381718865"><ele>841.6666666666667</ele><time>2026-05-01T09:14:41Z</time></trkpt><trkpt lat="44.307192152680024" lon="10.731649899245966"><ele>841.0</ele><time>2026-05-01T09:14:52Z</time></trkpt><trkpt lat="44.307224154859" lon="10.73156827262835"><ele>840.3333333333334</ele><time>2026-05-01T09:14:57Z</time></trkpt><trkpt lat="44.30722718992721" lon="10.731658682437592"><ele>839.6666666666667</ele><time>2026-05-01T09:14:59Z</time></trkpt><trkpt lat="44.30714873656529" lon="10.731712868432119"><ele>839.0</ele><time>2026-05-01T09:15:30.999Z</time></trkpt><trkpt lat="44.30704058878479" lon="10.731471407390512"><ele>839.0000000000001</ele><time>2026-05-01T09:15:49Z</time></trkpt><trkpt lat="44.30703421086126" lon="10.731568581627288"><ele>839.0</ele><time>2026-05-01T09:15:50Z</time></trkpt><trkpt lat="44.30714966068283" lon="10.731628113233109"><ele>839.0</ele><time>2026-05-01T09:15:58Z</time></trkpt><trkpt lat="44.30716339979295" lon="10.731723403426436"><ele>839.0</ele><time>2026-05-01T09:16:28Z</time></trkpt><trkpt lat="44.307165367620556" lon="10.731817921117832"><ele>839.0000000000001</ele><time>2026-05-01T09:16:31Z</time></trkpt><trkpt lat="44.30715779241789" lon="10.731912414157952"><ele>839.0</ele><time>2026-05-01T09:16:33Z</time></trkpt><trkpt lat="44.30720471974648" lon="10.73183770062769"><ele>839.0</ele><time>2026-05-01T09:16:39Z</time></trkpt></trkseg><trkseg><trkpt lat="44.30720091712313" lon="10.731881396299464"><ele>840.8000000000001</ele><time>2026-05-01T09:50:24Z</time></trkpt><trkpt lat="44.307280234583324" lon="10.731961662343306"><ele>842.6</ele><time>2026-05-01T09:50:31.999Z</time></trkpt><trkpt lat="44.30731496315972" lon="10.73207561232838"><ele>844.4</ele><time>2026-05-01T09:50:32.999Z</time></trkpt><trkpt lat="44.307355291682036" lon="10.732203848456138"><ele>846.2</ele><time>2026-05-01T09:50:33.999Z</time></trkpt><trkpt lat="44.30739784908941" lon="10.73232339748932"><ele>848.0</ele><time>2026-05-01T09:50:34.999Z</time></trkpt><trkpt lat="44.30742546485641" lon="10.732448629208843"><ele>848.0000000000001</ele><time>2026-05-01T09:50:35.999Z</time></trkpt><trkpt lat="44.30746719344682" lon="10.73254769818843"><ele>848.0</ele><time>2026-05-01T09:50:36.999Z</time></trkpt><trkpt lat="44.30750976861759" lon="10.732648777283641"><ele>848.0</ele><time>2026-05-01T09:50:37.999Z</time></trkpt><trkpt lat="44.3075637606156" lon="10.732733908522103"><ele>848.0</ele><time>2026-05-01T09:50:38.999Z</time></trkpt><trkpt lat="44.307597652144" lon="10.732826641062111"><ele>848.0000000000001</ele><time>2026-05-01T09:50:39.999Z</time></trkpt><trkpt lat="44.3076368890063" lon="10.732940701280333"><ele>848.0</ele><time>2026-05-01T09:50:40.999Z</time></trkpt><trkpt lat="44.30768221620465" lon="10.733050072023303"><ele>847.5000000000001</ele><time>2026-05-01T09:50:41.999Z</time></trkpt><trkpt lat="44.30772092854907" lon="10.733156419850875"><ele>847.0</ele><time>2026-05-01T09:50:42.999Z</time></trkpt><trkpt lat="44.307761482721354" lon="10.733267392068308"><ele>846.5</ele><time>2026-05-01T09:50:43.999Z</time></trkpt><trkpt lat="44.30778371728644" lon="10.733388859961439"><ele>846.0</ele><time>2026-05-01T09:50:44.999Z</time></trkpt><trkpt lat="44.3078011223254" lon="10.73351229806705"><ele>845.5000000000001</ele><time>2026-05-01T09:50:45.999Z</time></trkpt><trkpt lat="44.30780369826153" lon="10.733632870545964"><ele>845.0</ele><time>2026-05-01T09:50:46.999Z</time></trkpt><trkpt lat="44.307806052083144" lon="10.733755680383368"><ele>844.8333333333334</ele><time>2026-05-01T09:50:47.999Z</time></trkpt><trkpt lat="44.307812018946656" lon="10.733881431070264"><ele>844.6666666666667</ele><time>2026-05-01T09:50:48.999Z</time></trkpt><trkpt lat="44.307814570489285" lon="10.734007275827887"><ele>844.5</ele><time>2026-05-01T09:50:49.999Z</time></trkpt><trkpt lat="44.30781584736324" lon="10.73413134851675"><ele>844.3333333333333</ele><time>2026-05-01T09:50:50.999Z</time></trkpt><trkpt lat="44.30781676090527" lon="10.734252693712993"><ele>844.1666666666666</ele><time>2026-05-01T09:50:51.999Z</time></trkpt><trkpt lat="44.30782059622744" lon="10.734369622287652"><ele>844.0</ele><time>2026-05-01T09:50:52.999Z</time></trkpt><trkpt lat="44.307822826430716" lon="10.734481672967675"><ele>844.4999999999999</ele><time>2026-05-01T09:50:53.999Z</time></trkpt><trkpt lat="44.30782864934612" lon="10.734593650386648"><ele>845.0</ele><time>2026-05-01T09:50:54.999Z</time></trkpt><trkpt lat="44.307834250039804" lon="10.734705072495078"><ele>845.5</ele><time>2026-05-01T09:50:55.999Z</time></trkpt><trkpt lat="44.307838918806844" lon="10.734813446031588"><ele>846.0</ele><time>2026-05-01T09:50:56.999Z</time></trkpt><trkpt lat="44.30784343888315" lon="10.734920199316678"><ele>846.4999999999999</ele><time>2026-05-01T09:50:57.999Z</time></trkpt><trkpt lat="44.30784772279417" lon="10.735028853855502"><ele>847.0</ele><time>2026-05-01T09:50:58.999Z</time></trkpt><trkpt lat="44.30785471748176" lon="10.735139325540272"><ele>847.3333333333333</ele><time>2026-05-01T09:50:59.999Z</time></trkpt><trkpt lat="44.30786208082873" lon="10.735249829840129"><ele>847.6666666666666</ele><time>2026-05-01T09:51:00.999Z</time></trkpt><trkpt lat="44.30786572682725" lon="10.735356195515722"><ele>848.0</ele><time>2026-05-01T09:51:01.999Z</time></trkpt><trkpt lat="44.30787258176879" lon="10.735468841892127"><ele>848.3333333333333</ele><time>2026-05-01T09:51:02.999Z</time></trkpt><trkpt lat="44.307874289592625" lon="10.735576011170785"><ele>848.6666666666666</ele><time>2026-05-01T09:51:03.999Z</time></trkpt><trkpt lat="44.30788159496828" lon="10.735687404055252"><ele>849.0</ele><time>2026-05-01T09:51:04.999Z</time></trkpt><trkpt lat="44.307893565825616" lon="10.735802118555272"><ele>849.0</ele><time>2026-05-01T09:51:05.999Z</time></trkpt><trkpt lat="44.30790253274162" lon="10.735921630306043"><ele>849.0</ele><time>2026-05-01T09:51:06.999Z</time></trkpt><trkpt lat="44.30791897994273" lon="10.736040394027356"><ele>849.0</ele><time>2026-05-01T09:51:07.999Z</time></trkpt><trkpt lat="44.30794064540489" lon="10.73616070579376"><ele>849.0</ele><time>2026-05-01T09:51:08.999Z</time></trkpt><trkpt lat="44.30796394690234" lon="10.736281129624341"><ele>849.0</ele><time>2026-05-01T09:51:09.999Z</time></trkpt><trkpt lat="44.30798531307978" lon="10.736406013560176"><ele>849.0</ele><time>2026-05-01T09:51:10.999Z</time></trkpt><trkpt lat="44.308004296785434" lon="10.736523805002054"><ele>849.1666666666666</ele><time>2026-05-01T09:51:11.999Z</time></trkpt><trkpt lat="44.30802912781676" lon="10.736640810974162"><ele>849.3333333333333</ele><time>2026-05-01T09:51:12.999Z</time></trkpt><trkpt lat="44.30804653383813" lon="10.736758176262432"><ele>849.5</ele><time>2026-05-01T09:51:13.999Z</time></trkpt><trkpt lat="44.30806937764968" lon="10.736874227641044"><ele>849.6666666666666</ele><time>2026-05-01T09:51:14.999Z</time></trkpt><trkpt lat="44.308089385243335" lon="10.73698779421982"><ele>849.8333333333333</ele><time>2026-05-01T09:51:15.999Z</time></trkpt><trkpt lat="44.30811278666636" lon="10.737104168423402"><ele>850.0</ele><time>2026-05-01T09:51:16.999Z</time></trkpt><trkpt lat="44.30813359634623" lon="10.737207395134298"><ele>849.9999999999999</ele><time>2026-05-01T09:51:17.999Z</time></trkpt><trkpt lat="44.30815351511192" lon="10.73731391019415"><ele>850.0</ele><time>2026-05-01T09:51:18.999Z</time></trkpt><trkpt lat="44.30816687320755" lon="10.73741857792793"><ele>850.0</ele><time>2026-05-01T09:51:19.999Z</time></trkpt><trkpt lat="44.30818497271298" lon="10.73751423607164"><ele>850.0</ele><time>2026-05-01T09:51:20.999Z</time></trkpt><trkpt lat="44.308211941660176" lon="10.737655520844406"><ele>849.9999999999999</ele><time>2026-05-01T09:51:22.999Z</time></trkpt><trkpt lat="44.30823654589805" lon="10.737736742460497"><ele>850.0</ele><time>2026-05-01T09:51:25.999Z</time></trkpt><trkpt lat="44.3082309676724" lon="10.737647478407906"><ele>850.0</ele><time>2026-05-01T09:52:19.999Z</time></trkpt><trkpt lat="44.3081782906311" lon="10.73741283117861"><ele>850.0</ele><time>2026-05-01T09:52:21.999Z</time></trkpt><trkpt lat="44.30820221010626" lon="10.737262501584697"><ele>850.0</ele><time>2026-05-01T09:52:22.999Z</time></trkpt><trkpt lat="44.30817525560898" lon="10.737142742595067"><ele>850.0</ele><time>2026-05-01T09:52:23.999Z</time></trkpt><trkpt lat="44.30815363602986" lon="10.73703979131589"><ele>850.0</ele><time>2026-05-01T09:52:24.999Z</time></trkpt><trkpt lat="44.308136874873554" lon="10.736953276260842"><ele>850.0</ele><time>2026-05-01T09:52:25.999Z</time></trkpt><trkpt lat="44.3081068707838" lon="10.736827982920522"><ele>850.0</ele><time>2026-05-01T09:52:27.999Z</time></trkpt><trkpt lat="44.30807669692837" lon="10.736712905436121"><ele>850.0</ele><time>2026-05-01T09:52:29.999Z</time></trkpt><trkpt lat="44.3080509477524" lon="10.736591018215698"><ele>850.0</ele><time>2026-05-01T09:52:31.999Z</time></trkpt><trkpt lat="44.30802290470867" lon="10.736434607242785"><ele>849.8571428571429</ele><time>2026-05-01T09:52:33.999Z</time></trkpt><trkpt lat="44.308005022528754" lon="10.736345546737589"><ele>849.7142857142857</ele><time>2026-05-01T09:52:34.999Z</time></trkpt><trkpt lat="44.30798934681707" lon="10.736253600085242"><ele>849.5714285714287</ele><time>2026-05-01T09:52:35.999Z</time></trkpt><trkpt lat="44.30797378968445" lon="10.73615765519148"><ele>849.4285714285714</ele><time>2026-05-01T09:52:36.999Z</time></trkpt><trkpt lat="44.30795885465783" lon="10.736055869039763"><ele>849.2857142857143</ele><time>2026-05-01T09:52:37.999Z</time></trkpt><trkpt lat="44.30794428301179" lon="10.735951332943596"><ele>849.1428571428572</ele><time>2026-05-01T09:52:38.999Z</time></trkpt><trkpt lat="44.30793371888277" lon="10.735841472893279"><ele>849.0</ele><time>2026-05-01T09:52:39.999Z</time></trkpt><trkpt lat="44.30792444600459" lon="10.735727636197298"><ele>849.0</ele><time>2026-05-01T09:52:40.999Z</time></trkpt><trkpt lat="44.3079117394075" lon="10.735615128719253"><ele>849.0</ele><time>2026-05-01T09:52:41.999Z</time></trkpt><trkpt lat="44.30790325024354" lon="10.73549332940955"><ele>849.0</ele><time>2026-05-01T09:52:42.999Z</time></trkpt><trkpt lat="44.30789512855514" lon="10.735372303219885"><ele>849.0</ele><time>2026-05-01T09:52:43.999Z</time></trkpt><trkpt lat="44.30788735353543" lon="10.73524933681447"><ele>849.0</ele><time>2026-05-01T09:52:44.999Z</time></trkpt><trkpt lat="44.307874656062346" lon="10.7351259457636"><ele>849.0</ele><time>2026-05-01T09:52:45.999Z</time></trkpt><trkpt lat="44.30787533393498" lon="10.735021311744875"><ele>848.6666666666666</ele><time>2026-05-01T09:52:46.999Z</time></trkpt><trkpt lat="44.30787820982493" lon="10.734919085580389"><ele>848.3333333333333</ele><time>2026-05-01T09:52:47.999Z</time></trkpt><trkpt lat="44.307874038139424" lon="10.734818792894291"><ele>848.0</ele><time>2026-05-01T09:52:48.999Z</time></trkpt><trkpt lat="44.307862843397366" lon="10.73471590667033"><ele>847.6666666666666</ele><time>2026-05-01T09:52:49.999Z</time></trkpt><trkpt lat="44.30785499859171" lon="10.734607075326952"><ele>847.3333333333333</ele><time>2026-05-01T09:52:50.999Z</time></trkpt><trkpt lat="44.30785033178473" lon="10.734497143415766"><ele>847.0</ele><time>2026-05-01T09:52:51.999Z</time></trkpt><trkpt lat="44.30784422638612" lon="10.734384435802715"><ele>846.4000000000001</ele><time>2026-05-01T09:52:52.999Z</time></trkpt><trkpt lat="44.30783693030031" lon="10.734275796203617"><ele>845.8000000000001</ele><time>2026-05-01T09:52:53.999Z</time></trkpt><trkpt lat="44.30783042095179" lon="10.734126480138071"><ele>845.2</ele><time>2026-05-01T09:52:55.999Z</time></trkpt><trkpt lat="44.30771530961854" lon="10.734134547778048"><ele>844.6</ele><time>2026-05-01T09:52:58.999Z</time></trkpt><trkpt lat="44.30764304518556" lon="10.734198954770845"><ele>844.0</ele><time>2026-05-01T09:52:59.999Z</time></trkpt><trkpt lat="44.30759035807181" lon="10.734309901136964"><ele>844.4999999999999</ele><time>2026-05-01T09:53:00.999Z</time></trkpt><trkpt lat="44.30753414564733" lon="10.734421145999635"><ele>845.0</ele><time>2026-05-01T09:53:01.999Z</time></trkpt><trkpt lat="44.30748631395036" lon="10.734520253838959"><ele>845.5</ele><time>2026-05-01T09:53:02.999Z</time></trkpt><trkpt lat="44.30744484698538" lon="10.734611087891249"><ele>846.0</ele><time>2026-05-01T09:53:03.999Z</time></trkpt><trkpt lat="44.30740820023836" lon="10.734697243018239"><ele>846.4999999999999</ele><time>2026-05-01T09:53:04.999Z</time></trkpt><trkpt lat="44.3073934247287" lon="10.734800955694439"><ele>847.0</ele><time>2026-05-01T09:53:05.999Z</time></trkpt><trkpt lat="44.30736502930345" lon="10.734885641949829"><ele>846.9999999999999</ele><time>2026-05-01T09:53:06.999Z</time></trkpt><trkpt lat="44.307340805431835" lon="10.734975517802155"><ele>847.0</ele><time>2026-05-01T09:53:07.999Z</time></trkpt><trkpt lat="44.307318092549245" lon="10.73506199640048"><ele>847.0</ele><time>2026-05-01T09:53:08.999Z</time></trkpt><trkpt lat="44.30726984589313" lon="10.735131605549467"><ele>847.0</ele><time>2026-05-01T09:53:09.999Z</time></trkpt><trkpt lat="44.30725179656216" lon="10.735252106221903"><ele>846.9999999999999</ele><time>2026-05-01T09:53:11.999Z</time></trkpt><trkpt lat="44.30713939217262" lon="10.73527186853773"><ele>847.0</ele><time>2026-05-01T09:53:13.999Z</time></trkpt><trkpt lat="44.30707105913912" lon="10.735259513138411"><ele>844.0</ele><time>2026-05-01T09:53:14.999Z</time></trkpt><trkpt lat="44.3069400346041" lon="10.735259577491105"><ele>841.0</ele><time>2026-05-01T09:53:16.999Z</time></trkpt><trkpt lat="44.30686790517735" lon="10.735256354794172"><ele>838.0</ele><time>2026-05-01T09:53:17.999Z</time></trkpt><trkpt lat="44.306799757459956" lon="10.735261339553487"><ele>835.0</ele><time>2026-05-01T09:53:18.999Z</time></trkpt><trkpt lat="44.30669218350819" lon="10.735277149761517"><ele>832.0</ele><time>2026-05-01T09:53:20.999Z</time></trkpt><trkpt lat="44.306610410456145" lon="10.735315280857757"><ele>831.9999999999999</ele><time>2026-05-01T09:53:30.999Z</time></trkpt><trkpt lat="44.30661748615112" lon="10.735476150893158"><ele>832.0</ele><time>2026-05-01T09:53:33.999Z</time></trkpt><trkpt lat="44.30661699880127" lon="10.735624658880944"><ele>832.0</ele><time>2026-05-01T09:53:35.999Z</time></trkpt><trkpt lat="44.30661113341773" lon="10.735713946504172"><ele>832.0</ele><time>2026-05-01T09:53:36.999Z</time></trkpt><trkpt lat="44.30659530111671" lon="10.735805336154334"><ele>831.9999999999999</ele><time>2026-05-01T09:53:37.999Z</time></trkpt><trkpt lat="44.30654509533252" lon="10.73588123807867"><ele>832.0</ele><time>2026-05-01T09:53:38.999Z</time></trkpt><trkpt lat="44.30649749881824" lon="10.735956195117845"><ele>831.9999999999999</ele><time>2026-05-01T09:53:39.999Z</time></trkpt><trkpt lat="44.30644101977714" lon="10.736031248053358"><ele>832.0</ele><time>2026-05-01T09:53:40.999Z</time></trkpt><trkpt lat="44.306382119975034" lon="10.736125864967887"><ele>832.0</ele><time>2026-05-01T09:53:41.999Z</time></trkpt><trkpt lat="44.30630665639517" lon="10.736200633670673"><ele>832.0</ele><time>2026-05-01T09:53:42.999Z</time></trkpt><trkpt lat="44.30623460818159" lon="10.736277895200086"><ele>831.9999999999999</ele><time>2026-05-01T09:53:43.998Z</time></trkpt><trkpt lat="44.30616513367863" lon="10.73635342721143"><ele>832.0</ele><time>2026-05-01T09:53:44.998Z</time></trkpt><trkpt lat="44.306101718627055" lon="10.736424948952855"><ele>830.8333333333333</ele><time>2026-05-01T09:53:45.998Z</time></trkpt><trkpt lat="44.30604691351968" lon="10.736486245593248"><ele>829.6666666666666</ele><time>2026-05-01T09:53:46.998Z</time></trkpt><trkpt lat="44.305973378856464" lon="10.736504362767784"><ele>828.5</ele><time>2026-05-01T09:53:47.998Z</time></trkpt><trkpt lat="44.30589019381325" lon="10.736605615538702"><ele>827.3333333333333</ele><time>2026-05-01T09:53:49.999Z</time></trkpt><trkpt lat="44.305820997662295" lon="10.736685581800739"><ele>826.1666666666666</ele><time>2026-05-01T09:53:51.999Z</time></trkpt><trkpt lat="44.30576841787365" lon="10.736773148909633"><ele>825.0</ele><time>2026-05-01T09:53:53.999Z</time></trkpt><trkpt lat="44.30568917802459" lon="10.736834857656026"><ele>825.8333333333334</ele><time>2026-05-01T09:53:55.999Z</time></trkpt><trkpt lat="44.30563556497321" lon="10.736911626992773"><ele>826.6666666666667</ele><time>2026-05-01T09:53:57.999Z</time></trkpt><trkpt lat="44.30556109374108" lon="10.737030293308619"><ele>827.5</ele><time>2026-05-01T09:53:59.999Z</time></trkpt><trkpt lat="44.30552452773496" lon="10.737125191837825"><ele>828.3333333333334</ele><time>2026-05-01T09:54:00.999Z</time></trkpt><trkpt lat="44.30550056163233" lon="10.737229228006717"><ele>829.1666666666667</ele><time>2026-05-01T09:54:01.999Z</time></trkpt><trkpt lat="44.3055018973913" lon="10.737336009389328"><ele>830.0</ele><time>2026-05-01T09:54:02.999Z</time></trkpt><trkpt lat="44.30553353765835" lon="10.737480013857681"><ele>827.8</ele><time>2026-05-01T09:54:04.999Z</time></trkpt><trkpt lat="44.30543568451313" lon="10.737522802587932"><ele>825.6</ele><time>2026-05-01T09:54:06.999Z</time></trkpt><trkpt lat="44.30536236409085" lon="10.73764223511341"><ele>823.4000000000001</ele><time>2026-05-01T09:54:08.999Z</time></trkpt><trkpt lat="44.30533016266115" lon="10.737753833124001"><ele>821.2</ele><time>2026-05-01T09:54:09.999Z</time></trkpt><trkpt lat="44.30530186434894" lon="10.737833910494894"><ele>819.0</ele><time>2026-05-01T09:54:10.999Z</time></trkpt><trkpt lat="44.30527191194698" lon="10.737954868491652"><ele>818.6</ele><time>2026-05-01T09:54:12.999Z</time></trkpt><trkpt lat="44.30527278980733" lon="10.73809269883271"><ele>818.2</ele><time>2026-05-01T09:54:14.999Z</time></trkpt><trkpt lat="44.30525716525393" lon="10.738250155990881"><ele>817.8000000000001</ele><time>2026-05-01T09:54:16.999Z</time></trkpt><trkpt lat="44.305273095151506" lon="10.738376045715594"><ele>817.4000000000001</ele><time>2026-05-01T09:54:18.999Z</time></trkpt><trkpt lat="44.305387091732335" lon="10.738377329473284"><ele>817.0</ele><time>2026-05-01T09:54:20.999Z</time></trkpt><trkpt lat="44.30550398656942" lon="10.738345264212512"><ele>816.9999999999999</ele><time>2026-05-01T09:54:22.999Z</time></trkpt><trkpt lat="44.30556987094825" lon="10.738333482459932"><ele>817.0</ele><time>2026-05-01T09:54:23.999Z</time></trkpt><trkpt lat="44.305632589208145" lon="10.738301248538939"><ele>817.0</ele><time>2026-05-01T09:54:24.999Z</time></trkpt><trkpt lat="44.30567216924254" lon="10.738523534012002"><ele>817.0</ele><time>2026-05-01T09:54:27.999Z</time></trkpt><trkpt lat="44.30570955540434" lon="10.738618087554046"><ele>816.9999999999999</ele><time>2026-05-01T09:54:29.999Z</time></trkpt><trkpt lat="44.30572887893379" lon="10.738711461832615"><ele>817.0</ele><time>2026-05-01T09:54:36.999Z</time></trkpt><trkpt lat="44.30570788729373" lon="10.738432358295753"><ele>816.9999999999999</ele><time>2026-05-01T09:54:40.999Z</time></trkpt><trkpt lat="44.30572500789105" lon="10.738521547810103"><ele>817.0</ele><time>2026-05-01T09:54:41.999Z</time></trkpt><trkpt lat="44.30568807098493" lon="10.738445259626118"><ele>817.0</ele><time>2026-05-01T09:54:42.999Z</time></trkpt><trkpt lat="44.30563211258805" lon="10.738315508758426"><ele>817.0</ele><time>2026-05-01T09:54:44.999Z</time></trkpt><trkpt lat="44.30556731368687" lon="10.73829729980969"><ele>816.9999999999999</ele><time>2026-05-01T09:54:45.999Z</time></trkpt><trkpt lat="44.30549173784046" lon="10.738314369826735"><ele>817.0</ele><time>2026-05-01T09:54:46.999Z</time></trkpt><trkpt lat="44.305414911890104" lon="10.738344719590248"><ele>816.9999999999999</ele><time>2026-05-01T09:54:47.999Z</time></trkpt><trkpt lat="44.305335287201615" lon="10.738345412455478"><ele>817.0</ele><time>2026-05-01T09:54:48.999Z</time></trkpt><trkpt lat="44.30528026207117" lon="10.738286903491092"><ele>817.0</ele><time>2026-05-01T09:54:49.999Z</time></trkpt><trkpt lat="44.30526768089903" lon="10.738193737424442"><ele>817.0</ele><time>2026-05-01T09:54:50.999Z</time></trkpt><trkpt lat="44.30528594001763" lon="10.738097282031193"><ele>817.0</ele><time>2026-05-01T09:54:51.999Z</time></trkpt><trkpt lat="44.305298450685285" lon="10.738007254401534"><ele>816.9999999999999</ele><time>2026-05-01T09:54:52.999Z</time></trkpt><trkpt lat="44.30523962403538" lon="10.737958888285435"><ele>817.0</ele><time>2026-05-01T09:54:54.999Z</time></trkpt><trkpt lat="44.305126707379785" lon="10.738058441210448"><ele>817.0</ele><time>2026-05-01T09:54:56.999Z</time></trkpt><trkpt lat="44.30505399603647" lon="10.738072372584474"><ele>817.0</ele><time>2026-05-01T09:54:57.999Z</time></trkpt><trkpt lat="44.30498960482404" lon="10.738056100771647"><ele>817.0</ele><time>2026-05-01T09:54:58.999Z</time></trkpt><trkpt lat="44.304867838422425" lon="10.73806201727669"><ele>817.0</ele><time>2026-05-01T09:55:00.999Z</time></trkpt><trkpt lat="44.30477360175473" lon="10.738148438597094"><ele>817.0</ele><time>2026-05-01T09:55:02.999Z</time></trkpt><trkpt lat="44.304702838102436" lon="10.738240132048332"><ele>813.6</ele><time>2026-05-01T09:55:04.999Z</time></trkpt><trkpt lat="44.30463740573985" lon="10.738345177017289"><ele>810.2</ele><time>2026-05-01T09:55:06.999Z</time></trkpt><trkpt lat="44.304528824502015" lon="10.738348795528116"><ele>806.8</ele><time>2026-05-01T09:55:08.999Z</time></trkpt><trkpt lat="44.30442790283509" lon="10.738283892836614"><ele>803.4</ele><time>2026-05-01T09:55:10.999Z</time></trkpt><trkpt lat="44.304367226121556" lon="10.738247869687642"><ele>800.0</ele><time>2026-05-01T09:55:13.999Z</time></trkpt><trkpt lat="44.304323918845526" lon="10.738451913556752"><ele>797.75</ele><time>2026-05-01T09:55:14.999Z</time></trkpt><trkpt lat="44.30437498688488" lon="10.738598055947515"><ele>795.5</ele><time>2026-05-01T09:55:15.999Z</time></trkpt><trkpt lat="44.30441433768524" lon="10.738754401718062"><ele>793.25</ele><time>2026-05-01T09:55:16.999Z</time></trkpt><trkpt lat="44.30442439794371" lon="10.738922288968313"><ele>791.0</ele><time>2026-05-01T09:55:17.999Z</time></trkpt><trkpt lat="44.30442593090062" lon="10.739120544674156"><ele>791.0</ele><time>2026-05-01T09:55:18.999Z</time></trkpt><trkpt lat="44.30444274990299" lon="10.73932199608596"><ele>791.0</ele><time>2026-05-01T09:55:19.999Z</time></trkpt><trkpt lat="44.30446702153388" lon="10.739505113917808"><ele>791.0</ele><time>2026-05-01T09:55:20.999Z</time></trkpt><trkpt lat="44.304485886240336" lon="10.739674706549797"><ele>791.0</ele><time>2026-05-01T09:55:21.999Z</time></trkpt><trkpt lat="44.30449832973447" lon="10.739841758104989"><ele>789.0</ele><time>2026-05-01T09:55:22.999Z</time></trkpt><trkpt lat="44.30450267106445" lon="10.73999241913916"><ele>787.0</ele><time>2026-05-01T09:55:23.999Z</time></trkpt><trkpt lat="44.30450395312506" lon="10.74013544296787"><ele>785.0</ele><time>2026-05-01T09:55:24.999Z</time></trkpt><trkpt lat="44.304503110228794" lon="10.740279450011506"><ele>783.0</ele><time>2026-05-01T09:55:25.999Z</time></trkpt><trkpt lat="44.30450160520885" lon="10.740404988449846"><ele>781.0</ele><time>2026-05-01T09:55:26.999Z</time></trkpt><trkpt lat="44.304499374979315" lon="10.740525420862458"><ele>780.3333333333333</ele><time>2026-05-01T09:55:27.999Z</time></trkpt><trkpt lat="44.30449676457133" lon="10.740641789941764"><ele>779.6666666666666</ele><time>2026-05-01T09:55:28.999Z</time></trkpt><trkpt lat="44.30449267138791" lon="10.740751299489782"><ele>779.0</ele><time>2026-05-01T09:55:29.999Z</time></trkpt><trkpt lat="44.30448622209167" lon="10.740861266032484"><ele>778.3333333333333</ele><time>2026-05-01T09:55:30.999Z</time></trkpt><trkpt lat="44.30447980562564" lon="10.740967875457182"><ele>777.6666666666666</ele><time>2026-05-01T09:55:31.999Z</time></trkpt><trkpt lat="44.30447976378134" lon="10.741074521822616"><ele>777.0</ele><time>2026-05-01T09:55:32.999Z</time></trkpt><trkpt lat="44.3044646230332" lon="10.741166491130652"><ele>776.1666666666666</ele><time>2026-05-01T09:55:33.999Z</time></trkpt><trkpt lat="44.30440349736427" lon="10.741231003352786"><ele>775.3333333333333</ele><time>2026-05-01T09:55:34.999Z</time></trkpt><trkpt lat="44.30436975287038" lon="10.741309741793263"><ele>774.5</ele><time>2026-05-01T09:55:35.999Z</time></trkpt><trkpt lat="44.3043331060404" lon="10.741450315251548"><ele>773.6666666666666</ele><time>2026-05-01T09:55:37.999Z</time></trkpt><trkpt lat="44.304278619215275" lon="10.741561403192545"><ele>772.8333333333333</ele><time>2026-05-01T09:55:39.999Z</time></trkpt><trkpt lat="44.30419745051329" lon="10.741579310593938"><ele>772.0</ele><time>2026-05-01T09:55:40.999Z</time></trkpt><trkpt lat="44.30415900860808" lon="10.741654870214372"><ele>771.9999999999999</ele><time>2026-05-01T09:55:41.999Z</time></trkpt><trkpt lat="44.304141165318754" lon="10.741766817485868"><ele>772.0</ele><time>2026-05-01T09:55:42.999Z</time></trkpt><trkpt lat="44.30412331473551" lon="10.741859047907285"><ele>772.0</ele><time>2026-05-01T09:55:43.999Z</time></trkpt><trkpt lat="44.30414701987089" lon="10.741964190481921"><ele>772.0</ele><time>2026-05-01T09:55:44.999Z</time></trkpt><trkpt lat="44.304136350840174" lon="10.742054927530463"><ele>771.9999999999999</ele><time>2026-05-01T09:55:45.999Z</time></trkpt><trkpt lat="44.304113276220335" lon="10.7422224329804"><ele>772.0</ele><time>2026-05-01T09:55:47.999Z</time></trkpt><trkpt lat="44.30405878300069" lon="10.742373732211739"><ele>770.4000000000001</ele><time>2026-05-01T09:55:49.999Z</time></trkpt><trkpt lat="44.30395274251305" lon="10.742442324321994"><ele>768.8000000000001</ele><time>2026-05-01T09:55:51.999Z</time></trkpt><trkpt lat="44.3038762859365" lon="10.742563962525203"><ele>767.2</ele><time>2026-05-01T09:55:53.999Z</time></trkpt><trkpt lat="44.30380784172364" lon="10.742686174794118"><ele>765.6</ele><time>2026-05-01T09:55:55.999Z</time></trkpt><trkpt lat="44.30375320504394" lon="10.742792033477047"><ele>764.0</ele><time>2026-05-01T09:55:57.999Z</time></trkpt><trkpt lat="44.30368148875041" lon="10.74280990386597"><ele>761.0</ele><time>2026-05-01T09:55:59.999Z</time></trkpt><trkpt lat="44.30360890620948" lon="10.742813429195154"><ele>758.0</ele><time>2026-05-01T09:56:00.999Z</time></trkpt><trkpt lat="44.30354484193206" lon="10.74284644150149"><ele>755.0</ele><time>2026-05-01T09:56:01.999Z</time></trkpt><trkpt lat="44.303484161986155" lon="10.742890215132919"><ele>752.0</ele><time>2026-05-01T09:56:02.999Z</time></trkpt><trkpt lat="44.303387784460746" lon="10.742969600237673"><ele>749.0</ele><time>2026-05-01T09:56:04.999Z</time></trkpt><trkpt lat="44.3033334244272" lon="10.743021227527192"><ele>746.0</ele><time>2026-05-01T09:56:05.999Z</time></trkpt><trkpt lat="44.303278842552714" lon="10.743084180782866"><ele>746.0</ele><time>2026-05-01T09:56:06.999Z</time></trkpt><trkpt lat="44.303234663357735" lon="10.74315132443633"><ele>746.0</ele><time>2026-05-01T09:56:07.999Z</time></trkpt><trkpt lat="44.303196654173" lon="10.743227790609625"><ele>746.0</ele><time>2026-05-01T09:56:08.999Z</time></trkpt><trkpt lat="44.303138266429734" lon="10.743358347728398"><ele>746.0</ele><time>2026-05-01T09:56:10.999Z</time></trkpt><trkpt lat="44.30308124419822" lon="10.743474466657567"><ele>746.0</ele><time>2026-05-01T09:56:12.999Z</time></trkpt><trkpt lat="44.303031429588394" lon="10.743538885927041"><ele>746.0</ele><time>2026-05-01T09:56:14.999Z</time></trkpt><trkpt lat="44.30298721800768" lon="10.743615384712653"><ele>741.1999999999999</ele><time>2026-05-01T09:56:19.999Z</time></trkpt><trkpt lat="44.30292192023522" lon="10.743640639685871"><ele>736.4</ele><time>2026-05-01T09:56:26.999Z</time></trkpt><trkpt lat="44.30284284554314" lon="10.743661430138001"><ele>731.6</ele><time>2026-05-01T09:56:28.999Z</time></trkpt><trkpt lat="44.30273521391348" lon="10.74367646632252"><ele>726.8</ele><time>2026-05-01T09:56:30.999Z</time></trkpt><trkpt lat="44.30262602423258" lon="10.74369602288321"><ele>722.0</ele><time>2026-05-01T09:56:32.999Z</time></trkpt><trkpt lat="44.30252593272495" lon="10.743695595978338"><ele>722.0</ele><time>2026-05-01T09:56:34.999Z</time></trkpt><trkpt lat="44.3024210622967" lon="10.743723379058656"><ele>722.0</ele><time>2026-05-01T09:56:36.999Z</time></trkpt><trkpt lat="44.30229585607343" lon="10.743763484230605"><ele>722.0</ele><time>2026-05-01T09:56:38.999Z</time></trkpt><trkpt lat="44.30223260114212" lon="10.743790123999618"><ele>722.0</ele><time>2026-05-01T09:56:39.999Z</time></trkpt><trkpt lat="44.30210268853292" lon="10.743838008615624"><ele>722.0</ele><time>2026-05-01T09:56:41.999Z</time></trkpt><trkpt lat="44.3019956124034" lon="10.743868151457866"><ele>718.0</ele><time>2026-05-01T09:56:43.999Z</time></trkpt><trkpt lat="44.301891175116474" lon="10.74393045627016"><ele>714.0</ele><time>2026-05-01T09:56:45.999Z</time></trkpt><trkpt lat="44.30180335595283" lon="10.743973666177261"><ele>710.0</ele><time>2026-05-01T09:56:47.999Z</time></trkpt><trkpt lat="44.30168666623873" lon="10.744005757534154"><ele>706.0</ele><time>2026-05-01T09:56:49.999Z</time></trkpt><trkpt lat="44.301616141970825" lon="10.744021693734377"><ele>702.0</ele><time>2026-05-01T09:56:50.999Z</time></trkpt><trkpt lat="44.30154377028397" lon="10.74403612805589"><ele>702.0</ele><time>2026-05-01T09:56:51.999Z</time></trkpt><trkpt lat="44.30147393265925" lon="10.744056577265528"><ele>702.0</ele><time>2026-05-01T09:56:52.999Z</time></trkpt><trkpt lat="44.30135999143418" lon="10.744082338026232"><ele>702.0</ele><time>2026-05-01T09:56:54.999Z</time></trkpt><trkpt lat="44.301259098578214" lon="10.744111680792042"><ele>702.0</ele><time>2026-05-01T09:56:56.999Z</time></trkpt><trkpt lat="44.30119368367421" lon="10.744119641197797"><ele>702.0</ele><time>2026-05-01T09:57:02.999Z</time></trkpt><trkpt lat="44.30111990828158" lon="10.744091661058826"><ele>702.0</ele><time>2026-05-01T09:57:04.999Z</time></trkpt><trkpt lat="44.30104835825029" lon="10.744029732275703"><ele>699.8333333333334</ele><time>2026-05-01T09:57:06.999Z</time></trkpt><trkpt lat="44.300973298428694" lon="10.744067008245658"><ele>697.6666666666666</ele><time>2026-05-01T09:57:08.999Z</time></trkpt><trkpt lat="44.30090279363472" lon="10.744132911847679"><ele>695.5</ele><time>2026-05-01T09:57:10.999Z</time></trkpt><trkpt lat="44.30084044397981" lon="10.744231986485953"><ele>693.3333333333333</ele><time>2026-05-01T09:57:13.999Z</time></trkpt><trkpt lat="44.30079911500318" lon="10.744307087423532"><ele>691.1666666666666</ele><time>2026-05-01T09:57:16.999Z</time></trkpt><trkpt lat="44.300722583127445" lon="10.744289385235188"><ele>689.0</ele><time>2026-05-01T09:57:18.999Z</time></trkpt><trkpt lat="44.30064252662905" lon="10.744277328236201"><ele>685.8333333333333</ele><time>2026-05-01T09:57:20.999Z</time></trkpt><trkpt lat="44.300561457886445" lon="10.744270473983216"><ele>682.6666666666666</ele><time>2026-05-01T09:57:22.999Z</time></trkpt><trkpt lat="44.30047928108315" lon="10.744309833163078"><ele>679.5</ele><time>2026-05-01T09:57:24.999Z</time></trkpt><trkpt lat="44.30040898965169" lon="10.744354373940213"><ele>676.3333333333334</ele><time>2026-05-01T09:57:26.999Z</time></trkpt><trkpt lat="44.30036802320591" lon="10.744431266544158"><ele>673.1666666666667</ele><time>2026-05-01T09:57:28.999Z</time></trkpt><trkpt lat="44.300271993246305" lon="10.744422021035664"><ele>670.0</ele><time>2026-05-01T09:57:31.999Z</time></trkpt><trkpt lat="44.300194758569525" lon="10.744366848594641"><ele>669.2</ele><time>2026-05-01T09:57:33.999Z</time></trkpt><trkpt lat="44.30010746668397" lon="10.744382868350405"><ele>668.4</ele><time>2026-05-01T09:57:35.999Z</time></trkpt><trkpt lat="44.30003496221679" lon="10.744450380516472"><ele>667.5999999999999</ele><time>2026-05-01T09:57:37.999Z</time></trkpt><trkpt lat="44.29998755297615" lon="10.744560112375305"><ele>666.8</ele><time>2026-05-01T09:57:39.999Z</time></trkpt><trkpt lat="44.29993031217655" lon="10.744670129205032"><ele>666.0</ele><time>2026-05-01T09:57:41.999Z</time></trkpt><trkpt lat="44.29986561880153" lon="10.744798117778439"><ele>666.0</ele><time>2026-05-01T09:57:43.999Z</time></trkpt><trkpt lat="44.2998140260946" lon="10.74491941422392"><ele>666.0</ele><time>2026-05-01T09:57:45.999Z</time></trkpt><trkpt lat="44.29973362836107" lon="10.744998753226113"><ele>666.0</ele><time>2026-05-01T09:57:47.999Z</time></trkpt><trkpt lat="44.299633758023255" lon="10.745043951408556"><ele>666.0</ele><time>2026-05-01T09:57:49.999Z</time></trkpt><trkpt lat="44.29952937454534" lon="10.74505882344369"><ele>666.0</ele><time>2026-05-01T09:57:51.999Z</time></trkpt><trkpt lat="44.299416902716224" lon="10.745041621020848"><ele>662.0</ele><time>2026-05-01T09:57:53.999Z</time></trkpt><trkpt lat="44.299320264946715" lon="10.744998385188484"><ele>658.0</ele><time>2026-05-01T09:57:55.999Z</time></trkpt><trkpt lat="44.29920157770741" lon="10.744987833880021"><ele>654.0</ele><time>2026-05-01T09:57:57.999Z</time></trkpt><trkpt lat="44.29913570005807" lon="10.744994888360079"><ele>650.0</ele><time>2026-05-01T09:57:58.999Z</time></trkpt><trkpt lat="44.299030346171776" lon="10.745060186087724"><ele>646.0</ele><time>2026-05-01T09:58:00.999Z</time></trkpt><trkpt lat="44.29889815688317" lon="10.745073464104836"><ele>638.75</ele><time>2026-05-01T09:58:02.999Z</time></trkpt><trkpt lat="44.29880536050995" lon="10.745137063022339"><ele>631.5</ele><time>2026-05-01T09:58:04.999Z</time></trkpt><trkpt lat="44.298719838098755" lon="10.745262175340725"><ele>624.25</ele><time>2026-05-01T09:58:06.999Z</time></trkpt><trkpt lat="44.29861919435544" lon="10.74534970141036"><ele>617.0</ele><time>2026-05-01T09:58:08.999Z</time></trkpt><trkpt lat="44.29852223074642" lon="10.745451191194716"><ele>616.8000000000001</ele><time>2026-05-01T09:58:10.999Z</time></trkpt><trkpt lat="44.29846260769877" lon="10.745487117955383"><ele>616.6</ele><time>2026-05-01T09:58:11.999Z</time></trkpt><trkpt lat="44.29833934461703" lon="10.745510761917163"><ele>616.4000000000001</ele><time>2026-05-01T09:58:13.999Z</time></trkpt><trkpt lat="44.298233840224306" lon="10.745564155947905"><ele>616.2</ele><time>2026-05-01T09:58:15.999Z</time></trkpt><trkpt lat="44.29815835727068" lon="10.745679097986953"><ele>616.0</ele><time>2026-05-01T09:58:17.999Z</time></trkpt><trkpt lat="44.29812268875457" lon="10.745774156539987"><ele>612.6666666666667</ele><time>2026-05-01T09:58:19.999Z</time></trkpt><trkpt lat="44.29806955346575" lon="10.745858839605814"><ele>609.3333333333334</ele><time>2026-05-01T09:58:21.999Z</time></trkpt><trkpt lat="44.29798716188663" lon="10.745944417187372"><ele>606.0</ele><time>2026-05-01T09:58:23.999Z</time></trkpt><trkpt lat="44.29793240938841" lon="10.746015407706658"><ele>602.6666666666666</ele><time>2026-05-01T09:58:25.999Z</time></trkpt><trkpt lat="44.297876335601515" lon="10.746086534616662"><ele>599.3333333333333</ele><time>2026-05-01T09:58:28.999Z</time></trkpt><trkpt lat="44.29782504070831" lon="10.746152678126677"><ele>596.0</ele><time>2026-05-01T09:58:31.999Z</time></trkpt><trkpt lat="44.29776676065746" lon="10.746213964529584"><ele>596.0</ele><time>2026-05-01T09:58:33.999Z</time></trkpt><trkpt lat="44.29769982583519" lon="10.746293418672034"><ele>596.0</ele><time>2026-05-01T09:58:35.999Z</time></trkpt><trkpt lat="44.29762440187229" lon="10.746345142675406"><ele>596.0</ele><time>2026-05-01T09:58:37.999Z</time></trkpt><trkpt lat="44.29756975662163" lon="10.746404673558507"><ele>596.0</ele><time>2026-05-01T09:58:39.999Z</time></trkpt><trkpt lat="44.29748891834936" lon="10.746458559577999"><ele>596.0</ele><time>2026-05-01T09:58:41.999Z</time></trkpt><trkpt lat="44.297380771663086" lon="10.746557111530143"><ele>596.0</ele><time>2026-05-01T09:58:43.999Z</time></trkpt><trkpt lat="44.29729597266118" lon="10.746660473358446"><ele>596.0</ele><time>2026-05-01T09:58:45.999Z</time></trkpt><trkpt lat="44.29725298274111" lon="10.746765300683565"><ele>596.0</ele><time>2026-05-01T09:58:47.999Z</time></trkpt><trkpt lat="44.2972401824274" lon="10.74688847632232"><ele>596.0</ele><time>2026-05-01T09:58:49.999Z</time></trkpt><trkpt lat="44.29724654623002" lon="10.747026454700528"><ele>596.0</ele><time>2026-05-01T09:58:51.999Z</time></trkpt><trkpt lat="44.29722592285999" lon="10.747198355604892"><ele>593.6</ele><time>2026-05-01T09:58:53.999Z</time></trkpt><trkpt lat="44.29724397425742" lon="10.74735398627732"><ele>591.2</ele><time>2026-05-01T09:58:55.999Z</time></trkpt><trkpt lat="44.2973381669968" lon="10.747424792424033"><ele>588.8</ele><time>2026-05-01T09:58:57.999Z</time></trkpt><trkpt lat="44.29746011443162" lon="10.747483158383677"><ele>586.4</ele><time>2026-05-01T09:58:59.999Z</time></trkpt><trkpt lat="44.29752204810589" lon="10.747526242262577"><ele>584.0</ele><time>2026-05-01T09:59:00.999Z</time></trkpt><trkpt lat="44.297578649625706" lon="10.74757736012367"><ele>584.0</ele><time>2026-05-01T09:59:01.999Z</time></trkpt><trkpt lat="44.297641349192794" lon="10.74764721265613"><ele>584.0</ele><time>2026-05-01T09:59:02.999Z</time></trkpt><trkpt lat="44.297700747390195" lon="10.747711210561805"><ele>584.0</ele><time>2026-05-01T09:59:03.999Z</time></trkpt><trkpt lat="44.29775682703341" lon="10.747769733537524"><ele>584.0</ele><time>2026-05-01T09:59:04.999Z</time></trkpt><trkpt lat="44.29781538271101" lon="10.747830228419122"><ele>584.0</ele><time>2026-05-01T09:59:05.999Z</time></trkpt><trkpt lat="44.29786591449004" lon="10.74790347350563"><ele>584.0</ele><time>2026-05-01T09:59:06.999Z</time></trkpt><trkpt lat="44.29791744713042" lon="10.747984306250668"><ele>584.0</ele><time>2026-05-01T09:59:07.999Z</time></trkpt><trkpt lat="44.29796592897332" lon="10.74806025837339"><ele>582.8</ele><time>2026-05-01T09:59:08.999Z</time></trkpt><trkpt lat="44.29802939060446" lon="10.748121763347445"><ele>581.5999999999999</ele><time>2026-05-01T09:59:09.999Z</time></trkpt><trkpt lat="44.29810037855916" lon="10.748174853440407"><ele>580.4</ele><time>2026-05-01T09:59:10.999Z</time></trkpt><trkpt lat="44.298172320631764" lon="10.748228472943394"><ele>579.1999999999999</ele><time>2026-05-01T09:59:11.999Z</time></trkpt><trkpt lat="44.29826509445671" lon="10.748296325540782"><ele>578.0</ele><time>2026-05-01T09:59:12.999Z</time></trkpt><trkpt lat="44.29836528958707" lon="10.748383251367402"><ele>578.0</ele><time>2026-05-01T09:59:13.999Z</time></trkpt><trkpt lat="44.29846895957103" lon="10.748471382118769"><ele>578.0</ele><time>2026-05-01T09:59:14.999Z</time></trkpt><trkpt lat="44.29856597957531" lon="10.7485721299335"><ele>578.0</ele><time>2026-05-01T09:59:15.999Z</time></trkpt><trkpt lat="44.29866943024126" lon="10.748661536100942"><ele>578.0</ele><time>2026-05-01T09:59:16.999Z</time></trkpt><trkpt lat="44.298730634270484" lon="10.748877183544668"><ele>577.75</ele><time>2026-05-01T09:59:17.999Z</time></trkpt><trkpt lat="44.298823044535645" lon="10.749034307857253"><ele>577.5</ele><time>2026-05-01T09:59:18.999Z</time></trkpt><trkpt lat="44.29890063845326" lon="10.749177852748252"><ele>577.25</ele><time>2026-05-01T09:59:19.999Z</time></trkpt><trkpt lat="44.298968740316475" lon="10.749298141975563"><ele>577.0</ele><time>2026-05-01T09:59:20.999Z</time></trkpt><trkpt lat="44.29903158720426" lon="10.74940609176561"><ele>575.8333333333334</ele><time>2026-05-01T09:59:21.999Z</time></trkpt><trkpt lat="44.29908972440671" lon="10.74951304571869"><ele>574.6666666666667</ele><time>2026-05-01T09:59:22.999Z</time></trkpt><trkpt lat="44.299141884979534" lon="10.749623348445327"><ele>573.5</ele><time>2026-05-01T09:59:23.999Z</time></trkpt><trkpt lat="44.29918749863739" lon="10.749738803902373"><ele>572.3333333333334</ele><time>2026-05-01T09:59:24.999Z</time></trkpt><trkpt lat="44.29921931851742" lon="10.749842433572224"><ele>571.1666666666666</ele><time>2026-05-01T09:59:25.999Z</time></trkpt><trkpt lat="44.29924672009226" lon="10.749934964792093"><ele>570.0</ele><time>2026-05-01T09:59:26.999Z</time></trkpt><trkpt lat="44.299263574820344" lon="10.750025804161476"><ele>570.0</ele><time>2026-05-01T09:59:27.999Z</time></trkpt><trkpt lat="44.29928185322686" lon="10.750182520040983"><ele>570.0</ele><time>2026-05-01T09:59:29.999Z</time></trkpt><trkpt lat="44.29933864696392" lon="10.75029645278355"><ele>570.0</ele><time>2026-05-01T09:59:31.999Z</time></trkpt><trkpt lat="44.29942720669662" lon="10.75033998990863"><ele>570.0</ele><time>2026-05-01T09:59:32.999Z</time></trkpt><trkpt lat="44.299535047576384" lon="10.75041301717414"><ele>570.0</ele><time>2026-05-01T09:59:33.999Z</time></trkpt><trkpt lat="44.299652840582446" lon="10.750463491642634"><ele>570.0</ele><time>2026-05-01T09:59:34.999Z</time></trkpt><trkpt lat="44.29974140777185" lon="10.750487214767777"><ele>570.0</ele><time>2026-05-01T09:59:35.999Z</time></trkpt><trkpt lat="44.299816942683464" lon="10.750516449080322"><ele>570.0</ele><time>2026-05-01T09:59:36.999Z</time></trkpt><trkpt lat="44.299878984362586" lon="10.750637272476117"><ele>570.0</ele><time>2026-05-01T09:59:37.999Z</time></trkpt><trkpt lat="44.29994756071313" lon="10.750786638346412"><ele>570.0</ele><time>2026-05-01T09:59:38.999Z</time></trkpt><trkpt lat="44.30000252721405" lon="10.75093491461911"><ele>569.4</ele><time>2026-05-01T09:59:39.999Z</time></trkpt><trkpt lat="44.29998079914272" lon="10.751143755164026"><ele>568.8</ele><time>2026-05-01T09:59:40.999Z</time></trkpt><trkpt lat="44.29998037870029" lon="10.75128240851244"><ele>568.2</ele><time>2026-05-01T09:59:41.999Z</time></trkpt><trkpt lat="44.29999953276987" lon="10.751370379192197"><ele>567.6</ele><time>2026-05-01T09:59:42.999Z</time></trkpt><trkpt lat="44.30005662177577" lon="10.751419409188415"><ele>567.0</ele><time>2026-05-01T09:59:44.999Z</time></trkpt><trkpt lat="44.30018062618022" lon="10.75148326759532"><ele>567.0</ele><time>2026-05-01T09:59:53.999Z</time></trkpt><trkpt lat="44.3002527200362" lon="10.751551096207802"><ele>567.0</ele><time>2026-05-01T09:59:54.999Z</time></trkpt><trkpt lat="44.30034133664511" lon="10.751626130963643"><ele>567.0</ele><time>2026-05-01T09:59:55.999Z</time></trkpt><trkpt lat="44.300431149651956" lon="10.751681091019064"><ele>567.0</ele><time>2026-05-01T09:59:56.999Z</time></trkpt><trkpt lat="44.300525291318586" lon="10.75172637515948"><ele>567.0</ele><time>2026-05-01T09:59:57.999Z</time></trkpt><trkpt lat="44.300625931214" lon="10.751773882477053"><ele>568.6666666666666</ele><time>2026-05-01T09:59:58.999Z</time></trkpt><trkpt lat="44.30070858364449" lon="10.751809398567907"><ele>570.3333333333334</ele><time>2026-05-01T09:59:59.999Z</time></trkpt><trkpt lat="44.30077229473158" lon="10.75183039409696"><ele>572.0</ele><time>2026-05-01T10:00:00.999Z</time></trkpt><trkpt lat="44.300886145019476" lon="10.751852452377019"><ele>573.6666666666667</ele><time>2026-05-01T10:00:02.999Z</time></trkpt><trkpt lat="44.30096628788123" lon="10.751841887811102"><ele>575.3333333333334</ele><time>2026-05-01T10:00:03.999Z</time></trkpt><trkpt lat="44.30104022636595" lon="10.751804794460329"><ele>577.0</ele><time>2026-05-01T10:00:04.999Z</time></trkpt><trkpt lat="44.301102893071075" lon="10.751738967520199"><ele>577.0</ele><time>2026-05-01T10:00:05.999Z</time></trkpt><trkpt lat="44.30116988677711" lon="10.751668383364791"><ele>577.0</ele><time>2026-05-01T10:00:06.999Z</time></trkpt><trkpt lat="44.30124534888748" lon="10.751647151075478"><ele>577.0</ele><time>2026-05-01T10:00:07.999Z</time></trkpt><trkpt lat="44.301330355099815" lon="10.751666959334704"><ele>577.0</ele><time>2026-05-01T10:00:08.999Z</time></trkpt><trkpt lat="44.30142243820254" lon="10.751668705489092"><ele>577.0</ele><time>2026-05-01T10:00:09.999Z</time></trkpt><trkpt lat="44.301513487367544" lon="10.751668667562326"><ele>577.0</ele><time>2026-05-01T10:00:10.999Z</time></trkpt><trkpt lat="44.30160301518617" lon="10.751653807437403"><ele>579.2</ele><time>2026-05-01T10:00:11.999Z</time></trkpt><trkpt lat="44.3016908265081" lon="10.75163842908683"><ele>581.4000000000001</ele><time>2026-05-01T10:00:12.999Z</time></trkpt><trkpt lat="44.3017790072221" lon="10.751584224114428"><ele>583.5999999999999</ele><time>2026-05-01T10:00:13.999Z</time></trkpt><trkpt lat="44.301861250467105" lon="10.751538909980798"><ele>585.8</ele><time>2026-05-01T10:00:14.999Z</time></trkpt><trkpt lat="44.30195129624948" lon="10.751489339429241"><ele>588.0</ele><time>2026-05-01T10:00:15.999Z</time></trkpt><trkpt lat="44.30205068642445" lon="10.75145163666637"><ele>588.0</ele><time>2026-05-01T10:00:16.999Z</time></trkpt><trkpt lat="44.30215269443005" lon="10.75141524689712"><ele>588.0</ele><time>2026-05-01T10:00:17.999Z</time></trkpt><trkpt lat="44.302260249120074" lon="10.751374158260159"><ele>588.0</ele><time>2026-05-01T10:00:18.999Z</time></trkpt><trkpt lat="44.30236148256859" lon="10.751316849942993"><ele>588.0</ele><time>2026-05-01T10:00:19.999Z</time></trkpt><trkpt lat="44.302453626055936" lon="10.751260922312253"><ele>588.0</ele><time>2026-05-01T10:00:21Z</time></trkpt><trkpt lat="44.302554086835904" lon="10.75121794425942"><ele>591.1666666666666</ele><time>2026-05-01T10:00:22Z</time></trkpt><trkpt lat="44.30262709500941" lon="10.751191908016494"><ele>594.3333333333334</ele><time>2026-05-01T10:00:23Z</time></trkpt><trkpt lat="44.30273473318545" lon="10.751125292912068"><ele>597.5</ele><time>2026-05-01T10:00:25Z</time></trkpt><trkpt lat="44.302793284310916" lon="10.751065137332603"><ele>600.6666666666667</ele><time>2026-05-01T10:00:26Z</time></trkpt><trkpt lat="44.302857266471264" lon="10.750983340658706"><ele>603.8333333333334</ele><time>2026-05-01T10:00:27Z</time></trkpt><trkpt lat="44.30291987434232" lon="10.75088240278671"><ele>607.0</ele><time>2026-05-01T10:00:28Z</time></trkpt><trkpt lat="44.30301746670432" lon="10.75080430123633"><ele>611.0</ele><time>2026-05-01T10:00:29Z</time></trkpt><trkpt lat="44.30311512925413" lon="10.750778268350686"><ele>615.0</ele><time>2026-05-01T10:00:30Z</time></trkpt><trkpt lat="44.30318006279854" lon="10.75075846559323"><ele>619.0</ele><time>2026-05-01T10:00:31Z</time></trkpt><trkpt lat="44.30329203638274" lon="10.750717263200974"><ele>623.0</ele><time>2026-05-01T10:00:33Z</time></trkpt><trkpt lat="44.30339362886981" lon="10.750621993172825"><ele>627.0</ele><time>2026-05-01T10:00:35Z</time></trkpt><trkpt lat="44.303461530269935" lon="10.750545004909021"><ele>627.0</ele><time>2026-05-01T10:00:36Z</time></trkpt><trkpt lat="44.303526153435556" lon="10.750453796581454"><ele>627.0</ele><time>2026-05-01T10:00:37Z</time></trkpt><trkpt lat="44.3036047478546" lon="10.750353822152373"><ele>627.0</ele><time>2026-05-01T10:00:38Z</time></trkpt><trkpt lat="44.30367952266224" lon="10.750246593371886"><ele>627.0</ele><time>2026-05-01T10:00:39Z</time></trkpt><trkpt lat="44.303744032909826" lon="10.750155378140946"><ele>627.0</ele><time>2026-05-01T10:00:40Z</time></trkpt><trkpt lat="44.303789414051316" lon="10.7500794118214"><ele>628.6666666666666</ele><time>2026-05-01T10:00:41Z</time></trkpt><trkpt lat="44.303847703486355" lon="10.749986685232367"><ele>630.3333333333334</ele><time>2026-05-01T10:00:43Z</time></trkpt><trkpt lat="44.303910063190756" lon="10.749891572438335"><ele>632.0</ele><time>2026-05-01T10:00:45Z</time></trkpt><trkpt lat="44.30399840280002" lon="10.749937185974998"><ele>633.6666666666667</ele><time>2026-05-01T10:00:59Z</time></trkpt><trkpt lat="44.30407001551219" lon="10.750002318212548"><ele>635.3333333333334</ele><time>2026-05-01T10:01:01Z</time></trkpt><trkpt lat="44.30407941808767" lon="10.75010181523139"><ele>637.0</ele><time>2026-05-01T10:03:03Z</time></trkpt><trkpt lat="44.304106319230996" lon="10.750230451159805"><ele>637.4</ele><time>2026-05-01T10:03:24Z</time></trkpt><trkpt lat="44.30412491368066" lon="10.7503632340653"><ele>637.8000000000001</ele><time>2026-05-01T10:03:26Z</time></trkpt><trkpt lat="44.30416229205281" lon="10.750499955772511"><ele>638.2</ele><time>2026-05-01T10:03:28Z</time></trkpt><trkpt lat="44.30421863344082" lon="10.750607489580387"><ele>638.6</ele><time>2026-05-01T10:03:30Z</time></trkpt><trkpt lat="44.30427295916474" lon="10.750689193143087"><ele>639.0</ele><time>2026-05-01T10:03:32Z</time></trkpt><trkpt lat="44.304309491811516" lon="10.750782256051165"><ele>639.0</ele><time>2026-05-01T10:03:34Z</time></trkpt><trkpt lat="44.30429098644591" lon="10.750915036939242"><ele>639.0</ele><time>2026-05-01T10:03:36Z</time></trkpt><trkpt lat="44.30425545642914" lon="10.751054218114543"><ele>639.0</ele><time>2026-05-01T10:03:38Z</time></trkpt><trkpt lat="44.30424520018852" lon="10.751210071417669"><ele>639.0</ele><time>2026-05-01T10:03:40Z</time></trkpt><trkpt lat="44.30422954739294" lon="10.751367188660323"><ele>639.0</ele><time>2026-05-01T10:03:42Z</time></trkpt><trkpt lat="44.30421301514248" lon="10.75152665631057"><ele>638.8</ele><time>2026-05-01T10:03:44Z</time></trkpt><trkpt lat="44.30419761617647" lon="10.751683365208175"><ele>638.5999999999999</ele><time>2026-05-01T10:03:46Z</time></trkpt><trkpt lat="44.30418702660178" lon="10.751835026992373"><ele>638.4</ele><time>2026-05-01T10:03:48Z</time></trkpt><trkpt lat="44.30416085257194" lon="10.752009873249435"><ele>638.1999999999999</ele><time>2026-05-01T10:03:50Z</time></trkpt><trkpt lat="44.304140707625535" lon="10.75210575473586"><ele>638.0</ele><time>2026-05-01T10:03:51Z</time></trkpt><trkpt lat="44.30411630002659" lon="10.752191702743938"><ele>638.0</ele><time>2026-05-01T10:03:52Z</time></trkpt><trkpt lat="44.3040817567838" lon="10.752326643238776"><ele>638.0</ele><time>2026-05-01T10:03:54Z</time></trkpt><trkpt lat="44.30404580080911" lon="10.75251016870864"><ele>638.0</ele><time>2026-05-01T10:03:56Z</time></trkpt><trkpt lat="44.304053629025994" lon="10.75260948477776"><ele>638.0</ele><time>2026-05-01T10:03:57Z</time></trkpt><trkpt lat="44.30407881308176" lon="10.752704948640332"><ele>638.0</ele><time>2026-05-01T10:03:58Z</time></trkpt><trkpt lat="44.30410000101411" lon="10.752801379344092"><ele>639.6666666666666</ele><time>2026-05-01T10:03:59Z</time></trkpt><trkpt lat="44.304101687620424" lon="10.752901773552303"><ele>641.3333333333333</ele><time>2026-05-01T10:04:00Z</time></trkpt><trkpt lat="44.304100499159254" lon="10.75300955606674"><ele>643.0</ele><time>2026-05-01T10:04:01Z</time></trkpt><trkpt lat="44.30409742165414" lon="10.753108810744262"><ele>644.6666666666666</ele><time>2026-05-01T10:04:02Z</time></trkpt><trkpt lat="44.30408545097138" lon="10.753221635504298"><ele>646.3333333333334</ele><time>2026-05-01T10:04:03Z</time></trkpt><trkpt lat="44.30408066743244" lon="10.753333685837122"><ele>648.0</ele><time>2026-05-01T10:04:04Z</time></trkpt><trkpt lat="44.30406620146485" lon="10.753438020204513"><ele>648.8333333333334</ele><time>2026-05-01T10:04:05Z</time></trkpt><trkpt lat="44.304119233358804" lon="10.753550636872044"><ele>649.6666666666666</ele><time>2026-05-01T10:04:08Z</time></trkpt><trkpt lat="44.30418190741069" lon="10.75357857854152"><ele>650.5</ele><time>2026-05-01T10:04:09Z</time></trkpt><trkpt lat="44.30426732443957" lon="10.753599370504187"><ele>651.3333333333333</ele><time>2026-05-01T10:04:10Z</time></trkpt><trkpt lat="44.30435360826874" lon="10.75364356255249"><ele>652.1666666666666</ele><time>2026-05-01T10:04:11Z</time></trkpt><trkpt lat="44.30440567076947" lon="10.753700108881842"><ele>653.0</ele><time>2026-05-01T10:04:12Z</time></trkpt><trkpt lat="44.304434136320666" lon="10.75379465669339"><ele>653.0</ele><time>2026-05-01T10:04:13Z</time></trkpt><trkpt lat="44.304423882723206" lon="10.75391603815601"><ele>653.0</ele><time>2026-05-01T10:04:14Z</time></trkpt><trkpt lat="44.304403656216685" lon="10.754044872926988"><ele>653.0</ele><time>2026-05-01T10:04:15Z</time></trkpt><trkpt lat="44.30439635443222" lon="10.75415155771222"><ele>653.0</ele><time>2026-05-01T10:04:16Z</time></trkpt><trkpt lat="44.30442987701489" lon="10.754229916957717"><ele>653.0</ele><time>2026-05-01T10:04:17Z</time></trkpt><trkpt lat="44.30448873321471" lon="10.754310354533228"><ele>653.0</ele><time>2026-05-01T10:04:18Z</time></trkpt><trkpt lat="44.30450791391789" lon="10.754450257145493"><ele>653.0</ele><time>2026-05-01T10:04:19Z</time></trkpt><trkpt lat="44.30450863603273" lon="10.754609091951897"><ele>653.0</ele><time>2026-05-01T10:04:20Z</time></trkpt><trkpt lat="44.30449721212976" lon="10.75477558906162"><ele>653.0</ele><time>2026-05-01T10:04:21Z</time></trkpt><trkpt lat="44.304472228505475" lon="10.754926835932444"><ele>653.0</ele><time>2026-05-01T10:04:22Z</time></trkpt><trkpt lat="44.30446243392165" lon="10.755059186278615"><ele>653.0</ele><time>2026-05-01T10:04:23Z</time></trkpt><trkpt lat="44.30447222377249" lon="10.755204098219414"><ele>652.8</ele><time>2026-05-01T10:04:24Z</time></trkpt><trkpt lat="44.30451329532095" lon="10.755343562477123"><ele>652.5999999999999</ele><time>2026-05-01T10:04:25Z</time></trkpt><trkpt lat="44.30455782542891" lon="10.755469690068054"><ele>652.4000000000001</ele><time>2026-05-01T10:04:26Z</time></trkpt><trkpt lat="44.30460254039278" lon="10.755598301451402"><ele>652.2</ele><time>2026-05-01T10:04:27Z</time></trkpt><trkpt lat="44.3046391269627" lon="10.755716294966508"><ele>652.0</ele><time>2026-05-01T10:04:28Z</time></trkpt><trkpt lat="44.304674901379194" lon="10.755822106523006"><ele>652.0</ele><time>2026-05-01T10:04:29Z</time></trkpt><trkpt lat="44.30474064060473" lon="10.755943792620219"><ele>652.0</ele><time>2026-05-01T10:04:31Z</time></trkpt><trkpt lat="44.304764048432745" lon="10.756104167518762"><ele>652.0</ele><time>2026-05-01T10:04:33Z</time></trkpt><trkpt lat="44.30474293432189" lon="10.756220443838258"><ele>652.0</ele><time>2026-05-01T10:04:34Z</time></trkpt><trkpt lat="44.304720459198414" lon="10.756348846284679"><ele>652.0</ele><time>2026-05-01T10:04:35Z</time></trkpt><trkpt lat="44.304706621265176" lon="10.756483722883686"><ele>651.4000000000001</ele><time>2026-05-01T10:04:36Z</time></trkpt><trkpt lat="44.304689466119726" lon="10.756626732412021"><ele>650.8000000000001</ele><time>2026-05-01T10:04:37Z</time></trkpt><trkpt lat="44.304676526474964" lon="10.75677166754515"><ele>650.2</ele><time>2026-05-01T10:04:38Z</time></trkpt><trkpt lat="44.304663193651685" lon="10.756903196826425"><ele>649.6</ele><time>2026-05-01T10:04:39Z</time></trkpt><trkpt lat="44.30465814215675" lon="10.757027428407092"><ele>649.0</ele><time>2026-05-01T10:04:40Z</time></trkpt><trkpt lat="44.30462878081889" lon="10.75712490666853"><ele>647.8000000000001</ele><time>2026-05-01T10:04:41Z</time></trkpt><trkpt lat="44.30459234090323" lon="10.757205699446885"><ele>646.6</ele><time>2026-05-01T10:04:42Z</time></trkpt><trkpt lat="44.30455752508037" lon="10.757368903193292"><ele>645.4</ele><time>2026-05-01T10:04:44Z</time></trkpt><trkpt lat="44.304605274132" lon="10.75748388046229"><ele>644.2</ele><time>2026-05-01T10:04:45Z</time></trkpt><trkpt lat="44.30465914398349" lon="10.757632904944389"><ele>643.0</ele><time>2026-05-01T10:04:46Z</time></trkpt><trkpt lat="44.304665389717385" lon="10.757816520121152"><ele>641.6</ele><time>2026-05-01T10:04:47Z</time></trkpt><trkpt lat="44.30466155038025" lon="10.75801265431778"><ele>640.1999999999999</ele><time>2026-05-01T10:04:48Z</time></trkpt><trkpt lat="44.30465878141926" lon="10.758158291928423"><ele>638.8</ele><time>2026-05-01T10:04:49Z</time></trkpt><trkpt lat="44.30465402619307" lon="10.758282016249899"><ele>637.4</ele><time>2026-05-01T10:04:50Z</time></trkpt><trkpt lat="44.30465311377333" lon="10.758389270062226"><ele>636.0</ele><time>2026-05-01T10:04:51Z</time></trkpt><trkpt lat="44.30464477934959" lon="10.75851680591098"><ele>634.8</ele><time>2026-05-01T10:04:52Z</time></trkpt><trkpt lat="44.30464518276084" lon="10.758659538500508"><ele>633.6</ele><time>2026-05-01T10:04:53Z</time></trkpt><trkpt lat="44.30465280245923" lon="10.758806267337093"><ele>632.4</ele><time>2026-05-01T10:04:54Z</time></trkpt><trkpt lat="44.30466883258942" lon="10.758960875367885"><ele>631.2</ele><time>2026-05-01T10:04:55Z</time></trkpt><trkpt lat="44.30468282049079" lon="10.759115082537594"><ele>630.0</ele><time>2026-05-01T10:04:56Z</time></trkpt><trkpt lat="44.3047067224088" lon="10.759274914376668"><ele>630.0</ele><time>2026-05-01T10:04:57Z</time></trkpt><trkpt lat="44.30473578947269" lon="10.759420497847804"><ele>630.0</ele><time>2026-05-01T10:04:58Z</time></trkpt><trkpt lat="44.304768287161565" lon="10.759541052569137"><ele>630.0</ele><time>2026-05-01T10:04:59Z</time></trkpt><trkpt lat="44.30478877439245" lon="10.75963049113688"><ele>630.0</ele><time>2026-05-01T10:05:00Z</time></trkpt><trkpt lat="44.30477306102999" lon="10.759534377612782"><ele>630.0</ele><time>2026-05-01T10:05:31Z</time></trkpt><trkpt lat="44.30472963876237" lon="10.759427111072174"><ele>630.0</ele><time>2026-05-01T10:05:44Z</time></trkpt><trkpt lat="44.30471028214099" lon="10.759275811276375"><ele>630.0</ele><time>2026-05-01T10:05:46Z</time></trkpt><trkpt lat="44.304687791950386" lon="10.759131887095856"><ele>630.0</ele><time>2026-05-01T10:05:48Z</time></trkpt><trkpt lat="44.30466100684538" lon="10.758975809921896"><ele>630.0</ele><time>2026-05-01T10:05:50Z</time></trkpt><trkpt lat="44.30464624806507" lon="10.758803701102382"><ele>630.0</ele><time>2026-05-01T10:05:52Z</time></trkpt><trkpt lat="44.30463921363662" lon="10.758710725447017"><ele>630.0</ele><time>2026-05-01T10:05:53Z</time></trkpt><trkpt lat="44.30463369083119" lon="10.758617248102192"><ele>630.8571428571429</ele><time>2026-05-01T10:05:54Z</time></trkpt><trkpt lat="44.30462919744508" lon="10.758522615019682"><ele>631.7142857142858</ele><time>2026-05-01T10:05:55Z</time></trkpt><trkpt lat="44.304631170878515" lon="10.758426263866394"><ele>632.5714285714286</ele><time>2026-05-01T10:05:56Z</time></trkpt><trkpt lat="44.30464007731564" lon="10.758329407029391"><ele>633.4285714285714</ele><time>2026-05-01T10:05:57Z</time></trkpt><trkpt lat="44.30463950107218" lon="10.758227270142024"><ele>634.2857142857143</ele><time>2026-05-01T10:05:58Z</time></trkpt><trkpt lat="44.30463848347391" lon="10.758121194419125"><ele>635.1428571428571</ele><time>2026-05-01T10:05:59Z</time></trkpt><trkpt lat="44.30463924883577" lon="10.758015916064721"><ele>636.0</ele><time>2026-05-01T10:06:00Z</time></trkpt><trkpt lat="44.30463364343923" lon="10.757909128673854"><ele>636.0</ele><time>2026-05-01T10:06:01Z</time></trkpt><trkpt lat="44.3046270249768" lon="10.757793495382455"><ele>636.0</ele><time>2026-05-01T10:06:02Z</time></trkpt><trkpt lat="44.30462170880231" lon="10.757671419138937"><ele>636.0</ele><time>2026-05-01T10:06:03Z</time></trkpt><trkpt lat="44.30461769606451" lon="10.75755118530705"><ele>636.0</ele><time>2026-05-01T10:06:04Z</time></trkpt><trkpt lat="44.30460969945427" lon="10.757452554702693"><ele>636.0</ele><time>2026-05-01T10:06:05Z</time></trkpt><trkpt lat="44.304559723555776" lon="10.757322132760576"><ele>636.0</ele><time>2026-05-01T10:06:07Z</time></trkpt><trkpt lat="44.30458195009994" lon="10.757195994220137"><ele>637.1666666666666</ele><time>2026-05-01T10:06:17Z</time></trkpt><trkpt lat="44.30462959448886" lon="10.75712437363325"><ele>638.3333333333334</ele><time>2026-05-01T10:06:18Z</time></trkpt><trkpt lat="44.30465153114241" lon="10.757028782551082"><ele>639.5</ele><time>2026-05-01T10:06:19Z</time></trkpt><trkpt lat="44.30466885720225" lon="10.756912933444138"><ele>640.6666666666667</ele><time>2026-05-01T10:06:20Z</time></trkpt><trkpt lat="44.30467520072868" lon="10.756796766520985"><ele>641.8333333333334</ele><time>2026-05-01T10:06:21Z</time></trkpt><trkpt lat="44.304682296821404" lon="10.756669228518197"><ele>643.0</ele><time>2026-05-01T10:06:22Z</time></trkpt><trkpt lat="44.30469635409138" lon="10.756530890608923"><ele>644.2</ele><time>2026-05-01T10:06:23Z</time></trkpt><trkpt lat="44.30470878108002" lon="10.756388792841038"><ele>645.4</ele><time>2026-05-01T10:06:24Z</time></trkpt><trkpt lat="44.304725183313" lon="10.756239047583827"><ele>646.6</ele><time>2026-05-01T10:06:25Z</time></trkpt><trkpt lat="44.304739285760135" lon="10.756086175188639"><ele>647.8000000000001</ele><time>2026-05-01T10:06:26Z</time></trkpt><trkpt lat="44.30476326966623" lon="10.75594132101082"><ele>649.0</ele><time>2026-05-01T10:06:27Z</time></trkpt><trkpt lat="44.30482039977596" lon="10.75579406025102"><ele>650.5</ele><time>2026-05-01T10:06:28Z</time></trkpt><trkpt lat="44.30488551571682" lon="10.75564724688788"><ele>652.0</ele><time>2026-05-01T10:06:29Z</time></trkpt><trkpt lat="44.30498616977673" lon="10.755512872056746"><ele>653.5</ele><time>2026-05-01T10:06:30Z</time></trkpt><trkpt lat="44.30511016584928" lon="10.755405968222469"><ele>655.0</ele><time>2026-05-01T10:06:31Z</time></trkpt><trkpt lat="44.30523376687524" lon="10.755302498923736"><ele>655.0</ele><time>2026-05-01T10:06:32Z</time></trkpt><trkpt lat="44.30534223539689" lon="10.755209879288818"><ele>655.0</ele><time>2026-05-01T10:06:33Z</time></trkpt><trkpt lat="44.30543731934693" lon="10.755151132961942"><ele>655.0</ele><time>2026-05-01T10:06:34Z</time></trkpt><trkpt lat="44.30552343197558" lon="10.755138070983966"><ele>655.0</ele><time>2026-05-01T10:06:35Z</time></trkpt><trkpt lat="44.30560668666467" lon="10.75516796957831"><ele>655.0</ele><time>2026-05-01T10:06:36Z</time></trkpt><trkpt lat="44.30568161155914" lon="10.755253331777556"><ele>657.8</ele><time>2026-05-01T10:06:37Z</time></trkpt><trkpt lat="44.30574325258817" lon="10.755360267101167"><ele>660.6</ele><time>2026-05-01T10:06:38Z</time></trkpt><trkpt lat="44.30579815725361" lon="10.755478657835797"><ele>663.4000000000001</ele><time>2026-05-01T10:06:39Z</time></trkpt><trkpt lat="44.30586254176143" lon="10.755593665573958"><ele>666.2</ele><time>2026-05-01T10:06:40Z</time></trkpt><trkpt lat="44.30593211118578" lon="10.755702668835498"><ele>669.0</ele><time>2026-05-01T10:06:41Z</time></trkpt><trkpt lat="44.306015772498206" lon="10.755817422956412"><ele>669.0</ele><time>2026-05-01T10:06:42Z</time></trkpt><trkpt lat="44.306124978842604" lon="10.755941472339222"><ele>669.0</ele><time>2026-05-01T10:06:43Z</time></trkpt><trkpt lat="44.30621560626296" lon="10.756069013230707"><ele>669.0</ele><time>2026-05-01T10:06:44Z</time></trkpt><trkpt lat="44.30629749452461" lon="10.756191935639565"><ele>669.0</ele><time>2026-05-01T10:06:45Z</time></trkpt><trkpt lat="44.30636141714471" lon="10.75629415723365"><ele>672.3333333333334</ele><time>2026-05-01T10:06:46Z</time></trkpt><trkpt lat="44.30642886533876" lon="10.756361559657254"><ele>675.6666666666666</ele><time>2026-05-01T10:06:47Z</time></trkpt><trkpt lat="44.30650141787226" lon="10.756396820062742"><ele>679.0</ele><time>2026-05-01T10:06:48Z</time></trkpt><trkpt lat="44.30657548578617" lon="10.756384945911481"><ele>682.3333333333333</ele><time>2026-05-01T10:06:49Z</time></trkpt><trkpt lat="44.30663026927013" lon="10.756333073511646"><ele>685.6666666666666</ele><time>2026-05-01T10:06:50Z</time></trkpt><trkpt lat="44.306659962513834" lon="10.756228554541822"><ele>689.0</ele><time>2026-05-01T10:06:51Z</time></trkpt><trkpt lat="44.306644957381245" lon="10.756101742836194"><ele>688.5</ele><time>2026-05-01T10:06:52Z</time></trkpt><trkpt lat="44.30660226509096" lon="10.755996387041865"><ele>688.0</ele><time>2026-05-01T10:06:53Z</time></trkpt><trkpt lat="44.306579274252975" lon="10.755867630434423"><ele>687.5</ele><time>2026-05-01T10:06:54Z</time></trkpt><trkpt lat="44.30657626276517" lon="10.75574025516698"><ele>687.0</ele><time>2026-05-01T10:06:55Z</time></trkpt><trkpt lat="44.30660789855884" lon="10.755658833818718"><ele>686.5</ele><time>2026-05-01T10:06:56Z</time></trkpt><trkpt lat="44.30667770520307" lon="10.755626842901705"><ele>686.0</ele><time>2026-05-01T10:06:57Z</time></trkpt><trkpt lat="44.30675870875797" lon="10.75567201584501"><ele>686.0</ele><time>2026-05-01T10:06:58Z</time></trkpt><trkpt lat="44.30683061558099" lon="10.755765789328182"><ele>686.0</ele><time>2026-05-01T10:06:59Z</time></trkpt><trkpt lat="44.30687133178642" lon="10.75589424709511"><ele>686.0</ele><time>2026-05-01T10:07:00Z</time></trkpt><trkpt lat="44.30688440241051" lon="10.756038123401789"><ele>686.0</ele><time>2026-05-01T10:07:01Z</time></trkpt><trkpt lat="44.30689197637422" lon="10.756191580678815"><ele>686.0</ele><time>2026-05-01T10:07:02Z</time></trkpt><trkpt lat="44.306899661445584" lon="10.756344647653322"><ele>686.5999999999999</ele><time>2026-05-01T10:07:03Z</time></trkpt><trkpt lat="44.30690067161259" lon="10.756498273808937"><ele>687.2</ele><time>2026-05-01T10:07:04Z</time></trkpt><trkpt lat="44.30689613071678" lon="10.756651171269057"><ele>687.8</ele><time>2026-05-01T10:07:05Z</time></trkpt><trkpt lat="44.3068823879867" lon="10.756803718010273"><ele>688.4000000000001</ele><time>2026-05-01T10:07:06Z</time></trkpt><trkpt lat="44.30687106796525" lon="10.756959885708385"><ele>689.0</ele><time>2026-05-01T10:07:07Z</time></trkpt><trkpt lat="44.30684501705118" lon="10.757114503645074"><ele>690.2</ele><time>2026-05-01T10:07:08Z</time></trkpt><trkpt lat="44.30680140352874" lon="10.757257908343842"><ele>691.4000000000001</ele><time>2026-05-01T10:07:09Z</time></trkpt><trkpt lat="44.30673935835962" lon="10.757412240150897"><ele>692.6</ele><time>2026-05-01T10:07:10Z</time></trkpt><trkpt lat="44.30670299486086" lon="10.757559832122729"><ele>693.8</ele><time>2026-05-01T10:07:11Z</time></trkpt><trkpt lat="44.306691704037256" lon="10.757681327438188"><ele>695.0</ele><time>2026-05-01T10:07:12Z</time></trkpt><trkpt lat="44.30670637327204" lon="10.757809691999157"><ele>695.25</ele><time>2026-05-01T10:07:13Z</time></trkpt><trkpt lat="44.306742080121445" lon="10.75794174157311"><ele>695.5</ele><time>2026-05-01T10:07:14Z</time></trkpt><trkpt lat="44.30679073201921" lon="10.758084466686029"><ele>695.75</ele><time>2026-05-01T10:07:15Z</time></trkpt><trkpt lat="44.30682861068158" lon="10.75824475597878"><ele>696.0</ele><time>2026-05-01T10:07:16Z</time></trkpt><trkpt lat="44.30686033446913" lon="10.758409176531517"><ele>695.1666666666666</ele><time>2026-05-01T10:07:17Z</time></trkpt><trkpt lat="44.306880088794756" lon="10.758561914251143"><ele>694.3333333333334</ele><time>2026-05-01T10:07:18Z</time></trkpt><trkpt lat="44.30690887654037" lon="10.758668038337506"><ele>693.5</ele><time>2026-05-01T10:07:19Z</time></trkpt><trkpt lat="44.30695172627356" lon="10.758739638140474"><ele>692.6666666666667</ele><time>2026-05-01T10:07:20Z</time></trkpt><trkpt lat="44.30701717799425" lon="10.758787102528562"><ele>691.8333333333334</ele><time>2026-05-01T10:07:21Z</time></trkpt><trkpt lat="44.307094110091775" lon="10.758829399193132"><ele>691.0</ele><time>2026-05-01T10:07:22Z</time></trkpt><trkpt lat="44.30717944567013" lon="10.758867000662569"><ele>693.0</ele><time>2026-05-01T10:07:23Z</time></trkpt><trkpt lat="44.30726712086368" lon="10.758903416644682"><ele>695.0</ele><time>2026-05-01T10:07:24Z</time></trkpt><trkpt lat="44.30736290643658" lon="10.758926922351117"><ele>697.0</ele><time>2026-05-01T10:07:25Z</time></trkpt><trkpt lat="44.307467593364585" lon="10.758926356173896"><ele>699.0</ele><time>2026-05-01T10:07:26Z</time></trkpt><trkpt lat="44.30756515695091" lon="10.758936384068303"><ele>701.0</ele><time>2026-05-01T10:07:27Z</time></trkpt><trkpt lat="44.30765749315061" lon="10.758964647630087"><ele>701.0</ele><time>2026-05-01T10:07:28Z</time></trkpt><trkpt lat="44.307751046525" lon="10.759024877207477"><ele>701.0</ele><time>2026-05-01T10:07:29Z</time></trkpt><trkpt lat="44.30784169418226" lon="10.759086666582338"><ele>701.0</ele><time>2026-05-01T10:07:30Z</time></trkpt><trkpt lat="44.30793129216178" lon="10.759148235413962"><ele>701.0</ele><time>2026-05-01T10:07:31Z</time></trkpt><trkpt lat="44.30801265319676" lon="10.759195902918272"><ele>701.0</ele><time>2026-05-01T10:07:32Z</time></trkpt><trkpt lat="44.308086345846064" lon="10.759237055260051"><ele>701.3333333333333</ele><time>2026-05-01T10:07:33Z</time></trkpt><trkpt lat="44.30815364800716" lon="10.759281656359827"><ele>701.6666666666666</ele><time>2026-05-01T10:07:34Z</time></trkpt><trkpt lat="44.30822033081801" lon="10.759317607758852"><ele>702.0</ele><time>2026-05-01T10:07:35Z</time></trkpt><trkpt lat="44.30827970910533" lon="10.759364117882798"><ele>702.3333333333334</ele><time>2026-05-01T10:07:36Z</time></trkpt><trkpt lat="44.30833497705996" lon="10.759408099068693"><ele>702.6666666666667</ele><time>2026-05-01T10:07:37Z</time></trkpt><trkpt lat="44.30833981403857" lon="10.759541042000373"><ele>703.0</ele><time>2026-05-01T10:07:39Z</time></trkpt><trkpt lat="44.30828828720724" lon="10.75963813978337"><ele>700.5999999999999</ele><time>2026-05-01T10:07:40Z</time></trkpt><trkpt lat="44.30823478932873" lon="10.759754755817895"><ele>698.1999999999999</ele><time>2026-05-01T10:07:41Z</time></trkpt><trkpt lat="44.30819418844431" lon="10.759894524098794"><ele>695.8</ele><time>2026-05-01T10:07:42Z</time></trkpt><trkpt lat="44.30814927208582" lon="10.760026829837173"><ele>693.4</ele><time>2026-05-01T10:07:43Z</time></trkpt><trkpt lat="44.30812438953933" lon="10.760160359303024"><ele>691.0</ele><time>2026-05-01T10:07:44Z</time></trkpt><trkpt lat="44.30807131384716" lon="10.760280472177449"><ele>688.3333333333334</ele><time>2026-05-01T10:07:45Z</time></trkpt><trkpt lat="44.308012406679104" lon="10.760376896862118"><ele>685.6666666666667</ele><time>2026-05-01T10:07:46Z</time></trkpt><trkpt lat="44.307946373574325" lon="10.760433781704842"><ele>683.0</ele><time>2026-05-01T10:07:47Z</time></trkpt><trkpt lat="44.30788684716553" lon="10.760525858012688"><ele>680.3333333333334</ele><time>2026-05-01T10:07:48Z</time></trkpt><trkpt lat="44.30784462033266" lon="10.760614411007825"><ele>677.6666666666666</ele><time>2026-05-01T10:07:49Z</time></trkpt><trkpt lat="44.30780553029077" lon="10.760701314342343"><ele>675.0</ele><time>2026-05-01T10:07:50Z</time></trkpt><trkpt lat="44.30775327601888" lon="10.760846281982483"><ele>675.0</ele><time>2026-05-01T10:07:52Z</time></trkpt><trkpt lat="44.3077408664098" lon="10.76096537005065"><ele>675.0</ele><time>2026-05-01T10:07:54Z</time></trkpt><trkpt lat="44.30773472825504" lon="10.76105713411392"><ele>675.0</ele><time>2026-05-01T10:07:57Z</time></trkpt><trkpt lat="44.30774098398551" lon="10.761147134557367"><ele>675.0</ele><time>2026-05-01T10:08:13Z</time></trkpt><trkpt lat="44.307752269796765" lon="10.761025692717174"><ele>675.0</ele><time>2026-05-01T10:08:26Z</time></trkpt><trkpt lat="44.30775081629193" lon="10.760929551078338"><ele>675.0</ele><time>2026-05-01T10:08:27Z</time></trkpt><trkpt lat="44.307767616093805" lon="10.760826156996172"><ele>675.0</ele><time>2026-05-01T10:08:28Z</time></trkpt><trkpt lat="44.307801526837224" lon="10.76069501823082"><ele>675.0</ele><time>2026-05-01T10:08:29Z</time></trkpt><trkpt lat="44.3078557397647" lon="10.760552697678804"><ele>675.0</ele><time>2026-05-01T10:08:30Z</time></trkpt><trkpt lat="44.3079317097759" lon="10.76041871339099"><ele>675.0</ele><time>2026-05-01T10:08:31Z</time></trkpt><trkpt lat="44.308012835123584" lon="10.760316216836278"><ele>675.0</ele><time>2026-05-01T10:08:31.999Z</time></trkpt><trkpt lat="44.30807560238838" lon="10.76023192777919"><ele>675.0</ele><time>2026-05-01T10:08:32.999Z</time></trkpt><trkpt lat="44.308128821592675" lon="10.760128917731286"><ele>677.6666666666666</ele><time>2026-05-01T10:08:33.999Z</time></trkpt><trkpt lat="44.30816544316724" lon="10.760009007691378"><ele>680.3333333333334</ele><time>2026-05-01T10:08:34.999Z</time></trkpt><trkpt lat="44.3081950718521" lon="10.759894210410675"><ele>683.0</ele><time>2026-05-01T10:08:35.999Z</time></trkpt><trkpt lat="44.3082244588588" lon="10.759779985172841"><ele>685.6666666666667</ele><time>2026-05-01T10:08:37Z</time></trkpt><trkpt lat="44.30826238860843" lon="10.759671567234312"><ele>688.3333333333334</ele><time>2026-05-01T10:08:38Z</time></trkpt><trkpt lat="44.30830076211948" lon="10.759575327737293"><ele>691.0</ele><time>2026-05-01T10:08:39Z</time></trkpt><trkpt lat="44.308372677851494" lon="10.759482711776808"><ele>691.0</ele><time>2026-05-01T10:08:41Z</time></trkpt><trkpt lat="44.30843510223937" lon="10.759508468659908"><ele>691.0</ele><time>2026-05-01T10:08:42Z</time></trkpt><trkpt lat="44.30852131011731" lon="10.75957582631296"><ele>691.0</ele><time>2026-05-01T10:08:43Z</time></trkpt><trkpt lat="44.308632232606826" lon="10.759676509150296"><ele>691.0</ele><time>2026-05-01T10:08:44Z</time></trkpt><trkpt lat="44.308756839946966" lon="10.759782293320582"><ele>691.0</ele><time>2026-05-01T10:08:45Z</time></trkpt><trkpt lat="44.308890491585885" lon="10.759913927759204"><ele>693.5</ele><time>2026-05-01T10:08:46Z</time></trkpt><trkpt lat="44.30902885466812" lon="10.760066424704045"><ele>696.0</ele><time>2026-05-01T10:08:47Z</time></trkpt><trkpt lat="44.30915554538929" lon="10.760181848829905"><ele>698.5</ele><time>2026-05-01T10:08:48Z</time></trkpt><trkpt lat="44.30925387686186" lon="10.760280887819464"><ele>701.0</ele><time>2026-05-01T10:08:49Z</time></trkpt><trkpt lat="44.30932104769811" lon="10.760397696459075"><ele>701.0</ele><time>2026-05-01T10:08:50Z</time></trkpt><trkpt lat="44.30937688021676" lon="10.760524434061873"><ele>701.0</ele><time>2026-05-01T10:08:51Z</time></trkpt><trkpt lat="44.30942201316221" lon="10.760671462490548"><ele>701.0</ele><time>2026-05-01T10:08:52Z</time></trkpt><trkpt lat="44.30946592766906" lon="10.760827357415222"><ele>701.0</ele><time>2026-05-01T10:08:53Z</time></trkpt><trkpt lat="44.30950877889288" lon="10.760992213086022"><ele>700.75</ele><time>2026-05-01T10:08:54Z</time></trkpt><trkpt lat="44.30958339322668" lon="10.761137601953664"><ele>700.5</ele><time>2026-05-01T10:08:55Z</time></trkpt><trkpt lat="44.30968166746406" lon="10.761258717866253"><ele>700.25</ele><time>2026-05-01T10:08:56Z</time></trkpt><trkpt lat="44.309760585392425" lon="10.76140740792192"><ele>700.0</ele><time>2026-05-01T10:08:57Z</time></trkpt><trkpt lat="44.3097959114557" lon="10.761582143737305"><ele>705.5</ele><time>2026-05-01T10:08:58Z</time></trkpt><trkpt lat="44.30983275367503" lon="10.761746273378128"><ele>711.0</ele><time>2026-05-01T10:08:59Z</time></trkpt><trkpt lat="44.30989177593117" lon="10.761912776730526"><ele>716.5</ele><time>2026-05-01T10:09:00Z</time></trkpt><trkpt lat="44.309936439422266" lon="10.76208233800991"><ele>722.0</ele><time>2026-05-01T10:09:01Z</time></trkpt><trkpt lat="44.3099357789564" lon="10.76226618224523"><ele>722.75</ele><time>2026-05-01T10:09:02Z</time></trkpt><trkpt lat="44.30993794311726" lon="10.762446853525955"><ele>723.5</ele><time>2026-05-01T10:09:03Z</time></trkpt><trkpt lat="44.30993454677619" lon="10.762630055974213"><ele>724.25</ele><time>2026-05-01T10:09:04Z</time></trkpt><trkpt lat="44.30991048459365" lon="10.762795195695336"><ele>725.0</ele><time>2026-05-01T10:09:05Z</time></trkpt><trkpt lat="44.30990149095724" lon="10.762925926907371"><ele>726.0</ele><time>2026-05-01T10:09:06Z</time></trkpt><trkpt lat="44.309926955171704" lon="10.763103070403753"><ele>727.0</ele><time>2026-05-01T10:09:07Z</time></trkpt><trkpt lat="44.30998744274645" lon="10.763268286791455"><ele>728.0</ele><time>2026-05-01T10:09:08Z</time></trkpt><trkpt lat="44.310009556753506" lon="10.763453408474895"><ele>729.0</ele><time>2026-05-01T10:09:09Z</time></trkpt><trkpt lat="44.30998086146598" lon="10.763629467003897"><ele>730.5</ele><time>2026-05-01T10:09:10Z</time></trkpt><trkpt lat="44.309957186769225" lon="10.763810355741095"><ele>732.0</ele><time>2026-05-01T10:09:11Z</time></trkpt><trkpt lat="44.309978432029666" lon="10.763989248091988"><ele>733.5</ele><time>2026-05-01T10:09:12Z</time></trkpt><trkpt lat="44.31003280998049" lon="10.764148567839836"><ele>735.0</ele><time>2026-05-01T10:09:13Z</time></trkpt><trkpt lat="44.310090098608036" lon="10.764280889556188"><ele>735.8</ele><time>2026-05-01T10:09:14Z</time></trkpt><trkpt lat="44.31013560476456" lon="10.764383384420071"><ele>736.6</ele><time>2026-05-01T10:09:15Z</time></trkpt><trkpt lat="44.310149712398996" lon="10.764502158874418"><ele>737.4000000000001</ele><time>2026-05-01T10:09:16Z</time></trkpt><trkpt lat="44.31015005156745" lon="10.76462776555556"><ele>738.2</ele><time>2026-05-01T10:09:17Z</time></trkpt><trkpt lat="44.3101246121655" lon="10.764760108703753"><ele>739.0</ele><time>2026-05-01T10:09:18Z</time></trkpt><trkpt lat="44.310096807530215" lon="10.764887114711774"><ele>739.0</ele><time>2026-05-01T10:09:19Z</time></trkpt><trkpt lat="44.3100734234797" lon="10.765012854706463"><ele>739.0</ele><time>2026-05-01T10:09:20Z</time></trkpt><trkpt lat="44.31005947923305" lon="10.765143187342918"><ele>739.0</ele><time>2026-05-01T10:09:21Z</time></trkpt><trkpt lat="44.310060156289126" lon="10.765262101431095"><ele>739.0</ele><time>2026-05-01T10:09:22Z</time></trkpt><trkpt lat="44.310094604816186" lon="10.765376250860824"><ele>739.0</ele><time>2026-05-01T10:09:23Z</time></trkpt><trkpt lat="44.3101253638176" lon="10.765472110353198"><ele>739.0</ele><time>2026-05-01T10:09:24Z</time></trkpt><trkpt lat="44.31018300999762" lon="10.765558067396826"><ele>738.4000000000001</ele><time>2026-05-01T10:09:25Z</time></trkpt><trkpt lat="44.31025574111205" lon="10.765615406335922"><ele>737.8</ele><time>2026-05-01T10:09:26Z</time></trkpt><trkpt lat="44.31035672702314" lon="10.765650037543374"><ele>737.2</ele><time>2026-05-01T10:09:27Z</time></trkpt><trkpt lat="44.31046418246048" lon="10.765661019129691"><ele>736.5999999999999</ele><time>2026-05-01T10:09:28Z</time></trkpt><trkpt lat="44.31056749624998" lon="10.76565667007387"><ele>736.0</ele><time>2026-05-01T10:09:29Z</time></trkpt><trkpt lat="44.31066805812409" lon="10.765664893230696"><ele>739.4</ele><time>2026-05-01T10:09:30Z</time></trkpt><trkpt lat="44.310767266279036" lon="10.765673888383123"><ele>742.8</ele><time>2026-05-01T10:09:31Z</time></trkpt><trkpt lat="44.31085427214385" lon="10.765695079310252"><ele>746.1999999999999</ele><time>2026-05-01T10:09:32Z</time></trkpt><trkpt lat="44.310943836796966" lon="10.765719921639814"><ele>749.5999999999999</ele><time>2026-05-01T10:09:34Z</time></trkpt><trkpt lat="44.31106488822143" lon="10.765827169060803"><ele>753.0</ele><time>2026-05-01T10:09:36Z</time></trkpt><trkpt lat="44.311134796542234" lon="10.765925485349564"><ele>751.8</ele><time>2026-05-01T10:09:37Z</time></trkpt><trkpt lat="44.311201014836676" lon="10.766044852227221"><ele>750.5999999999999</ele><time>2026-05-01T10:09:38Z</time></trkpt><trkpt lat="44.31126718532872" lon="10.766172250646695"><ele>749.4000000000001</ele><time>2026-05-01T10:09:39Z</time></trkpt><trkpt lat="44.31133497114695" lon="10.766292518260519"><ele>748.2</ele><time>2026-05-01T10:09:40Z</time></trkpt><trkpt lat="44.3114141378011" lon="10.766374934004354"><ele>747.0</ele><time>2026-05-01T10:09:41Z</time></trkpt><trkpt lat="44.311469710084744" lon="10.766439422638452"><ele>749.5</ele><time>2026-05-01T10:09:42Z</time></trkpt><trkpt lat="44.311544283760085" lon="10.766491042484171"><ele>752.0</ele><time>2026-05-01T10:09:44Z</time></trkpt><trkpt lat="44.311536773103" lon="10.766680955537469"><ele>754.5</ele><time>2026-05-01T10:09:47Z</time></trkpt><trkpt lat="44.311519323755164" lon="10.766832667606772"><ele>757.0</ele><time>2026-05-01T10:09:48Z</time></trkpt><trkpt lat="44.31151699804341" lon="10.767007815348002"><ele>757.0</ele><time>2026-05-01T10:09:49Z</time></trkpt><trkpt lat="44.3115062519711" lon="10.767197617924067"><ele>757.0</ele><time>2026-05-01T10:09:50Z</time></trkpt><trkpt lat="44.31152123734664" lon="10.767391297438982"><ele>757.0</ele><time>2026-05-01T10:09:51Z</time></trkpt><trkpt lat="44.311558833805165" lon="10.767589375703965"><ele>757.0</ele><time>2026-05-01T10:09:52Z</time></trkpt><trkpt lat="44.31161558095219" lon="10.7677823339501"><ele>757.5</ele><time>2026-05-01T10:09:53Z</time></trkpt><trkpt lat="44.311689571537" lon="10.767956515545185"><ele>758.0</ele><time>2026-05-01T10:09:54Z</time></trkpt><trkpt lat="44.311753011010275" lon="10.768130730596173"><ele>758.5</ele><time>2026-05-01T10:09:55Z</time></trkpt><trkpt lat="44.31181092128367" lon="10.768309041139679"><ele>759.0</ele><time>2026-05-01T10:09:56Z</time></trkpt><trkpt lat="44.31186498651552" lon="10.768488541770223"><ele>759.0</ele><time>2026-05-01T10:09:57Z</time></trkpt><trkpt lat="44.31191434515202" lon="10.768670881400226"><ele>759.0</ele><time>2026-05-01T10:09:58Z</time></trkpt><trkpt lat="44.31195150227841" lon="10.768864738403856"><ele>759.0</ele><time>2026-05-01T10:09:59Z</time></trkpt><trkpt lat="44.311983519758854" lon="10.769047920322329"><ele>759.0</ele><time>2026-05-01T10:10:00Z</time></trkpt><trkpt lat="44.31201968423409" lon="10.769240599997088"><ele>757.5</ele><time>2026-05-01T10:10:01Z</time></trkpt><trkpt lat="44.31205284375657" lon="10.76942860723809"><ele>756.0</ele><time>2026-05-01T10:10:02Z</time></trkpt><trkpt lat="44.31207378373431" lon="10.769608518765999"><ele>754.5</ele><time>2026-05-01T10:10:03Z</time></trkpt><trkpt lat="44.3121076623702" lon="10.769790320886434"><ele>753.0</ele><time>2026-05-01T10:10:04Z</time></trkpt><trkpt lat="44.312129176324746" lon="10.769973835441009"><ele>753.0</ele><time>2026-05-01T10:10:05Z</time></trkpt><trkpt lat="44.3121400737363" lon="10.770161068379814"><ele>753.0</ele><time>2026-05-01T10:10:06Z</time></trkpt><trkpt lat="44.31213942771139" lon="10.77034173854373"><ele>753.0</ele><time>2026-05-01T10:10:07Z</time></trkpt><trkpt lat="44.312134009233134" lon="10.77052442222184"><ele>753.0</ele><time>2026-05-01T10:10:08Z</time></trkpt><trkpt lat="44.31214315350224" lon="10.770711768538533"><ele>751.25</ele><time>2026-05-01T10:10:09Z</time></trkpt><trkpt lat="44.312131411401964" lon="10.770890305872301"><ele>749.5</ele><time>2026-05-01T10:10:10Z</time></trkpt><trkpt lat="44.31210829550889" lon="10.771056100551519"><ele>747.75</ele><time>2026-05-01T10:10:11Z</time></trkpt><trkpt lat="44.31205286870461" lon="10.77122838808101"><ele>746.0</ele><time>2026-05-01T10:10:12Z</time></trkpt><trkpt lat="44.311964411172234" lon="10.771369474349228"><ele>744.75</ele><time>2026-05-01T10:10:13Z</time></trkpt><trkpt lat="44.31188032117986" lon="10.771525706901917"><ele>743.5</ele><time>2026-05-01T10:10:14Z</time></trkpt><trkpt lat="44.3117930399399" lon="10.771665708478805"><ele>742.25</ele><time>2026-05-01T10:10:15Z</time></trkpt><trkpt lat="44.3117145992298" lon="10.771822881575446"><ele>741.0</ele><time>2026-05-01T10:10:16Z</time></trkpt><trkpt lat="44.31166022433791" lon="10.771995656231288"><ele>739.0</ele><time>2026-05-01T10:10:17Z</time></trkpt><trkpt lat="44.311617494850644" lon="10.772173690085335"><ele>737.0</ele><time>2026-05-01T10:10:18Z</time></trkpt><trkpt lat="44.311576023888215" lon="10.772352935299415"><ele>735.0</ele><time>2026-05-01T10:10:19Z</time></trkpt><trkpt lat="44.311537477748864" lon="10.772540698540606"><ele>733.0</ele><time>2026-05-01T10:10:20Z</time></trkpt><trkpt lat="44.31151224663212" lon="10.77273044945002"><ele>732.5</ele><time>2026-05-01T10:10:21Z</time></trkpt><trkpt lat="44.311498332761815" lon="10.772920943276498"><ele>732.0</ele><time>2026-05-01T10:10:22Z</time></trkpt><trkpt lat="44.31149818150896" lon="10.77310636963579"><ele>731.5</ele><time>2026-05-01T10:10:23Z</time></trkpt><trkpt lat="44.31149972923254" lon="10.773293749599164"><ele>731.0</ele><time>2026-05-01T10:10:24Z</time></trkpt><trkpt lat="44.31150153046601" lon="10.773479559090049"><ele>730.25</ele><time>2026-05-01T10:10:25Z</time></trkpt><trkpt lat="44.31150104891551" lon="10.773662864348282"><ele>729.5</ele><time>2026-05-01T10:10:26Z</time></trkpt><trkpt lat="44.311498349870234" lon="10.773845758369498"><ele>728.75</ele><time>2026-05-01T10:10:27Z</time></trkpt><trkpt lat="44.311499720484896" lon="10.774027433593767"><ele>728.0</ele><time>2026-05-01T10:10:28Z</time></trkpt><trkpt lat="44.311515155150765" lon="10.774206958508177"><ele>729.0</ele><time>2026-05-01T10:10:29Z</time></trkpt><trkpt lat="44.311538298837355" lon="10.774375375703903"><ele>730.0</ele><time>2026-05-01T10:10:30Z</time></trkpt><trkpt lat="44.31158083404479" lon="10.774541465423635"><ele>731.0</ele><time>2026-05-01T10:10:31Z</time></trkpt><trkpt lat="44.31163176977817" lon="10.774706089324983"><ele>732.0</ele><time>2026-05-01T10:10:32Z</time></trkpt><trkpt lat="44.311678951227215" lon="10.774881200660817"><ele>732.0</ele><time>2026-05-01T10:10:33Z</time></trkpt><trkpt lat="44.31170621807109" lon="10.775049983195952"><ele>732.0</ele><time>2026-05-01T10:10:34Z</time></trkpt><trkpt lat="44.311723968308364" lon="10.77522212058379"><ele>732.0</ele><time>2026-05-01T10:10:35Z</time></trkpt><trkpt lat="44.31174030499793" lon="10.775384990359818"><ele>732.0</ele><time>2026-05-01T10:10:36Z</time></trkpt><trkpt lat="44.3117466700492" lon="10.775535955804978"><ele>733.1666666666666</ele><time>2026-05-01T10:10:37Z</time></trkpt><trkpt lat="44.3117536034912" lon="10.775663515860757"><ele>734.3333333333334</ele><time>2026-05-01T10:10:37.999Z</time></trkpt><trkpt lat="44.3117524946286" lon="10.775775663811071"><ele>735.5</ele><time>2026-05-01T10:10:38.999Z</time></trkpt><trkpt lat="44.3117508719719" lon="10.775877840685375"><ele>736.6666666666667</ele><time>2026-05-01T10:10:39.999Z</time></trkpt><trkpt lat="44.311745817865386" lon="10.775973927498125"><ele>737.8333333333334</ele><time>2026-05-01T10:10:40.999Z</time></trkpt><trkpt lat="44.31172686270983" lon="10.776121814132209"><ele>739.0</ele><time>2026-05-01T10:10:42.999Z</time></trkpt><trkpt lat="44.3117160248482" lon="10.776210136545012"><ele>739.6666666666667</ele><time>2026-05-01T10:10:45.999Z</time></trkpt><trkpt lat="44.31170551213662" lon="10.776337199244283"><ele>740.3333333333334</ele><time>2026-05-01T10:11:20Z</time></trkpt><trkpt lat="44.31169033395388" lon="10.776422705438364"><ele>741.0</ele><time>2026-05-01T10:11:21Z</time></trkpt><trkpt lat="44.31164902637841" lon="10.776518936739244"><ele>741.6666666666666</ele><time>2026-05-01T10:11:22Z</time></trkpt><trkpt lat="44.31159235783377" lon="10.776625131932144"><ele>742.3333333333333</ele><time>2026-05-01T10:11:23Z</time></trkpt><trkpt lat="44.31150873300832" lon="10.776722226994412"><ele>743.0</ele><time>2026-05-01T10:11:24Z</time></trkpt><trkpt lat="44.311401814286384" lon="10.776801785478476"><ele>743.5</ele><time>2026-05-01T10:11:25Z</time></trkpt><trkpt lat="44.3112842590336" lon="10.77687924775655"><ele>744.0</ele><time>2026-05-01T10:11:26Z</time></trkpt><trkpt lat="44.31117538151883" lon="10.776986444288465"><ele>744.5</ele><time>2026-05-01T10:11:27Z</time></trkpt><trkpt lat="44.311103317682644" lon="10.777129622097387"><ele>745.0</ele><time>2026-05-01T10:11:28Z</time></trkpt><trkpt lat="44.31106080685163" lon="10.777295709897595"><ele>745.0</ele><time>2026-05-01T10:11:29Z</time></trkpt><trkpt lat="44.311047669890264" lon="10.77748033097726"><ele>745.0</ele><time>2026-05-01T10:11:30Z</time></trkpt><trkpt lat="44.31104614165169" lon="10.777676621125229"><ele>745.0</ele><time>2026-05-01T10:11:31Z</time></trkpt><trkpt lat="44.31106558410408" lon="10.777880124305833"><ele>745.0</ele><time>2026-05-01T10:11:32Z</time></trkpt><trkpt lat="44.311061680344444" lon="10.778099627287226"><ele>745.0</ele><time>2026-05-01T10:11:33Z</time></trkpt><trkpt lat="44.311069872918175" lon="10.778325649118576"><ele>745.0</ele><time>2026-05-01T10:11:34Z</time></trkpt><trkpt lat="44.31107865725639" lon="10.778552021277537"><ele>745.0</ele><time>2026-05-01T10:11:35Z</time></trkpt><trkpt lat="44.31107986336566" lon="10.778777997173835"><ele>745.5</ele><time>2026-05-01T10:11:36Z</time></trkpt><trkpt lat="44.31106453013638" lon="10.778989759655243"><ele>746.0</ele><time>2026-05-01T10:11:37Z</time></trkpt><trkpt lat="44.31098703053421" lon="10.779161670894029"><ele>746.5</ele><time>2026-05-01T10:11:38Z</time></trkpt><trkpt lat="44.310942978851514" lon="10.779327351378711"><ele>747.0</ele><time>2026-05-01T10:11:39Z</time></trkpt><trkpt lat="44.310906476681836" lon="10.779473413753756"><ele>747.0</ele><time>2026-05-01T10:11:40Z</time></trkpt><trkpt lat="44.31089535303637" lon="10.779629559967004"><ele>747.0</ele><time>2026-05-01T10:11:41Z</time></trkpt><trkpt lat="44.310952252964185" lon="10.779774166063085"><ele>747.0</ele><time>2026-05-01T10:11:42Z</time></trkpt><trkpt lat="44.31102360889824" lon="10.779901802404765"><ele>747.0</ele><time>2026-05-01T10:11:43Z</time></trkpt><trkpt lat="44.31112929337363" lon="10.779988748901916"><ele>747.0</ele><time>2026-05-01T10:11:44Z</time></trkpt><trkpt lat="44.31124342813262" lon="10.780065635969326"><ele>747.0</ele><time>2026-05-01T10:11:45Z</time></trkpt><trkpt lat="44.311368005938895" lon="10.780147033853385"><ele>747.0</ele><time>2026-05-01T10:11:46Z</time></trkpt><trkpt lat="44.311475073869964" lon="10.78026416164518"><ele>747.0</ele><time>2026-05-01T10:11:47Z</time></trkpt><trkpt lat="44.31155413785384" lon="10.78043459325649"><ele>746.75</ele><time>2026-05-01T10:11:48Z</time></trkpt><trkpt lat="44.31162096983164" lon="10.7806195507762"><ele>746.5</ele><time>2026-05-01T10:11:49Z</time></trkpt><trkpt lat="44.31169265821077" lon="10.78079286862745"><ele>746.25</ele><time>2026-05-01T10:11:50Z</time></trkpt><trkpt lat="44.31172702257698" lon="10.78099925786097"><ele>746.0</ele><time>2026-05-01T10:11:51Z</time></trkpt><trkpt lat="44.31176135181712" lon="10.781208940925561"><ele>744.3333333333333</ele><time>2026-05-01T10:11:52Z</time></trkpt><trkpt lat="44.311789011258384" lon="10.781428504075043"><ele>742.6666666666666</ele><time>2026-05-01T10:11:53Z</time></trkpt><trkpt lat="44.31182206606389" lon="10.781645433722423"><ele>741.0</ele><time>2026-05-01T10:11:54Z</time></trkpt><trkpt lat="44.31180995610326" lon="10.781874139840339"><ele>739.6666666666666</ele><time>2026-05-01T10:11:55Z</time></trkpt><trkpt lat="44.31180105208761" lon="10.782102376860456"><ele>738.3333333333333</ele><time>2026-05-01T10:11:56Z</time></trkpt><trkpt lat="44.311802892988915" lon="10.782333556043888"><ele>737.0</ele><time>2026-05-01T10:11:57Z</time></trkpt><trkpt lat="44.31178333228497" lon="10.782569808016154"><ele>737.6666666666666</ele><time>2026-05-01T10:11:58Z</time></trkpt><trkpt lat="44.311771937380165" lon="10.782802432562619"><ele>738.3333333333334</ele><time>2026-05-01T10:11:59Z</time></trkpt><trkpt lat="44.31175859114653" lon="10.78303114590223"><ele>739.0</ele><time>2026-05-01T10:12:00Z</time></trkpt><trkpt lat="44.31174536721307" lon="10.783264387530844"><ele>739.0</ele><time>2026-05-01T10:12:01Z</time></trkpt><trkpt lat="44.31173552238386" lon="10.78348113060164"><ele>739.0</ele><time>2026-05-01T10:12:02Z</time></trkpt><trkpt lat="44.31173629726215" lon="10.783693537837006"><ele>739.0</ele><time>2026-05-01T10:12:03Z</time></trkpt><trkpt lat="44.31174363461096" lon="10.783901853138428"><ele>739.6666666666667</ele><time>2026-05-01T10:12:04Z</time></trkpt><trkpt lat="44.311786765585346" lon="10.784113331695213"><ele>740.3333333333334</ele><time>2026-05-01T10:12:05Z</time></trkpt><trkpt lat="44.31183984196503" lon="10.784317722101406"><ele>741.0</ele><time>2026-05-01T10:12:06Z</time></trkpt><trkpt lat="44.311884508814856" lon="10.784521844644681"><ele>739.6666666666666</ele><time>2026-05-01T10:12:07Z</time></trkpt><trkpt lat="44.311929365197386" lon="10.784724553479798"><ele>738.3333333333333</ele><time>2026-05-01T10:12:08Z</time></trkpt><trkpt lat="44.31196958576927" lon="10.784930842322318"><ele>737.0</ele><time>2026-05-01T10:12:09Z</time></trkpt><trkpt lat="44.31200545624344" lon="10.78513034999968"><ele>737.25</ele><time>2026-05-01T10:12:10Z</time></trkpt><trkpt lat="44.31199454186967" lon="10.785338140925846"><ele>737.5</ele><time>2026-05-01T10:12:11Z</time></trkpt><trkpt lat="44.311963169560336" lon="10.785519425459654"><ele>737.75</ele><time>2026-05-01T10:12:12Z</time></trkpt><trkpt lat="44.31190421823416" lon="10.785684465279088"><ele>738.0</ele><time>2026-05-01T10:12:13Z</time></trkpt><trkpt lat="44.31182820131367" lon="10.785846171913901"><ele>739.25</ele><time>2026-05-01T10:12:14Z</time></trkpt><trkpt lat="44.31175447979708" lon="10.786014451783814"><ele>740.5</ele><time>2026-05-01T10:12:15Z</time></trkpt><trkpt lat="44.31169431390189" lon="10.786189106741082"><ele>741.75</ele><time>2026-05-01T10:12:16Z</time></trkpt><trkpt lat="44.31166822258243" lon="10.786375513738783"><ele>743.0</ele><time>2026-05-01T10:12:17Z</time></trkpt><trkpt lat="44.311649897808365" lon="10.786564387143285"><ele>743.0</ele><time>2026-05-01T10:12:18Z</time></trkpt><trkpt lat="44.311618708614574" lon="10.78675584406069"><ele>743.0</ele><time>2026-05-01T10:12:19Z</time></trkpt><trkpt lat="44.31159343998587" lon="10.786941801564325"><ele>743.0</ele><time>2026-05-01T10:12:20Z</time></trkpt><trkpt lat="44.311548135891" lon="10.787124234325532"><ele>743.0</ele><time>2026-05-01T10:12:21Z</time></trkpt><trkpt lat="44.31151251595355" lon="10.787310814131594"><ele>743.25</ele><time>2026-05-01T10:12:22Z</time></trkpt><trkpt lat="44.31147363669751" lon="10.787498955880645"><ele>743.5</ele><time>2026-05-01T10:12:23Z</time></trkpt><trkpt lat="44.31142431237141" lon="10.787681851132135"><ele>743.75</ele><time>2026-05-01T10:12:24Z</time></trkpt><trkpt lat="44.31134983830294" lon="10.787840587189816"><ele>744.0</ele><time>2026-05-01T10:12:25Z</time></trkpt><trkpt lat="44.31125572941635" lon="10.7879588144319"><ele>742.0</ele><time>2026-05-01T10:12:26Z</time></trkpt><trkpt lat="44.311179535070806" lon="10.788080600727477"><ele>740.0</ele><time>2026-05-01T10:12:27Z</time></trkpt><trkpt lat="44.31113203253542" lon="10.78817674595206"><ele>738.0</ele><time>2026-05-01T10:12:28Z</time></trkpt><trkpt lat="44.311131808375954" lon="10.788295817853276"><ele>736.0</ele><time>2026-05-01T10:12:29Z</time></trkpt><trkpt lat="44.31117856416401" lon="10.788423927293314"><ele>734.0</ele><time>2026-05-01T10:12:30Z</time></trkpt><trkpt lat="44.31125281740914" lon="10.788538368739992"><ele>735.5</ele><time>2026-05-01T10:12:31Z</time></trkpt><trkpt lat="44.31134596790323" lon="10.788637937859153"><ele>737.0</ele><time>2026-05-01T10:12:32Z</time></trkpt><trkpt lat="44.31144539836611" lon="10.788742044346053"><ele>738.5</ele><time>2026-05-01T10:12:33Z</time></trkpt><trkpt lat="44.311527206020685" lon="10.788877534024563"><ele>740.0</ele><time>2026-05-01T10:12:34Z</time></trkpt><trkpt lat="44.311559697853546" lon="10.789055610648008"><ele>740.0</ele><time>2026-05-01T10:12:35Z</time></trkpt><trkpt lat="44.31153467855735" lon="10.78924547122808"><ele>740.0</ele><time>2026-05-01T10:12:36Z</time></trkpt><trkpt lat="44.31148334678719" lon="10.789413078839011"><ele>740.0</ele><time>2026-05-01T10:12:37Z</time></trkpt><trkpt lat="44.311425516086025" lon="10.789590805276848"><ele>740.0</ele><time>2026-05-01T10:12:38Z</time></trkpt><trkpt lat="44.31138479896701" lon="10.789779030229239"><ele>735.5</ele><time>2026-05-01T10:12:39Z</time></trkpt><trkpt lat="44.31133775552235" lon="10.78995200892177"><ele>731.0</ele><time>2026-05-01T10:12:40Z</time></trkpt><trkpt lat="44.31131692700063" lon="10.790109559852006"><ele>726.5</ele><time>2026-05-01T10:12:41Z</time></trkpt><trkpt lat="44.31133322658783" lon="10.790280559353738"><ele>722.0</ele><time>2026-05-01T10:12:42Z</time></trkpt><trkpt lat="44.311391827129704" lon="10.790448703186057"><ele>723.0</ele><time>2026-05-01T10:12:43Z</time></trkpt><trkpt lat="44.31145061189907" lon="10.790622508048642"><ele>724.0</ele><time>2026-05-01T10:12:43.999Z</time></trkpt><trkpt lat="44.311502520001056" lon="10.790807389470142"><ele>725.0</ele><time>2026-05-01T10:12:44.999Z</time></trkpt><trkpt lat="44.31154743368968" lon="10.791000982269738"><ele>726.0</ele><time>2026-05-01T10:12:45.999Z</time></trkpt><trkpt lat="44.31159966803819" lon="10.791199694565892"><ele>726.0</ele><time>2026-05-01T10:12:46.999Z</time></trkpt><trkpt lat="44.31164785386598" lon="10.791402629850177"><ele>726.0</ele><time>2026-05-01T10:12:47.999Z</time></trkpt><trkpt lat="44.31169536090457" lon="10.791613162959072"><ele>726.0</ele><time>2026-05-01T10:12:48.999Z</time></trkpt><trkpt lat="44.31173994585282" lon="10.791827206765392"><ele>724.0</ele><time>2026-05-01T10:12:49.999Z</time></trkpt><trkpt lat="44.311786441067426" lon="10.792049191682448"><ele>722.0</ele><time>2026-05-01T10:12:50.999Z</time></trkpt><trkpt lat="44.311831741861276" lon="10.792272049543424"><ele>720.0</ele><time>2026-05-01T10:12:51.999Z</time></trkpt><trkpt lat="44.31188348803169" lon="10.79249910137014"><ele>717.6666666666666</ele><time>2026-05-01T10:12:52.999Z</time></trkpt><trkpt lat="44.31193246916305" lon="10.792725077355039"><ele>715.3333333333333</ele><time>2026-05-01T10:12:53.999Z</time></trkpt><trkpt lat="44.31198058044696" lon="10.792949125523366"><ele>713.0</ele><time>2026-05-01T10:12:54.999Z</time></trkpt><trkpt lat="44.312029377773825" lon="10.793187535520776"><ele>713.0</ele><time>2026-05-01T10:12:55.999Z</time></trkpt><trkpt lat="44.31208189127699" lon="10.793414633773306"><ele>713.0</ele><time>2026-05-01T10:12:56.999Z</time></trkpt><trkpt lat="44.312121415410516" lon="10.79364131468144"><ele>713.0</ele><time>2026-05-01T10:12:57.999Z</time></trkpt><trkpt lat="44.312174092071764" lon="10.79385973397586"><ele>712.6666666666666</ele><time>2026-05-01T10:12:58.999Z</time></trkpt><trkpt lat="44.31222820416339" lon="10.794074782647854"><ele>712.3333333333334</ele><time>2026-05-01T10:13:00Z</time></trkpt><trkpt lat="44.31228313240238" lon="10.794281808059585"><ele>712.0</ele><time>2026-05-01T10:13:01Z</time></trkpt><trkpt lat="44.31235223955479" lon="10.794484080937481"><ele>714.3333333333334</ele><time>2026-05-01T10:13:02Z</time></trkpt><trkpt lat="44.31242962221514" lon="10.794673735060522"><ele>716.6666666666666</ele><time>2026-05-01T10:13:03Z</time></trkpt><trkpt lat="44.31251781530723" lon="10.794852872659867"><ele>719.0</ele><time>2026-05-01T10:13:04Z</time></trkpt><trkpt lat="44.31261707548577" lon="10.795018969161475"><ele>717.0</ele><time>2026-05-01T10:13:05Z</time></trkpt><trkpt lat="44.312711253638255" lon="10.795188045273262"><ele>715.0</ele><time>2026-05-01T10:13:06Z</time></trkpt><trkpt lat="44.31280680122691" lon="10.795362616713673"><ele>713.0</ele><time>2026-05-01T10:13:07Z</time></trkpt><trkpt lat="44.31289994736186" lon="10.795539832351595"><ele>713.0</ele><time>2026-05-01T10:13:08Z</time></trkpt><trkpt lat="44.31299171652539" lon="10.795719910649604"><ele>713.0</ele><time>2026-05-01T10:13:09Z</time></trkpt><trkpt lat="44.31308364359523" lon="10.795897524912013"><ele>713.0</ele><time>2026-05-01T10:13:10Z</time></trkpt><trkpt lat="44.313186268359686" lon="10.796073017682632"><ele>714.3333333333333</ele><time>2026-05-01T10:13:11Z</time></trkpt><trkpt lat="44.313282711529446" lon="10.796252256096762"><ele>715.6666666666666</ele><time>2026-05-01T10:13:12Z</time></trkpt><trkpt lat="44.31338464579971" lon="10.79643260007816"><ele>717.0</ele><time>2026-05-01T10:13:13Z</time></trkpt><trkpt lat="44.313494778654594" lon="10.796607318460795"><ele>717.0</ele><time>2026-05-01T10:13:14Z</time></trkpt><trkpt lat="44.31360712320452" lon="10.79678284250858"><ele>717.0</ele><time>2026-05-01T10:13:15Z</time></trkpt><trkpt lat="44.31371672634406" lon="10.796961672647"><ele>717.0</ele><time>2026-05-01T10:13:16Z</time></trkpt><trkpt lat="44.31383201058336" lon="10.797136761364744"><ele>717.0</ele><time>2026-05-01T10:13:17Z</time></trkpt><trkpt lat="44.31395147032786" lon="10.797312118630689"><ele>717.0</ele><time>2026-05-01T10:13:18Z</time></trkpt><trkpt lat="44.31406547121953" lon="10.797473438587117"><ele>717.0</ele><time>2026-05-01T10:13:19Z</time></trkpt><trkpt lat="44.3141815415667" lon="10.797629052197777"><ele>714.0</ele><time>2026-05-01T10:13:20Z</time></trkpt><trkpt lat="44.3142969514325" lon="10.797770431915078"><ele>711.0</ele><time>2026-05-01T10:13:21Z</time></trkpt><trkpt lat="44.31442189731056" lon="10.797908869306086"><ele>708.0</ele><time>2026-05-01T10:13:22Z</time></trkpt><trkpt lat="44.314539724401534" lon="10.798046485854666"><ele>708.0</ele><time>2026-05-01T10:13:23Z</time></trkpt><trkpt lat="44.314652695386144" lon="10.798187703937453"><ele>708.0</ele><time>2026-05-01T10:13:24Z</time></trkpt><trkpt lat="44.314771247015265" lon="10.798327611974573"><ele>708.0</ele><time>2026-05-01T10:13:25Z</time></trkpt><trkpt lat="44.31487611042822" lon="10.798456639107286"><ele>708.0</ele><time>2026-05-01T10:13:26Z</time></trkpt><trkpt lat="44.31497224884777" lon="10.798585424126705"><ele>708.5</ele><time>2026-05-01T10:13:27Z</time></trkpt><trkpt lat="44.31502212196325" lon="10.798744650141813"><ele>709.0</ele><time>2026-05-01T10:13:28Z</time></trkpt><trkpt lat="44.315063711246545" lon="10.798924342757187"><ele>709.5</ele><time>2026-05-01T10:13:29Z</time></trkpt><trkpt lat="44.31512101675086" lon="10.799099499701596"><ele>710.0</ele><time>2026-05-01T10:13:30Z</time></trkpt><trkpt lat="44.31516890114085" lon="10.799269581982925"><ele>709.0</ele><time>2026-05-01T10:13:31Z</time></trkpt><trkpt lat="44.315223029876364" lon="10.799414878017283"><ele>708.0</ele><time>2026-05-01T10:13:32Z</time></trkpt><trkpt lat="44.31523188660838" lon="10.799554937354376"><ele>707.0</ele><time>2026-05-01T10:13:33Z</time></trkpt><trkpt lat="44.315224760497536" lon="10.799685854813962"><ele>706.0</ele><time>2026-05-01T10:13:34Z</time></trkpt><trkpt lat="44.315208081157905" lon="10.799847246812487"><ele>705.0</ele><time>2026-05-01T10:13:35Z</time></trkpt><trkpt lat="44.31513488928184" lon="10.800012439449413"><ele>705.75</ele><time>2026-05-01T10:13:36Z</time></trkpt><trkpt lat="44.31507604782182" lon="10.8001913661052"><ele>706.5</ele><time>2026-05-01T10:13:37Z</time></trkpt><trkpt lat="44.315022678014664" lon="10.80039059876414"><ele>707.25</ele><time>2026-05-01T10:13:38Z</time></trkpt><trkpt lat="44.31497079118788" lon="10.800596177533192"><ele>708.0</ele><time>2026-05-01T10:13:39Z</time></trkpt><trkpt lat="44.31491799032215" lon="10.800809245173946"><ele>710.3333333333334</ele><time>2026-05-01T10:13:40Z</time></trkpt><trkpt lat="44.31484784133761" lon="10.801023103434295"><ele>712.6666666666667</ele><time>2026-05-01T10:13:41Z</time></trkpt><trkpt lat="44.31480048204806" lon="10.801247757941224"><ele>715.0</ele><time>2026-05-01T10:13:42Z</time></trkpt><trkpt lat="44.31473685991242" lon="10.801426152731016"><ele>715.0</ele><time>2026-05-01T10:13:43Z</time></trkpt><trkpt lat="44.314713598568346" lon="10.801604988045678"><ele>715.0</ele><time>2026-05-01T10:13:44Z</time></trkpt><trkpt lat="44.31470655825142" lon="10.801784310934131"><ele>715.0</ele><time>2026-05-01T10:13:45Z</time></trkpt><trkpt lat="44.31465877067725" lon="10.801979672954216"><ele>715.0</ele><time>2026-05-01T10:13:46Z</time></trkpt><trkpt lat="44.314805600809834" lon="10.802179404131362"><ele>715.0</ele><time>2026-05-01T10:13:47Z</time></trkpt><trkpt lat="44.31487057183069" lon="10.802389433353444"><ele>715.0</ele><time>2026-05-01T10:13:48Z</time></trkpt><trkpt lat="44.314931982500376" lon="10.8026214806495"><ele>715.0</ele><time>2026-05-01T10:13:49Z</time></trkpt><trkpt lat="44.314993968388904" lon="10.802860623050277"><ele>714.3333333333334</ele><time>2026-05-01T10:13:50Z</time></trkpt><trkpt lat="44.31505153070349" lon="10.803110308898445"><ele>713.6666666666666</ele><time>2026-05-01T10:13:51Z</time></trkpt><trkpt lat="44.31506870970516" lon="10.803383649460633"><ele>713.0</ele><time>2026-05-01T10:13:52Z</time></trkpt><trkpt lat="44.31506636338835" lon="10.803650138469356"><ele>713.0</ele><time>2026-05-01T10:13:53Z</time></trkpt><trkpt lat="44.315061567852375" lon="10.80387910660518"><ele>713.0</ele><time>2026-05-01T10:13:54Z</time></trkpt><trkpt lat="44.31508128026112" lon="10.804086534676713"><ele>713.0</ele><time>2026-05-01T10:13:55Z</time></trkpt><trkpt lat="44.31511646669214" lon="10.804287953478038"><ele>711.75</ele><time>2026-05-01T10:13:56Z</time></trkpt><trkpt lat="44.3151747613489" lon="10.804455864803206"><ele>710.5</ele><time>2026-05-01T10:13:57Z</time></trkpt><trkpt lat="44.31525777576266" lon="10.804582361728642"><ele>709.25</ele><time>2026-05-01T10:13:58Z</time></trkpt><trkpt lat="44.31536467175031" lon="10.80467835230911"><ele>708.0</ele><time>2026-05-01T10:13:59Z</time></trkpt><trkpt lat="44.315493043194685" lon="10.804757792377794"><ele>711.25</ele><time>2026-05-01T10:14:00Z</time></trkpt><trkpt lat="44.31563410096561" lon="10.804815144171545"><ele>714.5</ele><time>2026-05-01T10:14:01Z</time></trkpt><trkpt lat="44.31577662394409" lon="10.80488095725652"><ele>717.75</ele><time>2026-05-01T10:14:02Z</time></trkpt><trkpt lat="44.315918336645176" lon="10.804959074236299"><ele>721.0</ele><time>2026-05-01T10:14:03Z</time></trkpt><trkpt lat="44.31607056649313" lon="10.805043114672396"><ele>721.0</ele><time>2026-05-01T10:14:04Z</time></trkpt><trkpt lat="44.31621927450038" lon="10.805135235539106"><ele>721.0</ele><time>2026-05-01T10:14:05Z</time></trkpt><trkpt lat="44.31636457776051" lon="10.805231581606792"><ele>721.0</ele><time>2026-05-01T10:14:06Z</time></trkpt><trkpt lat="44.31651104835891" lon="10.805327750557787"><ele>721.0</ele><time>2026-05-01T10:14:07Z</time></trkpt><trkpt lat="44.31662987348197" lon="10.805440504207334"><ele>721.0</ele><time>2026-05-01T10:14:08Z</time></trkpt><trkpt lat="44.316707295967646" lon="10.805609843889917"><ele>721.0</ele><time>2026-05-01T10:14:09Z</time></trkpt><trkpt lat="44.316781072385666" lon="10.805794397299655"><ele>721.0</ele><time>2026-05-01T10:14:10Z</time></trkpt><trkpt lat="44.31684687917652" lon="10.806006265089987"><ele>718.0</ele><time>2026-05-01T10:14:11Z</time></trkpt><trkpt lat="44.316924520864575" lon="10.806211330709724"><ele>715.0</ele><time>2026-05-01T10:14:12Z</time></trkpt><trkpt lat="44.316992506305596" lon="10.806428221338853"><ele>712.0</ele><time>2026-05-01T10:14:13Z</time></trkpt><trkpt lat="44.3170581170224" lon="10.806637373747211"><ele>711.6666666666667</ele><time>2026-05-01T10:14:14Z</time></trkpt><trkpt lat="44.31711966089921" lon="10.806852031808063"><ele>711.3333333333334</ele><time>2026-05-01T10:14:15Z</time></trkpt><trkpt lat="44.31717810214089" lon="10.807053895188485"><ele>711.0</ele><time>2026-05-01T10:14:16Z</time></trkpt><trkpt lat="44.31723495654083" lon="10.807242109621606"><ele>710.25</ele><time>2026-05-01T10:14:17Z</time></trkpt><trkpt lat="44.31727860762074" lon="10.807423713549502"><ele>709.5</ele><time>2026-05-01T10:14:18Z</time></trkpt><trkpt lat="44.31729717730783" lon="10.8076098241318"><ele>708.75</ele><time>2026-05-01T10:14:19Z</time></trkpt><trkpt lat="44.31731453784043" lon="10.807791040489185"><ele>708.0</ele><time>2026-05-01T10:14:20Z</time></trkpt><trkpt lat="44.31731677563468" lon="10.807974442590142"><ele>708.0</ele><time>2026-05-01T10:14:21Z</time></trkpt><trkpt lat="44.31729472713852" lon="10.808149500738892"><ele>708.0</ele><time>2026-05-01T10:14:22Z</time></trkpt><trkpt lat="44.31724971658648" lon="10.808323251554423"><ele>708.0</ele><time>2026-05-01T10:14:23Z</time></trkpt><trkpt lat="44.31720468280612" lon="10.80849411386255"><ele>708.0</ele><time>2026-05-01T10:14:24Z</time></trkpt><trkpt lat="44.31712996785093" lon="10.808650121786055"><ele>708.75</ele><time>2026-05-01T10:14:25Z</time></trkpt><trkpt lat="44.317061422399924" lon="10.808802821566594"><ele>709.5</ele><time>2026-05-01T10:14:26Z</time></trkpt><trkpt lat="44.31700592126489" lon="10.808946964724207"><ele>710.25</ele><time>2026-05-01T10:14:27Z</time></trkpt><trkpt lat="44.316961731905785" lon="10.809091602734306"><ele>711.0</ele><time>2026-05-01T10:14:28Z</time></trkpt><trkpt lat="44.316936443411144" lon="10.809243456841672"><ele>710.75</ele><time>2026-05-01T10:14:29Z</time></trkpt><trkpt lat="44.316931245226684" lon="10.80940088857465"><ele>710.5</ele><time>2026-05-01T10:14:30Z</time></trkpt><trkpt lat="44.31695223631178" lon="10.80955527185848"><ele>710.25</ele><time>2026-05-01T10:14:31Z</time></trkpt><trkpt lat="44.316986127832116" lon="10.809721967028302"><ele>710.0</ele><time>2026-05-01T10:14:32Z</time></trkpt><trkpt lat="44.31700144594371" lon="10.809883735437687"><ele>710.0</ele><time>2026-05-01T10:14:33Z</time></trkpt><trkpt lat="44.31704298382023" lon="10.810034566467934"><ele>710.0</ele><time>2026-05-01T10:14:34Z</time></trkpt><trkpt lat="44.31706367991849" lon="10.810173497217042"><ele>710.0</ele><time>2026-05-01T10:14:35Z</time></trkpt><trkpt lat="44.31708191657589" lon="10.810295085644572"><ele>710.0</ele><time>2026-05-01T10:14:36Z</time></trkpt><trkpt lat="44.31707935864544" lon="10.810413835172547"><ele>710.0</ele><time>2026-05-01T10:14:37Z</time></trkpt><trkpt lat="44.31710073723971" lon="10.810522730328783"><ele>710.75</ele><time>2026-05-01T10:14:38Z</time></trkpt><trkpt lat="44.31709817841666" lon="10.810630499384578"><ele>711.5</ele><time>2026-05-01T10:14:39Z</time></trkpt><trkpt lat="44.317092035219105" lon="10.810724521262342"><ele>712.25</ele><time>2026-05-01T10:14:41Z</time></trkpt><trkpt lat="44.317339910275855" lon="10.810749837387062"><ele>713.0</ele><time>2026-05-01T10:14:43Z</time></trkpt><trkpt lat="44.3174198491456" lon="10.810799487398214"><ele>714.2</ele><time>2026-05-01T10:14:44Z</time></trkpt><trkpt lat="44.317501195125296" lon="10.810864602807985"><ele>715.4</ele><time>2026-05-01T10:14:45Z</time></trkpt><trkpt lat="44.317574989371415" lon="10.81093421847698"><ele>716.6</ele><time>2026-05-01T10:14:46Z</time></trkpt><trkpt lat="44.31764523239314" lon="10.811002214132035"><ele>717.8000000000001</ele><time>2026-05-01T10:14:47Z</time></trkpt><trkpt lat="44.31771809233959" lon="10.811041232916649"><ele>719.0</ele><time>2026-05-01T10:14:48Z</time></trkpt><trkpt lat="44.317818370804126" lon="10.811136696208568"><ele>722.2</ele><time>2026-05-01T10:14:49.999Z</time></trkpt><trkpt lat="44.31794125173404" lon="10.811211939894735"><ele>725.4000000000001</ele><time>2026-05-01T10:14:51.999Z</time></trkpt><trkpt lat="44.31801082869489" lon="10.81125065238008"><ele>728.6</ele><time>2026-05-01T10:14:52.999Z</time></trkpt><trkpt lat="44.318089216788714" lon="10.811281581022946"><ele>731.8</ele><time>2026-05-01T10:14:53.999Z</time></trkpt><trkpt lat="44.31817315024739" lon="10.811303583858791"><ele>735.0</ele><time>2026-05-01T10:14:54.999Z</time></trkpt><trkpt lat="44.318268128508564" lon="10.811313853872567"><ele>735.0</ele><time>2026-05-01T10:14:55.999Z</time></trkpt><trkpt lat="44.31837210120511" lon="10.811313902991373"><ele>735.0</ele><time>2026-05-01T10:14:56.999Z</time></trkpt><trkpt lat="44.31847713180509" lon="10.811310314263464"><ele>735.0</ele><time>2026-05-01T10:14:57.999Z</time></trkpt><trkpt lat="44.3185807900268" lon="10.811295863456124"><ele>735.0</ele><time>2026-05-01T10:14:58.999Z</time></trkpt><trkpt lat="44.31868696827446" lon="10.811300815276603"><ele>735.0</ele><time>2026-05-01T10:14:59.999Z</time></trkpt><trkpt lat="44.318786631504466" lon="10.811355443235094"><ele>735.0</ele><time>2026-05-01T10:15:00.999Z</time></trkpt><trkpt lat="44.3188597404733" lon="10.81147076679549"><ele>735.0</ele><time>2026-05-01T10:15:01.999Z</time></trkpt><trkpt lat="44.31894302073815" lon="10.81156871028326"><ele>735.0</ele><time>2026-05-01T10:15:02.999Z</time></trkpt><trkpt lat="44.319022003772446" lon="10.811671153373043"><ele>735.0</ele><time>2026-05-01T10:15:03.999Z</time></trkpt><trkpt lat="44.31912260004964" lon="10.811739532366522"><ele>735.0</ele><time>2026-05-01T10:15:04.999Z</time></trkpt><trkpt lat="44.31923821219437" lon="10.811758064442385"><ele>732.75</ele><time>2026-05-01T10:15:05.999Z</time></trkpt><trkpt lat="44.31935971160793" lon="10.811750102577136"><ele>730.5</ele><time>2026-05-01T10:15:06.999Z</time></trkpt><trkpt lat="44.319480939533925" lon="10.811743607250905"><ele>728.25</ele><time>2026-05-01T10:15:08Z</time></trkpt><trkpt lat="44.3196018485572" lon="10.811744042425348"><ele>726.0</ele><time>2026-05-01T10:15:09Z</time></trkpt><trkpt lat="44.31971345761928" lon="10.811753566614753"><ele>725.0</ele><time>2026-05-01T10:15:10Z</time></trkpt><trkpt lat="44.319811672655874" lon="10.811745651012467"><ele>724.0</ele><time>2026-05-01T10:15:11Z</time></trkpt><trkpt lat="44.31990080410997" lon="10.811709131194183"><ele>723.0</ele><time>2026-05-01T10:15:12Z</time></trkpt><trkpt lat="44.319980782234445" lon="10.811642172273753"><ele>722.0</ele><time>2026-05-01T10:15:13Z</time></trkpt><trkpt lat="44.32004612933468" lon="10.811557023801209"><ele>721.0</ele><time>2026-05-01T10:15:14Z</time></trkpt><trkpt lat="44.320101509397475" lon="10.811461060323653"><ele>721.0</ele><time>2026-05-01T10:15:15Z</time></trkpt><trkpt lat="44.32016127969137" lon="10.811377766791656"><ele>721.0</ele><time>2026-05-01T10:15:16Z</time></trkpt><trkpt lat="44.3202210734382" lon="10.811296568485519"><ele>721.0</ele><time>2026-05-01T10:15:17Z</time></trkpt><trkpt lat="44.3202869113666" lon="10.811242762399912"><ele>721.0</ele><time>2026-05-01T10:15:18Z</time></trkpt><trkpt lat="44.32036373749149" lon="10.81121818510612"><ele>721.0</ele><time>2026-05-01T10:15:19Z</time></trkpt><trkpt lat="44.320445865618474" lon="10.811204416959391"><ele>721.0</ele><time>2026-05-01T10:15:20Z</time></trkpt><trkpt lat="44.32052645772636" lon="10.811222316678805"><ele>721.0</ele><time>2026-05-01T10:15:21Z</time></trkpt><trkpt lat="44.32060187138393" lon="10.811267478852786"><ele>721.0</ele><time>2026-05-01T10:15:22Z</time></trkpt><trkpt lat="44.320667645020194" lon="10.81133824013811"><ele>721.0</ele><time>2026-05-01T10:15:23Z</time></trkpt><trkpt lat="44.320730484612376" lon="10.811400865738348"><ele>721.0</ele><time>2026-05-01T10:15:24Z</time></trkpt><trkpt lat="44.3207911093179" lon="10.811463382915845"><ele>721.0</ele><time>2026-05-01T10:15:25Z</time></trkpt><trkpt lat="44.320845650007236" lon="10.811518371453424"><ele>721.0</ele><time>2026-05-01T10:15:26Z</time></trkpt><trkpt lat="44.320900124997685" lon="10.811575319289016"><ele>721.0</ele><time>2026-05-01T10:15:27Z</time></trkpt><trkpt lat="44.320950877655065" lon="10.811629442346407"><ele>721.0</ele><time>2026-05-01T10:15:28Z</time></trkpt><trkpt lat="44.32101588153173" lon="10.81166098441418"><ele>721.0</ele><time>2026-05-01T10:15:29Z</time></trkpt><trkpt lat="44.32108882246209" lon="10.81169621253066"><ele>721.0</ele><time>2026-05-01T10:15:30Z</time></trkpt><trkpt lat="44.32117638253209" lon="10.811723926957166"><ele>721.0</ele><time>2026-05-01T10:15:31Z</time></trkpt><trkpt lat="44.321254612213785" lon="10.811741906759911"><ele>721.0</ele><time>2026-05-01T10:15:32Z</time></trkpt><trkpt lat="44.32133489308282" lon="10.811766752829659"><ele>722.0</ele><time>2026-05-01T10:15:33Z</time></trkpt><trkpt lat="44.32141355346405" lon="10.81180980206727"><ele>723.0</ele><time>2026-05-01T10:15:34Z</time></trkpt><trkpt lat="44.32149570058496" lon="10.811838725936989"><ele>724.0</ele><time>2026-05-01T10:15:35Z</time></trkpt><trkpt lat="44.32157588963606" lon="10.811877568658554"><ele>725.0</ele><time>2026-05-01T10:15:36Z</time></trkpt><trkpt lat="44.32165920764515" lon="10.8119267367415"><ele>726.0</ele><time>2026-05-01T10:15:37Z</time></trkpt><trkpt lat="44.32173269108466" lon="10.811993931274088"><ele>727.0</ele><time>2026-05-01T10:15:38Z</time></trkpt><trkpt lat="44.32180450192223" lon="10.812083411169194"><ele>727.0</ele><time>2026-05-01T10:15:39Z</time></trkpt><trkpt lat="44.32187107485049" lon="10.812171262344744"><ele>727.0</ele><time>2026-05-01T10:15:40Z</time></trkpt><trkpt lat="44.32193043199542" lon="10.81227380702489"><ele>727.0</ele><time>2026-05-01T10:15:41Z</time></trkpt><trkpt lat="44.321991340297586" lon="10.812372969097838"><ele>727.0</ele><time>2026-05-01T10:15:42Z</time></trkpt><trkpt lat="44.322054718886335" lon="10.812470768474505"><ele>727.0</ele><time>2026-05-01T10:15:43Z</time></trkpt><trkpt lat="44.32212149188722" lon="10.812563946906193"><ele>727.0</ele><time>2026-05-01T10:15:44Z</time></trkpt><trkpt lat="44.3221994037423" lon="10.812643159476002"><ele>727.0</ele><time>2026-05-01T10:15:45Z</time></trkpt><trkpt lat="44.32228841988676" lon="10.812698016927506"><ele>727.0</ele><time>2026-05-01T10:15:46Z</time></trkpt><trkpt lat="44.3223629895312" lon="10.812715697100055"><ele>727.0</ele><time>2026-05-01T10:15:47Z</time></trkpt><trkpt lat="44.3224662767078" lon="10.81273582562293"><ele>727.0</ele><time>2026-05-01T10:15:49Z</time></trkpt><trkpt lat="44.32239606012611" lon="10.812788558068126"><ele>728.75</ele><time>2026-05-01T10:15:52Z</time></trkpt><trkpt lat="44.32230166677585" lon="10.813029586114435"><ele>730.5</ele><time>2026-05-01T10:15:53Z</time></trkpt><trkpt lat="44.322205813970065" lon="10.813111291535593"><ele>732.25</ele><time>2026-05-01T10:15:54Z</time></trkpt><trkpt lat="44.322100338267724" lon="10.81318377772148"><ele>734.0</ele><time>2026-05-01T10:15:55Z</time></trkpt><trkpt lat="44.322009832160845" lon="10.813209920334803"><ele>735.0</ele><time>2026-05-01T10:15:56Z</time></trkpt><trkpt lat="44.321920508852706" lon="10.813248494596394"><ele>736.0</ele><time>2026-05-01T10:15:57Z</time></trkpt><trkpt lat="44.32183672016306" lon="10.813322264246604"><ele>737.0</ele><time>2026-05-01T10:15:58Z</time></trkpt><trkpt lat="44.32175934131467" lon="10.813431818411118"><ele>738.0</ele><time>2026-05-01T10:15:59Z</time></trkpt><trkpt lat="44.32169959045091" lon="10.813510943348303"><ele>739.0</ele><time>2026-05-01T10:16:00Z</time></trkpt><trkpt lat="44.32162245411174" lon="10.81359330512296"><ele>741.5</ele><time>2026-05-01T10:16:02Z</time></trkpt><trkpt lat="44.321545473038505" lon="10.813681367231284"><ele>744.0</ele><time>2026-05-01T10:16:04Z</time></trkpt><trkpt lat="44.3214815202508" lon="10.813726364733006"><ele>746.5</ele><time>2026-05-01T10:16:05Z</time></trkpt><trkpt lat="44.32142161973996" lon="10.813794460027543"><ele>749.0</ele><time>2026-05-01T10:16:06Z</time></trkpt><trkpt lat="44.32138025721721" lon="10.81387015285932"><ele>751.5</ele><time>2026-05-01T10:16:08Z</time></trkpt><trkpt lat="44.32135851582334" lon="10.813994023061282"><ele>754.0</ele><time>2026-05-01T10:16:22Z</time></trkpt><trkpt lat="44.32129433187749" lon="10.813994528748745"><ele>755.2</ele><time>2026-05-01T10:16:24Z</time></trkpt><trkpt lat="44.32118108380111" lon="10.813975403579096"><ele>756.4000000000001</ele><time>2026-05-01T10:16:26Z</time></trkpt><trkpt lat="44.32112530229438" lon="10.813915523665145"><ele>757.6</ele><time>2026-05-01T10:16:28Z</time></trkpt><trkpt lat="44.32109008088306" lon="10.813824543108126"><ele>758.8</ele><time>2026-05-01T10:16:44Z</time></trkpt><trkpt lat="44.32110155450379" lon="10.813681693949755"><ele>760.0</ele><time>2026-05-01T10:16:46Z</time></trkpt><trkpt lat="44.32115331233666" lon="10.813542299387741"><ele>757.8</ele><time>2026-05-01T10:16:48Z</time></trkpt><trkpt lat="44.32120421909154" lon="10.81340057065641"><ele>755.6</ele><time>2026-05-01T10:16:50Z</time></trkpt><trkpt lat="44.32122952432988" lon="10.813260459468035"><ele>753.4000000000001</ele><time>2026-05-01T10:16:52Z</time></trkpt><trkpt lat="44.32123612165754" lon="10.813171901624475"><ele>751.2</ele><time>2026-05-01T10:16:54Z</time></trkpt><trkpt lat="44.321207026754365" lon="10.813035198883224"><ele>749.0</ele><time>2026-05-01T10:16:55.999Z</time></trkpt><trkpt lat="44.321188645741536" lon="10.812941784393004"><ele>749.0</ele><time>2026-05-01T10:16:57.999Z</time></trkpt><trkpt lat="44.321122925439525" lon="10.812930928340874"><ele>749.0</ele><time>2026-05-01T10:17:01.999Z</time></trkpt><trkpt lat="44.32118774735799" lon="10.813063407633631"><ele>749.0</ele><time>2026-05-01T10:17:03.999Z</time></trkpt><trkpt lat="44.321232083395756" lon="10.813180835963218"><ele>749.0</ele><time>2026-05-01T10:17:04.999Z</time></trkpt><trkpt lat="44.321243542504455" lon="10.81329093324006"><ele>749.0</ele><time>2026-05-01T10:17:05.999Z</time></trkpt><trkpt lat="44.32120963855536" lon="10.813452837794554"><ele>751.2</ele><time>2026-05-01T10:17:06.999Z</time></trkpt><trkpt lat="44.32114824457181" lon="10.813608543877478"><ele>753.4000000000001</ele><time>2026-05-01T10:17:07.999Z</time></trkpt><trkpt lat="44.3210977956258" lon="10.813712638625242"><ele>755.6</ele><time>2026-05-01T10:17:08.999Z</time></trkpt><trkpt lat="44.3210987801695" lon="10.813883351322067"><ele>757.8</ele><time>2026-05-01T10:17:10.999Z</time></trkpt><trkpt lat="44.32115130761684" lon="10.813986730800709"><ele>760.0</ele><time>2026-05-01T10:17:11.999Z</time></trkpt><trkpt lat="44.321230501080684" lon="10.814016213196874"><ele>760.0</ele><time>2026-05-01T10:17:12.999Z</time></trkpt><trkpt lat="44.3213083539146" lon="10.814000344242688"><ele>760.0</ele><time>2026-05-01T10:17:13.999Z</time></trkpt><trkpt lat="44.32126402767069" lon="10.81409186497195"><ele>760.0</ele><time>2026-05-01T10:17:16.999Z</time></trkpt><trkpt lat="44.321210134283994" lon="10.814146739450129"><ele>760.0</ele><time>2026-05-01T10:17:17.999Z</time></trkpt><trkpt lat="44.321121828575414" lon="10.814273846381335"><ele>760.0</ele><time>2026-05-01T10:17:19.999Z</time></trkpt><trkpt lat="44.32109733013584" lon="10.814364772648368"><ele>760.0</ele><time>2026-05-01T10:17:21Z</time></trkpt><trkpt lat="44.32106344299482" lon="10.814454645993237"><ele>761.5</ele><time>2026-05-01T10:17:22Z</time></trkpt><trkpt lat="44.32098091607361" lon="10.814484403576941"><ele>763.0</ele><time>2026-05-01T10:17:24Z</time></trkpt><trkpt lat="44.320871610491935" lon="10.814547381066463"><ele>764.5</ele><time>2026-05-01T10:17:26Z</time></trkpt><trkpt lat="44.320798443952064" lon="10.814557646335262"><ele>766.0</ele><time>2026-05-01T10:17:29Z</time></trkpt><trkpt lat="44.320735336802144" lon="10.81460048967193"><ele>767.4999999999999</ele><time>2026-05-01T10:17:31Z</time></trkpt><trkpt lat="44.32065981695552" lon="10.814628254390241"><ele>769.0</ele><time>2026-05-01T10:17:42Z</time></trkpt><trkpt lat="44.32059668291999" lon="10.814634301407056"><ele>772.0</ele><time>2026-05-01T10:17:44Z</time></trkpt><trkpt lat="44.32052931915341" lon="10.814588249786496"><ele>775.0</ele><time>2026-05-01T10:17:50Z</time></trkpt><trkpt lat="44.320449333286916" lon="10.814564976411075"><ele>778.0</ele><time>2026-05-01T10:17:53Z</time></trkpt><trkpt lat="44.320361783457045" lon="10.814527482844893"><ele>781.0</ele><time>2026-05-01T10:17:55Z</time></trkpt><trkpt lat="44.32027044090083" lon="10.814487725339783"><ele>784.0</ele><time>2026-05-01T10:17:57Z</time></trkpt><trkpt lat="44.32017124117815" lon="10.81441364168081"><ele>782.1666666666666</ele><time>2026-05-01T10:17:59Z</time></trkpt><trkpt lat="44.320172724380036" lon="10.81431502817508"><ele>780.3333333333333</ele><time>2026-05-01T10:18:01Z</time></trkpt><trkpt lat="44.32018475119264" lon="10.814220946680258"><ele>778.5</ele><time>2026-05-01T10:18:08Z</time></trkpt><trkpt lat="44.32018086737727" lon="10.814115114423325"><ele>776.6666666666667</ele><time>2026-05-01T10:18:10Z</time></trkpt><trkpt lat="44.32013766199964" lon="10.814036601043705"><ele>774.8333333333334</ele><time>2026-05-01T10:18:12Z</time></trkpt><trkpt lat="44.320055337209794" lon="10.814007633434967"><ele>773.0</ele><time>2026-05-01T10:18:14Z</time></trkpt><trkpt lat="44.31997515676642" lon="10.814061431141276"><ele>773.0</ele><time>2026-05-01T10:18:30Z</time></trkpt><trkpt lat="44.31988595748862" lon="10.814126885113224"><ele>773.0</ele><time>2026-05-01T10:18:32Z</time></trkpt><trkpt lat="44.31978903798017" lon="10.814227702144178"><ele>773.0</ele><time>2026-05-01T10:18:34Z</time></trkpt><trkpt lat="44.31970732071881" lon="10.814300288863683"><ele>773.0</ele><time>2026-05-01T10:18:36Z</time></trkpt><trkpt lat="44.31964648128965" lon="10.814345711580593"><ele>773.0</ele><time>2026-05-01T10:18:38Z</time></trkpt><trkpt lat="44.319583922248476" lon="10.81440497513701"><ele>774.8333333333334</ele><time>2026-05-01T10:18:40Z</time></trkpt><trkpt lat="44.319512228541335" lon="10.814453681559888"><ele>776.6666666666667</ele><time>2026-05-01T10:18:42Z</time></trkpt><trkpt lat="44.319439133810896" lon="10.814458269231169"><ele>778.5</ele><time>2026-05-01T10:18:44Z</time></trkpt><trkpt lat="44.31951889987039" lon="10.8144100027397"><ele>780.3333333333333</ele><time>2026-05-01T10:19:20Z</time></trkpt><trkpt lat="44.319589801976086" lon="10.814426475496585"><ele>782.1666666666666</ele><time>2026-05-01T10:19:24Z</time></trkpt><trkpt lat="44.31967372520637" lon="10.814410790612593"><ele>784.0</ele><time>2026-05-01T10:19:27Z</time></trkpt><trkpt lat="44.31973991583982" lon="10.814334186864684"><ele>782.1666666666666</ele><time>2026-05-01T10:19:30Z</time></trkpt><trkpt lat="44.319818543957396" lon="10.814244977419712"><ele>780.3333333333333</ele><time>2026-05-01T10:19:33Z</time></trkpt><trkpt lat="44.3198866650157" lon="10.814157778550337"><ele>778.5</ele><time>2026-05-01T10:19:35Z</time></trkpt><trkpt lat="44.319939538723624" lon="10.814097105371124"><ele>776.6666666666667</ele><time>2026-05-01T10:19:37Z</time></trkpt><trkpt lat="44.319992548874545" lon="10.81404413092694"><ele>774.8333333333334</ele><time>2026-05-01T10:19:39Z</time></trkpt><trkpt lat="44.32005665420479" lon="10.814027334261615"><ele>773.0</ele><time>2026-05-01T10:19:41Z</time></trkpt><trkpt lat="44.32012103109585" lon="10.814049715053306"><ele>773.0000000000001</ele><time>2026-05-01T10:19:43Z</time></trkpt><trkpt lat="44.32016643825692" lon="10.814131812368924"><ele>773.0</ele><time>2026-05-01T10:20:09Z</time></trkpt><trkpt lat="44.320178070275325" lon="10.814238595605033"><ele>773.0</ele><time>2026-05-01T10:20:12Z</time></trkpt><trkpt lat="44.320166097303684" lon="10.81434129085315"><ele>773.0</ele><time>2026-05-01T10:20:16Z</time></trkpt><trkpt lat="44.32016813081158" lon="10.814434302648344"><ele>773.0000000000001</ele><time>2026-05-01T10:20:19.001Z</time></trkpt><trkpt lat="44.320255036321825" lon="10.814490905135175"><ele>773.0</ele><time>2026-05-01T10:20:23.001Z</time></trkpt><trkpt lat="44.32033070242581" lon="10.814510230144844"><ele>772.4285714285714</ele><time>2026-05-01T10:20:25.001Z</time></trkpt><trkpt lat="44.32041763913877" lon="10.81455157196268"><ele>771.8571428571429</ele><time>2026-05-01T10:20:28.001Z</time></trkpt><trkpt lat="44.32049139634983" lon="10.814587967527103"><ele>771.2857142857142</ele><time>2026-05-01T10:20:30.001Z</time></trkpt><trkpt lat="44.32055479496689" lon="10.81461686948354"><ele>770.7142857142858</ele><time>2026-05-01T10:20:40.001Z</time></trkpt><trkpt lat="44.320615336623014" lon="10.81464789744839"><ele>770.1428571428572</ele><time>2026-05-01T10:20:45.001Z</time></trkpt><trkpt lat="44.3206788614167" lon="10.814625129687446"><ele>769.5714285714286</ele><time>2026-05-01T10:20:47.001Z</time></trkpt><trkpt lat="44.32074465188229" lon="10.814599320588805"><ele>769.0</ele><time>2026-05-01T10:20:49.001Z</time></trkpt><trkpt lat="44.32083346241284" lon="10.814551991350628"><ele>769.0</ele><time>2026-05-01T10:20:51.001Z</time></trkpt><trkpt lat="44.320919478794174" lon="10.814499944312773"><ele>769.0</ele><time>2026-05-01T10:20:53.001Z</time></trkpt><trkpt lat="44.32100232481331" lon="10.814459434391452"><ele>769.0</ele><time>2026-05-01T10:20:55.001Z</time></trkpt><trkpt lat="44.32108082329477" lon="10.814401975936228"><ele>769.0</ele><time>2026-05-01T10:20:57.001Z</time></trkpt><trkpt lat="44.32113827420067" lon="10.81426289946509"><ele>769.0</ele><time>2026-05-01T10:20:59.001Z</time></trkpt><trkpt lat="44.32117081448269" lon="10.814184892357007"><ele>767.4999999999999</ele><time>2026-05-01T10:21:00.001Z</time></trkpt><trkpt lat="44.32123550894081" lon="10.814075637526459"><ele>766.0</ele><time>2026-05-01T10:21:02.001Z</time></trkpt><trkpt lat="44.321314496746034" lon="10.814014247577"><ele>764.5</ele><time>2026-05-01T10:21:04.001Z</time></trkpt><trkpt lat="44.32136630838615" lon="10.813934621643497"><ele>763.0</ele><time>2026-05-01T10:21:07.001Z</time></trkpt><trkpt lat="44.3213917211925" lon="10.813835320828945"><ele>761.5</ele><time>2026-05-01T10:21:10Z</time></trkpt><trkpt lat="44.32144258676107" lon="10.813742531981012"><ele>760.0</ele><time>2026-05-01T10:21:14Z</time></trkpt><trkpt lat="44.32150587938826" lon="10.813695454701628"><ele>759.0</ele><time>2026-05-01T10:21:20Z</time></trkpt><trkpt lat="44.32156083639156" lon="10.813619832909731"><ele>758.0</ele><time>2026-05-01T10:21:51Z</time></trkpt><trkpt lat="44.321617000349576" lon="10.813569932113463"><ele>757.0</ele><time>2026-05-01T10:21:52Z</time></trkpt><trkpt lat="44.321665570762754" lon="10.813500408419815"><ele>756.0</ele><time>2026-05-01T10:21:53Z</time></trkpt><trkpt lat="44.32171945942547" lon="10.8134325627888"><ele>755.0</ele><time>2026-05-01T10:21:54Z</time></trkpt><trkpt lat="44.32181403507339" lon="10.813318491898949"><ele>754.0</ele><time>2026-05-01T10:21:56Z</time></trkpt><trkpt lat="44.32192972864505" lon="10.813230107000514"><ele>751.5</ele><time>2026-05-01T10:21:58Z</time></trkpt><trkpt lat="44.32199868521434" lon="10.813185575314094"><ele>749.0</ele><time>2026-05-01T10:21:59Z</time></trkpt><trkpt lat="44.32207093775289" lon="10.81314281345804"><ele>746.5</ele><time>2026-05-01T10:22:00Z</time></trkpt><trkpt lat="44.322145808504395" lon="10.813140731327852"><ele>744.0</ele><time>2026-05-01T10:22:01Z</time></trkpt><trkpt lat="44.322220648707315" lon="10.813095356074822"><ele>741.5</ele><time>2026-05-01T10:22:02Z</time></trkpt><trkpt lat="44.322301363169004" lon="10.813017508904654"><ele>739.0</ele><time>2026-05-01T10:22:03Z</time></trkpt><trkpt lat="44.32235706661738" lon="10.812939075551016"><ele>738.0</ele><time>2026-05-01T10:22:04Z</time></trkpt><trkpt lat="44.32241324776443" lon="10.812886841380854"><ele>737.0</ele><time>2026-05-01T10:22:05Z</time></trkpt><trkpt lat="44.322508437082504" lon="10.812791891082863"><ele>736.0</ele><time>2026-05-01T10:22:07Z</time></trkpt><trkpt lat="44.32260763427599" lon="10.812715028806918"><ele>735.0</ele><time>2026-05-01T10:22:09Z</time></trkpt><trkpt lat="44.32268685886875" lon="10.812690974906072"><ele>734.0</ele><time>2026-05-01T10:22:10Z</time></trkpt><trkpt lat="44.322777842243774" lon="10.812688454383016"><ele>734.0</ele><time>2026-05-01T10:22:11Z</time></trkpt><trkpt lat="44.32287868445488" lon="10.812711304412872"><ele>734.0</ele><time>2026-05-01T10:22:12Z</time></trkpt><trkpt lat="44.3229862817235" lon="10.812757596484918"><ele>734.0</ele><time>2026-05-01T10:22:13.001Z</time></trkpt><trkpt lat="44.32309366566961" lon="10.81282295310448"><ele>734.0</ele><time>2026-05-01T10:22:14.001Z</time></trkpt><trkpt lat="44.32319296079537" lon="10.812906687150338"><ele>734.0</ele><time>2026-05-01T10:22:15.001Z</time></trkpt><trkpt lat="44.32329615745749" lon="10.812976569758785"><ele>734.25</ele><time>2026-05-01T10:22:16.001Z</time></trkpt><trkpt lat="44.32341120024118" lon="10.813038266217891"><ele>734.5</ele><time>2026-05-01T10:22:17.001Z</time></trkpt><trkpt lat="44.323511401645575" lon="10.813095596245795"><ele>734.75</ele><time>2026-05-01T10:22:18.001Z</time></trkpt><trkpt lat="44.32361973301188" lon="10.813131088222846"><ele>735.0</ele><time>2026-05-01T10:22:19.001Z</time></trkpt><trkpt lat="44.32372585284718" lon="10.813160216888871"><ele>735.0</ele><time>2026-05-01T10:22:20.001Z</time></trkpt><trkpt lat="44.32383242579199" lon="10.813182847967242"><ele>735.0</ele><time>2026-05-01T10:22:21.001Z</time></trkpt><trkpt lat="44.32393863554452" lon="10.813233121711214"><ele>735.0</ele><time>2026-05-01T10:22:22.001Z</time></trkpt><trkpt lat="44.32404999979117" lon="10.813243820059713"><ele>735.0</ele><time>2026-05-01T10:22:23.001Z</time></trkpt><trkpt lat="44.32415809997324" lon="10.813274046555081"><ele>735.0</ele><time>2026-05-01T10:22:24.001Z</time></trkpt><trkpt lat="44.32427499885185" lon="10.813283024062862"><ele>736.25</ele><time>2026-05-01T10:22:25.001Z</time></trkpt><trkpt lat="44.32438454299244" lon="10.813278973728986"><ele>737.5</ele><time>2026-05-01T10:22:26.001Z</time></trkpt><trkpt lat="44.32448958815345" lon="10.813274255015642"><ele>738.75</ele><time>2026-05-01T10:22:27.001Z</time></trkpt><trkpt lat="44.324648611032245" lon="10.8132009799718"><ele>740.0</ele><time>2026-05-01T10:22:28.001Z</time></trkpt><trkpt lat="44.32478553154602" lon="10.813179511175644"><ele>741.5</ele><time>2026-05-01T10:22:29.001Z</time></trkpt><trkpt lat="44.324924333567424" lon="10.813191667444457"><ele>743.0</ele><time>2026-05-01T10:22:30.001Z</time></trkpt><trkpt lat="44.32505508932654" lon="10.813205900821403"><ele>744.5</ele><time>2026-05-01T10:22:31.001Z</time></trkpt><trkpt lat="44.32516001146465" lon="10.813227740866951"><ele>746.0</ele><time>2026-05-01T10:22:32.001Z</time></trkpt><trkpt lat="44.32526051835933" lon="10.81324957399859"><ele>746.0</ele><time>2026-05-01T10:22:33.001Z</time></trkpt><trkpt lat="44.32536397534679" lon="10.813272048095628"><ele>746.0</ele><time>2026-05-01T10:22:34.001Z</time></trkpt><trkpt lat="44.32548258957908" lon="10.81327034059667"><ele>746.0</ele><time>2026-05-01T10:22:35.001Z</time></trkpt><trkpt lat="44.32560064577504" lon="10.813282348343705"><ele>746.0</ele><time>2026-05-01T10:22:36.001Z</time></trkpt><trkpt lat="44.32571731958685" lon="10.813277956669356"><ele>748.0</ele><time>2026-05-01T10:22:37.001Z</time></trkpt><trkpt lat="44.32584448933502" lon="10.813240606173945"><ele>750.0</ele><time>2026-05-01T10:22:38.001Z</time></trkpt><trkpt lat="44.3259845107795" lon="10.813175894642061"><ele>752.0</ele><time>2026-05-01T10:22:39.001Z</time></trkpt><trkpt lat="44.326138140675795" lon="10.813103794380526"><ele>754.0</ele><time>2026-05-01T10:22:40.001Z</time></trkpt><trkpt lat="44.32629802222683" lon="10.813042823726933"><ele>754.0</ele><time>2026-05-01T10:22:41.001Z</time></trkpt><trkpt lat="44.326435050019334" lon="10.813053639756149"><ele>754.0</ele><time>2026-05-01T10:22:42.001Z</time></trkpt><trkpt lat="44.32655777980468" lon="10.813081451132048"><ele>754.0</ele><time>2026-05-01T10:22:43.001Z</time></trkpt><trkpt lat="44.32667531433759" lon="10.813146934590755"><ele>754.0</ele><time>2026-05-01T10:22:44.001Z</time></trkpt><trkpt lat="44.326767926143674" lon="10.813242668503541"><ele>754.0</ele><time>2026-05-01T10:22:45.001Z</time></trkpt><trkpt lat="44.3268310907347" lon="10.813366360840229"><ele>754.0</ele><time>2026-05-01T10:22:46.001Z</time></trkpt><trkpt lat="44.32688418586631" lon="10.81353793862924"><ele>754.0</ele><time>2026-05-01T10:22:47.001Z</time></trkpt><trkpt lat="44.326931209494276" lon="10.813740363563191"><ele>754.0</ele><time>2026-05-01T10:22:48.001Z</time></trkpt><trkpt lat="44.32698183392121" lon="10.813951467060411"><ele>755.25</ele><time>2026-05-01T10:22:49.001Z</time></trkpt><trkpt lat="44.327037016243665" lon="10.814157074104845"><ele>756.5</ele><time>2026-05-01T10:22:50.001Z</time></trkpt><trkpt lat="44.3271047540999" lon="10.814320448956517"><ele>757.75</ele><time>2026-05-01T10:22:51.001Z</time></trkpt><trkpt lat="44.32718260992972" lon="10.814445660931872"><ele>759.0</ele><time>2026-05-01T10:22:52.001Z</time></trkpt><trkpt lat="44.32728765799211" lon="10.814538104157238"><ele>759.0</ele><time>2026-05-01T10:22:53.001Z</time></trkpt><trkpt lat="44.32740346969802" lon="10.814619347595912"><ele>759.0</ele><time>2026-05-01T10:22:54.001Z</time></trkpt><trkpt lat="44.32751994742906" lon="10.814690856846306"><ele>759.0</ele><time>2026-05-01T10:22:55.001Z</time></trkpt><trkpt lat="44.3276392084277" lon="10.814746695473637"><ele>759.0</ele><time>2026-05-01T10:22:56.001Z</time></trkpt><trkpt lat="44.32773729599442" lon="10.81486416527272"><ele>759.0</ele><time>2026-05-01T10:22:57.001Z</time></trkpt><trkpt lat="44.32788112881811" lon="10.814768314075371"><ele>759.0</ele><time>2026-05-01T10:22:58.001Z</time></trkpt><trkpt lat="44.32799673751507" lon="10.81470786125771"><ele>759.0</ele><time>2026-05-01T10:22:59.001Z</time></trkpt><trkpt lat="44.32810149418137" lon="10.814619000965582"><ele>759.0</ele><time>2026-05-01T10:23:00.001Z</time></trkpt><trkpt lat="44.32819542412237" lon="10.81450902586369"><ele>760.25</ele><time>2026-05-01T10:23:01.001Z</time></trkpt><trkpt lat="44.32828543720155" lon="10.81439225436936"><ele>761.5</ele><time>2026-05-01T10:23:02.001Z</time></trkpt><trkpt lat="44.32837812281337" lon="10.814291619991591"><ele>762.75</ele><time>2026-05-01T10:23:03.001Z</time></trkpt><trkpt lat="44.32847028048044" lon="10.814202601176362"><ele>764.0</ele><time>2026-05-01T10:23:04.001Z</time></trkpt><trkpt lat="44.328568763615436" lon="10.81411388680199"><ele>759.0</ele><time>2026-05-01T10:23:05.001Z</time></trkpt><trkpt lat="44.328668867480566" lon="10.814046132145968"><ele>754.0</ele><time>2026-05-01T10:23:06.001Z</time></trkpt><trkpt lat="44.32877901802887" lon="10.814021577841132"><ele>749.0</ele><time>2026-05-01T10:23:07.001Z</time></trkpt><trkpt lat="44.32889336677078" lon="10.814045132302613"><ele>744.0</ele><time>2026-05-01T10:23:08.001Z</time></trkpt><trkpt lat="44.32898951998799" lon="10.814136134448464"><ele>745.75</ele><time>2026-05-01T10:23:09.001Z</time></trkpt><trkpt lat="44.32908050364466" lon="10.814233516420666"><ele>747.5</ele><time>2026-05-01T10:23:10.001Z</time></trkpt><trkpt lat="44.32913423654021" lon="10.814380154962121"><ele>749.25</ele><time>2026-05-01T10:23:11.001Z</time></trkpt><trkpt lat="44.329195476316734" lon="10.81453862966242"><ele>751.0</ele><time>2026-05-01T10:23:12.001Z</time></trkpt><trkpt lat="44.329266058186775" lon="10.814665556453981"><ele>751.0</ele><time>2026-05-01T10:23:13.001Z</time></trkpt><trkpt lat="44.329364404533834" lon="10.814770866307834"><ele>751.0</ele><time>2026-05-01T10:23:14Z</time></trkpt><trkpt lat="44.32951736170582" lon="10.814779795992266"><ele>751.0</ele><time>2026-05-01T10:23:15Z</time></trkpt><trkpt lat="44.329652379766706" lon="10.81473559541756"><ele>751.0</ele><time>2026-05-01T10:23:16Z</time></trkpt><trkpt lat="44.3297895377384" lon="10.814718685119079"><ele>748.0</ele><time>2026-05-01T10:23:17Z</time></trkpt><trkpt lat="44.32993094581336" lon="10.81469452187957"><ele>745.0</ele><time>2026-05-01T10:23:18Z</time></trkpt><trkpt lat="44.33007298831056" lon="10.814664078403633"><ele>742.0</ele><time>2026-05-01T10:23:19Z</time></trkpt><trkpt lat="44.33022003234453" lon="10.814636398886364"><ele>739.0</ele><time>2026-05-01T10:23:20Z</time></trkpt><trkpt lat="44.330368009452336" lon="10.814620621739488"><ele>739.0</ele><time>2026-05-01T10:23:21Z</time></trkpt><trkpt lat="44.33051552245683" lon="10.814659143261327"><ele>739.0</ele><time>2026-05-01T10:23:22Z</time></trkpt><trkpt lat="44.33066522316519" lon="10.814696669342569"><ele>739.0</ele><time>2026-05-01T10:23:23Z</time></trkpt><trkpt lat="44.330816651127044" lon="10.814737235191469"><ele>736.6666666666667</ele><time>2026-05-01T10:23:24Z</time></trkpt><trkpt lat="44.33095924919941" lon="10.814817688322535"><ele>734.3333333333334</ele><time>2026-05-01T10:23:25Z</time></trkpt><trkpt lat="44.331102867981315" lon="10.814894775322097"><ele>732.0</ele><time>2026-05-01T10:23:26Z</time></trkpt><trkpt lat="44.3312609291451" lon="10.814941432096575"><ele>730.6666666666666</ele><time>2026-05-01T10:23:27Z</time></trkpt><trkpt lat="44.33143455950755" lon="10.814936038356487"><ele>729.3333333333333</ele><time>2026-05-01T10:23:28Z</time></trkpt><trkpt lat="44.331614830652846" lon="10.814904713951584"><ele>728.0</ele><time>2026-05-01T10:23:29Z</time></trkpt><trkpt lat="44.33180211803633" lon="10.81485452667303"><ele>728.0</ele><time>2026-05-01T10:23:30Z</time></trkpt><trkpt lat="44.331991765245775" lon="10.814802630768492"><ele>728.0</ele><time>2026-05-01T10:23:31Z</time></trkpt><trkpt lat="44.332181829922035" lon="10.81473895919945"><ele>728.0</ele><time>2026-05-01T10:23:32Z</time></trkpt><trkpt lat="44.33235849503682" lon="10.814651789780719"><ele>728.0</ele><time>2026-05-01T10:23:33Z</time></trkpt><trkpt lat="44.33248981789578" lon="10.81453668720746"><ele>728.0</ele><time>2026-05-01T10:23:34Z</time></trkpt><trkpt lat="44.332596958853934" lon="10.814420865423365"><ele>728.0</ele><time>2026-05-01T10:23:35Z</time></trkpt><trkpt lat="44.332693042067646" lon="10.814324390832212"><ele>728.0</ele><time>2026-05-01T10:23:36Z</time></trkpt><trkpt lat="44.33281242433752" lon="10.81427026695077"><ele>728.0</ele><time>2026-05-01T10:23:37Z</time></trkpt><trkpt lat="44.33294897365381" lon="10.814282692529831"><ele>728.0</ele><time>2026-05-01T10:23:38Z</time></trkpt><trkpt lat="44.33310118560914" lon="10.814279490638263"><ele>728.0</ele><time>2026-05-01T10:23:39Z</time></trkpt><trkpt lat="44.333247166729926" lon="10.814230601772593"><ele>728.0</ele><time>2026-05-01T10:23:40Z</time></trkpt><trkpt lat="44.33340379668405" lon="10.814212252254237"><ele>729.3333333333333</ele><time>2026-05-01T10:23:41Z</time></trkpt><trkpt lat="44.33356490680111" lon="10.814195191290732"><ele>730.6666666666666</ele><time>2026-05-01T10:23:42Z</time></trkpt><trkpt lat="44.33372529812791" lon="10.81419068837146"><ele>732.0</ele><time>2026-05-01T10:23:43Z</time></trkpt><trkpt lat="44.33388932426958" lon="10.814202809199381"><ele>733.0</ele><time>2026-05-01T10:23:44Z</time></trkpt><trkpt lat="44.334050942095445" lon="10.81422285933561"><ele>734.0</ele><time>2026-05-01T10:23:45Z</time></trkpt><trkpt lat="44.33419948510022" lon="10.814244532369386"><ele>735.0</ele><time>2026-05-01T10:23:46Z</time></trkpt><trkpt lat="44.33433992277647" lon="10.814260624662364"><ele>735.0</ele><time>2026-05-01T10:23:47Z</time></trkpt><trkpt lat="44.33447975624225" lon="10.81427852389963"><ele>735.0</ele><time>2026-05-01T10:23:48Z</time></trkpt><trkpt lat="44.33462527823395" lon="10.814272779381756"><ele>735.0</ele><time>2026-05-01T10:23:49Z</time></trkpt><trkpt lat="44.334770805144295" lon="10.814250318574617"><ele>735.0</ele><time>2026-05-01T10:23:50Z</time></trkpt><trkpt lat="44.334914652145535" lon="10.81420305794401"><ele>733.0</ele><time>2026-05-01T10:23:51Z</time></trkpt><trkpt lat="44.33505664152215" lon="10.81415232690748"><ele>731.0</ele><time>2026-05-01T10:23:52Z</time></trkpt><trkpt lat="44.33520819344305" lon="10.814112562883869"><ele>729.0</ele><time>2026-05-01T10:23:53Z</time></trkpt><trkpt lat="44.33535431551563" lon="10.814063429124037"><ele>729.0</ele><time>2026-05-01T10:23:54Z</time></trkpt><trkpt lat="44.335500545847545" lon="10.814010705948194"><ele>729.0</ele><time>2026-05-01T10:23:55Z</time></trkpt><trkpt lat="44.33564923018109" lon="10.81395672054159"><ele>729.0</ele><time>2026-05-01T10:23:56Z</time></trkpt><trkpt lat="44.33580136952114" lon="10.813899201102432"><ele>728.5</ele><time>2026-05-01T10:23:57Z</time></trkpt><trkpt lat="44.335936544636034" lon="10.813826339029792"><ele>728.0</ele><time>2026-05-01T10:23:58Z</time></trkpt><trkpt lat="44.33607595643342" lon="10.813794663642273"><ele>727.5</ele><time>2026-05-01T10:23:59Z</time></trkpt><trkpt lat="44.33619704720881" lon="10.813707909274262"><ele>727.0</ele><time>2026-05-01T10:24:00Z</time></trkpt><trkpt lat="44.33632240195488" lon="10.813629725265788"><ele>727.75</ele><time>2026-05-01T10:24:01Z</time></trkpt><trkpt lat="44.336435571562795" lon="10.813531669009718"><ele>728.5</ele><time>2026-05-01T10:24:02Z</time></trkpt><trkpt lat="44.33653804631815" lon="10.81345284846628"><ele>729.25</ele><time>2026-05-01T10:24:03Z</time></trkpt><trkpt lat="44.336641491954396" lon="10.813445854506048"><ele>730.0</ele><time>2026-05-01T10:24:04Z</time></trkpt><trkpt lat="44.336749385443234" lon="10.8134457945073"><ele>725.25</ele><time>2026-05-01T10:24:05Z</time></trkpt><trkpt lat="44.336857449314664" lon="10.81348605872643"><ele>720.5</ele><time>2026-05-01T10:24:06Z</time></trkpt><trkpt lat="44.33697663515624" lon="10.813486741937057"><ele>715.75</ele><time>2026-05-01T10:24:07Z</time></trkpt><trkpt lat="44.33708407638162" lon="10.813403695112438"><ele>711.0</ele><time>2026-05-01T10:24:08Z</time></trkpt><trkpt lat="44.33718229852737" lon="10.813302164442941"><ele>711.0</ele><time>2026-05-01T10:24:09Z</time></trkpt><trkpt lat="44.33727607266392" lon="10.813192502859525"><ele>711.0</ele><time>2026-05-01T10:24:10.001Z</time></trkpt><trkpt lat="44.33736708610656" lon="10.813093195415046"><ele>711.0</ele><time>2026-05-01T10:24:11.001Z</time></trkpt><trkpt lat="44.337451779469156" lon="10.81303703026147"><ele>711.0</ele><time>2026-05-01T10:24:12.001Z</time></trkpt><trkpt lat="44.337553671959505" lon="10.813065341331885"><ele>711.0</ele><time>2026-05-01T10:24:13.001Z</time></trkpt><trkpt lat="44.33767173841972" lon="10.813039653353941"><ele>711.0</ele><time>2026-05-01T10:24:14.001Z</time></trkpt><trkpt lat="44.33779293311315" lon="10.813040849372799"><ele>711.0</ele><time>2026-05-01T10:24:15.001Z</time></trkpt><trkpt lat="44.33790028521522" lon="10.813035450980218"><ele>711.0</ele><time>2026-05-01T10:24:16.001Z</time></trkpt><trkpt lat="44.33798423400068" lon="10.813035438977149"><ele>711.0</ele><time>2026-05-01T10:24:17.001Z</time></trkpt><trkpt lat="44.338079190096146" lon="10.813059165972133"><ele>711.0</ele><time>2026-05-01T10:24:19.001Z</time></trkpt><trkpt lat="44.3381455565891" lon="10.812980708253901"><ele>710.6666666666666</ele><time>2026-05-01T10:24:26.001Z</time></trkpt><trkpt lat="44.3382049521881" lon="10.812913823394654"><ele>710.3333333333334</ele><time>2026-05-01T10:24:27.001Z</time></trkpt><trkpt lat="44.33824583922242" lon="10.812810181841197"><ele>710.0</ele><time>2026-05-01T10:24:28.001Z</time></trkpt><trkpt lat="44.3382847215416" lon="10.812699396713114"><ele>709.6666666666667</ele><time>2026-05-01T10:24:29.001Z</time></trkpt><trkpt lat="44.33833845691556" lon="10.812593131702366"><ele>709.3333333333334</ele><time>2026-05-01T10:24:30.001Z</time></trkpt><trkpt lat="44.33840955658066" lon="10.812496352383949"><ele>709.0</ele><time>2026-05-01T10:24:31.001Z</time></trkpt><trkpt lat="44.33849159198066" lon="10.812406328586961"><ele>706.0</ele><time>2026-05-01T10:24:32.001Z</time></trkpt><trkpt lat="44.33856833827219" lon="10.812330296849552"><ele>703.0</ele><time>2026-05-01T10:24:33.001Z</time></trkpt><trkpt lat="44.33865383683641" lon="10.812300391626303"><ele>700.0</ele><time>2026-05-01T10:24:34.001Z</time></trkpt><trkpt lat="44.33873931252668" lon="10.812279954865199"><ele>697.0</ele><time>2026-05-01T10:24:35.001Z</time></trkpt><trkpt lat="44.338841991860896" lon="10.812276227483341"><ele>694.0</ele><time>2026-05-01T10:24:36.001Z</time></trkpt><trkpt lat="44.33895258541759" lon="10.812295457162113"><ele>692.75</ele><time>2026-05-01T10:24:37.001Z</time></trkpt><trkpt lat="44.33906684730689" lon="10.812330932110738"><ele>691.5</ele><time>2026-05-01T10:24:38.001Z</time></trkpt><trkpt lat="44.33919150039436" lon="10.812331356446569"><ele>690.25</ele><time>2026-05-01T10:24:39.001Z</time></trkpt><trkpt lat="44.33930974701507" lon="10.812378008254528"><ele>689.0</ele><time>2026-05-01T10:24:40.001Z</time></trkpt><trkpt lat="44.339408070111645" lon="10.812425546614385"><ele>689.0</ele><time>2026-05-01T10:24:41.001Z</time></trkpt><trkpt lat="44.339495843246155" lon="10.812495778897052"><ele>689.0</ele><time>2026-05-01T10:24:42.001Z</time></trkpt><trkpt lat="44.33958513939856" lon="10.812592909014148"><ele>689.0</ele><time>2026-05-01T10:24:43.001Z</time></trkpt><trkpt lat="44.339669921077316" lon="10.812715606050672"><ele>689.0</ele><time>2026-05-01T10:24:44.001Z</time></trkpt><trkpt lat="44.339766647264106" lon="10.812832949803548"><ele>687.25</ele><time>2026-05-01T10:24:45.001Z</time></trkpt><trkpt lat="44.33987241920176" lon="10.812953088811888"><ele>685.5</ele><time>2026-05-01T10:24:46.001Z</time></trkpt><trkpt lat="44.33998181041047" lon="10.813071206638437"><ele>683.75</ele><time>2026-05-01T10:24:47.001Z</time></trkpt><trkpt lat="44.34009604225489" lon="10.813189306978096"><ele>682.0</ele><time>2026-05-01T10:24:48.001Z</time></trkpt><trkpt lat="44.34021412455734" lon="10.813302476016407"><ele>682.0</ele><time>2026-05-01T10:24:49.001Z</time></trkpt><trkpt lat="44.34033570048486" lon="10.81341104830406"><ele>682.0</ele><time>2026-05-01T10:24:50.001Z</time></trkpt><trkpt lat="44.34045695791907" lon="10.81350458404188"><ele>682.0</ele><time>2026-05-01T10:24:51.001Z</time></trkpt><trkpt lat="44.340583957052395" lon="10.81358251271344"><ele>682.0</ele><time>2026-05-01T10:24:52.001Z</time></trkpt><trkpt lat="44.34071810501937" lon="10.813630406445082"><ele>682.0</ele><time>2026-05-01T10:24:53.001Z</time></trkpt><trkpt lat="44.34085339491345" lon="10.813699658352185"><ele>682.0</ele><time>2026-05-01T10:24:54.001Z</time></trkpt><trkpt lat="44.34101175720082" lon="10.813701990455323"><ele>682.0</ele><time>2026-05-01T10:24:55.001Z</time></trkpt><trkpt lat="44.341183268943176" lon="10.813687795828576"><ele>682.0</ele><time>2026-05-01T10:24:56.001Z</time></trkpt><trkpt lat="44.34136227147216" lon="10.813641900285925"><ele>682.0</ele><time>2026-05-01T10:24:57.001Z</time></trkpt><trkpt lat="44.34152096551793" lon="10.813635814505002"><ele>682.0</ele><time>2026-05-01T10:24:58.001Z</time></trkpt><trkpt lat="44.34166946721869" lon="10.813671205207434"><ele>682.3333333333334</ele><time>2026-05-01T10:24:59.001Z</time></trkpt><trkpt lat="44.34182530539095" lon="10.813731378414893"><ele>682.6666666666666</ele><time>2026-05-01T10:25:00.001Z</time></trkpt><trkpt lat="44.34198111519378" lon="10.81379926663423"><ele>683.0</ele><time>2026-05-01T10:25:01.001Z</time></trkpt><trkpt lat="44.34213423317591" lon="10.813911277680173"><ele>681.6666666666666</ele><time>2026-05-01T10:25:02.001Z</time></trkpt><trkpt lat="44.342289192137955" lon="10.814032443474684"><ele>680.3333333333334</ele><time>2026-05-01T10:25:03.001Z</time></trkpt><trkpt lat="44.34245131977443" lon="10.814162811553738"><ele>679.0</ele><time>2026-05-01T10:25:04.001Z</time></trkpt><trkpt lat="44.342610333792294" lon="10.814307725407893"><ele>682.0</ele><time>2026-05-01T10:25:05.001Z</time></trkpt><trkpt lat="44.34277031313961" lon="10.81446547580448"><ele>685.0</ele><time>2026-05-01T10:25:06.001Z</time></trkpt><trkpt lat="44.34293306655009" lon="10.814615393210412"><ele>688.0</ele><time>2026-05-01T10:25:07.001Z</time></trkpt><trkpt lat="44.343077741705514" lon="10.81472749346507"><ele>688.0</ele><time>2026-05-01T10:25:08.001Z</time></trkpt><trkpt lat="44.34320493136444" lon="10.814819817694778"><ele>688.0</ele><time>2026-05-01T10:25:09.001Z</time></trkpt><trkpt lat="44.34331238958683" lon="10.814927409078047"><ele>688.0</ele><time>2026-05-01T10:25:10.001Z</time></trkpt><trkpt lat="44.343436021455894" lon="10.815031844672681"><ele>688.0</ele><time>2026-05-01T10:25:11.001Z</time></trkpt><trkpt lat="44.343559152990224" lon="10.815131517631363"><ele>687.5</ele><time>2026-05-01T10:25:12.001Z</time></trkpt><trkpt lat="44.34370002447061" lon="10.815192068932676"><ele>687.0</ele><time>2026-05-01T10:25:13.001Z</time></trkpt><trkpt lat="44.34382336856646" lon="10.81528255544066"><ele>686.5</ele><time>2026-05-01T10:25:14.001Z</time></trkpt><trkpt lat="44.34393111689563" lon="10.815348435943651"><ele>686.0</ele><time>2026-05-01T10:25:15.001Z</time></trkpt><trkpt lat="44.344030285696945" lon="10.815401711825002"><ele>686.0</ele><time>2026-05-01T10:25:16.001Z</time></trkpt><trkpt lat="44.34408771685876" lon="10.81550411284329"><ele>686.0</ele><time>2026-05-01T10:25:17.001Z</time></trkpt><trkpt lat="44.34415736290592" lon="10.815607662671004"><ele>686.0</ele><time>2026-05-01T10:25:18.001Z</time></trkpt><trkpt lat="44.344177589345236" lon="10.815764903311466"><ele>686.0</ele><time>2026-05-01T10:25:19.001Z</time></trkpt><trkpt lat="44.344221285655436" lon="10.815925141451444"><ele>686.0</ele><time>2026-05-01T10:25:20Z</time></trkpt><trkpt lat="44.34423821772181" lon="10.8160974344104"><ele>687.25</ele><time>2026-05-01T10:25:21Z</time></trkpt><trkpt lat="44.3442413882357" lon="10.816272065978964"><ele>688.5</ele><time>2026-05-01T10:25:22Z</time></trkpt><trkpt lat="44.34421762799437" lon="10.816444369379601"><ele>689.75</ele><time>2026-05-01T10:25:23Z</time></trkpt><trkpt lat="44.34415952973129" lon="10.816610181607482"><ele>691.0</ele><time>2026-05-01T10:25:24Z</time></trkpt><trkpt lat="44.3440973892537" lon="10.81677464738709"><ele>691.0</ele><time>2026-05-01T10:25:25Z</time></trkpt><trkpt lat="44.34403869617656" lon="10.816946237634767"><ele>691.0</ele><time>2026-05-01T10:25:26Z</time></trkpt><trkpt lat="44.343982510144436" lon="10.817115086108288"><ele>691.0</ele><time>2026-05-01T10:25:27Z</time></trkpt><trkpt lat="44.34393469354436" lon="10.81725196914822"><ele>691.0</ele><time>2026-05-01T10:25:28Z</time></trkpt><trkpt lat="44.34388643021194" lon="10.81736228302613"><ele>690.8333333333334</ele><time>2026-05-01T10:25:29Z</time></trkpt><trkpt lat="44.343819934518926" lon="10.817448394016777"><ele>690.6666666666667</ele><time>2026-05-01T10:25:30Z</time></trkpt><trkpt lat="44.343733620960705" lon="10.817493674470882"><ele>690.5</ele><time>2026-05-01T10:25:31Z</time></trkpt><trkpt lat="44.343666183125336" lon="10.817514536203063"><ele>690.3333333333334</ele><time>2026-05-01T10:25:32Z</time></trkpt><trkpt lat="44.343569154784234" lon="10.817574526959515"><ele>690.1666666666666</ele><time>2026-05-01T10:25:34Z</time></trkpt><trkpt lat="44.34350108568383" lon="10.817622982542424"><ele>690.0</ele><time>2026-05-01T10:25:35Z</time></trkpt><trkpt lat="44.34341493088052" lon="10.817673789711382"><ele>690.0</ele><time>2026-05-01T10:25:36Z</time></trkpt><trkpt lat="44.34331329302577" lon="10.817720779586447"><ele>690.0</ele><time>2026-05-01T10:25:37Z</time></trkpt><trkpt lat="44.34320599422635" lon="10.817780736147114"><ele>690.0</ele><time>2026-05-01T10:25:38Z</time></trkpt><trkpt lat="44.3430856539056" lon="10.817840729189712"><ele>690.0</ele><time>2026-05-01T10:25:39Z</time></trkpt><trkpt lat="44.342967337912064" lon="10.817917654479315"><ele>689.0</ele><time>2026-05-01T10:25:40Z</time></trkpt><trkpt lat="44.34286076715005" lon="10.818015517809705"><ele>688.0</ele><time>2026-05-01T10:25:41Z</time></trkpt><trkpt lat="44.34276905105531" lon="10.81815192860935"><ele>687.0</ele><time>2026-05-01T10:25:42Z</time></trkpt><trkpt lat="44.342699825419835" lon="10.818316129445533"><ele>686.0</ele><time>2026-05-01T10:25:43Z</time></trkpt><trkpt lat="44.342641409884855" lon="10.818497737241323"><ele>686.0</ele><time>2026-05-01T10:25:44Z</time></trkpt><trkpt lat="44.34258319883602" lon="10.818685658215776"><ele>686.0</ele><time>2026-05-01T10:25:45Z</time></trkpt><trkpt lat="44.342524012229326" lon="10.81887839354781"><ele>686.0</ele><time>2026-05-01T10:25:46Z</time></trkpt><trkpt lat="44.34246667957486" lon="10.819074421967382"><ele>686.0</ele><time>2026-05-01T10:25:47Z</time></trkpt><trkpt lat="44.34241697524631" lon="10.81926819269883"><ele>686.6666666666666</ele><time>2026-05-01T10:25:48Z</time></trkpt><trkpt lat="44.342363103787946" lon="10.819471718708023"><ele>687.3333333333334</ele><time>2026-05-01T10:25:49Z</time></trkpt><trkpt lat="44.34229893028545" lon="10.819660657970717"><ele>688.0</ele><time>2026-05-01T10:25:50Z</time></trkpt><trkpt lat="44.342207067011266" lon="10.819830256557605"><ele>688.0</ele><time>2026-05-01T10:25:51Z</time></trkpt><trkpt lat="44.342093318304336" lon="10.819975145285596"><ele>688.0</ele><time>2026-05-01T10:25:52Z</time></trkpt><trkpt lat="44.34194975410232" lon="10.82007444660076"><ele>688.0</ele><time>2026-05-01T10:25:53Z</time></trkpt><trkpt lat="44.34180245297256" lon="10.820178479891133"><ele>688.0</ele><time>2026-05-01T10:25:54Z</time></trkpt><trkpt lat="44.34164751821863" lon="10.8202982534148"><ele>688.0</ele><time>2026-05-01T10:25:55Z</time></trkpt><trkpt lat="44.34148752721294" lon="10.820416008664877"><ele>688.0</ele><time>2026-05-01T10:25:56Z</time></trkpt><trkpt lat="44.341342024805535" lon="10.82059114766867"><ele>688.0</ele><time>2026-05-01T10:25:57Z</time></trkpt><trkpt lat="44.34120488130611" lon="10.820780573712426"><ele>688.0</ele><time>2026-05-01T10:25:58Z</time></trkpt><trkpt lat="44.341110688356984" lon="10.82092525486952"><ele>688.0</ele><time>2026-05-01T10:25:59Z</time></trkpt><trkpt lat="44.34098460980617" lon="10.82109728422199"><ele>688.6666666666667</ele><time>2026-05-01T10:26:00Z</time></trkpt><trkpt lat="44.34083818413249" lon="10.821240762547495"><ele>689.3333333333334</ele><time>2026-05-01T10:26:01Z</time></trkpt><trkpt lat="44.34068725236873" lon="10.821354194713878"><ele>690.0</ele><time>2026-05-01T10:26:02Z</time></trkpt><trkpt lat="44.34052613235372" lon="10.8214379590942"><ele>691.0</ele><time>2026-05-01T10:26:03Z</time></trkpt><trkpt lat="44.34035886409969" lon="10.82151781656212"><ele>692.0</ele><time>2026-05-01T10:26:04Z</time></trkpt><trkpt lat="44.340199070830415" lon="10.821623804550574"><ele>693.0</ele><time>2026-05-01T10:26:05Z</time></trkpt><trkpt lat="44.3400378346353" lon="10.821724997165017"><ele>693.3333333333334</ele><time>2026-05-01T10:26:06Z</time></trkpt><trkpt lat="44.339893002374964" lon="10.82187062397806"><ele>693.6666666666667</ele><time>2026-05-01T10:26:07Z</time></trkpt><trkpt lat="44.339791815389646" lon="10.822078066456948"><ele>694.0</ele><time>2026-05-01T10:26:08Z</time></trkpt><trkpt lat="44.33973517777025" lon="10.822316163545194"><ele>696.0</ele><time>2026-05-01T10:26:09Z</time></trkpt><trkpt lat="44.339690452133695" lon="10.822553997295344"><ele>698.0</ele><time>2026-05-01T10:26:10Z</time></trkpt><trkpt lat="44.33961272422853" lon="10.822726870289458"><ele>700.0</ele><time>2026-05-01T10:26:11Z</time></trkpt><trkpt lat="44.33950774439145" lon="10.822848718649283"><ele>700.75</ele><time>2026-05-01T10:26:12Z</time></trkpt><trkpt lat="44.33938517378695" lon="10.822945538456484"><ele>701.5</ele><time>2026-05-01T10:26:13Z</time></trkpt><trkpt lat="44.33926835063362" lon="10.823049279939184"><ele>702.25</ele><time>2026-05-01T10:26:14Z</time></trkpt><trkpt lat="44.33918552082922" lon="10.823166808218403"><ele>703.0</ele><time>2026-05-01T10:26:15Z</time></trkpt><trkpt lat="44.33911149986758" lon="10.823259652319534"><ele>703.0</ele><time>2026-05-01T10:26:16Z</time></trkpt><trkpt lat="44.33906162544806" lon="10.823380042891849"><ele>703.0</ele><time>2026-05-01T10:26:17Z</time></trkpt><trkpt lat="44.33905247497958" lon="10.82352251414892"><ele>703.0</ele><time>2026-05-01T10:26:18Z</time></trkpt><trkpt lat="44.33908513425466" lon="10.823663629186639"><ele>703.0</ele><time>2026-05-01T10:26:19Z</time></trkpt><trkpt lat="44.3391146121268" lon="10.823798025686388"><ele>703.0</ele><time>2026-05-01T10:26:20Z</time></trkpt><trkpt lat="44.33914083607331" lon="10.823935278021937"><ele>703.4</ele><time>2026-05-01T10:26:21Z</time></trkpt><trkpt lat="44.339151829591096" lon="10.824072338875911"><ele>703.8</ele><time>2026-05-01T10:26:22Z</time></trkpt><trkpt lat="44.33914925326928" lon="10.824217973815747"><ele>704.2</ele><time>2026-05-01T10:26:23Z</time></trkpt><trkpt lat="44.33912790512906" lon="10.824361187607739"><ele>704.6</ele><time>2026-05-01T10:26:24Z</time></trkpt><trkpt lat="44.33909594967529" lon="10.824509788014016"><ele>705.0</ele><time>2026-05-01T10:26:25Z</time></trkpt><trkpt lat="44.339063614358246" lon="10.824658495439811"><ele>705.6</ele><time>2026-05-01T10:26:26Z</time></trkpt><trkpt lat="44.339036730311626" lon="10.824806573807143"><ele>706.2</ele><time>2026-05-01T10:26:27Z</time></trkpt><trkpt lat="44.339017423844865" lon="10.824951794472865"><ele>706.8</ele><time>2026-05-01T10:26:28Z</time></trkpt><trkpt lat="44.33900409692633" lon="10.82509378335612"><ele>707.4</ele><time>2026-05-01T10:26:29Z</time></trkpt><trkpt lat="44.33899386001097" lon="10.825235953616533"><ele>708.0</ele><time>2026-05-01T10:26:30Z</time></trkpt><trkpt lat="44.33898522098891" lon="10.825377474919867"><ele>708.4</ele><time>2026-05-01T10:26:31Z</time></trkpt><trkpt lat="44.33897870812937" lon="10.825521057254466"><ele>708.8</ele><time>2026-05-01T10:26:32Z</time></trkpt><trkpt lat="44.3389745539563" lon="10.825663370169067"><ele>709.2</ele><time>2026-05-01T10:26:33Z</time></trkpt><trkpt lat="44.33897038052551" lon="10.825805541247243"><ele>709.6</ele><time>2026-05-01T10:26:34Z</time></trkpt><trkpt lat="44.338965191539515" lon="10.825947282242531"><ele>710.0</ele><time>2026-05-01T10:26:35Z</time></trkpt><trkpt lat="44.33898198832387" lon="10.826095770671397"><ele>711.0</ele><time>2026-05-01T10:26:36Z</time></trkpt><trkpt lat="44.33899184626124" lon="10.82625519518294"><ele>712.0</ele><time>2026-05-01T10:26:37Z</time></trkpt><trkpt lat="44.33901691976243" lon="10.826417248656776"><ele>713.0</ele><time>2026-05-01T10:26:38.001Z</time></trkpt><trkpt lat="44.33906822747335" lon="10.826568918108439"><ele>714.0</ele><time>2026-05-01T10:26:39.001Z</time></trkpt><trkpt lat="44.339135797048385" lon="10.826708109594492"><ele>715.75</ele><time>2026-05-01T10:26:40.001Z</time></trkpt><trkpt lat="44.33922420916663" lon="10.826829798278304"><ele>717.5</ele><time>2026-05-01T10:26:41.001Z</time></trkpt><trkpt lat="44.33932513586051" lon="10.82693506005922"><ele>719.25</ele><time>2026-05-01T10:26:42.001Z</time></trkpt><trkpt lat="44.339424226885306" lon="10.827037799693779"><ele>721.0</ele><time>2026-05-01T10:26:43.001Z</time></trkpt><trkpt lat="44.33952263730203" lon="10.8271412657466"><ele>721.0</ele><time>2026-05-01T10:26:44.001Z</time></trkpt><trkpt lat="44.339629226392546" lon="10.827235380432944"><ele>721.0</ele><time>2026-05-01T10:26:45.001Z</time></trkpt><trkpt lat="44.33972222320204" lon="10.827346879192298"><ele>721.0</ele><time>2026-05-01T10:26:46.001Z</time></trkpt><trkpt lat="44.33982211153865" lon="10.827420706769482"><ele>721.0</ele><time>2026-05-01T10:26:47.001Z</time></trkpt><trkpt lat="44.33991362716523" lon="10.82750823768586"><ele>720.4</ele><time>2026-05-01T10:26:48.001Z</time></trkpt><trkpt lat="44.34000994438379" lon="10.827581652032649"><ele>719.8</ele><time>2026-05-01T10:26:49.001Z</time></trkpt><trkpt lat="44.3401034111928" lon="10.827655745342314"><ele>719.1999999999999</ele><time>2026-05-01T10:26:50.001Z</time></trkpt><trkpt lat="44.34020144410708" lon="10.827720473120227"><ele>718.5999999999999</ele><time>2026-05-01T10:26:51.001Z</time></trkpt><trkpt lat="44.340299743352084" lon="10.827774025543954"><ele>718.0</ele><time>2026-05-01T10:26:52.001Z</time></trkpt><trkpt lat="44.340399299947876" lon="10.82783266053308"><ele>718.0</ele><time>2026-05-01T10:26:53.001Z</time></trkpt><trkpt lat="44.340498285708165" lon="10.827881737259196"><ele>718.0</ele><time>2026-05-01T10:26:54.001Z</time></trkpt><trkpt lat="44.34058094061928" lon="10.827927488244393"><ele>718.0</ele><time>2026-05-01T10:26:55.001Z</time></trkpt><trkpt lat="44.340654572689616" lon="10.827972837412037"><ele>718.0</ele><time>2026-05-01T10:26:56.001Z</time></trkpt><trkpt lat="44.34071746099654" lon="10.82804524432958"><ele>718.0</ele><time>2026-05-01T10:26:57.001Z</time></trkpt><trkpt lat="44.34076928717189" lon="10.828115509673244"><ele>718.0</ele><time>2026-05-01T10:26:58.001Z</time></trkpt><trkpt lat="44.340816135847184" lon="10.828193168549971"><ele>718.0</ele><time>2026-05-01T10:26:59.001Z</time></trkpt><trkpt lat="44.34085417412939" lon="10.828279084733051"><ele>718.0</ele><time>2026-05-01T10:27:00.001Z</time></trkpt><trkpt lat="44.34087901814792" lon="10.828398856215552"><ele>718.0</ele><time>2026-05-01T10:27:01.001Z</time></trkpt><trkpt lat="44.3408929129005" lon="10.828534146706113"><ele>718.0</ele><time>2026-05-01T10:27:02.001Z</time></trkpt><trkpt lat="44.34090448825689" lon="10.828670365558201"><ele>718.0</ele><time>2026-05-01T10:27:03.001Z</time></trkpt><trkpt lat="44.34090695303434" lon="10.828814702251446"><ele>716.4</ele><time>2026-05-01T10:27:04.001Z</time></trkpt><trkpt lat="44.34088339105422" lon="10.828954811861696"><ele>714.8</ele><time>2026-05-01T10:27:05.001Z</time></trkpt><trkpt lat="44.34082934165545" lon="10.829078431696018"><ele>713.2</ele><time>2026-05-01T10:27:06.001Z</time></trkpt><trkpt lat="44.34076584091589" lon="10.829200282076329"><ele>711.6</ele><time>2026-05-01T10:27:07.001Z</time></trkpt><trkpt lat="44.340680700903164" lon="10.829295073941363"><ele>710.0</ele><time>2026-05-01T10:27:08.001Z</time></trkpt><trkpt lat="44.34059042731475" lon="10.829385844710838"><ele>708.2</ele><time>2026-05-01T10:27:09.001Z</time></trkpt><trkpt lat="44.34049960969869" lon="10.829472831326177"><ele>706.4</ele><time>2026-05-01T10:27:10.001Z</time></trkpt><trkpt lat="44.340408011356175" lon="10.829552763407774"><ele>704.5999999999999</ele><time>2026-05-01T10:27:11.001Z</time></trkpt><trkpt lat="44.34031532940684" lon="10.829624570960664"><ele>702.8</ele><time>2026-05-01T10:27:12.001Z</time></trkpt><trkpt lat="44.34021907482801" lon="10.82969452453131"><ele>701.0</ele><time>2026-05-01T10:27:13.001Z</time></trkpt><trkpt lat="44.34012413240908" lon="10.829754308871642"><ele>701.0</ele><time>2026-05-01T10:27:14.001Z</time></trkpt><trkpt lat="44.34004335880969" lon="10.829796074091108"><ele>701.0</ele><time>2026-05-01T10:27:15.001Z</time></trkpt><trkpt lat="44.33994947360846" lon="10.829821118483185"><ele>701.0</ele><time>2026-05-01T10:27:16.001Z</time></trkpt><trkpt lat="44.33988092092921" lon="10.829873917380022"><ele>701.0</ele><time>2026-05-01T10:27:17.001Z</time></trkpt><trkpt lat="44.33976728092317" lon="10.829903006322546"><ele>701.0</ele><time>2026-05-01T10:27:19.001Z</time></trkpt><trkpt lat="44.33968843119727" lon="10.82992644779547"><ele>701.0</ele><time>2026-05-01T10:27:21.001Z</time></trkpt><trkpt lat="44.339701722494176" lon="10.83010863582449"><ele>701.0</ele><time>2026-05-01T10:27:25.001Z</time></trkpt><trkpt lat="44.33983754011546" lon="10.830093048886422"><ele>701.0</ele><time>2026-05-01T10:27:26Z</time></trkpt><trkpt lat="44.339960318236116" lon="10.830110288072074"><ele>701.0</ele><time>2026-05-01T10:27:27Z</time></trkpt><trkpt lat="44.34009090191721" lon="10.830108651151777"><ele>701.0</ele><time>2026-05-01T10:27:28Z</time></trkpt><trkpt lat="44.340231243513344" lon="10.830107646636385"><ele>701.0</ele><time>2026-05-01T10:27:29Z</time></trkpt><trkpt lat="44.34037954451368" lon="10.830073844980522"><ele>701.0</ele><time>2026-05-01T10:27:30Z</time></trkpt><trkpt lat="44.34049857672621" lon="10.830035745964885"><ele>701.0</ele><time>2026-05-01T10:27:31Z</time></trkpt><trkpt lat="44.340580866410924" lon="10.830008747606946"><ele>700.6666666666666</ele><time>2026-05-01T10:27:32Z</time></trkpt><trkpt lat="44.34066837066983" lon="10.830015728887128"><ele>700.3333333333334</ele><time>2026-05-01T10:27:34Z</time></trkpt><trkpt lat="44.34078238546603" lon="10.83030111181413"><ele>700.0</ele><time>2026-05-01T10:27:37Z</time></trkpt><trkpt lat="44.34056670173274" lon="10.830355715240367"><ele>696.8</ele><time>2026-05-01T10:27:38Z</time></trkpt><trkpt lat="44.34055618510067" lon="10.830462834106273"><ele>693.6</ele><time>2026-05-01T10:27:39Z</time></trkpt><trkpt lat="44.340607502284534" lon="10.83058694078501"><ele>690.4000000000001</ele><time>2026-05-01T10:27:40Z</time></trkpt><trkpt lat="44.34074050550722" lon="10.830604301126243"><ele>687.2</ele><time>2026-05-01T10:27:41Z</time></trkpt><trkpt lat="44.340816805488394" lon="10.83067840568372"><ele>684.0</ele><time>2026-05-01T10:27:42Z</time></trkpt><trkpt lat="44.340888747823826" lon="10.830766903505594"><ele>684.0</ele><time>2026-05-01T10:27:43Z</time></trkpt><trkpt lat="44.34094233768392" lon="10.83083801894393"><ele>684.0</ele><time>2026-05-01T10:27:44Z</time></trkpt><trkpt lat="44.34096218292577" lon="10.830961091993538"><ele>684.0</ele><time>2026-05-01T10:27:46Z</time></trkpt><trkpt lat="44.340907221556456" lon="10.831015338788124"><ele>684.0</ele><time>2026-05-01T10:27:47Z</time></trkpt><trkpt lat="44.340834012641956" lon="10.831047911342099"><ele>684.0</ele><time>2026-05-01T10:27:48Z</time></trkpt><trkpt lat="44.34075281598155" lon="10.831093414495266"><ele>684.0</ele><time>2026-05-01T10:27:49Z</time></trkpt><trkpt lat="44.3406635649629" lon="10.831152356147102"><ele>683.25</ele><time>2026-05-01T10:27:50Z</time></trkpt><trkpt lat="44.34057550241635" lon="10.831232747640142"><ele>682.5</ele><time>2026-05-01T10:27:51Z</time></trkpt><trkpt lat="44.340489024822226" lon="10.831334978625563"><ele>681.75</ele><time>2026-05-01T10:27:52Z</time></trkpt><trkpt lat="44.340405342873595" lon="10.831455648407399"><ele>681.0</ele><time>2026-05-01T10:27:53Z</time></trkpt><trkpt lat="44.34031778933964" lon="10.831576690692245"><ele>681.0</ele><time>2026-05-01T10:27:54Z</time></trkpt><trkpt lat="44.34023171677223" lon="10.83169002491182"><ele>681.0</ele><time>2026-05-01T10:27:55Z</time></trkpt><trkpt lat="44.340166292168306" lon="10.831784564207473"><ele>681.0</ele><time>2026-05-01T10:27:56Z</time></trkpt><trkpt lat="44.34011762962376" lon="10.831890983104893"><ele>681.0</ele><time>2026-05-01T10:27:58Z</time></trkpt><trkpt lat="44.340209682866906" lon="10.832003754946795"><ele>681.0</ele><time>2026-05-01T10:28:00Z</time></trkpt><trkpt lat="44.34030050307205" lon="10.832063891961894"><ele>679.25</ele><time>2026-05-01T10:28:01Z</time></trkpt><trkpt lat="44.340402815922346" lon="10.832148899154339"><ele>677.5</ele><time>2026-05-01T10:28:02Z</time></trkpt><trkpt lat="44.340508185758324" lon="10.832235164507244"><ele>675.75</ele><time>2026-05-01T10:28:03Z</time></trkpt><trkpt lat="44.34062680989161" lon="10.83231207810269"><ele>674.0</ele><time>2026-05-01T10:28:04Z</time></trkpt><trkpt lat="44.3407569760767" lon="10.832386794993882"><ele>673.5</ele><time>2026-05-01T10:28:05Z</time></trkpt><trkpt lat="44.34088682092894" lon="10.832456085199428"><ele>673.0</ele><time>2026-05-01T10:28:06Z</time></trkpt><trkpt lat="44.34100890455281" lon="10.832510180628663"><ele>672.5</ele><time>2026-05-01T10:28:07Z</time></trkpt><trkpt lat="44.34110453187015" lon="10.832568176171646"><ele>672.0</ele><time>2026-05-01T10:28:08Z</time></trkpt><trkpt lat="44.34118576889883" lon="10.832603214215762"><ele>672.8</ele><time>2026-05-01T10:28:09Z</time></trkpt><trkpt lat="44.34126801710679" lon="10.832706183748805"><ele>673.6</ele><time>2026-05-01T10:28:11Z</time></trkpt><trkpt lat="44.341256098947746" lon="10.832808543990446"><ele>674.4</ele><time>2026-05-01T10:28:13Z</time></trkpt><trkpt lat="44.34120492891428" lon="10.832904873049424"><ele>675.1999999999999</ele><time>2026-05-01T10:29:00.001Z</time></trkpt><trkpt lat="44.34136190008454" lon="10.833009073985796"><ele>676.0</ele><time>2026-05-01T10:29:02.001Z</time></trkpt><trkpt lat="44.341464449930086" lon="10.833016705599062"><ele>676.5</ele><time>2026-05-01T10:29:03.001Z</time></trkpt><trkpt lat="44.34158095807186" lon="10.83299024843241"><ele>677.0</ele><time>2026-05-01T10:29:04.001Z</time></trkpt><trkpt lat="44.3417192297265" lon="10.83296858750567"><ele>677.5</ele><time>2026-05-01T10:29:05.001Z</time></trkpt><trkpt lat="44.34186586720426" lon="10.832956353787733"><ele>678.0</ele><time>2026-05-01T10:29:06.001Z</time></trkpt><trkpt lat="44.342014541485646" lon="10.832958819165087"><ele>678.0</ele><time>2026-05-01T10:29:07.001Z</time></trkpt><trkpt lat="44.34214994975148" lon="10.832947542819026"><ele>678.0</ele><time>2026-05-01T10:29:08.001Z</time></trkpt><trkpt lat="44.34227250378962" lon="10.83293822822046"><ele>678.0</ele><time>2026-05-01T10:29:09.001Z</time></trkpt><trkpt lat="44.34239275364772" lon="10.832938568799177"><ele>678.0</ele><time>2026-05-01T10:29:10.001Z</time></trkpt><trkpt lat="44.34251237306973" lon="10.83293511051067"><ele>678.5</ele><time>2026-05-01T10:29:11.001Z</time></trkpt><trkpt lat="44.34263143962434" lon="10.832934233728125"><ele>679.0</ele><time>2026-05-01T10:29:12.001Z</time></trkpt><trkpt lat="44.34274699702893" lon="10.832932069823613"><ele>679.5</ele><time>2026-05-01T10:29:13.001Z</time></trkpt><trkpt lat="44.34286369630479" lon="10.832934401469807"><ele>680.0</ele><time>2026-05-01T10:29:14.001Z</time></trkpt><trkpt lat="44.34298029103724" lon="10.832945542046915"><ele>680.5</ele><time>2026-05-01T10:29:15.001Z</time></trkpt><trkpt lat="44.34310031414947" lon="10.83296852339996"><ele>681.0</ele><time>2026-05-01T10:29:16.001Z</time></trkpt><trkpt lat="44.34322254611905" lon="10.832994604763462"><ele>681.5</ele><time>2026-05-01T10:29:17.001Z</time></trkpt><trkpt lat="44.3433424506033" lon="10.833022227366152"><ele>682.0</ele><time>2026-05-01T10:29:18.001Z</time></trkpt><trkpt lat="44.34346113441432" lon="10.833056274482486"><ele>682.0</ele><time>2026-05-01T10:29:19.001Z</time></trkpt><trkpt lat="44.343581514345345" lon="10.83309431382478"><ele>682.0</ele><time>2026-05-01T10:29:20.001Z</time></trkpt><trkpt lat="44.34370744060949" lon="10.833129837446675"><ele>682.0</ele><time>2026-05-01T10:29:21.001Z</time></trkpt><trkpt lat="44.343833933979376" lon="10.833168311766359"><ele>682.0</ele><time>2026-05-01T10:29:22.001Z</time></trkpt><trkpt lat="44.343961724766565" lon="10.83320683809378"><ele>683.25</ele><time>2026-05-01T10:29:23.001Z</time></trkpt><trkpt lat="44.344089932567144" lon="10.833243662604898"><ele>684.5</ele><time>2026-05-01T10:29:24.001Z</time></trkpt><trkpt lat="44.3442170445506" lon="10.833278025380917"><ele>685.75</ele><time>2026-05-01T10:29:25.001Z</time></trkpt><trkpt lat="44.344344909939615" lon="10.833316788075413"><ele>687.0</ele><time>2026-05-01T10:29:26.001Z</time></trkpt><trkpt lat="44.3444705811606" lon="10.833347230066847"><ele>687.0</ele><time>2026-05-01T10:29:27.001Z</time></trkpt><trkpt lat="44.344599389327435" lon="10.833387919912914"><ele>687.0</ele><time>2026-05-01T10:29:28.001Z</time></trkpt><trkpt lat="44.34472407157277" lon="10.833426210161509"><ele>687.0</ele><time>2026-05-01T10:29:29.001Z</time></trkpt><trkpt lat="44.34484793844996" lon="10.833467799099541"><ele>687.0</ele><time>2026-05-01T10:29:30.001Z</time></trkpt><trkpt lat="44.34497584852224" lon="10.833507153415383"><ele>686.25</ele><time>2026-05-01T10:29:31.001Z</time></trkpt><trkpt lat="44.345103115039514" lon="10.833541437532958"><ele>685.5</ele><time>2026-05-01T10:29:32Z</time></trkpt><trkpt lat="44.34522848011889" lon="10.833576579645115"><ele>684.75</ele><time>2026-05-01T10:29:33Z</time></trkpt><trkpt lat="44.34535442971322" lon="10.833617914934681"><ele>684.0</ele><time>2026-05-01T10:29:34Z</time></trkpt><trkpt lat="44.34547807415597" lon="10.833654684473595"><ele>682.5</ele><time>2026-05-01T10:29:35Z</time></trkpt><trkpt lat="44.34560419899324" lon="10.833690283798196"><ele>681.0</ele><time>2026-05-01T10:29:36Z</time></trkpt><trkpt lat="44.34573141323011" lon="10.833729411241434"><ele>679.5</ele><time>2026-05-01T10:29:37Z</time></trkpt><trkpt lat="44.34585804920137" lon="10.8337689290126"><ele>678.0</ele><time>2026-05-01T10:29:38Z</time></trkpt><trkpt lat="44.34597844042412" lon="10.833823775386776"><ele>678.0</ele><time>2026-05-01T10:29:39Z</time></trkpt><trkpt lat="44.34610355102013" lon="10.833880283617953"><ele>678.0</ele><time>2026-05-01T10:29:40Z</time></trkpt><trkpt lat="44.34622823265135" lon="10.833937095150354"><ele>678.0</ele><time>2026-05-01T10:29:41Z</time></trkpt><trkpt lat="44.34635333015196" lon="10.83399568767561"><ele>678.0</ele><time>2026-05-01T10:29:42Z</time></trkpt><trkpt lat="44.34647653825068" lon="10.834052782666324"><ele>679.0</ele><time>2026-05-01T10:29:43Z</time></trkpt><trkpt lat="44.34660173458899" lon="10.834122928957266"><ele>680.0</ele><time>2026-05-01T10:29:44Z</time></trkpt><trkpt lat="44.34672439851492" lon="10.834202861203494"><ele>681.0</ele><time>2026-05-01T10:29:45Z</time></trkpt><trkpt lat="44.34684028028641" lon="10.834296179707733"><ele>682.0</ele><time>2026-05-01T10:29:46Z</time></trkpt><trkpt lat="44.34695775007891" lon="10.83442769467699"><ele>682.0</ele><time>2026-05-01T10:29:47Z</time></trkpt><trkpt lat="44.347067449045205" lon="10.834567854957188"><ele>682.0</ele><time>2026-05-01T10:29:48Z</time></trkpt><trkpt lat="44.347162611528475" lon="10.83471076693344"><ele>682.0</ele><time>2026-05-01T10:29:49Z</time></trkpt><trkpt lat="44.34724988126107" lon="10.83484631473248"><ele>682.0</ele><time>2026-05-01T10:29:50Z</time></trkpt><trkpt lat="44.34734832167263" lon="10.834980262696847"><ele>679.6666666666667</ele><time>2026-05-01T10:29:51Z</time></trkpt><trkpt lat="44.34746639581208" lon="10.835096639749915"><ele>677.3333333333334</ele><time>2026-05-01T10:29:52Z</time></trkpt><trkpt lat="44.347615997352975" lon="10.83518339874841"><ele>675.0</ele><time>2026-05-01T10:29:53Z</time></trkpt><trkpt lat="44.34777697169951" lon="10.835282820257598"><ele>675.0</ele><time>2026-05-01T10:29:54Z</time></trkpt><trkpt lat="44.347950088049224" lon="10.835384710512097"><ele>675.0</ele><time>2026-05-01T10:29:55Z</time></trkpt><trkpt lat="44.348133690800516" lon="10.835489972717754"><ele>675.0</ele><time>2026-05-01T10:29:56Z</time></trkpt><trkpt lat="44.34832415354223" lon="10.835612098395197"><ele>672.6666666666666</ele><time>2026-05-01T10:29:57Z</time></trkpt><trkpt lat="44.348507979013604" lon="10.835743715785382"><ele>670.3333333333333</ele><time>2026-05-01T10:29:58Z</time></trkpt><trkpt lat="44.34869028933822" lon="10.83585854847443"><ele>668.0</ele><time>2026-05-01T10:29:59Z</time></trkpt><trkpt lat="44.348862501983604" lon="10.835962616534301"><ele>667.6666666666666</ele><time>2026-05-01T10:30:00Z</time></trkpt><trkpt lat="44.3490346366386" lon="10.836065193273505"><ele>667.3333333333334</ele><time>2026-05-01T10:30:01Z</time></trkpt><trkpt lat="44.349205562363686" lon="10.83616533346846"><ele>667.0</ele><time>2026-05-01T10:30:02Z</time></trkpt><trkpt lat="44.34935631468227" lon="10.836256638814355"><ele>667.0</ele><time>2026-05-01T10:30:03Z</time></trkpt><trkpt lat="44.349502789717626" lon="10.836336232665703"><ele>667.0</ele><time>2026-05-01T10:30:04Z</time></trkpt><trkpt lat="44.34963574497254" lon="10.836401411517341"><ele>667.0</ele><time>2026-05-01T10:30:05Z</time></trkpt><trkpt lat="44.34975720328736" lon="10.836461252272843"><ele>667.0</ele><time>2026-05-01T10:30:06Z</time></trkpt><trkpt lat="44.349869659091155" lon="10.836505806984688"><ele>665.8</ele><time>2026-05-01T10:30:07Z</time></trkpt><trkpt lat="44.34996709154325" lon="10.83653966027599"><ele>664.6</ele><time>2026-05-01T10:30:08Z</time></trkpt><trkpt lat="44.350060277515965" lon="10.836548306030213"><ele>663.4</ele><time>2026-05-01T10:30:09Z</time></trkpt><trkpt lat="44.350140854966895" lon="10.836527255850616"><ele>662.1999999999999</ele><time>2026-05-01T10:30:10Z</time></trkpt><trkpt lat="44.3502194807501" lon="10.836492747692777"><ele>661.0</ele><time>2026-05-01T10:30:11Z</time></trkpt><trkpt lat="44.35031870480225" lon="10.836455857518569"><ele>661.0</ele><time>2026-05-01T10:30:12Z</time></trkpt><trkpt lat="44.35043234357851" lon="10.836394127705143"><ele>661.0</ele><time>2026-05-01T10:30:13Z</time></trkpt><trkpt lat="44.35055841853035" lon="10.836316728530026"><ele>661.0</ele><time>2026-05-01T10:30:14Z</time></trkpt><trkpt lat="44.350694209534694" lon="10.836277648114946"><ele>661.0</ele><time>2026-05-01T10:30:15Z</time></trkpt><trkpt lat="44.350841357593204" lon="10.836303451752158"><ele>662.6666666666667</ele><time>2026-05-01T10:30:16Z</time></trkpt><trkpt lat="44.35098592557786" lon="10.836373274975983"><ele>664.3333333333334</ele><time>2026-05-01T10:30:17Z</time></trkpt><trkpt lat="44.35113265930801" lon="10.836467871157"><ele>666.0</ele><time>2026-05-01T10:30:18Z</time></trkpt><trkpt lat="44.35128368070821" lon="10.836539547440026"><ele>666.6666666666666</ele><time>2026-05-01T10:30:19Z</time></trkpt><trkpt lat="44.35144514955703" lon="10.836578234576782"><ele>667.3333333333333</ele><time>2026-05-01T10:30:20Z</time></trkpt><trkpt lat="44.351608726199196" lon="10.836609882771258"><ele>668.0</ele><time>2026-05-01T10:30:21Z</time></trkpt><trkpt lat="44.351779023874585" lon="10.836630618713984"><ele>668.0</ele><time>2026-05-01T10:30:22Z</time></trkpt><trkpt lat="44.35195165417509" lon="10.836647215842921"><ele>668.0</ele><time>2026-05-01T10:30:23Z</time></trkpt><trkpt lat="44.35212889607845" lon="10.836660597696138"><ele>668.0</ele><time>2026-05-01T10:30:24Z</time></trkpt><trkpt lat="44.3523109624029" lon="10.83668528515937"><ele>669.3333333333333</ele><time>2026-05-01T10:30:25Z</time></trkpt><trkpt lat="44.35249618657263" lon="10.836726524595761"><ele>670.6666666666666</ele><time>2026-05-01T10:30:26Z</time></trkpt><trkpt lat="44.35268298452991" lon="10.83679138437201"><ele>672.0</ele><time>2026-05-01T10:30:27Z</time></trkpt><trkpt lat="44.35287184417208" lon="10.836874214979323"><ele>677.3333333333334</ele><time>2026-05-01T10:30:28Z</time></trkpt><trkpt lat="44.35306276924395" lon="10.836959165266084"><ele>682.6666666666667</ele><time>2026-05-01T10:30:29Z</time></trkpt><trkpt lat="44.35325378358518" lon="10.837055089930859"><ele>688.0</ele><time>2026-05-01T10:30:30Z</time></trkpt><trkpt lat="44.35344344777568" lon="10.837158937264185"><ele>688.0</ele><time>2026-05-01T10:30:31Z</time></trkpt><trkpt lat="44.35360344215965" lon="10.83727071047372"><ele>688.0</ele><time>2026-05-01T10:30:32Z</time></trkpt><trkpt lat="44.35373130676083" lon="10.83739078546537"><ele>688.0</ele><time>2026-05-01T10:30:33Z</time></trkpt><trkpt lat="44.353826692276336" lon="10.8375356780413"><ele>688.25</ele><time>2026-05-01T10:30:34Z</time></trkpt><trkpt lat="44.353897276983794" lon="10.83770076794311"><ele>688.5</ele><time>2026-05-01T10:30:35Z</time></trkpt><trkpt lat="44.353957293806815" lon="10.837878967445329"><ele>688.75</ele><time>2026-05-01T10:30:36Z</time></trkpt><trkpt lat="44.35398688520553" lon="10.838066721746237"><ele>689.0</ele><time>2026-05-01T10:30:37Z</time></trkpt><trkpt lat="44.353988594038576" lon="10.838239471162414"><ele>689.0</ele><time>2026-05-01T10:30:38Z</time></trkpt><trkpt lat="44.35397987743476" lon="10.838412046099174"><ele>689.0</ele><time>2026-05-01T10:30:39Z</time></trkpt><trkpt lat="44.353991751563505" lon="10.838778025247295"><ele>689.0</ele><time>2026-05-01T10:30:40Z</time></trkpt><trkpt lat="44.353966833384874" lon="10.83902948138338"><ele>691.3333333333333</ele><time>2026-05-01T10:30:41Z</time></trkpt><trkpt lat="44.35399781432717" lon="10.839274088016237"><ele>693.6666666666666</ele><time>2026-05-01T10:30:42Z</time></trkpt><trkpt lat="44.35405566613807" lon="10.83949031929839"><ele>696.0</ele><time>2026-05-01T10:30:43Z</time></trkpt><trkpt lat="44.35413725442684" lon="10.839677291206717"><ele>699.0</ele><time>2026-05-01T10:30:44Z</time></trkpt><trkpt lat="44.35424078351262" lon="10.839833083606484"><ele>702.0</ele><time>2026-05-01T10:30:45Z</time></trkpt><trkpt lat="44.354374003542105" lon="10.839960374314186"><ele>705.0</ele><time>2026-05-01T10:30:46.001Z</time></trkpt><trkpt lat="44.354518897816526" lon="10.840063749536128"><ele>707.6666666666666</ele><time>2026-05-01T10:30:47.001Z</time></trkpt><trkpt lat="44.35467114377876" lon="10.840142181307183"><ele>710.3333333333333</ele><time>2026-05-01T10:30:48.001Z</time></trkpt><trkpt lat="44.35483282900589" lon="10.840201282470845"><ele>713.0</ele><time>2026-05-01T10:30:49.001Z</time></trkpt><trkpt lat="44.35498962608947" lon="10.840264783994794"><ele>713.0</ele><time>2026-05-01T10:30:50.001Z</time></trkpt><trkpt lat="44.355147222733635" lon="10.840336942361933"><ele>713.0</ele><time>2026-05-01T10:30:51.001Z</time></trkpt><trkpt lat="44.355303104957336" lon="10.840419869747704"><ele>713.0</ele><time>2026-05-01T10:30:52.001Z</time></trkpt><trkpt lat="44.35546101912395" lon="10.840506605063789"><ele>712.6666666666666</ele><time>2026-05-01T10:30:53.001Z</time></trkpt><trkpt lat="44.355616641359546" lon="10.840606332140727"><ele>712.3333333333334</ele><time>2026-05-01T10:30:54.001Z</time></trkpt><trkpt lat="44.35575952274353" lon="10.840709364271373"><ele>712.0</ele><time>2026-05-01T10:30:55.001Z</time></trkpt><trkpt lat="44.355899295308326" lon="10.840818077570734"><ele>712.0</ele><time>2026-05-01T10:30:56.001Z</time></trkpt><trkpt lat="44.35603077853522" lon="10.840927014651477"><ele>712.0</ele><time>2026-05-01T10:30:57.001Z</time></trkpt><trkpt lat="44.356135836478224" lon="10.841032977795162"><ele>712.0</ele><time>2026-05-01T10:30:58.001Z</time></trkpt><trkpt lat="44.35622302599465" lon="10.841133741332278"><ele>712.0</ele><time>2026-05-01T10:30:59.001Z</time></trkpt><trkpt lat="44.356307213639724" lon="10.84122797432328"><ele>713.4000000000001</ele><time>2026-05-01T10:31:00.001Z</time></trkpt><trkpt lat="44.35637931047923" lon="10.841303221066545"><ele>714.8000000000001</ele><time>2026-05-01T10:31:01.001Z</time></trkpt><trkpt lat="44.35644334593995" lon="10.841371677393537"><ele>716.2</ele><time>2026-05-01T10:31:02.001Z</time></trkpt><trkpt lat="44.35651206578205" lon="10.841447897613579"><ele>717.6</ele><time>2026-05-01T10:31:03.001Z</time></trkpt><trkpt lat="44.35660126830334" lon="10.841539783983352"><ele>719.0</ele><time>2026-05-01T10:31:04.001Z</time></trkpt><trkpt lat="44.35670172745865" lon="10.84164420272716"><ele>719.0</ele><time>2026-05-01T10:31:05.001Z</time></trkpt><trkpt lat="44.35682053121016" lon="10.841748333194426"><ele>719.0</ele><time>2026-05-01T10:31:06.001Z</time></trkpt><trkpt lat="44.356939845380886" lon="10.841851519809131"><ele>719.0</ele><time>2026-05-01T10:31:07.001Z</time></trkpt><trkpt lat="44.35705925855637" lon="10.841942642960921"><ele>719.0</ele><time>2026-05-01T10:31:08.001Z</time></trkpt><trkpt lat="44.35718043077097" lon="10.842019004892462"><ele>719.25</ele><time>2026-05-01T10:31:09.001Z</time></trkpt><trkpt lat="44.357300401271395" lon="10.84208811200956"><ele>719.5</ele><time>2026-05-01T10:31:10.001Z</time></trkpt><trkpt lat="44.35742334313839" lon="10.842123447274208"><ele>719.75</ele><time>2026-05-01T10:31:11.001Z</time></trkpt><trkpt lat="44.35756078245998" lon="10.842104415441387"><ele>720.0</ele><time>2026-05-01T10:31:12.001Z</time></trkpt><trkpt lat="44.35769413385299" lon="10.842046779442432"><ele>720.0</ele><time>2026-05-01T10:31:13.001Z</time></trkpt><trkpt lat="44.35782942851438" lon="10.841948026295285"><ele>720.0</ele><time>2026-05-01T10:31:14.001Z</time></trkpt><trkpt lat="44.357957763480506" lon="10.841829017542105"><ele>720.0</ele><time>2026-05-01T10:31:15.001Z</time></trkpt><trkpt lat="44.35807489132459" lon="10.841685948282798"><ele>721.0</ele><time>2026-05-01T10:31:16.001Z</time></trkpt><trkpt lat="44.35818738858146" lon="10.841528960215422"><ele>722.0</ele><time>2026-05-01T10:31:17.001Z</time></trkpt><trkpt lat="44.35829424752807" lon="10.841361035940956"><ele>723.0</ele><time>2026-05-01T10:31:18.001Z</time></trkpt><trkpt lat="44.35840564949641" lon="10.841201128118213"><ele>723.0</ele><time>2026-05-01T10:31:19.001Z</time></trkpt><trkpt lat="44.3585280607503" lon="10.841053846992097"><ele>723.0</ele><time>2026-05-01T10:31:20.001Z</time></trkpt><trkpt lat="44.358662183884654" lon="10.840931601934695"><ele>723.0</ele><time>2026-05-01T10:31:21.001Z</time></trkpt><trkpt lat="44.35881368614002" lon="10.840847708743842"><ele>721.0</ele><time>2026-05-01T10:31:22.001Z</time></trkpt><trkpt lat="44.35898191537301" lon="10.840819697168591"><ele>719.0</ele><time>2026-05-01T10:31:23.001Z</time></trkpt><trkpt lat="44.359149782048625" lon="10.840860307075799"><ele>717.0</ele><time>2026-05-01T10:31:24.001Z</time></trkpt><trkpt lat="44.359318890000395" lon="10.840897795024764"><ele>722.6666666666666</ele><time>2026-05-01T10:31:25.001Z</time></trkpt><trkpt lat="44.359478102079" lon="10.84097947857961"><ele>728.3333333333333</ele><time>2026-05-01T10:31:26.001Z</time></trkpt><trkpt lat="44.35964111127773" lon="10.841045586792694"><ele>734.0</ele><time>2026-05-01T10:31:27.001Z</time></trkpt><trkpt lat="44.359803766970266" lon="10.841098245114065"><ele>734.0</ele><time>2026-05-01T10:31:28.001Z</time></trkpt><trkpt lat="44.35996235283635" lon="10.84115353292062"><ele>734.0</ele><time>2026-05-01T10:31:29.001Z</time></trkpt><trkpt lat="44.36012439987852" lon="10.841203898565112"><ele>734.0</ele><time>2026-05-01T10:31:30.001Z</time></trkpt><trkpt lat="44.36028125656769" lon="10.841261111425888"><ele>734.0</ele><time>2026-05-01T10:31:31.001Z</time></trkpt><trkpt lat="44.360438152440814" lon="10.841302034003252"><ele>734.0</ele><time>2026-05-01T10:31:32.001Z</time></trkpt><trkpt lat="44.36059423528352" lon="10.841340428838912"><ele>734.0</ele><time>2026-05-01T10:31:33.001Z</time></trkpt><trkpt lat="44.36075208887826" lon="10.841384079275425"><ele>734.0</ele><time>2026-05-01T10:31:34.001Z</time></trkpt><trkpt lat="44.36090788421604" lon="10.841418014933133"><ele>734.0</ele><time>2026-05-01T10:31:35.001Z</time></trkpt><trkpt lat="44.36105622598925" lon="10.84145143091277"><ele>734.0</ele><time>2026-05-01T10:31:36.001Z</time></trkpt><trkpt lat="44.36121032367737" lon="10.841493858312711"><ele>734.0</ele><time>2026-05-01T10:31:37.001Z</time></trkpt><trkpt lat="44.36135942047721" lon="10.841523119505423"><ele>734.0</ele><time>2026-05-01T10:31:38Z</time></trkpt><trkpt lat="44.36148737033838" lon="10.841527187130056"><ele>734.0</ele><time>2026-05-01T10:31:39Z</time></trkpt><trkpt lat="44.361597052415114" lon="10.8414934661299"><ele>734.0</ele><time>2026-05-01T10:31:40Z</time></trkpt><trkpt lat="44.36169158356562" lon="10.841427795187126"><ele>733.5</ele><time>2026-05-01T10:31:41Z</time></trkpt><trkpt lat="44.361767980004494" lon="10.84132051147368"><ele>733.0</ele><time>2026-05-01T10:31:42Z</time></trkpt><trkpt lat="44.36183147885187" lon="10.841186679872454"><ele>732.5</ele><time>2026-05-01T10:31:43Z</time></trkpt><trkpt lat="44.36188101820832" lon="10.841031313653403"><ele>732.0</ele><time>2026-05-01T10:31:44Z</time></trkpt><trkpt lat="44.361918610146226" lon="10.840854642396977"><ele>731.25</ele><time>2026-05-01T10:31:45Z</time></trkpt><trkpt lat="44.36194875066307" lon="10.840669090321466"><ele>730.5</ele><time>2026-05-01T10:31:46Z</time></trkpt><trkpt lat="44.36198517408059" lon="10.840508476195804"><ele>729.75</ele><time>2026-05-01T10:31:47Z</time></trkpt><trkpt lat="44.361999232059134" lon="10.840308481280678"><ele>729.0</ele><time>2026-05-01T10:31:48Z</time></trkpt><trkpt lat="44.36201131364364" lon="10.840118662666702"><ele>728.75</ele><time>2026-05-01T10:31:49Z</time></trkpt><trkpt lat="44.36202736014531" lon="10.839946232767167"><ele>728.5</ele><time>2026-05-01T10:31:50Z</time></trkpt><trkpt lat="44.3620665400754" lon="10.839775293324674"><ele>728.25</ele><time>2026-05-01T10:31:51Z</time></trkpt><trkpt lat="44.36212324347621" lon="10.83961488372373"><ele>728.0</ele><time>2026-05-01T10:31:52Z</time></trkpt><trkpt lat="44.362191476459024" lon="10.839463757597464"><ele>726.5</ele><time>2026-05-01T10:31:53Z</time></trkpt><trkpt lat="44.36227037581245" lon="10.839318876318075"><ele>725.0</ele><time>2026-05-01T10:31:54Z</time></trkpt><trkpt lat="44.36236402393685" lon="10.839187102274762"><ele>723.5</ele><time>2026-05-01T10:31:55Z</time></trkpt><trkpt lat="44.362468565403795" lon="10.83907350182461"><ele>722.0</ele><time>2026-05-01T10:31:56Z</time></trkpt><trkpt lat="44.36257224618545" lon="10.838952604522959"><ele>722.0</ele><time>2026-05-01T10:31:57Z</time></trkpt><trkpt lat="44.36267442667103" lon="10.838833050030821"><ele>722.0</ele><time>2026-05-01T10:31:58Z</time></trkpt><trkpt lat="44.36277641429359" lon="10.838710078641911"><ele>722.0</ele><time>2026-05-01T10:31:59Z</time></trkpt><trkpt lat="44.3628772069615" lon="10.838583001502126"><ele>722.0</ele><time>2026-05-01T10:32:00Z</time></trkpt><trkpt lat="44.3629768606695" lon="10.838460952400442"><ele>722.0</ele><time>2026-05-01T10:32:01Z</time></trkpt><trkpt lat="44.36307421366337" lon="10.83832622333141"><ele>722.0</ele><time>2026-05-01T10:32:02Z</time></trkpt><trkpt lat="44.36317270848924" lon="10.838199395460999"><ele>722.0</ele><time>2026-05-01T10:32:03Z</time></trkpt><trkpt lat="44.3632613202677" lon="10.838056524691815"><ele>722.0</ele><time>2026-05-01T10:32:04Z</time></trkpt><trkpt lat="44.36335232068556" lon="10.837924686368002"><ele>722.0</ele><time>2026-05-01T10:32:05Z</time></trkpt><trkpt lat="44.36343854069658" lon="10.837783456908975"><ele>722.0</ele><time>2026-05-01T10:32:06Z</time></trkpt><trkpt lat="44.36352424503094" lon="10.837643483487636"><ele>722.0</ele><time>2026-05-01T10:32:07Z</time></trkpt><trkpt lat="44.363607275785846" lon="10.837500919093163"><ele>722.0</ele><time>2026-05-01T10:32:08Z</time></trkpt><trkpt lat="44.36369001333774" lon="10.837358921827057"><ele>721.0</ele><time>2026-05-01T10:32:09Z</time></trkpt><trkpt lat="44.36377462686811" lon="10.837213055271917"><ele>720.0</ele><time>2026-05-01T10:32:10Z</time></trkpt><trkpt lat="44.36385709591922" lon="10.837061993463944"><ele>719.0</ele><time>2026-05-01T10:32:11Z</time></trkpt><trkpt lat="44.363939650751846" lon="10.836912089420347"><ele>718.0</ele><time>2026-05-01T10:32:12Z</time></trkpt><trkpt lat="44.36402278270944" lon="10.836761851735686"><ele>717.75</ele><time>2026-05-01T10:32:13Z</time></trkpt><trkpt lat="44.36409992594256" lon="10.836604563928464"><ele>717.5</ele><time>2026-05-01T10:32:14Z</time></trkpt><trkpt lat="44.364165204710126" lon="10.836434237208866"><ele>717.25</ele><time>2026-05-01T10:32:15Z</time></trkpt><trkpt lat="44.3642166617165" lon="10.836253667662515"><ele>717.0</ele><time>2026-05-01T10:32:16Z</time></trkpt><trkpt lat="44.3642610800694" lon="10.83606622426582"><ele>716.25</ele><time>2026-05-01T10:32:17Z</time></trkpt><trkpt lat="44.364296943901536" lon="10.835873531387984"><ele>715.5</ele><time>2026-05-01T10:32:18Z</time></trkpt><trkpt lat="44.36434932333214" lon="10.835697609571033"><ele>714.75</ele><time>2026-05-01T10:32:19Z</time></trkpt><trkpt lat="44.364399720778025" lon="10.835524626694873"><ele>714.0</ele><time>2026-05-01T10:32:20Z</time></trkpt><trkpt lat="44.364433349288404" lon="10.835384423166124"><ele>714.0</ele><time>2026-05-01T10:32:21Z</time></trkpt><trkpt lat="44.364474392656426" lon="10.835229776156046"><ele>714.0</ele><time>2026-05-01T10:32:22Z</time></trkpt><trkpt lat="44.36453821235558" lon="10.835077371303196"><ele>714.0</ele><time>2026-05-01T10:32:23Z</time></trkpt><trkpt lat="44.36461931404336" lon="10.834945333150454"><ele>714.0</ele><time>2026-05-01T10:32:24Z</time></trkpt><trkpt lat="44.36472026651252" lon="10.834870082152399"><ele>713.0</ele><time>2026-05-01T10:32:25Z</time></trkpt><trkpt lat="44.3647984112579" lon="10.834807825872048"><ele>712.0</ele><time>2026-05-01T10:32:26Z</time></trkpt><trkpt lat="44.36491382001659" lon="10.834754267499465"><ele>711.0</ele><time>2026-05-01T10:32:27Z</time></trkpt><trkpt lat="44.36504260394035" lon="10.834727388378798"><ele>710.0</ele><time>2026-05-01T10:32:28Z</time></trkpt><trkpt lat="44.36516820288092" lon="10.834719149386354"><ele>710.0</ele><time>2026-05-01T10:32:29Z</time></trkpt><trkpt lat="44.36529713858476" lon="10.83472847645657"><ele>710.0</ele><time>2026-05-01T10:32:30Z</time></trkpt><trkpt lat="44.365435340854184" lon="10.834744875080926"><ele>710.0</ele><time>2026-05-01T10:32:31Z</time></trkpt><trkpt lat="44.36557499581963" lon="10.834757307379505"><ele>710.0</ele><time>2026-05-01T10:32:32Z</time></trkpt><trkpt lat="44.365722217775165" lon="10.834768627046609"><ele>709.6666666666666</ele><time>2026-05-01T10:32:33Z</time></trkpt><trkpt lat="44.3658744271023" lon="10.834776331212966"><ele>709.3333333333334</ele><time>2026-05-01T10:32:34Z</time></trkpt><trkpt lat="44.366028376841456" lon="10.834795290490085"><ele>709.0</ele><time>2026-05-01T10:32:35Z</time></trkpt><trkpt lat="44.36618184480366" lon="10.834815885017154"><ele>709.0</ele><time>2026-05-01T10:32:36Z</time></trkpt><trkpt lat="44.36633617467166" lon="10.834838378247964"><ele>709.0</ele><time>2026-05-01T10:32:37Z</time></trkpt><trkpt lat="44.366488027496494" lon="10.83485085182479"><ele>709.0</ele><time>2026-05-01T10:32:38Z</time></trkpt><trkpt lat="44.366637173876626" lon="10.834865552542583"><ele>708.0</ele><time>2026-05-01T10:32:39Z</time></trkpt><trkpt lat="44.366785660000026" lon="10.834887877894731"><ele>707.0</ele><time>2026-05-01T10:32:40Z</time></trkpt><trkpt lat="44.366932539567884" lon="10.834903074353448"><ele>706.0</ele><time>2026-05-01T10:32:41Z</time></trkpt><trkpt lat="44.3670810310491" lon="10.834919070058051"><ele>705.0</ele><time>2026-05-01T10:32:42Z</time></trkpt><trkpt lat="44.36722771394822" lon="10.834933145936645"><ele>704.75</ele><time>2026-05-01T10:32:43Z</time></trkpt><trkpt lat="44.36737339247147" lon="10.834947000694669"><ele>704.5</ele><time>2026-05-01T10:32:44Z</time></trkpt><trkpt lat="44.367520060650115" lon="10.834962932193717"><ele>704.25</ele><time>2026-05-01T10:32:45Z</time></trkpt><trkpt lat="44.36766397740462" lon="10.834974651460147"><ele>704.0</ele><time>2026-05-01T10:32:46Z</time></trkpt><trkpt lat="44.36781143672082" lon="10.83499196123177"><ele>704.0</ele><time>2026-05-01T10:32:47Z</time></trkpt><trkpt lat="44.3679576428218" lon="10.835005897083024"><ele>704.0</ele><time>2026-05-01T10:32:48Z</time></trkpt><trkpt lat="44.368105730206615" lon="10.83502610531257"><ele>704.0</ele><time>2026-05-01T10:32:49Z</time></trkpt><trkpt lat="44.36825261265708" lon="10.835044704071192"><ele>704.0</ele><time>2026-05-01T10:32:50Z</time></trkpt><trkpt lat="44.368390181101425" lon="10.835056943890363"><ele>704.0</ele><time>2026-05-01T10:32:51Z</time></trkpt><trkpt lat="44.36851899538743" lon="10.835067355008597"><ele>704.0</ele><time>2026-05-01T10:32:52Z</time></trkpt><trkpt lat="44.368646812549684" lon="10.835078019085541"><ele>704.0</ele><time>2026-05-01T10:32:53Z</time></trkpt><trkpt lat="44.36877436306403" lon="10.835090786322988"><ele>704.0</ele><time>2026-05-01T10:32:54.001Z</time></trkpt><trkpt lat="44.368898777590104" lon="10.835107660346281"><ele>704.0</ele><time>2026-05-01T10:32:55.001Z</time></trkpt><trkpt lat="44.369006648757086" lon="10.83512365488815"><ele>704.0</ele><time>2026-05-01T10:32:56.001Z</time></trkpt><trkpt lat="44.36910012330376" lon="10.83513795530965"><ele>704.0</ele><time>2026-05-01T10:32:57.001Z</time></trkpt><trkpt lat="44.369165266327585" lon="10.835166512412128"><ele>704.0</ele><time>2026-05-01T10:32:58.001Z</time></trkpt><trkpt lat="44.369237063402814" lon="10.835256989162735"><ele>704.0</ele><time>2026-05-01T10:33:00.001Z</time></trkpt><trkpt lat="44.36933361443485" lon="10.835217820778773"><ele>704.2</ele><time>2026-05-01T10:39:30.001Z</time></trkpt><trkpt lat="44.3694120827939" lon="10.83518896150589"><ele>704.4000000000001</ele><time>2026-05-01T10:39:34.001Z</time></trkpt><trkpt lat="44.369491500905966" lon="10.83517453394626"><ele>704.6</ele><time>2026-05-01T10:39:35.001Z</time></trkpt><trkpt lat="44.369585297651746" lon="10.835169984918867"><ele>704.8</ele><time>2026-05-01T10:39:36.001Z</time></trkpt><trkpt lat="44.36969054039713" lon="10.835188534838327"><ele>705.0</ele><time>2026-05-01T10:39:37.001Z</time></trkpt><trkpt lat="44.3698084711694" lon="10.835205578814389"><ele>705.0</ele><time>2026-05-01T10:39:38.001Z</time></trkpt><trkpt lat="44.369940012130364" lon="10.835230429853612"><ele>705.0</ele><time>2026-05-01T10:39:39.001Z</time></trkpt><trkpt lat="44.37007419122883" lon="10.835242101886946"><ele>705.0</ele><time>2026-05-01T10:39:40.001Z</time></trkpt><trkpt lat="44.37021360431045" lon="10.83523859034841"><ele>705.0</ele><time>2026-05-01T10:39:41.001Z</time></trkpt><trkpt lat="44.3703576834223" lon="10.83523072384024"><ele>705.0</ele><time>2026-05-01T10:39:42.001Z</time></trkpt><trkpt lat="44.37050560195825" lon="10.835212151187932"><ele>705.0</ele><time>2026-05-01T10:39:43.001Z</time></trkpt><trkpt lat="44.37066149739931" lon="10.835195029822403"><ele>705.0</ele><time>2026-05-01T10:39:44.001Z</time></trkpt><trkpt lat="44.370813582621174" lon="10.835173097670607"><ele>705.0</ele><time>2026-05-01T10:39:45.001Z</time></trkpt><trkpt lat="44.37096609104181" lon="10.83514949866817"><ele>705.0</ele><time>2026-05-01T10:39:46.001Z</time></trkpt><trkpt lat="44.37110954958019" lon="10.83510858428521"><ele>705.0</ele><time>2026-05-01T10:39:47.001Z</time></trkpt><trkpt lat="44.371242889774585" lon="10.835021906334063"><ele>705.0</ele><time>2026-05-01T10:39:48.001Z</time></trkpt><trkpt lat="44.371371190429194" lon="10.834892552813477"><ele>705.6666666666666</ele><time>2026-05-01T10:39:49.001Z</time></trkpt><trkpt lat="44.371476974720295" lon="10.834732182401384"><ele>706.3333333333333</ele><time>2026-05-01T10:39:50.001Z</time></trkpt><trkpt lat="44.37160491957383" lon="10.834587540568107"><ele>707.0</ele><time>2026-05-01T10:39:51.001Z</time></trkpt><trkpt lat="44.37171902178967" lon="10.834488043225692"><ele>707.0</ele><time>2026-05-01T10:39:52.001Z</time></trkpt><trkpt lat="44.3718427852168" lon="10.834377174817298"><ele>707.0</ele><time>2026-05-01T10:39:53.001Z</time></trkpt><trkpt lat="44.371972519513186" lon="10.83426356823582"><ele>707.0</ele><time>2026-05-01T10:39:54.001Z</time></trkpt><trkpt lat="44.37210905438794" lon="10.834159500329601"><ele>707.0</ele><time>2026-05-01T10:39:55.001Z</time></trkpt><trkpt lat="44.372251523526494" lon="10.834050444079848"><ele>707.0</ele><time>2026-05-01T10:39:56.001Z</time></trkpt><trkpt lat="44.37239663830774" lon="10.833938149971086"><ele>707.0</ele><time>2026-05-01T10:39:57.001Z</time></trkpt><trkpt lat="44.37254925004762" lon="10.833819633401674"><ele>707.0</ele><time>2026-05-01T10:39:58.001Z</time></trkpt><trkpt lat="44.37269773680526" lon="10.83369065639875"><ele>707.0</ele><time>2026-05-01T10:39:59.001Z</time></trkpt><trkpt lat="44.37284074682081" lon="10.833538792533059"><ele>707.0</ele><time>2026-05-01T10:40:00.001Z</time></trkpt><trkpt lat="44.372981864680945" lon="10.833379151629387"><ele>707.6666666666666</ele><time>2026-05-01T10:40:01.001Z</time></trkpt><trkpt lat="44.37311542026" lon="10.833207448089313"><ele>708.3333333333334</ele><time>2026-05-01T10:40:02.001Z</time></trkpt><trkpt lat="44.37324083358898" lon="10.83302282028179"><ele>709.0</ele><time>2026-05-01T10:40:03.001Z</time></trkpt><trkpt lat="44.3733638290884" lon="10.832836686412849"><ele>708.3333333333334</ele><time>2026-05-01T10:40:04.001Z</time></trkpt><trkpt lat="44.37348038057465" lon="10.832636168530545"><ele>707.6666666666666</ele><time>2026-05-01T10:40:05.001Z</time></trkpt><trkpt lat="44.37358977995402" lon="10.832421301592127"><ele>707.0</ele><time>2026-05-01T10:40:06.001Z</time></trkpt><trkpt lat="44.3736972235683" lon="10.832208764381086"><ele>707.0</ele><time>2026-05-01T10:40:07.001Z</time></trkpt><trkpt lat="44.37380137594167" lon="10.831987316889832"><ele>707.0</ele><time>2026-05-01T10:40:08.001Z</time></trkpt><trkpt lat="44.37390592713195" lon="10.831767435506814"><ele>707.0</ele><time>2026-05-01T10:40:09.001Z</time></trkpt><trkpt lat="44.37401085808102" lon="10.831550780272341"><ele>707.3333333333333</ele><time>2026-05-01T10:40:10.001Z</time></trkpt><trkpt lat="44.374116168324946" lon="10.831337260072653"><ele>707.6666666666666</ele><time>2026-05-01T10:40:11.001Z</time></trkpt><trkpt lat="44.374218653043194" lon="10.831121942266039"><ele>708.0</ele><time>2026-05-01T10:40:12.001Z</time></trkpt><trkpt lat="44.37431737766853" lon="10.830903463480062"><ele>709.0</ele><time>2026-05-01T10:40:13.001Z</time></trkpt><trkpt lat="44.37441165859823" lon="10.83068402798691"><ele>710.0</ele><time>2026-05-01T10:40:14.001Z</time></trkpt><trkpt lat="44.37450041290507" lon="10.83046154690357"><ele>711.0</ele><time>2026-05-01T10:40:15.001Z</time></trkpt><trkpt lat="44.37458509797274" lon="10.830240680611277"><ele>710.6666666666666</ele><time>2026-05-01T10:40:16.001Z</time></trkpt><trkpt lat="44.37466619545119" lon="10.830024473903311"><ele>710.3333333333333</ele><time>2026-05-01T10:40:17.001Z</time></trkpt><trkpt lat="44.374739199216705" lon="10.829825306431154"><ele>710.0</ele><time>2026-05-01T10:40:18.001Z</time></trkpt><trkpt lat="44.37480981573288" lon="10.829653636227095"><ele>710.0</ele><time>2026-05-01T10:40:19.001Z</time></trkpt><trkpt lat="44.37487947319155" lon="10.829503373519765"><ele>710.0</ele><time>2026-05-01T10:40:20.001Z</time></trkpt><trkpt lat="44.37494097575108" lon="10.829375262821504"><ele>710.0</ele><time>2026-05-01T10:40:21.001Z</time></trkpt><trkpt lat="44.375001982120516" lon="10.829270323518939"><ele>710.0</ele><time>2026-05-01T10:40:22.001Z</time></trkpt><trkpt lat="44.37507988900012" lon="10.829186505131823"><ele>710.0</ele><time>2026-05-01T10:40:23.001Z</time></trkpt><trkpt lat="44.37516616811214" lon="10.829122200527168"><ele>710.6</ele><time>2026-05-01T10:40:24.001Z</time></trkpt><trkpt lat="44.37522453150201" lon="10.82904037796562"><ele>711.2</ele><time>2026-05-01T10:40:25.001Z</time></trkpt><trkpt lat="44.37525535558497" lon="10.828919915184052"><ele>711.8</ele><time>2026-05-01T10:40:26.001Z</time></trkpt><trkpt lat="44.37525885054102" lon="10.828764224766163"><ele>712.4</ele><time>2026-05-01T10:40:27.001Z</time></trkpt><trkpt lat="44.37526725022099" lon="10.82858483203857"><ele>713.0</ele><time>2026-05-01T10:40:28.001Z</time></trkpt><trkpt lat="44.375305124521745" lon="10.82838388796386"><ele>712.6666666666666</ele><time>2026-05-01T10:40:29.001Z</time></trkpt><trkpt lat="44.37537696149965" lon="10.828179071786536"><ele>712.3333333333334</ele><time>2026-05-01T10:40:30.001Z</time></trkpt><trkpt lat="44.37546924372837" lon="10.827973027096828"><ele>712.0</ele><time>2026-05-01T10:40:31.001Z</time></trkpt><trkpt lat="44.37555978891824" lon="10.827751806224008"><ele>714.3333333333334</ele><time>2026-05-01T10:40:32.001Z</time></trkpt><trkpt lat="44.375647855426884" lon="10.827528367021372"><ele>716.6666666666666</ele><time>2026-05-01T10:40:33.001Z</time></trkpt><trkpt lat="44.37573480668263" lon="10.82731118548804"><ele>719.0</ele><time>2026-05-01T10:40:34.001Z</time></trkpt><trkpt lat="44.37582379782075" lon="10.827106721604443"><ele>719.0</ele><time>2026-05-01T10:40:35.001Z</time></trkpt><trkpt lat="44.37592719022899" lon="10.82692242261524"><ele>719.0</ele><time>2026-05-01T10:40:36.001Z</time></trkpt><trkpt lat="44.37603405286815" lon="10.826752369310954"><ele>719.0</ele><time>2026-05-01T10:40:37.001Z</time></trkpt><trkpt lat="44.37614466894331" lon="10.82659662352467"><ele>720.6666666666666</ele><time>2026-05-01T10:40:38.001Z</time></trkpt><trkpt lat="44.37625060125088" lon="10.826443367161326"><ele>722.3333333333334</ele><time>2026-05-01T10:40:39.001Z</time></trkpt><trkpt lat="44.37635748688306" lon="10.826291875526746"><ele>724.0</ele><time>2026-05-01T10:40:40.001Z</time></trkpt><trkpt lat="44.37646825414182" lon="10.826157792721618"><ele>724.0</ele><time>2026-05-01T10:40:41.001Z</time></trkpt><trkpt lat="44.37657174161491" lon="10.826009666888751"><ele>724.0</ele><time>2026-05-01T10:40:42.001Z</time></trkpt><trkpt lat="44.37668224650934" lon="10.825858902831408"><ele>724.0</ele><time>2026-05-01T10:40:43.001Z</time></trkpt><trkpt lat="44.37679584265806" lon="10.825713140270821"><ele>725.0</ele><time>2026-05-01T10:40:44.001Z</time></trkpt><trkpt lat="44.37691279895848" lon="10.825573352871228"><ele>726.0</ele><time>2026-05-01T10:40:45.001Z</time></trkpt><trkpt lat="44.37703566003568" lon="10.82545023175473"><ele>727.0</ele><time>2026-05-01T10:40:46.001Z</time></trkpt><trkpt lat="44.37717282792099" lon="10.825350369881475"><ele>727.0</ele><time>2026-05-01T10:40:47.001Z</time></trkpt><trkpt lat="44.3772693268194" lon="10.825190787366331"><ele>727.0</ele><time>2026-05-01T10:40:48.001Z</time></trkpt><trkpt lat="44.37738023891155" lon="10.825044773183135"><ele>727.0</ele><time>2026-05-01T10:40:49.001Z</time></trkpt><trkpt lat="44.377448338402964" lon="10.824838543742764"><ele>727.0</ele><time>2026-05-01T10:40:50.001Z</time></trkpt><trkpt lat="44.37756796257608" lon="10.824707234704357"><ele>727.0</ele><time>2026-05-01T10:40:51.001Z</time></trkpt><trkpt lat="44.37768898225152" lon="10.824566832889069"><ele>727.0</ele><time>2026-05-01T10:40:52.001Z</time></trkpt><trkpt lat="44.37781743914942" lon="10.824435836475368"><ele>727.6666666666667</ele><time>2026-05-01T10:40:53.001Z</time></trkpt><trkpt lat="44.377950532012775" lon="10.824305757401412"><ele>728.3333333333334</ele><time>2026-05-01T10:40:54.001Z</time></trkpt><trkpt lat="44.37808785003124" lon="10.824176281756309"><ele>729.0</ele><time>2026-05-01T10:40:55.001Z</time></trkpt><trkpt lat="44.37822438844172" lon="10.824046853814478"><ele>730.3333333333334</ele><time>2026-05-01T10:40:56.001Z</time></trkpt><trkpt lat="44.37836161978807" lon="10.82391887606166"><ele>731.6666666666667</ele><time>2026-05-01T10:40:57.001Z</time></trkpt><trkpt lat="44.37849771847531" lon="10.823788463082368"><ele>733.0</ele><time>2026-05-01T10:40:58.001Z</time></trkpt><trkpt lat="44.37862676176371" lon="10.82366360343891"><ele>733.0</ele><time>2026-05-01T10:40:59.001Z</time></trkpt><trkpt lat="44.37874122580307" lon="10.823559129803938"><ele>733.0</ele><time>2026-05-01T10:41:00.001Z</time></trkpt><trkpt lat="44.378832941146264" lon="10.823469007388947"><ele>733.0</ele><time>2026-05-01T10:41:01.001Z</time></trkpt><trkpt lat="44.37890952045977" lon="10.823391528531527"><ele>733.0</ele><time>2026-05-01T10:41:02.001Z</time></trkpt><trkpt lat="44.37897457400531" lon="10.82332770166576"><ele>733.0</ele><time>2026-05-01T10:41:03.001Z</time></trkpt><trkpt lat="44.37903879184504" lon="10.823259433332549"><ele>734.8</ele><time>2026-05-01T10:41:06.001Z</time></trkpt><trkpt lat="44.379097987216745" lon="10.823197771778263"><ele>736.5999999999999</ele><time>2026-05-01T10:41:08.001Z</time></trkpt><trkpt lat="44.3791753810701" lon="10.823122450289457"><ele>738.4000000000001</ele><time>2026-05-01T10:41:10.001Z</time></trkpt><trkpt lat="44.37925305996558" lon="10.823037953908699"><ele>740.2</ele><time>2026-05-01T10:41:12.001Z</time></trkpt><trkpt lat="44.37934454875974" lon="10.822949833253173"><ele>742.0</ele><time>2026-05-01T10:41:14.001Z</time></trkpt><trkpt lat="44.37943289106764" lon="10.822863733506653"><ele>742.0</ele><time>2026-05-01T10:41:16.001Z</time></trkpt><trkpt lat="44.37951800840573" lon="10.822780836899161"><ele>742.0</ele><time>2026-05-01T10:41:18.001Z</time></trkpt><trkpt lat="44.379602003460505" lon="10.822691830362261"><ele>742.0</ele><time>2026-05-01T10:41:20.001Z</time></trkpt><trkpt lat="44.379690403433614" lon="10.82260033385722"><ele>742.0</ele><time>2026-05-01T10:41:22.001Z</time></trkpt><trkpt lat="44.37978927868031" lon="10.822499687361839"><ele>742.0</ele><time>2026-05-01T10:41:24.001Z</time></trkpt><trkpt lat="44.37985269822848" lon="10.822435404502059"><ele>743.5</ele><time>2026-05-01T10:41:25.001Z</time></trkpt><trkpt lat="44.37992986927238" lon="10.82235440496103"><ele>745.0</ele><time>2026-05-01T10:41:26.001Z</time></trkpt><trkpt lat="44.380022137412574" lon="10.822256550017505"><ele>746.5</ele><time>2026-05-01T10:41:27.001Z</time></trkpt><trkpt lat="44.38012549852987" lon="10.822143761598051"><ele>748.0</ele><time>2026-05-01T10:41:28.001Z</time></trkpt><trkpt lat="44.38023354868316" lon="10.822026010463636"><ele>748.0</ele><time>2026-05-01T10:41:29.001Z</time></trkpt><trkpt lat="44.380350518361965" lon="10.821900064683836"><ele>748.0</ele><time>2026-05-01T10:41:30.001Z</time></trkpt><trkpt lat="44.38047229726757" lon="10.821778363094358"><ele>748.0</ele><time>2026-05-01T10:41:31.001Z</time></trkpt><trkpt lat="44.38059491395944" lon="10.821644335424462"><ele>747.6666666666667</ele><time>2026-05-01T10:41:32.001Z</time></trkpt><trkpt lat="44.38072441419095" lon="10.821512318571639"><ele>747.3333333333334</ele><time>2026-05-01T10:41:33.001Z</time></trkpt><trkpt lat="44.38085439881821" lon="10.821384340291202"><ele>747.0</ele><time>2026-05-01T10:41:34.001Z</time></trkpt><trkpt lat="44.380991092689385" lon="10.821257115709821"><ele>747.0</ele><time>2026-05-01T10:41:35.001Z</time></trkpt><trkpt lat="44.38112942133826" lon="10.8211313579745"><ele>747.0</ele><time>2026-05-01T10:41:36.001Z</time></trkpt><trkpt lat="44.381276055337764" lon="10.821017840125487"><ele>747.0</ele><time>2026-05-01T10:41:37.001Z</time></trkpt><trkpt lat="44.38142521623366" lon="10.820915910698593"><ele>747.3333333333334</ele><time>2026-05-01T10:41:38.001Z</time></trkpt><trkpt lat="44.381573744396164" lon="10.820828165823908"><ele>747.6666666666667</ele><time>2026-05-01T10:41:39.001Z</time></trkpt><trkpt lat="44.38172938477036" lon="10.820748514144475"><ele>748.0</ele><time>2026-05-01T10:41:40.001Z</time></trkpt><trkpt lat="44.381880295126464" lon="10.820665275338271"><ele>748.0</ele><time>2026-05-01T10:41:41.001Z</time></trkpt><trkpt lat="44.382035549596836" lon="10.820589160903868"><ele>748.0</ele><time>2026-05-01T10:41:42.001Z</time></trkpt><trkpt lat="44.382183916249716" lon="10.82050198132705"><ele>748.0</ele><time>2026-05-01T10:41:43.001Z</time></trkpt><trkpt lat="44.3823441084532" lon="10.820425376757496"><ele>746.3333333333334</ele><time>2026-05-01T10:41:44.001Z</time></trkpt><trkpt lat="44.38250503133725" lon="10.820335549046206"><ele>744.6666666666666</ele><time>2026-05-01T10:41:45.001Z</time></trkpt><trkpt lat="44.382658118378274" lon="10.820251252101144"><ele>743.0</ele><time>2026-05-01T10:41:46.001Z</time></trkpt><trkpt lat="44.382820128976306" lon="10.820171699175926"><ele>744.3333333333333</ele><time>2026-05-01T10:41:47.001Z</time></trkpt><trkpt lat="44.38298395219222" lon="10.820090235280528"><ele>745.6666666666666</ele><time>2026-05-01T10:41:48.001Z</time></trkpt><trkpt lat="44.383146340247166" lon="10.820011906788837"><ele>747.0</ele><time>2026-05-01T10:41:49.001Z</time></trkpt><trkpt lat="44.38330493900346" lon="10.819913402308398"><ele>747.0</ele><time>2026-05-01T10:41:50.001Z</time></trkpt><trkpt lat="44.383468019275824" lon="10.81982402032678"><ele>747.0</ele><time>2026-05-01T10:41:51.001Z</time></trkpt><trkpt lat="44.383627614721" lon="10.819734085235451"><ele>747.0</ele><time>2026-05-01T10:41:52.001Z</time></trkpt><trkpt lat="44.38377774726333" lon="10.819661713599844"><ele>747.5</ele><time>2026-05-01T10:41:53.001Z</time></trkpt><trkpt lat="44.38390451154476" lon="10.819595509095231"><ele>748.0</ele><time>2026-05-01T10:41:54.001Z</time></trkpt><trkpt lat="44.38402710335512" lon="10.819511053716758"><ele>748.5</ele><time>2026-05-01T10:41:55.001Z</time></trkpt><trkpt lat="44.38414548046286" lon="10.819438515123466"><ele>749.0</ele><time>2026-05-01T10:41:56.001Z</time></trkpt><trkpt lat="44.38427084620986" lon="10.81937850002277"><ele>749.0</ele><time>2026-05-01T10:41:57.001Z</time></trkpt><trkpt lat="44.38438610888104" lon="10.819327859107899"><ele>749.0</ele><time>2026-05-01T10:41:58.001Z</time></trkpt><trkpt lat="44.38447582115658" lon="10.819292272637663"><ele>749.0</ele><time>2026-05-01T10:41:59.001Z</time></trkpt><trkpt lat="44.38454642962844" lon="10.81926596494523"><ele>749.0</ele><time>2026-05-01T10:42:00.001Z</time></trkpt><trkpt lat="44.3846358143188" lon="10.819229327787932"><ele>749.0</ele><time>2026-05-01T10:42:02.001Z</time></trkpt><trkpt lat="44.384663441753574" lon="10.819034004360267"><ele>749.25</ele><time>2026-05-01T10:42:05.001Z</time></trkpt><trkpt lat="44.38467831142167" lon="10.818865065818962"><ele>749.5</ele><time>2026-05-01T10:42:06.001Z</time></trkpt><trkpt lat="44.38470009241291" lon="10.818674416751278"><ele>749.75</ele><time>2026-05-01T10:42:07.001Z</time></trkpt><trkpt lat="44.384717232080725" lon="10.818464774524406"><ele>750.0</ele><time>2026-05-01T10:42:08Z</time></trkpt><trkpt lat="44.384741892382216" lon="10.81825038110179"><ele>751.3333333333334</ele><time>2026-05-01T10:42:09Z</time></trkpt><trkpt lat="44.38489202799583" lon="10.818061074422888"><ele>752.6666666666667</ele><time>2026-05-01T10:42:10Z</time></trkpt><trkpt lat="44.38501019110813" lon="10.817866404431806"><ele>754.0</ele><time>2026-05-01T10:42:11Z</time></trkpt><trkpt lat="44.385132837526804" lon="10.81766527593657"><ele>754.6666666666667</ele><time>2026-05-01T10:42:12Z</time></trkpt><trkpt lat="44.385250241619055" lon="10.817456554395614"><ele>755.3333333333334</ele><time>2026-05-01T10:42:13Z</time></trkpt><trkpt lat="44.38537145430586" lon="10.817237144472651"><ele>756.0</ele><time>2026-05-01T10:42:14Z</time></trkpt><trkpt lat="44.38549144034222" lon="10.817009828382096"><ele>758.3333333333334</ele><time>2026-05-01T10:42:15Z</time></trkpt><trkpt lat="44.385614159452345" lon="10.816788211555002"><ele>760.6666666666667</ele><time>2026-05-01T10:42:16Z</time></trkpt><trkpt lat="44.38573643221308" lon="10.81656176768991"><ele>763.0</ele><time>2026-05-01T10:42:17Z</time></trkpt><trkpt lat="44.38586355253982" lon="10.816332522314099"><ele>763.0</ele><time>2026-05-01T10:42:18Z</time></trkpt><trkpt lat="44.38598670617644" lon="10.816103509031814"><ele>763.0</ele><time>2026-05-01T10:42:19Z</time></trkpt><trkpt lat="44.38611161286473" lon="10.815881158214474"><ele>763.0</ele><time>2026-05-01T10:42:20Z</time></trkpt><trkpt lat="44.386253954645326" lon="10.815676001964652"><ele>764.6666666666667</ele><time>2026-05-01T10:42:21Z</time></trkpt><trkpt lat="44.3864086708825" lon="10.815488650291483"><ele>766.3333333333334</ele><time>2026-05-01T10:42:22Z</time></trkpt><trkpt lat="44.386577952750045" lon="10.815315301270976"><ele>768.0</ele><time>2026-05-01T10:42:23Z</time></trkpt><trkpt lat="44.386763459231865" lon="10.815168097589412"><ele>768.0</ele><time>2026-05-01T10:42:24Z</time></trkpt><trkpt lat="44.38694215930166" lon="10.814995741772417"><ele>768.0</ele><time>2026-05-01T10:42:25Z</time></trkpt><trkpt lat="44.38712064890679" lon="10.814818624685012"><ele>768.0</ele><time>2026-05-01T10:42:26Z</time></trkpt><trkpt lat="44.38730669724879" lon="10.814647750280477"><ele>768.0</ele><time>2026-05-01T10:42:27Z</time></trkpt><trkpt lat="44.38749725604451" lon="10.814472291366853"><ele>768.0</ele><time>2026-05-01T10:42:28Z</time></trkpt><trkpt lat="44.3876896537731" lon="10.814297119650673"><ele>767.0</ele><time>2026-05-01T10:42:29Z</time></trkpt><trkpt lat="44.38787131025535" lon="10.814129893982974"><ele>766.0</ele><time>2026-05-01T10:42:30Z</time></trkpt><trkpt lat="44.38803728310181" lon="10.81396583536263"><ele>765.0</ele><time>2026-05-01T10:42:31Z</time></trkpt><trkpt lat="44.38820691603789" lon="10.81381332359203"><ele>764.0</ele><time>2026-05-01T10:42:32Z</time></trkpt><trkpt lat="44.38837243592162" lon="10.813662654253958"><ele>763.0</ele><time>2026-05-01T10:42:33Z</time></trkpt><trkpt lat="44.38852415194829" lon="10.813520583237345"><ele>762.0</ele><time>2026-05-01T10:42:34Z</time></trkpt><trkpt lat="44.38865953644171" lon="10.813391030291728"><ele>761.25</ele><time>2026-05-01T10:42:35Z</time></trkpt><trkpt lat="44.38878201107664" lon="10.8132726168468"><ele>760.5</ele><time>2026-05-01T10:42:36Z</time></trkpt><trkpt lat="44.38890026097055" lon="10.813164145637998"><ele>759.75</ele><time>2026-05-01T10:42:37Z</time></trkpt><trkpt lat="44.3890274963923" lon="10.813037352700785"><ele>759.0</ele><time>2026-05-01T10:42:38Z</time></trkpt><trkpt lat="44.3891564894035" lon="10.812912505928052"><ele>760.0</ele><time>2026-05-01T10:42:39Z</time></trkpt><trkpt lat="44.3892756123271" lon="10.812785058376004"><ele>761.0</ele><time>2026-05-01T10:42:40Z</time></trkpt><trkpt lat="44.389382159521894" lon="10.812666066611188"><ele>762.0</ele><time>2026-05-01T10:42:41Z</time></trkpt><trkpt lat="44.38947055308434" lon="10.812563507995435"><ele>763.0</ele><time>2026-05-01T10:42:42Z</time></trkpt><trkpt lat="44.389545789948855" lon="10.81246495666007"><ele>763.0</ele><time>2026-05-01T10:42:43Z</time></trkpt><trkpt lat="44.38960814112114" lon="10.812389325428386"><ele>763.0</ele><time>2026-05-01T10:42:44Z</time></trkpt><trkpt lat="44.38970176671162" lon="10.812332904041858"><ele>763.0</ele><time>2026-05-01T10:42:46Z</time></trkpt><trkpt lat="44.38975138936781" lon="10.812405931479116"><ele>763.0</ele><time>2026-05-01T10:42:47Z</time></trkpt><trkpt lat="44.3898274570266" lon="10.81242539626877"><ele>763.0</ele><time>2026-05-01T10:42:48Z</time></trkpt><trkpt lat="44.38989829385682" lon="10.81246947094213"><ele>763.0</ele><time>2026-05-01T10:42:49Z</time></trkpt><trkpt lat="44.38996382485422" lon="10.812492777934173"><ele>763.5</ele><time>2026-05-01T10:42:50Z</time></trkpt><trkpt lat="44.39003706825244" lon="10.812497810624734"><ele>764.0</ele><time>2026-05-01T10:42:51Z</time></trkpt><trkpt lat="44.3901035641365" lon="10.812446585073374"><ele>764.5</ele><time>2026-05-01T10:42:52Z</time></trkpt><trkpt lat="44.39017067880232" lon="10.812382368073688"><ele>765.0</ele><time>2026-05-01T10:42:53Z</time></trkpt><trkpt lat="44.39023396693473" lon="10.81234070583651"><ele>765.5</ele><time>2026-05-01T10:42:54Z</time></trkpt><trkpt lat="44.390306443092484" lon="10.812307203495177"><ele>766.0</ele><time>2026-05-01T10:42:55Z</time></trkpt><trkpt lat="44.3903806901135" lon="10.812283209354433"><ele>766.0</ele><time>2026-05-01T10:42:56Z</time></trkpt><trkpt lat="44.39043868242517" lon="10.812248136444316"><ele>766.0</ele><time>2026-05-01T10:42:57Z</time></trkpt><trkpt lat="44.390510918343665" lon="10.81224191113487"><ele>766.0</ele><time>2026-05-01T10:42:58Z</time></trkpt><trkpt lat="44.39057711807295" lon="10.812215830809734"><ele>766.0</ele><time>2026-05-01T10:42:59Z</time></trkpt><trkpt lat="44.39064246121417" lon="10.81219281012946"><ele>766.0</ele><time>2026-05-01T10:43:00Z</time></trkpt><trkpt lat="44.39071215419267" lon="10.81216797726962"><ele>766.0</ele><time>2026-05-01T10:43:01Z</time></trkpt><trkpt lat="44.39078702722867" lon="10.81216039995821"><ele>766.0</ele><time>2026-05-01T10:43:02Z</time></trkpt><trkpt lat="44.390860216122626" lon="10.812161810507583"><ele>765.8333333333334</ele><time>2026-05-01T10:43:03Z</time></trkpt><trkpt lat="44.39093110838392" lon="10.812133066629976"><ele>765.6666666666667</ele><time>2026-05-01T10:43:04Z</time></trkpt><trkpt lat="44.39101366676465" lon="10.812112199393667"><ele>765.5</ele><time>2026-05-01T10:43:05Z</time></trkpt><trkpt lat="44.391093100117004" lon="10.812092122028815"><ele>765.3333333333334</ele><time>2026-05-01T10:43:06Z</time></trkpt><trkpt lat="44.39117364223797" lon="10.812071764374227"><ele>765.1666666666666</ele><time>2026-05-01T10:43:07Z</time></trkpt><trkpt lat="44.391257623838186" lon="10.812069657713236"><ele>765.0</ele><time>2026-05-01T10:43:08Z</time></trkpt><trkpt lat="44.39134821889448" lon="10.81203683724675"><ele>764.5</ele><time>2026-05-01T10:43:09Z</time></trkpt><trkpt lat="44.39143699336294" lon="10.8120028120299"><ele>764.0</ele><time>2026-05-01T10:43:10Z</time></trkpt><trkpt lat="44.391523251241985" lon="10.811962558408272"><ele>763.5</ele><time>2026-05-01T10:43:11Z</time></trkpt><trkpt lat="44.39160226747864" lon="10.811923142120014"><ele>763.0</ele><time>2026-05-01T10:43:12Z</time></trkpt><trkpt lat="44.3916759748166" lon="10.811907077053702"><ele>762.5</ele><time>2026-05-01T10:43:13Z</time></trkpt><trkpt lat="44.39174824796155" lon="10.811866900297616"><ele>762.0</ele><time>2026-05-01T10:43:14Z</time></trkpt><trkpt lat="44.391830012548105" lon="10.811847713175508"><ele>763.0</ele><time>2026-05-01T10:43:15Z</time></trkpt><trkpt lat="44.391913160297236" lon="10.811817998083207"><ele>764.0</ele><time>2026-05-01T10:43:16Z</time></trkpt><trkpt lat="44.39199503791996" lon="10.811789464484"><ele>765.0</ele><time>2026-05-01T10:43:17Z</time></trkpt><trkpt lat="44.39208037890858" lon="10.811753445990108"><ele>766.0</ele><time>2026-05-01T10:43:18Z</time></trkpt><trkpt lat="44.39215023982785" lon="10.81173841912506"><ele>767.0</ele><time>2026-05-01T10:43:19Z</time></trkpt><trkpt lat="44.39221144694441" lon="10.81171297763061"><ele>768.0</ele><time>2026-05-01T10:43:20Z</time></trkpt><trkpt lat="44.392319277916975" lon="10.811699506567178"><ele>768.0</ele><time>2026-05-01T10:43:22Z</time></trkpt><trkpt lat="44.39242993289491" lon="10.811647176410654"><ele>768.0</ele><time>2026-05-01T10:43:24Z</time></trkpt><trkpt lat="44.392538245345946" lon="10.811626539760221"><ele>768.0</ele><time>2026-05-01T10:43:26Z</time></trkpt><trkpt lat="44.392603742513884" lon="10.81161261858985"><ele>768.0</ele><time>2026-05-01T10:43:27Z</time></trkpt><trkpt lat="44.39267611501512" lon="10.811591241579174"><ele>768.0</ele><time>2026-05-01T10:43:28Z</time></trkpt><trkpt lat="44.39274974148014" lon="10.811572983052825"><ele>768.0</ele><time>2026-05-01T10:43:29Z</time></trkpt><trkpt lat="44.392828801498574" lon="10.811547360185793"><ele>768.0</ele><time>2026-05-01T10:43:30Z</time></trkpt><trkpt lat="44.392901940068484" lon="10.811515978899363"><ele>768.0</ele><time>2026-05-01T10:43:31Z</time></trkpt><trkpt lat="44.392977168610294" lon="10.811496226977782"><ele>768.0</ele><time>2026-05-01T10:43:32Z</time></trkpt><trkpt lat="44.39305464951434" lon="10.811469923651511"><ele>768.0</ele><time>2026-05-01T10:43:33Z</time></trkpt><trkpt lat="44.39316547717532" lon="10.81143028077866"><ele>768.0</ele><time>2026-05-01T10:43:35Z</time></trkpt><trkpt lat="44.393230977022824" lon="10.811434702870796"><ele>768.0</ele><time>2026-05-01T10:43:36Z</time></trkpt><trkpt lat="44.393301525054575" lon="10.811434990477771"><ele>767.6666666666666</ele><time>2026-05-01T10:43:37Z</time></trkpt><trkpt lat="44.393372523618375" lon="10.811463079149021"><ele>767.3333333333334</ele><time>2026-05-01T10:43:38Z</time></trkpt><trkpt lat="44.393439188396414" lon="10.811459342337404"><ele>767.0</ele><time>2026-05-01T10:43:39Z</time></trkpt><trkpt lat="44.39351503315826" lon="10.811498498561939"><ele>766.6666666666667</ele><time>2026-05-01T10:43:40Z</time></trkpt><trkpt lat="44.3936104104548" lon="10.811500574423802"><ele>766.3333333333334</ele><time>2026-05-01T10:43:41Z</time></trkpt><trkpt lat="44.39369705913344" lon="10.811523440173303"><ele>766.0</ele><time>2026-05-01T10:43:42Z</time></trkpt><trkpt lat="44.393778974327034" lon="10.811539046505912"><ele>766.3333333333334</ele><time>2026-05-01T10:43:43Z</time></trkpt><trkpt lat="44.39384948770432" lon="10.811535952845365"><ele>766.6666666666667</ele><time>2026-05-01T10:43:44Z</time></trkpt><trkpt lat="44.39392063607596" lon="10.811521243963675"><ele>767.0</ele><time>2026-05-01T10:43:45Z</time></trkpt><trkpt lat="44.39399709295427" lon="10.811499081028904"><ele>767.3333333333334</ele><time>2026-05-01T10:43:46Z</time></trkpt><trkpt lat="44.3940763204449" lon="10.811483281139395"><ele>767.6666666666666</ele><time>2026-05-01T10:43:47Z</time></trkpt><trkpt lat="44.394158890026034" lon="10.811474170787456"><ele>768.0</ele><time>2026-05-01T10:43:48Z</time></trkpt><trkpt lat="44.39424031818572" lon="10.811464375726995"><ele>768.0</ele><time>2026-05-01T10:43:49Z</time></trkpt><trkpt lat="44.394324014083594" lon="10.811454516033606"><ele>768.0</ele><time>2026-05-01T10:43:50Z</time></trkpt><trkpt lat="44.39441116222153" lon="10.811435627771095"><ele>768.0</ele><time>2026-05-01T10:43:51Z</time></trkpt><trkpt lat="44.394503799669685" lon="10.811441205560618"><ele>768.0</ele><time>2026-05-01T10:43:52Z</time></trkpt><trkpt lat="44.3945987647679" lon="10.81141382267803"><ele>768.0</ele><time>2026-05-01T10:43:53Z</time></trkpt><trkpt lat="44.39468684262476" lon="10.811361330988808"><ele>767.0</ele><time>2026-05-01T10:43:54Z</time></trkpt><trkpt lat="44.39477749412103" lon="10.81134145962286"><ele>766.0</ele><time>2026-05-01T10:43:55Z</time></trkpt><trkpt lat="44.3948667279768" lon="10.8113050249757"><ele>765.0</ele><time>2026-05-01T10:43:56Z</time></trkpt><trkpt lat="44.39496262013934" lon="10.811282972354022"><ele>764.0</ele><time>2026-05-01T10:43:57Z</time></trkpt><trkpt lat="44.39506193118062" lon="10.811239603865664"><ele>763.0</ele><time>2026-05-01T10:43:58Z</time></trkpt><trkpt lat="44.39516224144171" lon="10.81118218307901"><ele>763.0</ele><time>2026-05-01T10:43:59Z</time></trkpt><trkpt lat="44.395255446512856" lon="10.811086554822555"><ele>763.0</ele><time>2026-05-01T10:44:00Z</time></trkpt><trkpt lat="44.3953641094705" lon="10.811032722533993"><ele>763.0</ele><time>2026-05-01T10:44:01Z</time></trkpt><trkpt lat="44.39545267413628" lon="10.81096780008392"><ele>763.0</ele><time>2026-05-01T10:44:02Z</time></trkpt><trkpt lat="44.39553968350585" lon="10.810911260860836"><ele>763.0</ele><time>2026-05-01T10:44:03Z</time></trkpt><trkpt lat="44.39562497064435" lon="10.810865275771933"><ele>762.5</ele><time>2026-05-01T10:44:04Z</time></trkpt><trkpt lat="44.395693147468556" lon="10.810775372071728"><ele>762.0</ele><time>2026-05-01T10:44:05Z</time></trkpt><trkpt lat="44.39579083464461" lon="10.81066419948185"><ele>761.5</ele><time>2026-05-01T10:44:06Z</time></trkpt><trkpt lat="44.395899453963665" lon="10.810578552834725"><ele>761.0</ele><time>2026-05-01T10:44:07Z</time></trkpt><trkpt lat="44.39603011831932" lon="10.810494302388088"><ele>761.0</ele><time>2026-05-01T10:44:08Z</time></trkpt><trkpt lat="44.3961753882036" lon="10.81040900688458"><ele>761.0</ele><time>2026-05-01T10:44:09Z</time></trkpt><trkpt lat="44.39630564514125" lon="10.81034863903426"><ele>761.0</ele><time>2026-05-01T10:44:10Z</time></trkpt><trkpt lat="44.396422072845596" lon="10.810301566222474"><ele>761.0</ele><time>2026-05-01T10:44:11Z</time></trkpt><trkpt lat="44.396526417095174" lon="10.810260242187686"><ele>760.1999999999999</ele><time>2026-05-01T10:44:12Z</time></trkpt><trkpt lat="44.39662720572931" lon="10.81021020192412"><ele>759.4</ele><time>2026-05-01T10:44:13Z</time></trkpt><trkpt lat="44.39672670477487" lon="10.810172415362429"><ele>758.6</ele><time>2026-05-01T10:44:13.999Z</time></trkpt><trkpt lat="44.396821216548695" lon="10.810108744645579"><ele>757.8</ele><time>2026-05-01T10:44:14.999Z</time></trkpt><trkpt lat="44.39691394883309" lon="10.810056410358095"><ele>757.0</ele><time>2026-05-01T10:44:15.999Z</time></trkpt><trkpt lat="44.39698135172192" lon="10.810006951864992"><ele>757.0</ele><time>2026-05-01T10:44:16.999Z</time></trkpt><trkpt lat="44.3970452494989" lon="10.809958401502957"><ele>757.0</ele><time>2026-05-01T10:44:17.999Z</time></trkpt><trkpt lat="44.397146427810775" lon="10.809922150775662"><ele>757.0</ele><time>2026-05-01T10:44:19.999Z</time></trkpt><trkpt lat="44.39724201529533" lon="10.809885128053015"><ele>757.0</ele><time>2026-05-01T10:44:21.999Z</time></trkpt><trkpt lat="44.397314537879296" lon="10.809767772545463"><ele>757.0</ele><time>2026-05-01T10:44:22.999Z</time></trkpt><trkpt lat="44.39741359451804" lon="10.809664411384757"><ele>757.0</ele><time>2026-05-01T10:44:23.999Z</time></trkpt><trkpt lat="44.39752762444281" lon="10.80956686411634"><ele>757.0</ele><time>2026-05-01T10:44:24.999Z</time></trkpt><trkpt lat="44.39764740080749" lon="10.809457468373374"><ele>757.0</ele><time>2026-05-01T10:44:25.999Z</time></trkpt><trkpt lat="44.3977616430634" lon="10.809335342947024"><ele>757.0</ele><time>2026-05-01T10:44:26.999Z</time></trkpt><trkpt lat="44.397869506256946" lon="10.80919325369714"><ele>757.0</ele><time>2026-05-01T10:44:27.999Z</time></trkpt><trkpt lat="44.39795872355353" lon="10.809029253255963"><ele>757.0</ele><time>2026-05-01T10:44:28.999Z</time></trkpt><trkpt lat="44.398044647109884" lon="10.808866171656765"><ele>757.0</ele><time>2026-05-01T10:44:29.999Z</time></trkpt><trkpt lat="44.3981338773972" lon="10.808704769379567"><ele>757.0</ele><time>2026-05-01T10:44:30.999Z</time></trkpt><trkpt lat="44.39822177589407" lon="10.808541112002835"><ele>755.75</ele><time>2026-05-01T10:44:31.999Z</time></trkpt><trkpt lat="44.39831472987522" lon="10.808372486259756"><ele>754.5</ele><time>2026-05-01T10:44:32.999Z</time></trkpt><trkpt lat="44.39840461540113" lon="10.808205857489494"><ele>753.25</ele><time>2026-05-01T10:44:33.999Z</time></trkpt><trkpt lat="44.39848356874183" lon="10.80804111902904"><ele>752.0</ele><time>2026-05-01T10:44:34.999Z</time></trkpt><trkpt lat="44.39858440192966" lon="10.807882019538736"><ele>752.0</ele><time>2026-05-01T10:44:35.999Z</time></trkpt><trkpt lat="44.39870258578969" lon="10.80774939239394"><ele>752.0</ele><time>2026-05-01T10:44:36.999Z</time></trkpt><trkpt lat="44.398838137787614" lon="10.807642226963683"><ele>752.0</ele><time>2026-05-01T10:44:37.999Z</time></trkpt><trkpt lat="44.39898004591187" lon="10.807572618347033"><ele>749.6666666666666</ele><time>2026-05-01T10:44:38.999Z</time></trkpt><trkpt lat="44.39913407690588" lon="10.807503016741755"><ele>747.3333333333334</ele><time>2026-05-01T10:44:39.999Z</time></trkpt><trkpt lat="44.39928868452066" lon="10.807433154556344"><ele>745.0</ele><time>2026-05-01T10:44:40.999Z</time></trkpt><trkpt lat="44.3994492752131" lon="10.8073605888639"><ele>745.0</ele><time>2026-05-01T10:44:41.999Z</time></trkpt><trkpt lat="44.399616559915685" lon="10.807284500996124"><ele>745.0</ele><time>2026-05-01T10:44:42.999Z</time></trkpt><trkpt lat="44.39978381008232" lon="10.807208411066092"><ele>745.0</ele><time>2026-05-01T10:44:43.999Z</time></trkpt><trkpt lat="44.39994974946196" lon="10.807132917491654"><ele>742.6666666666667</ele><time>2026-05-01T10:44:45Z</time></trkpt><trkpt lat="44.40011373570427" lon="10.80703807040625"><ele>740.3333333333334</ele><time>2026-05-01T10:44:46Z</time></trkpt><trkpt lat="44.40027917398614" lon="10.8069723934817"><ele>738.0</ele><time>2026-05-01T10:44:47Z</time></trkpt><trkpt lat="44.40044912803615" lon="10.806905745006384"><ele>735.6666666666666</ele><time>2026-05-01T10:44:48Z</time></trkpt><trkpt lat="44.40061311545962" lon="10.806839052659038"><ele>733.3333333333333</ele><time>2026-05-01T10:44:49Z</time></trkpt><trkpt lat="44.40077402983453" lon="10.80676662729647"><ele>731.0</ele><time>2026-05-01T10:44:50Z</time></trkpt><trkpt lat="44.400946614196094" lon="10.80671501930541"><ele>730.0</ele><time>2026-05-01T10:44:51Z</time></trkpt><trkpt lat="44.401113362189406" lon="10.806673817208095"><ele>729.0</ele><time>2026-05-01T10:44:52Z</time></trkpt><trkpt lat="44.401282689775634" lon="10.806631850856812"><ele>728.0</ele><time>2026-05-01T10:44:53Z</time></trkpt><trkpt lat="44.40145282961003" lon="10.80659477703081"><ele>726.3333333333333</ele><time>2026-05-01T10:44:54Z</time></trkpt><trkpt lat="44.401620085645824" lon="10.806550028242912"><ele>724.6666666666666</ele><time>2026-05-01T10:44:55Z</time></trkpt><trkpt lat="44.40177250280655" lon="10.806506495140908"><ele>723.0</ele><time>2026-05-01T10:44:56Z</time></trkpt><trkpt lat="44.4019099119617" lon="10.806461264662348"><ele>723.0</ele><time>2026-05-01T10:44:57Z</time></trkpt><trkpt lat="44.402049566322525" lon="10.80638242474306"><ele>723.0</ele><time>2026-05-01T10:44:58Z</time></trkpt><trkpt lat="44.40218732655339" lon="10.806275395814238"><ele>723.0</ele><time>2026-05-01T10:44:59Z</time></trkpt><trkpt lat="44.402323138241854" lon="10.806139799590227"><ele>722.5</ele><time>2026-05-01T10:45:00Z</time></trkpt><trkpt lat="44.40244309614052" lon="10.806008155543323"><ele>722.0</ele><time>2026-05-01T10:45:01Z</time></trkpt><trkpt lat="44.402558055819284" lon="10.805906342252824"><ele>721.5</ele><time>2026-05-01T10:45:02Z</time></trkpt><trkpt lat="44.402658778969" lon="10.80581778422233"><ele>721.0</ele><time>2026-05-01T10:45:03Z</time></trkpt><trkpt lat="44.40272669576198" lon="10.805727470513892"><ele>719.8333333333334</ele><time>2026-05-01T10:45:04Z</time></trkpt><trkpt lat="44.40278042816008" lon="10.805632168022994"><ele>718.6666666666667</ele><time>2026-05-01T10:45:05Z</time></trkpt><trkpt lat="44.40280452304512" lon="10.805519469645537"><ele>717.5</ele><time>2026-05-01T10:45:06Z</time></trkpt><trkpt lat="44.40280205293766" lon="10.805406844890449"><ele>716.3333333333334</ele><time>2026-05-01T10:45:07Z</time></trkpt><trkpt lat="44.40277258617927" lon="10.805305255528546"><ele>715.1666666666666</ele><time>2026-05-01T10:45:08Z</time></trkpt><trkpt lat="44.40274046703003" lon="10.805205392262302"><ele>714.0</ele><time>2026-05-01T10:45:09Z</time></trkpt><trkpt lat="44.40281887644832" lon="10.805040284500949"><ele>712.6</ele><time>2026-05-01T10:45:11Z</time></trkpt><trkpt lat="44.40291077578738" lon="10.804959106883356"><ele>711.2</ele><time>2026-05-01T10:45:12Z</time></trkpt><trkpt lat="44.402988981637804" lon="10.804853333186358"><ele>709.8000000000001</ele><time>2026-05-01T10:45:13Z</time></trkpt><trkpt lat="44.40310570096112" lon="10.804811192967719"><ele>708.4000000000001</ele><time>2026-05-01T10:45:14Z</time></trkpt><trkpt lat="44.403201656009934" lon="10.804750531542465"><ele>707.0</ele><time>2026-05-01T10:45:15Z</time></trkpt><trkpt lat="44.403300320795545" lon="10.804704770436752"><ele>706.6</ele><time>2026-05-01T10:45:16Z</time></trkpt><trkpt lat="44.403399625182374" lon="10.804665237867335"><ele>706.2</ele><time>2026-05-01T10:45:17Z</time></trkpt><trkpt lat="44.403498755619026" lon="10.804639788451135"><ele>705.8</ele><time>2026-05-01T10:45:18Z</time></trkpt><trkpt lat="44.4036002003512" lon="10.804699823038069"><ele>705.4</ele><time>2026-05-01T10:45:19Z</time></trkpt><trkpt lat="44.4037065117856" lon="10.804708469569778"><ele>705.0</ele><time>2026-05-01T10:45:20Z</time></trkpt><trkpt lat="44.403810335829405" lon="10.804737764870005"><ele>705.6</ele><time>2026-05-01T10:45:21Z</time></trkpt><trkpt lat="44.40392086457012" lon="10.80476543809328"><ele>706.2</ele><time>2026-05-01T10:45:22Z</time></trkpt><trkpt lat="44.40402970021863" lon="10.804805470953987"><ele>706.8</ele><time>2026-05-01T10:45:23Z</time></trkpt><trkpt lat="44.404133935208336" lon="10.80485002821627"><ele>707.4</ele><time>2026-05-01T10:45:24Z</time></trkpt><trkpt lat="44.404238127788325" lon="10.804868890411164"><ele>708.0</ele><time>2026-05-01T10:45:25Z</time></trkpt><trkpt lat="44.404342475731575" lon="10.804846460944797"><ele>708.0</ele><time>2026-05-01T10:45:26Z</time></trkpt><trkpt lat="44.40443502488417" lon="10.804820488175972"><ele>708.0</ele><time>2026-05-01T10:45:27Z</time></trkpt><trkpt lat="44.404511486738265" lon="10.804783618001872"><ele>708.0</ele><time>2026-05-01T10:45:28Z</time></trkpt><trkpt lat="44.40456399902815" lon="10.804717826775851"><ele>708.0</ele><time>2026-05-01T10:45:29Z</time></trkpt><trkpt lat="44.40460935886192" lon="10.804631312501254"><ele>708.0</ele><time>2026-05-01T10:45:30Z</time></trkpt><trkpt lat="44.40466156215336" lon="10.804558446053344"><ele>708.0</ele><time>2026-05-01T10:45:31Z</time></trkpt><trkpt lat="44.40470961812611" lon="10.804491368573158"><ele>709.0</ele><time>2026-05-01T10:45:32Z</time></trkpt><trkpt lat="44.40479928204891" lon="10.804497353874918"><ele>710.0</ele><time>2026-05-01T10:45:33Z</time></trkpt><trkpt lat="44.40489730492835" lon="10.804516820750763"><ele>711.0</ele><time>2026-05-01T10:45:34Z</time></trkpt><trkpt lat="44.40501101476916" lon="10.804498031816308"><ele>712.0</ele><time>2026-05-01T10:45:36Z</time></trkpt><trkpt lat="44.405122600011005" lon="10.804399813291084"><ele>713.0</ele><time>2026-05-01T10:45:38Z</time></trkpt><trkpt lat="44.40523305138852" lon="10.804325699672779"><ele>713.5</ele><time>2026-05-01T10:45:40Z</time></trkpt><trkpt lat="44.40529973111211" lon="10.804340325370937"><ele>714.0</ele><time>2026-05-01T10:45:41Z</time></trkpt><trkpt lat="44.40541148651375" lon="10.804353289478152"><ele>714.5</ele><time>2026-05-01T10:45:43Z</time></trkpt><trkpt lat="44.4054652838161" lon="10.804403031097335"><ele>715.0</ele><time>2026-05-01T10:45:44Z</time></trkpt><trkpt lat="44.4055388974667" lon="10.804422397760327"><ele>715.5</ele><time>2026-05-01T10:45:45Z</time></trkpt><trkpt lat="44.40562670474926" lon="10.80439935303427"><ele>716.0</ele><time>2026-05-01T10:45:46Z</time></trkpt><trkpt lat="44.405692456819494" lon="10.804400971389743"><ele>714.8333333333333</ele><time>2026-05-01T10:45:47Z</time></trkpt><trkpt lat="44.405752302988276" lon="10.804429795442585"><ele>713.6666666666666</ele><time>2026-05-01T10:45:48Z</time></trkpt><trkpt lat="44.40580285143735" lon="10.804504138997142"><ele>712.5</ele><time>2026-05-01T10:45:49Z</time></trkpt><trkpt lat="44.405820630768666" lon="10.804596288474318"><ele>711.3333333333334</ele><time>2026-05-01T10:45:50Z</time></trkpt><trkpt lat="44.405881391494596" lon="10.804663169801467"><ele>710.1666666666667</ele><time>2026-05-01T10:45:51Z</time></trkpt><trkpt lat="44.40595818365473" lon="10.804686863233997"><ele>709.0</ele><time>2026-05-01T10:45:52Z</time></trkpt><trkpt lat="44.406077314605845" lon="10.804766925324163"><ele>709.0</ele><time>2026-05-01T10:45:54Z</time></trkpt><trkpt lat="44.40613994213554" lon="10.804793355415747"><ele>709.0</ele><time>2026-05-01T10:45:55Z</time></trkpt><trkpt lat="44.40624411959521" lon="10.804783484177618"><ele>709.0</ele><time>2026-05-01T10:45:57Z</time></trkpt><trkpt lat="44.40632272568327" lon="10.804742037413629"><ele>709.0</ele><time>2026-05-01T10:45:58Z</time></trkpt><trkpt lat="44.40640370732639" lon="10.804681626086998"><ele>709.0</ele><time>2026-05-01T10:45:59Z</time></trkpt><trkpt lat="44.40646005234863" lon="10.80462019498539"><ele>709.0</ele><time>2026-05-01T10:46:00Z</time></trkpt><trkpt lat="44.40652019409721" lon="10.804561509748588"><ele>707.0</ele><time>2026-05-01T10:46:01Z</time></trkpt><trkpt lat="44.40657518052545" lon="10.804506946179254"><ele>705.0</ele><time>2026-05-01T10:46:02Z</time></trkpt><trkpt lat="44.40661118414971" lon="10.804414224819377"><ele>703.0</ele><time>2026-05-01T10:46:03Z</time></trkpt><trkpt lat="44.406711569214636" lon="10.804330730132477"><ele>701.0</ele><time>2026-05-01T10:46:05Z</time></trkpt><trkpt lat="44.4067066088565" lon="10.804194686906445"><ele>699.0</ele><time>2026-05-01T10:46:07Z</time></trkpt><trkpt lat="44.40669098741279" lon="10.804080916315918"><ele>697.0</ele><time>2026-05-01T10:46:08Z</time></trkpt><trkpt lat="44.40670911496535" lon="10.803995067314194"><ele>696.3333333333334</ele><time>2026-05-01T10:46:09Z</time></trkpt><trkpt lat="44.40679635317185" lon="10.803937819892123"><ele>695.6666666666667</ele><time>2026-05-01T10:46:10Z</time></trkpt><trkpt lat="44.40688314963016" lon="10.80388055439206"><ele>695.0</ele><time>2026-05-01T10:46:11Z</time></trkpt><trkpt lat="44.40695689565453" lon="10.803832225908993"><ele>694.3333333333334</ele><time>2026-05-01T10:46:12Z</time></trkpt><trkpt lat="44.40701823004973" lon="10.803779388289882"><ele>693.6666666666666</ele><time>2026-05-01T10:46:13Z</time></trkpt><trkpt lat="44.40710415152008" lon="10.80376654874066"><ele>693.0</ele><time>2026-05-01T10:46:15Z</time></trkpt><trkpt lat="44.40718718221388" lon="10.803790392934113"><ele>691.8333333333334</ele><time>2026-05-01T10:46:17Z</time></trkpt><trkpt lat="44.40725146529147" lon="10.80380427338328"><ele>690.6666666666666</ele><time>2026-05-01T10:46:18Z</time></trkpt><trkpt lat="44.407331957861345" lon="10.80385546637546"><ele>689.5</ele><time>2026-05-01T10:46:19Z</time></trkpt><trkpt lat="44.4074102472755" lon="10.803924468395183"><ele>688.3333333333333</ele><time>2026-05-01T10:46:19.999Z</time></trkpt><trkpt lat="44.40751164854148" lon="10.803968800439128"><ele>687.1666666666666</ele><time>2026-05-01T10:46:20.999Z</time></trkpt><trkpt lat="44.40759492219865" lon="10.803984935763891"><ele>686.0</ele><time>2026-05-01T10:46:21.999Z</time></trkpt><trkpt lat="44.40768962724816" lon="10.803978496241161"><ele>686.0</ele><time>2026-05-01T10:46:22.999Z</time></trkpt><trkpt lat="44.4077856496126" lon="10.803970815717769"><ele>686.0</ele><time>2026-05-01T10:46:23.999Z</time></trkpt><trkpt lat="44.407879539428016" lon="10.803909690584737"><ele>686.0</ele><time>2026-05-01T10:46:24.999Z</time></trkpt><trkpt lat="44.407976872919726" lon="10.803818547971614"><ele>686.0</ele><time>2026-05-01T10:46:25.999Z</time></trkpt><trkpt lat="44.40806891216662" lon="10.803757939406626"><ele>686.0</ele><time>2026-05-01T10:46:26.999Z</time></trkpt><trkpt lat="44.40813657841497" lon="10.80370508826692"><ele>686.0</ele><time>2026-05-01T10:46:27.999Z</time></trkpt><trkpt lat="44.40820213424379" lon="10.80368482410803"><ele>686.0</ele><time>2026-05-01T10:46:29.999Z</time></trkpt><trkpt lat="44.40821021618518" lon="10.803508583315162"><ele>686.0</ele><time>2026-05-01T10:46:31.999Z</time></trkpt><trkpt lat="44.408231185204635" lon="10.803423881568813"><ele>686.0</ele><time>2026-05-01T10:46:32.999Z</time></trkpt><trkpt lat="44.40836163755796" lon="10.803356759321568"><ele>686.0</ele><time>2026-05-01T10:46:34.999Z</time></trkpt><trkpt lat="44.408458373077316" lon="10.80330934936591"><ele>686.5</ele><time>2026-05-01T10:46:35.999Z</time></trkpt><trkpt lat="44.40853398934357" lon="10.803235093201032"><ele>687.0</ele><time>2026-05-01T10:46:36.999Z</time></trkpt><trkpt lat="44.40861468727064" lon="10.803195349757903"><ele>687.5</ele><time>2026-05-01T10:46:37.999Z</time></trkpt><trkpt lat="44.40870425088824" lon="10.80319696404647"><ele>688.0</ele><time>2026-05-01T10:46:38.999Z</time></trkpt><trkpt lat="44.40878549373054" lon="10.803219765669393"><ele>688.5</ele><time>2026-05-01T10:46:39.999Z</time></trkpt><trkpt lat="44.40885921007387" lon="10.803274738203417"><ele>689.0</ele><time>2026-05-01T10:46:40.999Z</time></trkpt><trkpt lat="44.40897251779208" lon="10.803296628205324"><ele>687.8000000000001</ele><time>2026-05-01T10:46:41.999Z</time></trkpt><trkpt lat="44.409039245348524" lon="10.803360593105413"><ele>686.6</ele><time>2026-05-01T10:46:42.999Z</time></trkpt><trkpt lat="44.40907512858226" lon="10.803478722567748"><ele>685.4</ele><time>2026-05-01T10:46:43.999Z</time></trkpt><trkpt lat="44.40912149292064" lon="10.803614428867087"><ele>684.2</ele><time>2026-05-01T10:46:44.999Z</time></trkpt><trkpt lat="44.4091807487773" lon="10.803718179217421"><ele>683.0</ele><time>2026-05-01T10:46:45.999Z</time></trkpt><trkpt lat="44.409253750940316" lon="10.803784334142616"><ele>683.2</ele><time>2026-05-01T10:46:47Z</time></trkpt><trkpt lat="44.40935840127035" lon="10.803829200404214"><ele>683.4</ele><time>2026-05-01T10:46:48Z</time></trkpt><trkpt lat="44.4094885100399" lon="10.803851028706266"><ele>683.6</ele><time>2026-05-01T10:46:49Z</time></trkpt><trkpt lat="44.409587289705314" lon="10.803850434800323"><ele>683.8000000000001</ele><time>2026-05-01T10:46:50Z</time></trkpt><trkpt lat="44.40968030377517" lon="10.803843003921319"><ele>684.0</ele><time>2026-05-01T10:46:51Z</time></trkpt><trkpt lat="44.40976954751148" lon="10.80379147025341"><ele>684.0</ele><time>2026-05-01T10:46:52Z</time></trkpt><trkpt lat="44.40984903011544" lon="10.803741006597003"><ele>684.0</ele><time>2026-05-01T10:46:53Z</time></trkpt><trkpt lat="44.40993539727281" lon="10.803758987414977"><ele>684.0</ele><time>2026-05-01T10:46:54Z</time></trkpt><trkpt lat="44.410038124617955" lon="10.80379842595059"><ele>684.0</ele><time>2026-05-01T10:46:55Z</time></trkpt><trkpt lat="44.410150939595304" lon="10.80385786247715"><ele>684.0</ele><time>2026-05-01T10:46:56Z</time></trkpt><trkpt lat="44.4102788887969" lon="10.803907352332072"><ele>684.0</ele><time>2026-05-01T10:46:57Z</time></trkpt><trkpt lat="44.41041325852011" lon="10.8039558417181"><ele>684.0</ele><time>2026-05-01T10:46:58Z</time></trkpt><trkpt lat="44.41053065410166" lon="10.80400824229287"><ele>684.0</ele><time>2026-05-01T10:46:59Z</time></trkpt><trkpt lat="44.41064400209994" lon="10.804066062399816"><ele>684.0</ele><time>2026-05-01T10:47:00Z</time></trkpt><trkpt lat="44.41075658066823" lon="10.804100758341795"><ele>685.25</ele><time>2026-05-01T10:47:01Z</time></trkpt><trkpt lat="44.41087631402962" lon="10.804173459508496"><ele>686.5</ele><time>2026-05-01T10:47:02Z</time></trkpt><trkpt lat="44.41100845625116" lon="10.804248946505956"><ele>687.75</ele><time>2026-05-01T10:47:03Z</time></trkpt><trkpt lat="44.41115366453351" lon="10.804317975616142"><ele>689.0</ele><time>2026-05-01T10:47:04Z</time></trkpt><trkpt lat="44.41126329679386" lon="10.804388133576541"><ele>690.4000000000001</ele><time>2026-05-01T10:47:05Z</time></trkpt><trkpt lat="44.41135996393575" lon="10.804435309535206"><ele>691.8</ele><time>2026-05-01T10:47:06Z</time></trkpt><trkpt lat="44.41146934894506" lon="10.804482301755097"><ele>693.2</ele><time>2026-05-01T10:47:07Z</time></trkpt><trkpt lat="44.41154729011418" lon="10.804525831389855"><ele>694.5999999999999</ele><time>2026-05-01T10:47:08Z</time></trkpt><trkpt lat="44.41161937243707" lon="10.80460929082016"><ele>696.0</ele><time>2026-05-01T10:47:10Z</time></trkpt><trkpt lat="44.41162706402188" lon="10.804766658196392"><ele>696.0</ele><time>2026-05-01T10:47:12Z</time></trkpt><trkpt lat="44.41164169369968" lon="10.804907270027448"><ele>696.0</ele><time>2026-05-01T10:47:14Z</time></trkpt><trkpt lat="44.41171882456134" lon="10.804932288143142"><ele>696.0</ele><time>2026-05-01T10:47:15Z</time></trkpt><trkpt lat="44.41182511350789" lon="10.804922386324774"><ele>696.0</ele><time>2026-05-01T10:47:16Z</time></trkpt><trkpt lat="44.411946079356134" lon="10.804906515959756"><ele>696.0</ele><time>2026-05-01T10:47:17Z</time></trkpt><trkpt lat="44.41204980204557" lon="10.804920650022469"><ele>696.0</ele><time>2026-05-01T10:47:18Z</time></trkpt><trkpt lat="44.412143681051155" lon="10.804929073844113"><ele>696.0</ele><time>2026-05-01T10:47:19Z</time></trkpt><trkpt lat="44.41225132611061" lon="10.804927853507822"><ele>696.0</ele><time>2026-05-01T10:47:20Z</time></trkpt><trkpt lat="44.41236160602072" lon="10.80492877936162"><ele>696.0</ele><time>2026-05-01T10:47:21Z</time></trkpt><trkpt lat="44.41246004263452" lon="10.80491952749543"><ele>696.0</ele><time>2026-05-01T10:47:22Z</time></trkpt><trkpt lat="44.41255228866533" lon="10.804915906213644"><ele>698.0</ele><time>2026-05-01T10:47:23Z</time></trkpt><trkpt lat="44.41265350559067" lon="10.804913460637268"><ele>700.0</ele><time>2026-05-01T10:47:24Z</time></trkpt><trkpt lat="44.412763364054946" lon="10.8049191144843"><ele>702.0</ele><time>2026-05-01T10:47:25Z</time></trkpt><trkpt lat="44.412861028593504" lon="10.804944424136021"><ele>704.0</ele><time>2026-05-01T10:47:26Z</time></trkpt><trkpt lat="44.412961306478884" lon="10.804954423273085"><ele>706.0</ele><time>2026-05-01T10:47:27Z</time></trkpt><trkpt lat="44.4130489467613" lon="10.804945271382634"><ele>707.6666666666667</ele><time>2026-05-01T10:47:28Z</time></trkpt><trkpt lat="44.41313690303857" lon="10.804935584647758"><ele>709.3333333333334</ele><time>2026-05-01T10:47:29Z</time></trkpt><trkpt lat="44.413214421328504" lon="10.804904554428596"><ele>711.0</ele><time>2026-05-01T10:47:30Z</time></trkpt><trkpt lat="44.413290018731274" lon="10.804875142840158"><ele>712.6666666666666</ele><time>2026-05-01T10:47:31Z</time></trkpt><trkpt lat="44.413339913880755" lon="10.804757585533334"><ele>714.3333333333333</ele><time>2026-05-01T10:47:33Z</time></trkpt><trkpt lat="44.41344103391824" lon="10.804722634712805"><ele>716.0</ele><time>2026-05-01T10:47:35Z</time></trkpt><trkpt lat="44.41351346246165" lon="10.804689359419074"><ele>716.0</ele><time>2026-05-01T10:47:36Z</time></trkpt><trkpt lat="44.41357795412042" lon="10.804650443138389"><ele>716.0</ele><time>2026-05-01T10:47:37Z</time></trkpt><trkpt lat="44.413665760049064" lon="10.80463471334451"><ele>716.0</ele><time>2026-05-01T10:47:38Z</time></trkpt><trkpt lat="44.41375712138008" lon="10.804578707015288"><ele>716.0</ele><time>2026-05-01T10:47:39Z</time></trkpt><trkpt lat="44.41384526799745" lon="10.804548297983242"><ele>716.0</ele><time>2026-05-01T10:47:40Z</time></trkpt><trkpt lat="44.41394067766319" lon="10.804544732316444"><ele>716.0</ele><time>2026-05-01T10:47:41Z</time></trkpt><trkpt lat="44.41403842344979" lon="10.804524243882268"><ele>719.1666666666666</ele><time>2026-05-01T10:47:42Z</time></trkpt><trkpt lat="44.41413546382568" lon="10.804499936026762"><ele>722.3333333333333</ele><time>2026-05-01T10:47:43Z</time></trkpt><trkpt lat="44.41423570335033" lon="10.804454056191542"><ele>725.5</ele><time>2026-05-01T10:47:44Z</time></trkpt><trkpt lat="44.41432215493308" lon="10.804420310910459"><ele>728.6666666666666</ele><time>2026-05-01T10:47:45Z</time></trkpt><trkpt lat="44.414392980548016" lon="10.804369301680216"><ele>731.8333333333334</ele><time>2026-05-01T10:47:46Z</time></trkpt><trkpt lat="44.41446232344809" lon="10.804350989796154"><ele>735.0</ele><time>2026-05-01T10:47:47Z</time></trkpt><trkpt lat="44.41453034511044" lon="10.804319051102878"><ele>735.1666666666666</ele><time>2026-05-01T10:47:48Z</time></trkpt><trkpt lat="44.41460133374888" lon="10.804281612583337"><ele>735.3333333333334</ele><time>2026-05-01T10:47:49Z</time></trkpt><trkpt lat="44.41466739417367" lon="10.80421840591739"><ele>735.5</ele><time>2026-05-01T10:47:50Z</time></trkpt><trkpt lat="44.414757191169535" lon="10.804160282445363"><ele>735.6666666666667</ele><time>2026-05-01T10:47:51Z</time></trkpt><trkpt lat="44.41483909937416" lon="10.804119323514383"><ele>735.8333333333334</ele><time>2026-05-01T10:47:52Z</time></trkpt><trkpt lat="44.41490326877855" lon="10.804095977143314"><ele>736.0</ele><time>2026-05-01T10:47:53Z</time></trkpt><trkpt lat="44.414988020786815" lon="10.804157215923636"><ele>740.4</ele><time>2026-05-01T10:47:55Z</time></trkpt><trkpt lat="44.415056531418045" lon="10.804076493527495"><ele>744.8</ele><time>2026-05-01T10:47:57Z</time></trkpt><trkpt lat="44.41512297870047" lon="10.803994232830844"><ele>749.1999999999999</ele><time>2026-05-01T10:47:58Z</time></trkpt><trkpt lat="44.41518682049832" lon="10.80390144407548"><ele>753.5999999999999</ele><time>2026-05-01T10:47:59Z</time></trkpt><trkpt lat="44.41523013246461" lon="10.803779487097113"><ele>758.0</ele><time>2026-05-01T10:48:00Z</time></trkpt><trkpt lat="44.415258174937165" lon="10.803637171798847"><ele>757.5999999999999</ele><time>2026-05-01T10:48:01Z</time></trkpt><trkpt lat="44.415275843703625" lon="10.803492530622819"><ele>757.1999999999999</ele><time>2026-05-01T10:48:02Z</time></trkpt><trkpt lat="44.415270721918745" lon="10.803377804159755"><ele>756.8</ele><time>2026-05-01T10:48:03Z</time></trkpt><trkpt lat="44.415296223561256" lon="10.803258890082606"><ele>756.4</ele><time>2026-05-01T10:48:04Z</time></trkpt><trkpt lat="44.41534841366896" lon="10.803121859414052"><ele>756.0</ele><time>2026-05-01T10:48:05Z</time></trkpt><trkpt lat="44.415416908012574" lon="10.802972913639547"><ele>760.25</ele><time>2026-05-01T10:48:06Z</time></trkpt><trkpt lat="44.41549830806985" lon="10.802814912893586"><ele>764.5</ele><time>2026-05-01T10:48:07Z</time></trkpt><trkpt lat="44.41560239542546" lon="10.802675362093096"><ele>768.75</ele><time>2026-05-01T10:48:08Z</time></trkpt><trkpt lat="44.415704559497094" lon="10.802534292672405"><ele>773.0</ele><time>2026-05-01T10:48:09Z</time></trkpt><trkpt lat="44.41580852351147" lon="10.802410110449397"><ele>773.75</ele><time>2026-05-01T10:48:10Z</time></trkpt><trkpt lat="44.41592267868179" lon="10.802324237743145"><ele>774.5</ele><time>2026-05-01T10:48:11Z</time></trkpt><trkpt lat="44.41605645615564" lon="10.80227211904812"><ele>775.25</ele><time>2026-05-01T10:48:12Z</time></trkpt><trkpt lat="44.41620072119979" lon="10.8022204833727"><ele>776.0</ele><time>2026-05-01T10:48:13Z</time></trkpt><trkpt lat="44.41633749756147" lon="10.80214668972174"><ele>779.0</ele><time>2026-05-01T10:48:14Z</time></trkpt><trkpt lat="44.41647152029559" lon="10.802090796917991"><ele>782.0</ele><time>2026-05-01T10:48:15Z</time></trkpt><trkpt lat="44.41661735017153" lon="10.802076051605892"><ele>785.0</ele><time>2026-05-01T10:48:16Z</time></trkpt><trkpt lat="44.416754210078125" lon="10.80207704631751"><ele>788.0</ele><time>2026-05-01T10:48:17Z</time></trkpt><trkpt lat="44.416835613366814" lon="10.802051024949982"><ele>788.0</ele><time>2026-05-01T10:48:18Z</time></trkpt><trkpt lat="44.41689959590997" lon="10.801964630043171"><ele>788.0</ele><time>2026-05-01T10:48:19Z</time></trkpt><trkpt lat="44.41695523771552" lon="10.801844405216558"><ele>788.0</ele><time>2026-05-01T10:48:20Z</time></trkpt><trkpt lat="44.41701579748042" lon="10.801754395459714"><ele>788.0</ele><time>2026-05-01T10:48:21Z</time></trkpt><trkpt lat="44.417070739435324" lon="10.801652522429134"><ele>788.0</ele><time>2026-05-01T10:48:22Z</time></trkpt><trkpt lat="44.41712510355622" lon="10.801541265210362"><ele>790.6666666666667</ele><time>2026-05-01T10:48:23Z</time></trkpt><trkpt lat="44.41717531842236" lon="10.801428779408829"><ele>793.3333333333334</ele><time>2026-05-01T10:48:24Z</time></trkpt><trkpt lat="44.41723070228654" lon="10.801334397850322"><ele>796.0</ele><time>2026-05-01T10:48:25Z</time></trkpt><trkpt lat="44.41727793246936" lon="10.801244384082306"><ele>798.6666666666667</ele><time>2026-05-01T10:48:25.999Z</time></trkpt><trkpt lat="44.41732022115874" lon="10.801162633688264"><ele>801.3333333333334</ele><time>2026-05-01T10:48:26.999Z</time></trkpt><trkpt lat="44.41736233279935" lon="10.801079958411417"><ele>804.0</ele><time>2026-05-01T10:48:27.999Z</time></trkpt><trkpt lat="44.41740127166144" lon="10.801008794279012"><ele>803.3333333333334</ele><time>2026-05-01T10:48:28.999Z</time></trkpt><trkpt lat="44.41749282805705" lon="10.800888068794425"><ele>802.6666666666667</ele><time>2026-05-01T10:48:30.999Z</time></trkpt><trkpt lat="44.41755033182015" lon="10.800802883222202"><ele>802.0</ele><time>2026-05-01T10:48:31.999Z</time></trkpt><trkpt lat="44.41760655132045" lon="10.800722814774595"><ele>801.3333333333334</ele><time>2026-05-01T10:48:32.999Z</time></trkpt><trkpt lat="44.41765880389741" lon="10.800654599419925"><ele>800.6666666666667</ele><time>2026-05-01T10:48:33.999Z</time></trkpt><trkpt lat="44.41771980608827" lon="10.80062906047671"><ele>800.0</ele><time>2026-05-01T10:48:35.999Z</time></trkpt><trkpt lat="44.41780045400084" lon="10.800652138841077"><ele>800.0</ele><time>2026-05-01T10:48:40Z</time></trkpt><trkpt lat="44.41789804010878" lon="10.800621599272766"><ele>800.0</ele><time>2026-05-01T10:48:41Z</time></trkpt><trkpt lat="44.418025166617916" lon="10.800550995904693"><ele>800.0</ele><time>2026-05-01T10:48:42Z</time></trkpt><trkpt lat="44.4181605334748" lon="10.800471269325826"><ele>800.0</ele><time>2026-05-01T10:48:43Z</time></trkpt><trkpt lat="44.41830031990945" lon="10.800390621905644"><ele>799.5</ele><time>2026-05-01T10:48:44Z</time></trkpt><trkpt lat="44.418439908912994" lon="10.80029841485735"><ele>799.0</ele><time>2026-05-01T10:48:45Z</time></trkpt><trkpt lat="44.41856098003412" lon="10.800205829997038"><ele>798.5</ele><time>2026-05-01T10:48:46Z</time></trkpt><trkpt lat="44.418662892299174" lon="10.800133069013011"><ele>798.0</ele><time>2026-05-01T10:48:47Z</time></trkpt><trkpt lat="44.41875287687512" lon="10.800078205832612"><ele>799.0</ele><time>2026-05-01T10:48:48Z</time></trkpt><trkpt lat="44.418832754648875" lon="10.800019499589952"><ele>800.0</ele><time>2026-05-01T10:48:49Z</time></trkpt><trkpt lat="44.418910779054336" lon="10.799953076636546"><ele>801.0</ele><time>2026-05-01T10:48:50Z</time></trkpt><trkpt lat="44.41897521013816" lon="10.799894243076979"><ele>802.0</ele><time>2026-05-01T10:48:51Z</time></trkpt><trkpt lat="44.41905476424009" lon="10.799894864128222"><ele>803.0</ele><time>2026-05-01T10:48:52Z</time></trkpt><trkpt lat="44.419155999459406" lon="10.799935578436202"><ele>804.0</ele><time>2026-05-01T10:48:53Z</time></trkpt><trkpt lat="44.41925208575036" lon="10.799965428155623"><ele>804.0</ele><time>2026-05-01T10:48:54Z</time></trkpt><trkpt lat="44.41932482030035" lon="10.800009205042164"><ele>804.0</ele><time>2026-05-01T10:48:55Z</time></trkpt><trkpt lat="44.41938802626999" lon="10.800035595343461"><ele>804.0</ele><time>2026-05-01T10:48:56Z</time></trkpt><trkpt lat="44.41947049937445" lon="10.80006132843389"><ele>804.0</ele><time>2026-05-01T10:48:58Z</time></trkpt><trkpt lat="44.41957007009775" lon="10.800031643726241"><ele>804.0</ele><time>2026-05-01T10:49:01Z</time></trkpt><trkpt lat="44.4196828038852" lon="10.799914388610809"><ele>801.0</ele><time>2026-05-01T10:49:03Z</time></trkpt><trkpt lat="44.41976498305807" lon="10.799897319483087"><ele>798.0</ele><time>2026-05-01T10:49:05Z</time></trkpt><trkpt lat="44.419837230894466" lon="10.800042924251345"><ele>795.0</ele><time>2026-05-01T10:49:07Z</time></trkpt><trkpt lat="44.41988591668594" lon="10.800136159405024"><ele>792.0</ele><time>2026-05-01T10:49:08Z</time></trkpt><trkpt lat="44.419942733843705" lon="10.800266653135157"><ele>789.0</ele><time>2026-05-01T10:49:10Z</time></trkpt><trkpt lat="44.41994563589225" lon="10.8004362350138"><ele>789.0</ele><time>2026-05-01T10:49:12Z</time></trkpt><trkpt lat="44.41996469374059" lon="10.80056590802254"><ele>789.0</ele><time>2026-05-01T10:49:14Z</time></trkpt><trkpt lat="44.42001813345543" lon="10.800651912780248"><ele>789.0</ele><time>2026-05-01T10:49:15Z</time></trkpt><trkpt lat="44.42010116913618" lon="10.800721372517392"><ele>789.0</ele><time>2026-05-01T10:49:17Z</time></trkpt><trkpt lat="44.42022307093669" lon="10.800801712122379"><ele>789.0</ele><time>2026-05-01T10:49:19Z</time></trkpt><trkpt lat="44.42032402987091" lon="10.800864003268119"><ele>789.0</ele><time>2026-05-01T10:49:21Z</time></trkpt><trkpt lat="44.42042102256247" lon="10.800968865138483"><ele>789.0</ele><time>2026-05-01T10:49:23Z</time></trkpt><trkpt lat="44.42045098847373" lon="10.80110816830057"><ele>789.0</ele><time>2026-05-01T10:49:25Z</time></trkpt><trkpt lat="44.42044549292175" lon="10.801262830590327"><ele>789.0</ele><time>2026-05-01T10:49:27Z</time></trkpt><trkpt lat="44.4204600869266" lon="10.801352997636368"><ele>789.0</ele><time>2026-05-01T10:49:28Z</time></trkpt><trkpt lat="44.42050621829371" lon="10.801534344466878"><ele>783.2</ele><time>2026-05-01T10:49:30Z</time></trkpt><trkpt lat="44.42052425624491" lon="10.801630898726502"><ele>777.4000000000001</ele><time>2026-05-01T10:49:31Z</time></trkpt><trkpt lat="44.420561337946594" lon="10.801795608072787"><ele>771.6</ele><time>2026-05-01T10:49:33Z</time></trkpt><trkpt lat="44.42057495540267" lon="10.801968537837736"><ele>765.8</ele><time>2026-05-01T10:49:35Z</time></trkpt><trkpt lat="44.420602008665035" lon="10.802051248538802"><ele>760.0</ele><time>2026-05-01T10:49:36Z</time></trkpt><trkpt lat="44.42058691325529" lon="10.802144274408741"><ele>759.2</ele><time>2026-05-01T10:49:37Z</time></trkpt><trkpt lat="44.42060331077375" lon="10.802255793810682"><ele>758.4</ele><time>2026-05-01T10:49:39Z</time></trkpt><trkpt lat="44.4206413824631" lon="10.80239993802285"><ele>757.5999999999999</ele><time>2026-05-01T10:49:41Z</time></trkpt><trkpt lat="44.420694586896204" lon="10.802587748738656"><ele>756.8</ele><time>2026-05-01T10:49:43Z</time></trkpt><trkpt lat="44.42070616284245" lon="10.802686797109654"><ele>756.0</ele><time>2026-05-01T10:49:44Z</time></trkpt><trkpt lat="44.420699104034114" lon="10.802799261101596"><ele>755.8</ele><time>2026-05-01T10:49:45Z</time></trkpt><trkpt lat="44.42069947793243" lon="10.802903501770453"><ele>755.5999999999999</ele><time>2026-05-01T10:49:46Z</time></trkpt><trkpt lat="44.42068814891762" lon="10.803056774722464"><ele>755.4</ele><time>2026-05-01T10:49:48Z</time></trkpt><trkpt lat="44.420737876381665" lon="10.803143163514642"><ele>755.2</ele><time>2026-05-01T10:49:49Z</time></trkpt><trkpt lat="44.42079852845298" lon="10.803232958877027"><ele>755.0</ele><time>2026-05-01T10:49:50Z</time></trkpt><trkpt lat="44.420902634515556" lon="10.803304296698746"><ele>755.0</ele><time>2026-05-01T10:49:52Z</time></trkpt><trkpt lat="44.420998549036156" lon="10.803428003426555"><ele>755.0</ele><time>2026-05-01T10:49:54Z</time></trkpt><trkpt lat="44.42108182655802" lon="10.80354295351117"><ele>755.0</ele><time>2026-05-01T10:49:56Z</time></trkpt><trkpt lat="44.42112088475956" lon="10.803640071987711"><ele>755.0</ele><time>2026-05-01T10:49:57Z</time></trkpt><trkpt lat="44.42115679831898" lon="10.803733006858952"><ele>755.0</ele><time>2026-05-01T10:49:58Z</time></trkpt><trkpt lat="44.42119749173606" lon="10.803806856854157"><ele>754.8333333333333</ele><time>2026-05-01T10:49:59Z</time></trkpt><trkpt lat="44.42122847691533" lon="10.80392121979687"><ele>754.6666666666666</ele><time>2026-05-01T10:50:01Z</time></trkpt><trkpt lat="44.421232132576876" lon="10.804013899864874"><ele>754.5</ele><time>2026-05-01T10:50:02Z</time></trkpt><trkpt lat="44.42121458669642" lon="10.804126326267019"><ele>754.3333333333334</ele><time>2026-05-01T10:50:03Z</time></trkpt><trkpt lat="44.421204852383916" lon="10.804228343643144"><ele>754.1666666666667</ele><time>2026-05-01T10:50:04Z</time></trkpt><trkpt lat="44.42119290229365" lon="10.804394574032328"><ele>754.0</ele><time>2026-05-01T10:50:06Z</time></trkpt><trkpt lat="44.42126487186424" lon="10.804521862140556"><ele>750.0</ele><time>2026-05-01T10:50:08Z</time></trkpt><trkpt lat="44.4213269032906" lon="10.804555269866675"><ele>746.0</ele><time>2026-05-01T10:50:09Z</time></trkpt><trkpt lat="44.42138510764596" lon="10.804684163891142"><ele>742.0</ele><time>2026-05-01T10:50:11Z</time></trkpt><trkpt lat="44.42139783881196" lon="10.804814751901713"><ele>738.0</ele><time>2026-05-01T10:50:13Z</time></trkpt><trkpt lat="44.42144649248676" lon="10.804914476602825"><ele>734.0</ele><time>2026-05-01T10:50:16Z</time></trkpt><trkpt lat="44.42149192986501" lon="10.804988355313391"><ele>730.0</ele><time>2026-05-01T10:50:19Z</time></trkpt><trkpt lat="44.421528382433465" lon="10.805117310519584"><ele>730.5</ele><time>2026-05-01T10:50:22.001Z</time></trkpt><trkpt lat="44.42156484588119" lon="10.805242144638648"><ele>731.0</ele><time>2026-05-01T10:50:24.001Z</time></trkpt><trkpt lat="44.42162467911668" lon="10.805361307984317"><ele>731.5</ele><time>2026-05-01T10:50:26.001Z</time></trkpt><trkpt lat="44.42170809117984" lon="10.805386207280177"><ele>732.0</ele><time>2026-05-01T10:50:29.001Z</time></trkpt><trkpt lat="44.42176421012566" lon="10.805436554015419"><ele>732.5</ele><time>2026-05-01T10:50:31.999Z</time></trkpt><trkpt lat="44.42183896444095" lon="10.805456763829993"><ele>733.0</ele><time>2026-05-01T10:50:34.999Z</time></trkpt><trkpt lat="44.42190453451107" lon="10.805488219767811"><ele>733.0</ele><time>2026-05-01T10:50:36.999Z</time></trkpt><trkpt lat="44.42198277136783" lon="10.805619367195867"><ele>733.0</ele><time>2026-05-01T10:50:38.999Z</time></trkpt><trkpt lat="44.42200911001547" lon="10.805715393198497"><ele>733.0</ele><time>2026-05-01T10:50:39.999Z</time></trkpt><trkpt lat="44.42209013162649" lon="10.805776082660726"><ele>733.0</ele><time>2026-05-01T10:50:41.999Z</time></trkpt><trkpt lat="44.4221679851798" lon="10.805740864625978"><ele>733.0</ele><time>2026-05-01T10:50:42.999Z</time></trkpt><trkpt lat="44.422244005767425" lon="10.805663003615544"><ele>728.3333333333334</ele><time>2026-05-01T10:50:44.999Z</time></trkpt><trkpt lat="44.42226796037903" lon="10.805581324982759"><ele>723.6666666666667</ele><time>2026-05-01T10:50:45.999Z</time></trkpt><trkpt lat="44.42230670584603" lon="10.80549470473506"><ele>719.0</ele><time>2026-05-01T10:50:47Z</time></trkpt><trkpt lat="44.42243768807871" lon="10.805452666429362"><ele>714.3333333333334</ele><time>2026-05-01T10:50:49Z</time></trkpt><trkpt lat="44.42249929724953" lon="10.805472867079818"><ele>709.6666666666666</ele><time>2026-05-01T10:50:50Z</time></trkpt><trkpt lat="44.42255627749379" lon="10.805548120371206"><ele>705.0</ele><time>2026-05-01T10:50:51Z</time></trkpt><trkpt lat="44.42260010724374" lon="10.80565988845263"><ele>705.0</ele><time>2026-05-01T10:50:52Z</time></trkpt><trkpt lat="44.42262694954818" lon="10.805752468893655"><ele>705.0</ele><time>2026-05-01T10:50:53Z</time></trkpt><trkpt lat="44.422705631117246" lon="10.80582661871302"><ele>705.0</ele><time>2026-05-01T10:50:55Z</time></trkpt><trkpt lat="44.42277438077255" lon="10.805841835017045"><ele>705.0</ele><time>2026-05-01T10:50:56Z</time></trkpt><trkpt lat="44.42283037382529" lon="10.805928261502379"><ele>705.0</ele><time>2026-05-01T10:50:57Z</time></trkpt><trkpt lat="44.42287395975981" lon="10.806023081398763"><ele>705.0</ele><time>2026-05-01T10:50:58Z</time></trkpt><trkpt lat="44.42295011411784" lon="10.806084099263714"><ele>701.0</ele><time>2026-05-01T10:51:00Z</time></trkpt><trkpt lat="44.42301564574314" lon="10.805986760817024"><ele>697.0</ele><time>2026-05-01T10:51:02Z</time></trkpt><trkpt lat="44.42306389699769" lon="10.806095220068284"><ele>693.0</ele><time>2026-05-01T10:51:06Z</time></trkpt><trkpt lat="44.42317628940861" lon="10.8061353368244"><ele>689.0</ele><time>2026-05-01T10:52:08.001Z</time></trkpt><trkpt lat="44.42326567904052" lon="10.806082281400439"><ele>685.0</ele><time>2026-05-01T10:52:09.001Z</time></trkpt><trkpt lat="44.42334949017247" lon="10.805954623581327"><ele>685.0</ele><time>2026-05-01T10:52:10.001Z</time></trkpt><trkpt lat="44.42339439533977" lon="10.805767319101001"><ele>685.0</ele><time>2026-05-01T10:52:11.001Z</time></trkpt><trkpt lat="44.4234175202963" lon="10.805578006561069"><ele>685.0</ele><time>2026-05-01T10:52:12.001Z</time></trkpt><trkpt lat="44.42343941836248" lon="10.805433676554932"><ele>685.0</ele><time>2026-05-01T10:52:13.001Z</time></trkpt><trkpt lat="44.42349471648484" lon="10.805339250660628"><ele>685.0</ele><time>2026-05-01T10:52:14.001Z</time></trkpt><trkpt lat="44.42356693687281" lon="10.805297006218735"><ele>685.0</ele><time>2026-05-01T10:52:15.001Z</time></trkpt><trkpt lat="44.42365606426073" lon="10.80531585581436"><ele>685.0</ele><time>2026-05-01T10:52:16.001Z</time></trkpt><trkpt lat="44.42374096806278" lon="10.80541393731251"><ele>685.0</ele><time>2026-05-01T10:52:17.001Z</time></trkpt><trkpt lat="44.42380562991448" lon="10.805587799539731"><ele>685.0</ele><time>2026-05-01T10:52:18.001Z</time></trkpt><trkpt lat="44.42385051630326" lon="10.805802870272219"><ele>679.3333333333334</ele><time>2026-05-01T10:52:19.001Z</time></trkpt><trkpt lat="44.42389901478893" lon="10.806049673281624"><ele>673.6666666666666</ele><time>2026-05-01T10:52:20.001Z</time></trkpt><trkpt lat="44.423951646620814" lon="10.806309452340725"><ele>668.0</ele><time>2026-05-01T10:52:21.001Z</time></trkpt><trkpt lat="44.424031259764355" lon="10.806553605502408"><ele>668.0</ele><time>2026-05-01T10:52:22.001Z</time></trkpt><trkpt lat="44.424155875698666" lon="10.806785355029646"><ele>668.0</ele><time>2026-05-01T10:52:23.001Z</time></trkpt><trkpt lat="44.424307822486824" lon="10.80699406904921"><ele>668.0</ele><time>2026-05-01T10:52:24.001Z</time></trkpt><trkpt lat="44.42447345281567" lon="10.80719267768469"><ele>664.5</ele><time>2026-05-01T10:52:25.001Z</time></trkpt><trkpt lat="44.42465122781209" lon="10.80737866916874"><ele>661.0</ele><time>2026-05-01T10:52:26.001Z</time></trkpt><trkpt lat="44.424842476450365" lon="10.80758072060886"><ele>660.5</ele><time>2026-05-01T10:52:27.001Z</time></trkpt><trkpt lat="44.42502692548352" lon="10.807782124693833"><ele>660.0</ele><time>2026-05-01T10:52:28.001Z</time></trkpt><trkpt lat="44.42521214260487" lon="10.807995776955087"><ele>660.0</ele><time>2026-05-01T10:52:29.001Z</time></trkpt><trkpt lat="44.42540291723484" lon="10.808214347325793"><ele>660.0</ele><time>2026-05-01T10:52:30.001Z</time></trkpt><trkpt lat="44.425596475205175" lon="10.808438099438623"><ele>655.0</ele><time>2026-05-01T10:52:31.001Z</time></trkpt><trkpt lat="44.42579007050391" lon="10.808658556250007"><ele>650.0</ele><time>2026-05-01T10:52:32.001Z</time></trkpt><trkpt lat="44.425985602885675" lon="10.808884521234974"><ele>650.0</ele><time>2026-05-01T10:52:33.001Z</time></trkpt><trkpt lat="44.42618168305751" lon="10.80911345764537"><ele>650.0</ele><time>2026-05-01T10:52:34.001Z</time></trkpt><trkpt lat="44.42636899700764" lon="10.80932845166009"><ele>648.6666666666666</ele><time>2026-05-01T10:52:35.001Z</time></trkpt><trkpt lat="44.42654663311364" lon="10.809527716799867"><ele>647.3333333333334</ele><time>2026-05-01T10:52:36.001Z</time></trkpt><trkpt lat="44.42670228109643" lon="10.80971028259141"><ele>646.0</ele><time>2026-05-01T10:52:37.001Z</time></trkpt><trkpt lat="44.42684957265626" lon="10.809877581717792"><ele>646.0</ele><time>2026-05-01T10:52:38Z</time></trkpt><trkpt lat="44.42698788282367" lon="10.810033292075353"><ele>646.0</ele><time>2026-05-01T10:52:39Z</time></trkpt><trkpt lat="44.427126843849734" lon="10.810196743155746"><ele>646.0</ele><time>2026-05-01T10:52:40Z</time></trkpt><trkpt lat="44.427268463282566" lon="10.810368946990117"><ele>646.3333333333334</ele><time>2026-05-01T10:52:41Z</time></trkpt><trkpt lat="44.42740910109011" lon="10.810539340935042"><ele>646.6666666666666</ele><time>2026-05-01T10:52:42Z</time></trkpt><trkpt lat="44.42755665393953" lon="10.810709003894965"><ele>647.0</ele><time>2026-05-01T10:52:43Z</time></trkpt><trkpt lat="44.42770464022605" lon="10.810867598041227"><ele>646.3333333333333</ele><time>2026-05-01T10:52:44Z</time></trkpt><trkpt lat="44.42784793542579" lon="10.810997374184717"><ele>645.6666666666666</ele><time>2026-05-01T10:52:45Z</time></trkpt><trkpt lat="44.42799012807122" lon="10.811089685412993"><ele>645.0</ele><time>2026-05-01T10:52:46Z</time></trkpt><trkpt lat="44.428148815425295" lon="10.81116338636846"><ele>645.0</ele><time>2026-05-01T10:52:47Z</time></trkpt><trkpt lat="44.42832269335675" lon="10.811213032945956"><ele>645.0</ele><time>2026-05-01T10:52:48Z</time></trkpt><trkpt lat="44.428498266135065" lon="10.811231465198665"><ele>645.0</ele><time>2026-05-01T10:52:49Z</time></trkpt><trkpt lat="44.428675345853705" lon="10.811223627066113"><ele>643.25</ele><time>2026-05-01T10:52:50Z</time></trkpt><trkpt lat="44.4288307707971" lon="10.811195362118196"><ele>641.5</ele><time>2026-05-01T10:52:51Z</time></trkpt><trkpt lat="44.42896248403131" lon="10.811204720011718"><ele>639.75</ele><time>2026-05-01T10:52:52Z</time></trkpt><trkpt lat="44.42908324836258" lon="10.811257255120893"><ele>638.0</ele><time>2026-05-01T10:52:53Z</time></trkpt><trkpt lat="44.42919208094015" lon="10.811324410671334"><ele>638.0</ele><time>2026-05-01T10:52:54Z</time></trkpt><trkpt lat="44.42928190449969" lon="10.811408271088863"><ele>638.0</ele><time>2026-05-01T10:52:55Z</time></trkpt><trkpt lat="44.4293596865049" lon="10.811506992487386"><ele>638.0</ele><time>2026-05-01T10:52:56Z</time></trkpt><trkpt lat="44.42940219887764" lon="10.81162960299214"><ele>638.0</ele><time>2026-05-01T10:52:57Z</time></trkpt><trkpt lat="44.42939018624998" lon="10.811805596858235"><ele>638.0</ele><time>2026-05-01T10:52:58Z</time></trkpt><trkpt lat="44.42939385564862" lon="10.812009333231524"><ele>637.25</ele><time>2026-05-01T10:52:59Z</time></trkpt><trkpt lat="44.42938030481546" lon="10.812243118549624"><ele>636.5</ele><time>2026-05-01T10:53:00Z</time></trkpt><trkpt lat="44.4293906894982" lon="10.81243500035843"><ele>635.75</ele><time>2026-05-01T10:53:01Z</time></trkpt><trkpt lat="44.42943940234922" lon="10.812612933552757"><ele>635.0</ele><time>2026-05-01T10:53:02Z</time></trkpt><trkpt lat="44.42952881104597" lon="10.812771011576672"><ele>633.25</ele><time>2026-05-01T10:53:03Z</time></trkpt><trkpt lat="44.42963093907982" lon="10.812922913556008"><ele>631.5</ele><time>2026-05-01T10:53:04Z</time></trkpt><trkpt lat="44.42974015663573" lon="10.813057023209884"><ele>629.75</ele><time>2026-05-01T10:53:05Z</time></trkpt><trkpt lat="44.429843371561475" lon="10.813164352228268"><ele>628.0</ele><time>2026-05-01T10:53:06Z</time></trkpt><trkpt lat="44.42994318877399" lon="10.813226253252752"><ele>628.0</ele><time>2026-05-01T10:53:07Z</time></trkpt><trkpt lat="44.43004495731171" lon="10.813230786910893"><ele>628.0</ele><time>2026-05-01T10:53:08Z</time></trkpt><trkpt lat="44.430115856580336" lon="10.813199051659389"><ele>628.0</ele><time>2026-05-01T10:53:09Z</time></trkpt><trkpt lat="44.43017866575317" lon="10.813113203371456"><ele>628.0</ele><time>2026-05-01T10:53:10Z</time></trkpt><trkpt lat="44.43021974178011" lon="10.812957528374332"><ele>628.0</ele><time>2026-05-01T10:53:11Z</time></trkpt><trkpt lat="44.43025670895626" lon="10.812760868242513"><ele>625.0</ele><time>2026-05-01T10:53:12Z</time></trkpt><trkpt lat="44.43028588132838" lon="10.812539202328082"><ele>622.0</ele><time>2026-05-01T10:53:13Z</time></trkpt><trkpt lat="44.43031449882364" lon="10.812305233449525"><ele>619.0</ele><time>2026-05-01T10:53:14Z</time></trkpt><trkpt lat="44.430347252510046" lon="10.812092863909708"><ele>619.0</ele><time>2026-05-01T10:53:15Z</time></trkpt><trkpt lat="44.430377194001785" lon="10.811918440462199"><ele>619.0</ele><time>2026-05-01T10:53:16Z</time></trkpt><trkpt lat="44.4303955854644" lon="10.811768963128682"><ele>619.0</ele><time>2026-05-01T10:53:17Z</time></trkpt><trkpt lat="44.4304149269166" lon="10.811664937226052"><ele>619.0</ele><time>2026-05-01T10:53:18Z</time></trkpt><trkpt lat="44.430470055156064" lon="10.811579316501073"><ele>619.0</ele><time>2026-05-01T10:53:20Z</time></trkpt><trkpt lat="44.4305932230703" lon="10.811688742588746"><ele>613.75</ele><time>2026-05-01T10:53:22Z</time></trkpt><trkpt lat="44.43065453197273" lon="10.81183747297042"><ele>608.5</ele><time>2026-05-01T10:53:23Z</time></trkpt><trkpt lat="44.430703020053045" lon="10.812041925353713"><ele>603.25</ele><time>2026-05-01T10:53:24Z</time></trkpt><trkpt lat="44.43074757811697" lon="10.812268465456677"><ele>598.0</ele><time>2026-05-01T10:53:25Z</time></trkpt><trkpt lat="44.43080414206694" lon="10.812497689904221"><ele>599.8</ele><time>2026-05-01T10:53:26Z</time></trkpt><trkpt lat="44.43085381994559" lon="10.812684019022532"><ele>601.5999999999999</ele><time>2026-05-01T10:53:27Z</time></trkpt><trkpt lat="44.43089567637305" lon="10.812826460675419"><ele>603.4000000000001</ele><time>2026-05-01T10:53:28Z</time></trkpt><trkpt lat="44.430925553211786" lon="10.81293554560122"><ele>605.2</ele><time>2026-05-01T10:53:29Z</time></trkpt><trkpt lat="44.43094891439094" lon="10.813061054602517"><ele>607.0</ele><time>2026-05-01T10:53:31Z</time></trkpt><trkpt lat="44.43099669085172" lon="10.813175349113775"><ele>607.0</ele><time>2026-05-01T10:53:38.001Z</time></trkpt><trkpt lat="44.43105339515538" lon="10.813305926635339"><ele>607.0</ele><time>2026-05-01T10:53:39.001Z</time></trkpt><trkpt lat="44.431116067171644" lon="10.813467926858928"><ele>607.0</ele><time>2026-05-01T10:53:40.001Z</time></trkpt><trkpt lat="44.431193631552276" lon="10.813611154015186"><ele>607.0</ele><time>2026-05-01T10:53:41.001Z</time></trkpt><trkpt lat="44.43130510587161" lon="10.813747326334397"><ele>606.6666666666667</ele><time>2026-05-01T10:53:42.001Z</time></trkpt><trkpt lat="44.43145544021534" lon="10.81386235393371"><ele>606.3333333333334</ele><time>2026-05-01T10:53:43.001Z</time></trkpt><trkpt lat="44.43161936118142" lon="10.813978235627003"><ele>606.0</ele><time>2026-05-01T10:53:44.001Z</time></trkpt><trkpt lat="44.431787411131765" lon="10.81409315039756"><ele>606.0</ele><time>2026-05-01T10:53:45.001Z</time></trkpt><trkpt lat="44.43195770856735" lon="10.814200405133189"><ele>606.0</ele><time>2026-05-01T10:53:46.001Z</time></trkpt><trkpt lat="44.43213138038886" lon="10.81427349803882"><ele>606.0</ele><time>2026-05-01T10:53:47.001Z</time></trkpt><trkpt lat="44.43228492658022" lon="10.814334759486384"><ele>606.5</ele><time>2026-05-01T10:53:48.001Z</time></trkpt><trkpt lat="44.43242298820652" lon="10.814398575791458"><ele>607.0</ele><time>2026-05-01T10:53:49.001Z</time></trkpt><trkpt lat="44.43255251165242" lon="10.814477917392981"><ele>607.5</ele><time>2026-05-01T10:53:50.001Z</time></trkpt><trkpt lat="44.4326940676178" lon="10.814543278389289"><ele>608.0</ele><time>2026-05-01T10:53:51.001Z</time></trkpt><trkpt lat="44.432845131987364" lon="10.814551415111271"><ele>601.75</ele><time>2026-05-01T10:53:52.001Z</time></trkpt><trkpt lat="44.43301761788994" lon="10.814535553050888"><ele>595.5</ele><time>2026-05-01T10:53:53.001Z</time></trkpt><trkpt lat="44.43316859419794" lon="10.814529015831274"><ele>589.25</ele><time>2026-05-01T10:53:54.001Z</time></trkpt><trkpt lat="44.4332852870101" lon="10.814535361644987"><ele>583.0</ele><time>2026-05-01T10:53:55.001Z</time></trkpt><trkpt lat="44.43337181403042" lon="10.814599142400477"><ele>583.0</ele><time>2026-05-01T10:53:56.001Z</time></trkpt><trkpt lat="44.43344587628849" lon="10.814713373104398"><ele>583.0</ele><time>2026-05-01T10:53:57.001Z</time></trkpt><trkpt lat="44.43348468874027" lon="10.814891321575486"><ele>583.0</ele><time>2026-05-01T10:53:58.001Z</time></trkpt><trkpt lat="44.43350053488984" lon="10.815118635701822"><ele>583.0</ele><time>2026-05-01T10:53:59.001Z</time></trkpt><trkpt lat="44.43348382242973" lon="10.815352780398136"><ele>582.6666666666667</ele><time>2026-05-01T10:54:00.001Z</time></trkpt><trkpt lat="44.43343693304705" lon="10.815584527468241"><ele>582.3333333333334</ele><time>2026-05-01T10:54:01.001Z</time></trkpt><trkpt lat="44.43337527889171" lon="10.815791041094247"><ele>582.0</ele><time>2026-05-01T10:54:02.001Z</time></trkpt><trkpt lat="44.43332973852872" lon="10.815971928366062"><ele>582.3333333333334</ele><time>2026-05-01T10:54:03.001Z</time></trkpt><trkpt lat="44.433309588584365" lon="10.816169362064551"><ele>582.6666666666667</ele><time>2026-05-01T10:54:04.001Z</time></trkpt><trkpt lat="44.43332704556899" lon="10.81639924537087"><ele>583.0</ele><time>2026-05-01T10:54:05.001Z</time></trkpt><trkpt lat="44.433382131985" lon="10.816644339122542"><ele>584.6666666666667</ele><time>2026-05-01T10:54:06.001Z</time></trkpt><trkpt lat="44.43342618451844" lon="10.816884354017189"><ele>586.3333333333334</ele><time>2026-05-01T10:54:07.001Z</time></trkpt><trkpt lat="44.433477160731265" lon="10.817097196301477"><ele>588.0</ele><time>2026-05-01T10:54:08.001Z</time></trkpt><trkpt lat="44.4335614869267" lon="10.817318655436328"><ele>588.0</ele><time>2026-05-01T10:54:09.001Z</time></trkpt><trkpt lat="44.43364940822378" lon="10.817535156241163"><ele>588.0</ele><time>2026-05-01T10:54:10.001Z</time></trkpt><trkpt lat="44.43372841809982" lon="10.817723425720523"><ele>588.0</ele><time>2026-05-01T10:54:11.001Z</time></trkpt><trkpt lat="44.433807992520784" lon="10.817932499046762"><ele>586.0</ele><time>2026-05-01T10:54:12.001Z</time></trkpt><trkpt lat="44.433858051584586" lon="10.818167417698952"><ele>584.0</ele><time>2026-05-01T10:54:13.001Z</time></trkpt><trkpt lat="44.433904660925315" lon="10.818376868439021"><ele>582.0</ele><time>2026-05-01T10:54:14.001Z</time></trkpt><trkpt lat="44.43398021060131" lon="10.818553377785683"><ele>582.0</ele><time>2026-05-01T10:54:15.001Z</time></trkpt><trkpt lat="44.434100799961534" lon="10.81867351292961"><ele>582.0</ele><time>2026-05-01T10:54:16.001Z</time></trkpt><trkpt lat="44.43425724348896" lon="10.818754644091824"><ele>582.0</ele><time>2026-05-01T10:54:17.001Z</time></trkpt><trkpt lat="44.43443301171723" lon="10.818825007999498"><ele>582.0</ele><time>2026-05-01T10:54:18.001Z</time></trkpt><trkpt lat="44.43457474070316" lon="10.818938186890142"><ele>582.0</ele><time>2026-05-01T10:54:19.001Z</time></trkpt><trkpt lat="44.43468791544638" lon="10.81906331375822"><ele>582.0</ele><time>2026-05-01T10:54:20.001Z</time></trkpt><trkpt lat="44.43476625207019" lon="10.819200457039894"><ele>582.0</ele><time>2026-05-01T10:54:21.001Z</time></trkpt><trkpt lat="44.43480526603422" lon="10.819381158188303"><ele>577.3333333333334</ele><time>2026-05-01T10:54:22.001Z</time></trkpt><trkpt lat="44.434846831339634" lon="10.819605883874866"><ele>572.6666666666667</ele><time>2026-05-01T10:54:23.001Z</time></trkpt><trkpt lat="44.4349034137117" lon="10.819844863309413"><ele>568.0</ele><time>2026-05-01T10:54:24.001Z</time></trkpt><trkpt lat="44.43501105654953" lon="10.820064115915592"><ele>575.3333333333334</ele><time>2026-05-01T10:54:25.001Z</time></trkpt><trkpt lat="44.435121790393225" lon="10.820246364057805"><ele>582.6666666666666</ele><time>2026-05-01T10:54:26.001Z</time></trkpt><trkpt lat="44.43523803614363" lon="10.820378344366615"><ele>590.0</ele><time>2026-05-01T10:54:27.001Z</time></trkpt><trkpt lat="44.435384525596035" lon="10.820463274354056"><ele>578.0</ele><time>2026-05-01T10:54:28.001Z</time></trkpt><trkpt lat="44.43556744378483" lon="10.820522097768151"><ele>566.0</ele><time>2026-05-01T10:54:29.001Z</time></trkpt><trkpt lat="44.43575211288781" lon="10.820595657073447"><ele>554.0</ele><time>2026-05-01T10:54:30.001Z</time></trkpt><trkpt lat="44.43592347645579" lon="10.820704099470529"><ele>554.0</ele><time>2026-05-01T10:54:31.001Z</time></trkpt><trkpt lat="44.43608980708304" lon="10.820836050221732"><ele>554.0</ele><time>2026-05-01T10:54:32.001Z</time></trkpt><trkpt lat="44.436262634211516" lon="10.820976901892285"><ele>554.0</ele><time>2026-05-01T10:54:33.001Z</time></trkpt><trkpt lat="44.43641311372591" lon="10.821069373967374"><ele>552.6666666666666</ele><time>2026-05-01T10:54:34.001Z</time></trkpt><trkpt lat="44.43656488432183" lon="10.821102278965027"><ele>551.3333333333334</ele><time>2026-05-01T10:54:35.001Z</time></trkpt><trkpt lat="44.436729002840075" lon="10.821049961598758"><ele>550.0</ele><time>2026-05-01T10:54:36.001Z</time></trkpt><trkpt lat="44.43690314170718" lon="10.821009723376772"><ele>547.75</ele><time>2026-05-01T10:54:37.001Z</time></trkpt><trkpt lat="44.43703728900157" lon="10.820972642362836"><ele>545.5</ele><time>2026-05-01T10:54:38.001Z</time></trkpt><trkpt lat="44.43715237744942" lon="10.82099866025458"><ele>543.25</ele><time>2026-05-01T10:54:39.001Z</time></trkpt><trkpt lat="44.437277577824396" lon="10.821097879313472"><ele>541.0</ele><time>2026-05-01T10:54:40.001Z</time></trkpt><trkpt lat="44.437413155726496" lon="10.821236213152034"><ele>540.0</ele><time>2026-05-01T10:54:41.001Z</time></trkpt><trkpt lat="44.43754586985258" lon="10.821410576982856"><ele>539.0</ele><time>2026-05-01T10:54:42.001Z</time></trkpt><trkpt lat="44.437658303339205" lon="10.821557853349685"><ele>538.0</ele><time>2026-05-01T10:54:43.001Z</time></trkpt><trkpt lat="44.437762424332334" lon="10.821636383208672"><ele>538.0</ele><time>2026-05-01T10:54:44Z</time></trkpt><trkpt lat="44.43786830728972" lon="10.821632479696573"><ele>538.0</ele><time>2026-05-01T10:54:45Z</time></trkpt><trkpt lat="44.43798575404488" lon="10.821557409480844"><ele>538.0</ele><time>2026-05-01T10:54:46Z</time></trkpt><trkpt lat="44.43812061184422" lon="10.821465726639294"><ele>538.0</ele><time>2026-05-01T10:54:47Z</time></trkpt><trkpt lat="44.4382732583753" lon="10.821350521893157"><ele>535.0</ele><time>2026-05-01T10:54:48Z</time></trkpt><trkpt lat="44.43844586044042" lon="10.82124125337527"><ele>532.0</ele><time>2026-05-01T10:54:49Z</time></trkpt><trkpt lat="44.438618243399674" lon="10.821180662064295"><ele>529.0</ele><time>2026-05-01T10:54:50Z</time></trkpt><trkpt lat="44.43875500391921" lon="10.82114206110851"><ele>527.4</ele><time>2026-05-01T10:54:51Z</time></trkpt><trkpt lat="44.43885930329344" lon="10.821121310088293"><ele>525.8</ele><time>2026-05-01T10:54:52Z</time></trkpt><trkpt lat="44.43895371496496" lon="10.82113752265215"><ele>524.2</ele><time>2026-05-01T10:54:53Z</time></trkpt><trkpt lat="44.43903579850042" lon="10.821216181721029"><ele>522.6</ele><time>2026-05-01T10:54:54Z</time></trkpt><trkpt lat="44.43910386812464" lon="10.82135111176596"><ele>521.0</ele><time>2026-05-01T10:54:55Z</time></trkpt><trkpt lat="44.43914143868262" lon="10.821539800169766"><ele>521.0</ele><time>2026-05-01T10:54:56Z</time></trkpt><trkpt lat="44.43915000765947" lon="10.821755837641014"><ele>521.0</ele><time>2026-05-01T10:54:57Z</time></trkpt><trkpt lat="44.43915635760911" lon="10.821915547424773"><ele>521.0</ele><time>2026-05-01T10:54:58Z</time></trkpt><trkpt lat="44.439164092354666" lon="10.822030964471946"><ele>521.0</ele><time>2026-05-01T10:54:59Z</time></trkpt><trkpt lat="44.43917043613653" lon="10.82215593036865"><ele>521.0</ele><time>2026-05-01T10:55:01Z</time></trkpt><trkpt lat="44.43923567808555" lon="10.822213989300668"><ele>520.2</ele><time>2026-05-01T10:55:10Z</time></trkpt><trkpt lat="44.439320476332014" lon="10.822174727887395"><ele>519.4000000000001</ele><time>2026-05-01T10:55:11Z</time></trkpt><trkpt lat="44.43941668849647" lon="10.822113466876113"><ele>518.6</ele><time>2026-05-01T10:55:12Z</time></trkpt><trkpt lat="44.439523951843476" lon="10.822075951773996"><ele>517.8000000000001</ele><time>2026-05-01T10:55:13Z</time></trkpt><trkpt lat="44.43962997194536" lon="10.822041709122757"><ele>517.0</ele><time>2026-05-01T10:55:14Z</time></trkpt><trkpt lat="44.4397423429422" lon="10.822003839098715"><ele>515.25</ele><time>2026-05-01T10:55:15Z</time></trkpt><trkpt lat="44.43986442640404" lon="10.821979894528184"><ele>513.5</ele><time>2026-05-01T10:55:16Z</time></trkpt><trkpt lat="44.43998248250115" lon="10.821968238797973"><ele>511.75</ele><time>2026-05-01T10:55:17Z</time></trkpt><trkpt lat="44.44009975010373" lon="10.821938401338015"><ele>510.0</ele><time>2026-05-01T10:55:18Z</time></trkpt><trkpt lat="44.44020448647727" lon="10.82192073795781"><ele>510.0</ele><time>2026-05-01T10:55:19Z</time></trkpt><trkpt lat="44.44029075034422" lon="10.821899328410568"><ele>510.0</ele><time>2026-05-01T10:55:20Z</time></trkpt><trkpt lat="44.44035620537859" lon="10.82185013415974"><ele>510.0</ele><time>2026-05-01T10:55:21Z</time></trkpt><trkpt lat="44.440446190277726" lon="10.821833037903334"><ele>510.0</ele><time>2026-05-01T10:55:22Z</time></trkpt><trkpt lat="44.44053213333219" lon="10.821824198314799"><ele>510.0</ele><time>2026-05-01T10:55:23Z</time></trkpt><trkpt lat="44.44062637909642" lon="10.821834467059931"><ele>510.0</ele><time>2026-05-01T10:55:24Z</time></trkpt><trkpt lat="44.44073404399099" lon="10.821910497043088"><ele>510.0</ele><time>2026-05-01T10:55:25Z</time></trkpt><trkpt lat="44.44081585204179" lon="10.821994556710104"><ele>510.0</ele><time>2026-05-01T10:55:26Z</time></trkpt><trkpt lat="44.44091423802918" lon="10.82207794274363"><ele>510.0</ele><time>2026-05-01T10:55:27Z</time></trkpt><trkpt lat="44.44100924320928" lon="10.822195168464468"><ele>510.0</ele><time>2026-05-01T10:55:28Z</time></trkpt><trkpt lat="44.441096884397666" lon="10.822315377433103"><ele>510.0</ele><time>2026-05-01T10:55:29Z</time></trkpt><trkpt lat="44.441190579704326" lon="10.822469922449152"><ele>510.0</ele><time>2026-05-01T10:55:30Z</time></trkpt><trkpt lat="44.44129278795987" lon="10.82262806567649"><ele>510.0</ele><time>2026-05-01T10:55:31Z</time></trkpt><trkpt lat="44.44142985022741" lon="10.822768095558482"><ele>508.0</ele><time>2026-05-01T10:55:32Z</time></trkpt><trkpt lat="44.44159684360074" lon="10.822883392016939"><ele>506.0</ele><time>2026-05-01T10:55:33Z</time></trkpt><trkpt lat="44.44178705610517" lon="10.822956705698376"><ele>504.0</ele><time>2026-05-01T10:55:34Z</time></trkpt><trkpt lat="44.44196337326443" lon="10.82304804640518"><ele>506.33333333333337</ele><time>2026-05-01T10:55:35Z</time></trkpt><trkpt lat="44.442148024771114" lon="10.82316917962976"><ele>508.6666666666667</ele><time>2026-05-01T10:55:36Z</time></trkpt><trkpt lat="44.442316525267906" lon="10.823328246953444"><ele>511.0</ele><time>2026-05-01T10:55:37Z</time></trkpt><trkpt lat="44.44245549536258" lon="10.823477771929882"><ele>510.00000000000006</ele><time>2026-05-01T10:55:38Z</time></trkpt><trkpt lat="44.442574085665576" lon="10.823578400977096"><ele>509.0</ele><time>2026-05-01T10:55:39Z</time></trkpt><trkpt lat="44.442661677558995" lon="10.82364699882012"><ele>508.0</ele><time>2026-05-01T10:55:40Z</time></trkpt><trkpt lat="44.44272158752173" lon="10.823696394222287"><ele>507.0</ele><time>2026-05-01T10:55:41Z</time></trkpt><trkpt lat="44.44275258875676" lon="10.823777846343692"><ele>506.00000000000006</ele><time>2026-05-01T10:55:43Z</time></trkpt><trkpt lat="44.442715550726476" lon="10.823863629281497"><ele>505.0</ele><time>2026-05-01T10:55:46Z</time></trkpt><trkpt lat="44.442672380237305" lon="10.823975661785651"><ele>505.0</ele><time>2026-05-01T10:55:57Z</time></trkpt><trkpt lat="44.44261558835599" lon="10.823930781038401"><ele>505.0</ele><time>2026-05-01T10:56:01.001Z</time></trkpt><trkpt lat="44.44267911838635" lon="10.823881169702382"><ele>505.0</ele><time>2026-05-01T10:56:04.001Z</time></trkpt><trkpt lat="44.442763633249335" lon="10.823865905492001"><ele>505.0</ele><time>2026-05-01T10:56:12.001Z</time></trkpt></trkseg></trk></gpx>